<?xml version="1.0" encoding="UTF-8" standalone="no" ?>
<gpx xmlns="http://www.topografix.com/GPX/1/1" xmlns:xsi="http://www.w3.org/2001/XMLSchema-instance" xsi:schemaLocation="http://www.topografix.com/GPX/1/1 http://www.topografix.com/GPX/1/1/gpx.xsd" version="1.1" creator="VisuGPX - https://www.visugpx.com">
  <metadata>
    <name>2016-08-11 Traversée des Rochers de la Bade</name>
    <desc><![CDATA[Dans le sens Crévibert - Col de la Cochette. Sauvage, aérien]]></desc>
  </metadata>
  <trk>
    <name><![CDATA[2016-08-11 Rochers de la Bade]]></name>
    <trkseg>
      <trkpt lat="45.61655" lon="6.08694">
        <ele>906</ele>
        <time>2016-08-11T08:55:30Z</time>
      </trkpt>
      <trkpt lat="45.61655" lon="6.08685">
        <ele>906</ele>
        <time>2016-08-11T08:55:35Z</time>
      </trkpt>
      <trkpt lat="45.61653" lon="6.08677">
        <ele>908.156336055</ele>
        <time>2016-08-11T08:55:40Z</time>
      </trkpt>
      <trkpt lat="45.61657" lon="6.08672">
        <ele>908.156336055</ele>
        <time>2016-08-11T08:55:45Z</time>
      </trkpt>
      <trkpt lat="45.61664" lon="6.08663">
        <ele>911.229850563</ele>
        <time>2016-08-11T08:55:56Z</time>
      </trkpt>
      <trkpt lat="45.61667" lon="6.08655">
        <ele>911.229850563</ele>
        <time>2016-08-11T08:56:01Z</time>
      </trkpt>
      <trkpt lat="45.61672" lon="6.0865">
        <ele>916.299200268</ele>
        <time>2016-08-11T08:56:10Z</time>
      </trkpt>
      <trkpt lat="45.6168" lon="6.08638">
        <ele>922.335579444</ele>
        <time>2016-08-11T08:56:16Z</time>
      </trkpt>
      <trkpt lat="45.61686" lon="6.08628">
        <ele>927.603041615</ele>
        <time>2016-08-11T08:56:26Z</time>
      </trkpt>
      <trkpt lat="45.6169" lon="6.08621">
        <ele>927.603041615</ele>
        <time>2016-08-11T08:56:31Z</time>
      </trkpt>
      <trkpt lat="45.61696" lon="6.08602">
        <ele>933.214495867</ele>
        <time>2016-08-11T08:56:47Z</time>
      </trkpt>
      <trkpt lat="45.61695" lon="6.08594">
        <ele>933.214495867</ele>
        <time>2016-08-11T08:56:50Z</time>
      </trkpt>
      <trkpt lat="45.61696" lon="6.08579">
        <ele>937.46194468</ele>
        <time>2016-08-11T08:57:00Z</time>
      </trkpt>
      <trkpt lat="45.61697" lon="6.0857">
        <ele>937.46194468</ele>
        <time>2016-08-11T08:57:06Z</time>
      </trkpt>
      <trkpt lat="45.61701" lon="6.08557">
        <ele>940.81514848</ele>
        <time>2016-08-11T08:57:15Z</time>
      </trkpt>
      <trkpt lat="45.61702" lon="6.08549">
        <ele>940.81514848</ele>
        <time>2016-08-11T08:57:20Z</time>
      </trkpt>
      <trkpt lat="45.61701" lon="6.08531">
        <ele>944.271920598</ele>
        <time>2016-08-11T08:57:31Z</time>
      </trkpt>
      <trkpt lat="45.61702" lon="6.08525">
        <ele>944.271920598</ele>
        <time>2016-08-11T08:57:36Z</time>
      </trkpt>
      <trkpt lat="45.61706" lon="6.08535">
        <ele>947.234977547</ele>
        <time>2016-08-11T08:57:46Z</time>
      </trkpt>
      <trkpt lat="45.61707" lon="6.08539">
        <ele>947.234977547</ele>
        <time>2016-08-11T08:57:51Z</time>
      </trkpt>
      <trkpt lat="45.61711" lon="6.08553">
        <ele>949.388947268</ele>
        <time>2016-08-11T08:58:01Z</time>
      </trkpt>
      <trkpt lat="45.61714" lon="6.08557">
        <ele>949.388947268</ele>
        <time>2016-08-11T08:58:06Z</time>
      </trkpt>
      <trkpt lat="45.61716" lon="6.08566">
        <ele>950.812988635</ele>
        <time>2016-08-11T08:58:16Z</time>
      </trkpt>
      <trkpt lat="45.61717" lon="6.08572">
        <ele>950.812988635</ele>
        <time>2016-08-11T08:58:21Z</time>
      </trkpt>
      <trkpt lat="45.61719" lon="6.0858">
        <ele>951.606315821</ele>
        <time>2016-08-11T08:58:30Z</time>
      </trkpt>
      <trkpt lat="45.61722" lon="6.08584">
        <ele>951.606315821</ele>
        <time>2016-08-11T08:58:36Z</time>
      </trkpt>
      <trkpt lat="45.61726" lon="6.08591">
        <ele>952.377638645</ele>
        <time>2016-08-11T08:58:46Z</time>
      </trkpt>
      <trkpt lat="45.61728" lon="6.08594">
        <ele>952.377638645</ele>
        <time>2016-08-11T08:58:50Z</time>
      </trkpt>
      <trkpt lat="45.61726" lon="6.08605">
        <ele>953.184696905</ele>
        <time>2016-08-11T08:59:01Z</time>
      </trkpt>
      <trkpt lat="45.61725" lon="6.08611">
        <ele>953.184696905</ele>
        <time>2016-08-11T08:59:06Z</time>
      </trkpt>
      <trkpt lat="45.61725" lon="6.0862">
        <ele>953.908517707</ele>
        <time>2016-08-11T08:59:16Z</time>
      </trkpt>
      <trkpt lat="45.61726" lon="6.08623">
        <ele>953.908517707</ele>
        <time>2016-08-11T08:59:21Z</time>
      </trkpt>
      <trkpt lat="45.61726" lon="6.08632">
        <ele>954.436493764</ele>
        <time>2016-08-11T08:59:31Z</time>
      </trkpt>
      <trkpt lat="45.61727" lon="6.08633">
        <ele>954.436493764</ele>
        <time>2016-08-11T08:59:35Z</time>
      </trkpt>
      <trkpt lat="45.61728" lon="6.08648">
        <ele>955.470837296</ele>
        <time>2016-08-11T08:59:51Z</time>
      </trkpt>
      <trkpt lat="45.61728" lon="6.08652">
        <ele>955.470837296</ele>
        <time>2016-08-11T08:59:56Z</time>
      </trkpt>
      <trkpt lat="45.61727" lon="6.08661">
        <ele>955.470837296</ele>
        <time>2016-08-11T09:00:05Z</time>
      </trkpt>
      <trkpt lat="45.61731" lon="6.08665">
        <ele>955.5474001</ele>
        <time>2016-08-11T09:00:11Z</time>
      </trkpt>
      <trkpt lat="45.61736" lon="6.08667">
        <ele>955.5474001</ele>
        <time>2016-08-11T09:00:21Z</time>
      </trkpt>
      <trkpt lat="45.61736" lon="6.08672">
        <ele>955.5474001</ele>
        <time>2016-08-11T09:00:25Z</time>
      </trkpt>
      <trkpt lat="45.61738" lon="6.08679">
        <ele>956.054261308</ele>
        <time>2016-08-11T09:00:36Z</time>
      </trkpt>
      <trkpt lat="45.61741" lon="6.0868">
        <ele>956.054261308</ele>
        <time>2016-08-11T09:00:41Z</time>
      </trkpt>
      <trkpt lat="45.61739" lon="6.08682">
        <ele>956.054261308</ele>
        <time>2016-08-11T09:00:51Z</time>
      </trkpt>
      <trkpt lat="45.61733" lon="6.08688">
        <ele>955.87695225</ele>
        <time>2016-08-11T09:00:55Z</time>
      </trkpt>
      <trkpt lat="45.61728" lon="6.08697">
        <ele>955.87695225</ele>
        <time>2016-08-11T09:01:05Z</time>
      </trkpt>
      <trkpt lat="45.61728" lon="6.087">
        <ele>955.260325536</ele>
        <time>2016-08-11T09:01:10Z</time>
      </trkpt>
      <trkpt lat="45.61728" lon="6.08707">
        <ele>955.260325536</ele>
        <time>2016-08-11T09:01:21Z</time>
      </trkpt>
      <trkpt lat="45.61726" lon="6.08709">
        <ele>955.260325536</ele>
        <time>2016-08-11T09:01:25Z</time>
      </trkpt>
      <trkpt lat="45.61729" lon="6.08717">
        <ele>955.46418613</ele>
        <time>2016-08-11T09:01:36Z</time>
      </trkpt>
      <trkpt lat="45.61731" lon="6.08722">
        <ele>955.46418613</ele>
        <time>2016-08-11T09:01:41Z</time>
      </trkpt>
      <trkpt lat="45.61734" lon="6.0873">
        <ele>954.777836773</ele>
        <time>2016-08-11T09:01:50Z</time>
      </trkpt>
      <trkpt lat="45.61736" lon="6.08734">
        <ele>954.777836773</ele>
        <time>2016-08-11T09:01:55Z</time>
      </trkpt>
      <trkpt lat="45.61737" lon="6.08744">
        <ele>954.905193977</ele>
        <time>2016-08-11T09:02:06Z</time>
      </trkpt>
      <trkpt lat="45.61737" lon="6.08746">
        <ele>954.905193977</ele>
        <time>2016-08-11T09:02:10Z</time>
      </trkpt>
      <trkpt lat="45.61736" lon="6.0875">
        <ele>954.905193977</ele>
        <time>2016-08-11T09:02:26Z</time>
      </trkpt>
      <trkpt lat="45.61736" lon="6.0875">
        <ele>954.905193977</ele>
        <time>2016-08-11T09:02:31Z</time>
      </trkpt>
      <trkpt lat="45.61736" lon="6.0875">
        <ele>954.905193977</ele>
        <time>2016-08-11T09:02:41Z</time>
      </trkpt>
      <trkpt lat="45.61736" lon="6.0875">
        <ele>954.905193977</ele>
        <time>2016-08-11T09:02:45Z</time>
      </trkpt>
      <trkpt lat="45.6173" lon="6.08762">
        <ele>956.481520344</ele>
        <time>2016-08-11T09:02:56Z</time>
      </trkpt>
      <trkpt lat="45.61728" lon="6.08769">
        <ele>956.481520344</ele>
        <time>2016-08-11T09:03:01Z</time>
      </trkpt>
      <trkpt lat="45.61726" lon="6.08777">
        <ele>957.934944606</ele>
        <time>2016-08-11T09:03:11Z</time>
      </trkpt>
      <trkpt lat="45.61726" lon="6.08779">
        <ele>957.934944606</ele>
        <time>2016-08-11T09:03:16Z</time>
      </trkpt>
      <trkpt lat="45.61725" lon="6.08786">
        <ele>957.934944606</ele>
        <time>2016-08-11T09:03:26Z</time>
      </trkpt>
      <trkpt lat="45.61722" lon="6.08794">
        <ele>960.828730993</ele>
        <time>2016-08-11T09:03:31Z</time>
      </trkpt>
      <trkpt lat="45.61722" lon="6.08799">
        <ele>960.828730993</ele>
        <time>2016-08-11T09:03:41Z</time>
      </trkpt>
      <trkpt lat="45.61721" lon="6.088">
        <ele>960.828730993</ele>
        <time>2016-08-11T09:03:46Z</time>
      </trkpt>
      <trkpt lat="45.61722" lon="6.08802">
        <ele>960.828730993</ele>
        <time>2016-08-11T09:03:55Z</time>
      </trkpt>
      <trkpt lat="45.61723" lon="6.08804">
        <ele>960.828730993</ele>
        <time>2016-08-11T09:04:01Z</time>
      </trkpt>
      <trkpt lat="45.61723" lon="6.08814">
        <ele>965.168946492</ele>
        <time>2016-08-11T09:04:16Z</time>
      </trkpt>
      <trkpt lat="45.61725" lon="6.08818">
        <ele>965.168946492</ele>
        <time>2016-08-11T09:04:21Z</time>
      </trkpt>
      <trkpt lat="45.61726" lon="6.08826">
        <ele>969.294416348</ele>
        <time>2016-08-11T09:04:31Z</time>
      </trkpt>
      <trkpt lat="45.61727" lon="6.08829">
        <ele>969.294416348</ele>
        <time>2016-08-11T09:04:36Z</time>
      </trkpt>
      <trkpt lat="45.6173" lon="6.08836">
        <ele>969.294416348</ele>
        <time>2016-08-11T09:04:46Z</time>
      </trkpt>
      <trkpt lat="45.6173" lon="6.08836">
        <ele>969.294416348</ele>
        <time>2016-08-11T09:04:51Z</time>
      </trkpt>
      <trkpt lat="45.6173" lon="6.08842">
        <ele>973.082024865</ele>
        <time>2016-08-11T09:05:01Z</time>
      </trkpt>
      <trkpt lat="45.61731" lon="6.08843">
        <ele>973.082024865</ele>
        <time>2016-08-11T09:05:06Z</time>
      </trkpt>
      <trkpt lat="45.61732" lon="6.08855">
        <ele>977.110701955</ele>
        <time>2016-08-11T09:05:16Z</time>
      </trkpt>
      <trkpt lat="45.61731" lon="6.08856">
        <ele>977.110701955</ele>
        <time>2016-08-11T09:05:21Z</time>
      </trkpt>
      <trkpt lat="45.6173" lon="6.08858">
        <ele>977.110701955</ele>
        <time>2016-08-11T09:05:31Z</time>
      </trkpt>
      <trkpt lat="45.6173" lon="6.08861">
        <ele>977.110701955</ele>
        <time>2016-08-11T09:05:36Z</time>
      </trkpt>
      <trkpt lat="45.61726" lon="6.08872">
        <ele>980.804893339</ele>
        <time>2016-08-11T09:05:45Z</time>
      </trkpt>
      <trkpt lat="45.61726" lon="6.08875">
        <ele>980.804893339</ele>
        <time>2016-08-11T09:05:51Z</time>
      </trkpt>
      <trkpt lat="45.61726" lon="6.08878">
        <ele>980.804893339</ele>
        <time>2016-08-11T09:06:00Z</time>
      </trkpt>
      <trkpt lat="45.61728" lon="6.0888">
        <ele>980.804893339</ele>
        <time>2016-08-11T09:06:05Z</time>
      </trkpt>
      <trkpt lat="45.61731" lon="6.08882">
        <ele>983.906383772</ele>
        <time>2016-08-11T09:06:16Z</time>
      </trkpt>
      <trkpt lat="45.61731" lon="6.08882">
        <ele>983.906383772</ele>
        <time>2016-08-11T09:06:20Z</time>
      </trkpt>
      <trkpt lat="45.61732" lon="6.08882">
        <ele>983.906383772</ele>
        <time>2016-08-11T09:06:25Z</time>
      </trkpt>
      <trkpt lat="45.61732" lon="6.08881">
        <ele>983.906383772</ele>
        <time>2016-08-11T09:06:30Z</time>
      </trkpt>
      <trkpt lat="45.61734" lon="6.08882">
        <ele>983.906383772</ele>
        <time>2016-08-11T09:06:35Z</time>
      </trkpt>
      <trkpt lat="45.61736" lon="6.08881">
        <ele>983.906383772</ele>
        <time>2016-08-11T09:06:46Z</time>
      </trkpt>
      <trkpt lat="45.61736" lon="6.08883">
        <ele>983.906383772</ele>
        <time>2016-08-11T09:06:50Z</time>
      </trkpt>
      <trkpt lat="45.61738" lon="6.08885">
        <ele>983.906383772</ele>
        <time>2016-08-11T09:06:55Z</time>
      </trkpt>
      <trkpt lat="45.61744" lon="6.08884">
        <ele>986.729954755</ele>
        <time>2016-08-11T09:07:06Z</time>
      </trkpt>
      <trkpt lat="45.61745" lon="6.08886">
        <ele>986.729954755</ele>
        <time>2016-08-11T09:07:10Z</time>
      </trkpt>
      <trkpt lat="45.61743" lon="6.08892">
        <ele>986.729954755</ele>
        <time>2016-08-11T09:07:21Z</time>
      </trkpt>
      <trkpt lat="45.61741" lon="6.08896">
        <ele>990.551796021</ele>
        <time>2016-08-11T09:07:26Z</time>
      </trkpt>
      <trkpt lat="45.61738" lon="6.08904">
        <ele>990.551796021</ele>
        <time>2016-08-11T09:07:36Z</time>
      </trkpt>
      <trkpt lat="45.61741" lon="6.08909">
        <ele>994.321905029</ele>
        <time>2016-08-11T09:07:41Z</time>
      </trkpt>
      <trkpt lat="45.61742" lon="6.08911">
        <ele>994.321905029</ele>
        <time>2016-08-11T09:07:51Z</time>
      </trkpt>
      <trkpt lat="45.61742" lon="6.08916">
        <ele>994.321905029</ele>
        <time>2016-08-11T09:07:56Z</time>
      </trkpt>
      <trkpt lat="45.61742" lon="6.0892">
        <ele>994.321905029</ele>
        <time>2016-08-11T09:08:00Z</time>
      </trkpt>
      <trkpt lat="45.61743" lon="6.08923">
        <ele>997.613749396</ele>
        <time>2016-08-11T09:08:12Z</time>
      </trkpt>
      <trkpt lat="45.61746" lon="6.0892">
        <ele>997.613749396</ele>
        <time>2016-08-11T09:08:15Z</time>
      </trkpt>
      <trkpt lat="45.6175" lon="6.08919">
        <ele>997.613749396</ele>
        <time>2016-08-11T09:08:25Z</time>
      </trkpt>
      <trkpt lat="45.6175" lon="6.08918">
        <ele>997.613749396</ele>
        <time>2016-08-11T09:08:30Z</time>
      </trkpt>
      <trkpt lat="45.6175" lon="6.08918">
        <ele>997.613749396</ele>
        <time>2016-08-11T09:08:40Z</time>
      </trkpt>
      <trkpt lat="45.6175" lon="6.08918">
        <ele>997.613749396</ele>
        <time>2016-08-11T09:08:45Z</time>
      </trkpt>
      <trkpt lat="45.61756" lon="6.08919">
        <ele>1001.450759679</ele>
        <time>2016-08-11T09:08:55Z</time>
      </trkpt>
      <trkpt lat="45.61759" lon="6.0892">
        <ele>1001.450759679</ele>
        <time>2016-08-11T09:09:00Z</time>
      </trkpt>
      <trkpt lat="45.61766" lon="6.08922">
        <ele>1005.510375941</ele>
        <time>2016-08-11T09:09:10Z</time>
      </trkpt>
      <trkpt lat="45.61769" lon="6.08925">
        <ele>1005.510375941</ele>
        <time>2016-08-11T09:09:15Z</time>
      </trkpt>
      <trkpt lat="45.61768" lon="6.08931">
        <ele>1005.510375941</ele>
        <time>2016-08-11T09:09:25Z</time>
      </trkpt>
      <trkpt lat="45.61768" lon="6.08931">
        <ele>1005.510375941</ele>
        <time>2016-08-11T09:09:30Z</time>
      </trkpt>
      <trkpt lat="45.6177" lon="6.08932">
        <ele>1009.485335</ele>
        <time>2016-08-11T09:09:40Z</time>
      </trkpt>
      <trkpt lat="45.61769" lon="6.08933">
        <ele>1009.485335</ele>
        <time>2016-08-11T09:09:45Z</time>
      </trkpt>
      <trkpt lat="45.61768" lon="6.0894">
        <ele>1009.485335</ele>
        <time>2016-08-11T09:09:55Z</time>
      </trkpt>
      <trkpt lat="45.61774" lon="6.08938">
        <ele>1012.938425139</ele>
        <time>2016-08-11T09:10:00Z</time>
      </trkpt>
      <trkpt lat="45.61776" lon="6.08937">
        <ele>1012.938425139</ele>
        <time>2016-08-11T09:10:10Z</time>
      </trkpt>
      <trkpt lat="45.61776" lon="6.08937">
        <ele>1012.938425139</ele>
        <time>2016-08-11T09:10:16Z</time>
      </trkpt>
      <trkpt lat="45.61785" lon="6.08949">
        <ele>1016.190616294</ele>
        <time>2016-08-11T09:10:30Z</time>
      </trkpt>
      <trkpt lat="45.61785" lon="6.08954">
        <ele>1016.190616294</ele>
        <time>2016-08-11T09:10:41Z</time>
      </trkpt>
      <trkpt lat="45.61786" lon="6.08955">
        <ele>1016.190616294</ele>
        <time>2016-08-11T09:10:46Z</time>
      </trkpt>
      <trkpt lat="45.61786" lon="6.0896">
        <ele>1016.190616294</ele>
        <time>2016-08-11T09:10:50Z</time>
      </trkpt>
      <trkpt lat="45.6179" lon="6.08963">
        <ele>1018.367454106</ele>
        <time>2016-08-11T09:10:56Z</time>
      </trkpt>
      <trkpt lat="45.61788" lon="6.08963">
        <ele>1018.367454106</ele>
        <time>2016-08-11T09:11:01Z</time>
      </trkpt>
      <trkpt lat="45.61789" lon="6.08964">
        <ele>1018.367454106</ele>
        <time>2016-08-11T09:11:06Z</time>
      </trkpt>
      <trkpt lat="45.61789" lon="6.08963">
        <ele>1018.367454106</ele>
        <time>2016-08-11T09:11:15Z</time>
      </trkpt>
      <trkpt lat="45.61791" lon="6.08964">
        <ele>1018.367454106</ele>
        <time>2016-08-11T09:11:21Z</time>
      </trkpt>
      <trkpt lat="45.618" lon="6.08971">
        <ele>1020.724794045</ele>
        <time>2016-08-11T09:11:31Z</time>
      </trkpt>
      <trkpt lat="45.61801" lon="6.08972">
        <ele>1020.724794045</ele>
        <time>2016-08-11T09:11:35Z</time>
      </trkpt>
      <trkpt lat="45.61798" lon="6.08976">
        <ele>1020.724794045</ele>
        <time>2016-08-11T09:11:46Z</time>
      </trkpt>
      <trkpt lat="45.618" lon="6.08981">
        <ele>1023.40348219</ele>
        <time>2016-08-11T09:11:52Z</time>
      </trkpt>
      <trkpt lat="45.61804" lon="6.08983">
        <ele>1023.40348219</ele>
        <time>2016-08-11T09:12:01Z</time>
      </trkpt>
      <trkpt lat="45.61805" lon="6.08982">
        <ele>1023.40348219</ele>
        <time>2016-08-11T09:12:06Z</time>
      </trkpt>
      <trkpt lat="45.61809" lon="6.08986">
        <ele>1027.132311584</ele>
        <time>2016-08-11T09:12:15Z</time>
      </trkpt>
      <trkpt lat="45.61809" lon="6.08988">
        <ele>1027.132311584</ele>
        <time>2016-08-11T09:12:21Z</time>
      </trkpt>
      <trkpt lat="45.61812" lon="6.08999">
        <ele>1030.937491373</ele>
        <time>2016-08-11T09:12:31Z</time>
      </trkpt>
      <trkpt lat="45.61813" lon="6.09005">
        <ele>1030.937491373</ele>
        <time>2016-08-11T09:12:35Z</time>
      </trkpt>
      <trkpt lat="45.61812" lon="6.0902">
        <ele>1035.412285657</ele>
        <time>2016-08-11T09:12:46Z</time>
      </trkpt>
      <trkpt lat="45.61814" lon="6.09025">
        <ele>1035.412285657</ele>
        <time>2016-08-11T09:12:50Z</time>
      </trkpt>
      <trkpt lat="45.61816" lon="6.0904">
        <ele>1038.996013227</ele>
        <time>2016-08-11T09:13:01Z</time>
      </trkpt>
      <trkpt lat="45.61818" lon="6.09045">
        <ele>1038.996013227</ele>
        <time>2016-08-11T09:13:06Z</time>
      </trkpt>
      <trkpt lat="45.61817" lon="6.09049">
        <ele>1038.996013227</ele>
        <time>2016-08-11T09:13:21Z</time>
      </trkpt>
      <trkpt lat="45.61817" lon="6.09049">
        <ele>1038.996013227</ele>
        <time>2016-08-11T09:13:25Z</time>
      </trkpt>
      <trkpt lat="45.61821" lon="6.0906">
        <ele>1042.95890715</ele>
        <time>2016-08-11T09:13:35Z</time>
      </trkpt>
      <trkpt lat="45.61819" lon="6.09064">
        <ele>1042.95890715</ele>
        <time>2016-08-11T09:13:40Z</time>
      </trkpt>
      <trkpt lat="45.61821" lon="6.09067">
        <ele>1042.95890715</ele>
        <time>2016-08-11T09:13:50Z</time>
      </trkpt>
      <trkpt lat="45.61821" lon="6.09067">
        <ele>1042.95890715</ele>
        <time>2016-08-11T09:13:55Z</time>
      </trkpt>
      <trkpt lat="45.61814" lon="6.09075">
        <ele>1046.514666773</ele>
        <time>2016-08-11T09:14:05Z</time>
      </trkpt>
      <trkpt lat="45.61812" lon="6.09084">
        <ele>1046.514666773</ele>
        <time>2016-08-11T09:14:10Z</time>
      </trkpt>
      <trkpt lat="45.6181" lon="6.09084">
        <ele>1046.514666773</ele>
        <time>2016-08-11T09:14:20Z</time>
      </trkpt>
      <trkpt lat="45.61809" lon="6.09085">
        <ele>1049.240029969</ele>
        <time>2016-08-11T09:14:26Z</time>
      </trkpt>
      <trkpt lat="45.61807" lon="6.09092">
        <ele>1049.240029969</ele>
        <time>2016-08-11T09:14:36Z</time>
      </trkpt>
      <trkpt lat="45.61809" lon="6.09097">
        <ele>1051.352179902</ele>
        <time>2016-08-11T09:14:40Z</time>
      </trkpt>
      <trkpt lat="45.61807" lon="6.0911">
        <ele>1051.352179902</ele>
        <time>2016-08-11T09:14:50Z</time>
      </trkpt>
      <trkpt lat="45.61805" lon="6.09111">
        <ele>1054.109404971</ele>
        <time>2016-08-11T09:14:56Z</time>
      </trkpt>
      <trkpt lat="45.61803" lon="6.09111">
        <ele>1054.109404971</ele>
        <time>2016-08-11T09:15:06Z</time>
      </trkpt>
      <trkpt lat="45.61803" lon="6.09111">
        <ele>1054.109404971</ele>
        <time>2016-08-11T09:15:11Z</time>
      </trkpt>
      <trkpt lat="45.61796" lon="6.09116">
        <ele>1057.010518818</ele>
        <time>2016-08-11T09:15:21Z</time>
      </trkpt>
      <trkpt lat="45.61791" lon="6.09123">
        <ele>1057.010518818</ele>
        <time>2016-08-11T09:15:26Z</time>
      </trkpt>
      <trkpt lat="45.61788" lon="6.09129">
        <ele>1060.195326771</ele>
        <time>2016-08-11T09:15:31Z</time>
      </trkpt>
      <trkpt lat="45.61784" lon="6.09136">
        <ele>1060.195326771</ele>
        <time>2016-08-11T09:15:40Z</time>
      </trkpt>
      <trkpt lat="45.61782" lon="6.09136">
        <ele>1060.195326771</ele>
        <time>2016-08-11T09:15:45Z</time>
      </trkpt>
      <trkpt lat="45.61781" lon="6.0914">
        <ele>1063.790932567</ele>
        <time>2016-08-11T09:15:56Z</time>
      </trkpt>
      <trkpt lat="45.6178" lon="6.09145">
        <ele>1063.790932567</ele>
        <time>2016-08-11T09:16:01Z</time>
      </trkpt>
      <trkpt lat="45.61777" lon="6.09152">
        <ele>1067.164078529</ele>
        <time>2016-08-11T09:16:11Z</time>
      </trkpt>
      <trkpt lat="45.61772" lon="6.09152">
        <ele>1067.164078529</ele>
        <time>2016-08-11T09:16:16Z</time>
      </trkpt>
      <trkpt lat="45.61769" lon="6.09153">
        <ele>1067.164078529</ele>
        <time>2016-08-11T09:16:26Z</time>
      </trkpt>
      <trkpt lat="45.6177" lon="6.0916">
        <ele>1069.585956196</ele>
        <time>2016-08-11T09:16:31Z</time>
      </trkpt>
      <trkpt lat="45.61764" lon="6.09163">
        <ele>1069.585956196</ele>
        <time>2016-08-11T09:16:41Z</time>
      </trkpt>
      <trkpt lat="45.61761" lon="6.09163">
        <ele>1069.585956196</ele>
        <time>2016-08-11T09:16:45Z</time>
      </trkpt>
      <trkpt lat="45.61759" lon="6.09171">
        <ele>1071.136811044</ele>
        <time>2016-08-11T09:16:55Z</time>
      </trkpt>
      <trkpt lat="45.61759" lon="6.09177">
        <ele>1071.136811044</ele>
        <time>2016-08-11T09:17:01Z</time>
      </trkpt>
      <trkpt lat="45.6175" lon="6.09184">
        <ele>1072.487035196</ele>
        <time>2016-08-11T09:17:16Z</time>
      </trkpt>
      <trkpt lat="45.61748" lon="6.0919">
        <ele>1072.487035196</ele>
        <time>2016-08-11T09:17:20Z</time>
      </trkpt>
      <trkpt lat="45.61746" lon="6.09193">
        <ele>1072.487035196</ele>
        <time>2016-08-11T09:17:31Z</time>
      </trkpt>
      <trkpt lat="45.6174" lon="6.09189">
        <ele>1073.510026025</ele>
        <time>2016-08-11T09:17:36Z</time>
      </trkpt>
      <trkpt lat="45.61737" lon="6.09198">
        <ele>1073.510026025</ele>
        <time>2016-08-11T09:17:46Z</time>
      </trkpt>
      <trkpt lat="45.61733" lon="6.09197">
        <ele>1075.716664581</ele>
        <time>2016-08-11T09:18:00Z</time>
      </trkpt>
      <trkpt lat="45.6173" lon="6.09198">
        <ele>1075.716664581</ele>
        <time>2016-08-11T09:18:06Z</time>
      </trkpt>
      <trkpt lat="45.61726" lon="6.09203">
        <ele>1075.716664581</ele>
        <time>2016-08-11T09:18:15Z</time>
      </trkpt>
      <trkpt lat="45.61724" lon="6.09205">
        <ele>1077.980938574</ele>
        <time>2016-08-11T09:18:21Z</time>
      </trkpt>
      <trkpt lat="45.61722" lon="6.09207">
        <ele>1077.980938574</ele>
        <time>2016-08-11T09:18:30Z</time>
      </trkpt>
      <trkpt lat="45.6172" lon="6.09207">
        <ele>1077.980938574</ele>
        <time>2016-08-11T09:18:35Z</time>
      </trkpt>
      <trkpt lat="45.61713" lon="6.09209">
        <ele>1079.71207801</ele>
        <time>2016-08-11T09:18:45Z</time>
      </trkpt>
      <trkpt lat="45.61712" lon="6.09213">
        <ele>1079.71207801</ele>
        <time>2016-08-11T09:18:50Z</time>
      </trkpt>
      <trkpt lat="45.6171" lon="6.09216">
        <ele>1079.71207801</ele>
        <time>2016-08-11T09:18:55Z</time>
      </trkpt>
      <trkpt lat="45.61704" lon="6.09221">
        <ele>1082.277852581</ele>
        <time>2016-08-11T09:19:00Z</time>
      </trkpt>
      <trkpt lat="45.61697" lon="6.09229">
        <ele>1082.277852581</ele>
        <time>2016-08-11T09:19:10Z</time>
      </trkpt>
      <trkpt lat="45.61695" lon="6.09233">
        <ele>1083.122771586</ele>
        <time>2016-08-11T09:19:16Z</time>
      </trkpt>
      <trkpt lat="45.61685" lon="6.09231">
        <ele>1083.120820444</ele>
        <time>2016-08-11T09:19:25Z</time>
      </trkpt>
      <trkpt lat="45.61678" lon="6.0923">
        <ele>1083.120820444</ele>
        <time>2016-08-11T09:19:30Z</time>
      </trkpt>
      <trkpt lat="45.61673" lon="6.09231">
        <ele>1083.368303101</ele>
        <time>2016-08-11T09:19:41Z</time>
      </trkpt>
      <trkpt lat="45.6167" lon="6.09233">
        <ele>1083.368303101</ele>
        <time>2016-08-11T09:19:46Z</time>
      </trkpt>
      <trkpt lat="45.61671" lon="6.09238">
        <ele>1083.368303101</ele>
        <time>2016-08-11T09:19:55Z</time>
      </trkpt>
      <trkpt lat="45.61668" lon="6.09238">
        <ele>1083.998328799</ele>
        <time>2016-08-11T09:20:00Z</time>
      </trkpt>
      <trkpt lat="45.61667" lon="6.09237">
        <ele>1083.998328799</ele>
        <time>2016-08-11T09:20:11Z</time>
      </trkpt>
      <trkpt lat="45.61663" lon="6.09244">
        <ele>1083.998328799</ele>
        <time>2016-08-11T09:20:16Z</time>
      </trkpt>
      <trkpt lat="45.61658" lon="6.09246">
        <ele>1086.00502142</ele>
        <time>2016-08-11T09:20:26Z</time>
      </trkpt>
      <trkpt lat="45.61657" lon="6.09248">
        <ele>1086.00502142</ele>
        <time>2016-08-11T09:20:31Z</time>
      </trkpt>
      <trkpt lat="45.61651" lon="6.0926">
        <ele>1088.122111841</ele>
        <time>2016-08-11T09:20:46Z</time>
      </trkpt>
      <trkpt lat="45.61647" lon="6.09267">
        <ele>1088.122111841</ele>
        <time>2016-08-11T09:21:01Z</time>
      </trkpt>
      <trkpt lat="45.61646" lon="6.09267">
        <ele>1088.122111841</ele>
        <time>2016-08-11T09:21:05Z</time>
      </trkpt>
      <trkpt lat="45.61648" lon="6.09274">
        <ele>1090.633436669</ele>
        <time>2016-08-11T09:21:15Z</time>
      </trkpt>
      <trkpt lat="45.61646" lon="6.09277">
        <ele>1090.633436669</ele>
        <time>2016-08-11T09:21:21Z</time>
      </trkpt>
      <trkpt lat="45.61644" lon="6.09276">
        <ele>1090.633436669</ele>
        <time>2016-08-11T09:21:31Z</time>
      </trkpt>
      <trkpt lat="45.61643" lon="6.09279">
        <ele>1090.633436669</ele>
        <time>2016-08-11T09:21:35Z</time>
      </trkpt>
      <trkpt lat="45.61641" lon="6.09281">
        <ele>1094.379161539</ele>
        <time>2016-08-11T09:21:46Z</time>
      </trkpt>
      <trkpt lat="45.61641" lon="6.09281">
        <ele>1094.379161539</ele>
        <time>2016-08-11T09:21:50Z</time>
      </trkpt>
      <trkpt lat="45.61639" lon="6.09283">
        <ele>1094.379161539</ele>
        <time>2016-08-11T09:22:06Z</time>
      </trkpt>
      <trkpt lat="45.61637" lon="6.09286">
        <ele>1094.379161539</ele>
        <time>2016-08-11T09:22:11Z</time>
      </trkpt>
      <trkpt lat="45.61633" lon="6.09289">
        <ele>1097.96032168</ele>
        <time>2016-08-11T09:22:21Z</time>
      </trkpt>
      <trkpt lat="45.61632" lon="6.09289">
        <ele>1097.96032168</ele>
        <time>2016-08-11T09:22:26Z</time>
      </trkpt>
      <trkpt lat="45.61632" lon="6.09289">
        <ele>1097.96032168</ele>
        <time>2016-08-11T09:22:35Z</time>
      </trkpt>
      <trkpt lat="45.61627" lon="6.09299">
        <ele>1101.532381625</ele>
        <time>2016-08-11T09:22:41Z</time>
      </trkpt>
      <trkpt lat="45.61618" lon="6.09303">
        <ele>1101.532381625</ele>
        <time>2016-08-11T09:22:50Z</time>
      </trkpt>
      <trkpt lat="45.61614" lon="6.09308">
        <ele>1105.527810316</ele>
        <time>2016-08-11T09:22:56Z</time>
      </trkpt>
      <trkpt lat="45.6161" lon="6.09309">
        <ele>1105.527810316</ele>
        <time>2016-08-11T09:23:06Z</time>
      </trkpt>
      <trkpt lat="45.61608" lon="6.0931">
        <ele>1105.527810316</ele>
        <time>2016-08-11T09:23:10Z</time>
      </trkpt>
      <trkpt lat="45.61604" lon="6.09312">
        <ele>1108.467507127</ele>
        <time>2016-08-11T09:23:20Z</time>
      </trkpt>
      <trkpt lat="45.61602" lon="6.09317">
        <ele>1108.467507127</ele>
        <time>2016-08-11T09:23:25Z</time>
      </trkpt>
      <trkpt lat="45.61602" lon="6.0932">
        <ele>1108.467507127</ele>
        <time>2016-08-11T09:23:36Z</time>
      </trkpt>
      <trkpt lat="45.61602" lon="6.0932">
        <ele>1108.467507127</ele>
        <time>2016-08-11T09:23:40Z</time>
      </trkpt>
      <trkpt lat="45.61598" lon="6.09325">
        <ele>1111.15211807</ele>
        <time>2016-08-11T09:23:50Z</time>
      </trkpt>
      <trkpt lat="45.61595" lon="6.09329">
        <ele>1111.15211807</ele>
        <time>2016-08-11T09:23:56Z</time>
      </trkpt>
      <trkpt lat="45.61587" lon="6.09327">
        <ele>1114.466803785</ele>
        <time>2016-08-11T09:24:11Z</time>
      </trkpt>
      <trkpt lat="45.61581" lon="6.0933">
        <ele>1114.466803785</ele>
        <time>2016-08-11T09:24:16Z</time>
      </trkpt>
      <trkpt lat="45.61577" lon="6.09332">
        <ele>1117.353437502</ele>
        <time>2016-08-11T09:24:26Z</time>
      </trkpt>
      <trkpt lat="45.61574" lon="6.09333">
        <ele>1117.353437502</ele>
        <time>2016-08-11T09:24:31Z</time>
      </trkpt>
      <trkpt lat="45.61574" lon="6.0934">
        <ele>1117.353437502</ele>
        <time>2016-08-11T09:24:41Z</time>
      </trkpt>
      <trkpt lat="45.61573" lon="6.0934">
        <ele>1117.353437502</ele>
        <time>2016-08-11T09:24:46Z</time>
      </trkpt>
      <trkpt lat="45.61573" lon="6.09344">
        <ele>1120.708811638</ele>
        <time>2016-08-11T09:24:56Z</time>
      </trkpt>
      <trkpt lat="45.61575" lon="6.09347">
        <ele>1120.708811638</ele>
        <time>2016-08-11T09:25:01Z</time>
      </trkpt>
      <trkpt lat="45.61574" lon="6.09348">
        <ele>1120.708811638</ele>
        <time>2016-08-11T09:25:10Z</time>
      </trkpt>
      <trkpt lat="45.61574" lon="6.09349">
        <ele>1120.708811638</ele>
        <time>2016-08-11T09:25:15Z</time>
      </trkpt>
      <trkpt lat="45.61565" lon="6.09358">
        <ele>1124.208191052</ele>
        <time>2016-08-11T09:25:25Z</time>
      </trkpt>
      <trkpt lat="45.61562" lon="6.09363">
        <ele>1124.208191052</ele>
        <time>2016-08-11T09:25:30Z</time>
      </trkpt>
      <trkpt lat="45.61559" lon="6.09372">
        <ele>1127.262124429</ele>
        <time>2016-08-11T09:25:41Z</time>
      </trkpt>
      <trkpt lat="45.61557" lon="6.09373">
        <ele>1127.262124429</ele>
        <time>2016-08-11T09:25:46Z</time>
      </trkpt>
      <trkpt lat="45.61556" lon="6.09376">
        <ele>1127.262124429</ele>
        <time>2016-08-11T09:25:56Z</time>
      </trkpt>
      <trkpt lat="45.61554" lon="6.09378">
        <ele>1127.262124429</ele>
        <time>2016-08-11T09:26:01Z</time>
      </trkpt>
      <trkpt lat="45.61552" lon="6.09375">
        <ele>1130.33510106</ele>
        <time>2016-08-11T09:26:06Z</time>
      </trkpt>
      <trkpt lat="45.61546" lon="6.09371">
        <ele>1130.33510106</ele>
        <time>2016-08-11T09:26:11Z</time>
      </trkpt>
      <trkpt lat="45.61544" lon="6.09372">
        <ele>1130.33510106</ele>
        <time>2016-08-11T09:26:16Z</time>
      </trkpt>
      <trkpt lat="45.61541" lon="6.09387">
        <ele>1133.280581869</ele>
        <time>2016-08-11T09:26:31Z</time>
      </trkpt>
      <trkpt lat="45.61539" lon="6.09397">
        <ele>1133.280581869</ele>
        <time>2016-08-11T09:26:46Z</time>
      </trkpt>
      <trkpt lat="45.61539" lon="6.09397">
        <ele>1133.280581869</ele>
        <time>2016-08-11T09:26:51Z</time>
      </trkpt>
      <trkpt lat="45.61538" lon="6.09397">
        <ele>1133.280581869</ele>
        <time>2016-08-11T09:27:01Z</time>
      </trkpt>
      <trkpt lat="45.61537" lon="6.09393">
        <ele>1136.107316305</ele>
        <time>2016-08-11T09:27:06Z</time>
      </trkpt>
      <trkpt lat="45.61536" lon="6.09391">
        <ele>1136.107316305</ele>
        <time>2016-08-11T09:27:16Z</time>
      </trkpt>
      <trkpt lat="45.61536" lon="6.09391">
        <ele>1136.107316305</ele>
        <time>2016-08-11T09:27:21Z</time>
      </trkpt>
      <trkpt lat="45.61536" lon="6.09391">
        <ele>1136.107316305</ele>
        <time>2016-08-11T09:27:31Z</time>
      </trkpt>
      <trkpt lat="45.61536" lon="6.09391">
        <ele>1136.107316305</ele>
        <time>2016-08-11T09:27:35Z</time>
      </trkpt>
      <trkpt lat="45.61535" lon="6.09391">
        <ele>1136.107316305</ele>
        <time>2016-08-11T09:27:50Z</time>
      </trkpt>
      <trkpt lat="45.61534" lon="6.09393">
        <ele>1136.107316305</ele>
        <time>2016-08-11T09:27:55Z</time>
      </trkpt>
      <trkpt lat="45.61535" lon="6.09394">
        <ele>1136.107316305</ele>
        <time>2016-08-11T09:28:01Z</time>
      </trkpt>
      <trkpt lat="45.61535" lon="6.09394">
        <ele>1136.107316305</ele>
        <time>2016-08-11T09:28:05Z</time>
      </trkpt>
      <trkpt lat="45.61535" lon="6.09394">
        <ele>1136.107316305</ele>
        <time>2016-08-11T09:28:10Z</time>
      </trkpt>
      <trkpt lat="45.61535" lon="6.09394">
        <ele>1136.107316305</ele>
        <time>2016-08-11T09:28:15Z</time>
      </trkpt>
      <trkpt lat="45.61535" lon="6.09394">
        <ele>1136.107316305</ele>
        <time>2016-08-11T09:28:20Z</time>
      </trkpt>
      <trkpt lat="45.61535" lon="6.09394">
        <ele>1136.107316305</ele>
        <time>2016-08-11T09:28:25Z</time>
      </trkpt>
      <trkpt lat="45.61535" lon="6.09394">
        <ele>1136.107316305</ele>
        <time>2016-08-11T09:28:30Z</time>
      </trkpt>
      <trkpt lat="45.61535" lon="6.09394">
        <ele>1136.107316305</ele>
        <time>2016-08-11T09:28:35Z</time>
      </trkpt>
      <trkpt lat="45.61536" lon="6.09393">
        <ele>1136.107316305</ele>
        <time>2016-08-11T09:28:46Z</time>
      </trkpt>
      <trkpt lat="45.6154" lon="6.09393">
        <ele>1139.400445027</ele>
        <time>2016-08-11T09:28:51Z</time>
      </trkpt>
      <trkpt lat="45.61542" lon="6.09394">
        <ele>1139.400445027</ele>
        <time>2016-08-11T09:29:01Z</time>
      </trkpt>
      <trkpt lat="45.61543" lon="6.09393">
        <ele>1139.400445027</ele>
        <time>2016-08-11T09:29:06Z</time>
      </trkpt>
      <trkpt lat="45.61543" lon="6.09395">
        <ele>1139.400445027</ele>
        <time>2016-08-11T09:29:16Z</time>
      </trkpt>
      <trkpt lat="45.61541" lon="6.09399">
        <ele>1139.400445027</ele>
        <time>2016-08-11T09:29:20Z</time>
      </trkpt>
      <trkpt lat="45.61541" lon="6.09408">
        <ele>1142.547371044</ele>
        <time>2016-08-11T09:29:32Z</time>
      </trkpt>
      <trkpt lat="45.61541" lon="6.09411">
        <ele>1142.547371044</ele>
        <time>2016-08-11T09:29:35Z</time>
      </trkpt>
      <trkpt lat="45.61543" lon="6.09414">
        <ele>1142.547371044</ele>
        <time>2016-08-11T09:29:41Z</time>
      </trkpt>
      <trkpt lat="45.61545" lon="6.09418">
        <ele>1142.547371044</ele>
        <time>2016-08-11T09:29:50Z</time>
      </trkpt>
      <trkpt lat="45.61544" lon="6.09419">
        <ele>1145.125035619</ele>
        <time>2016-08-11T09:29:56Z</time>
      </trkpt>
      <trkpt lat="45.61545" lon="6.0942">
        <ele>1145.125035619</ele>
        <time>2016-08-11T09:30:06Z</time>
      </trkpt>
      <trkpt lat="45.61544" lon="6.0942">
        <ele>1145.125035619</ele>
        <time>2016-08-11T09:30:10Z</time>
      </trkpt>
      <trkpt lat="45.61547" lon="6.09422">
        <ele>1145.125035619</ele>
        <time>2016-08-11T09:30:20Z</time>
      </trkpt>
      <trkpt lat="45.61549" lon="6.09423">
        <ele>1145.125035619</ele>
        <time>2016-08-11T09:30:25Z</time>
      </trkpt>
      <trkpt lat="45.61551" lon="6.09424">
        <ele>1145.125035619</ele>
        <time>2016-08-11T09:30:35Z</time>
      </trkpt>
      <trkpt lat="45.61551" lon="6.09424">
        <ele>1145.125035619</ele>
        <time>2016-08-11T09:30:40Z</time>
      </trkpt>
      <trkpt lat="45.61551" lon="6.09424">
        <ele>1145.125035619</ele>
        <time>2016-08-11T09:30:50Z</time>
      </trkpt>
      <trkpt lat="45.61557" lon="6.09427">
        <ele>1149.338636391</ele>
        <time>2016-08-11T09:30:55Z</time>
      </trkpt>
      <trkpt lat="45.61559" lon="6.09428">
        <ele>1149.338636391</ele>
        <time>2016-08-11T09:31:05Z</time>
      </trkpt>
      <trkpt lat="45.6156" lon="6.09429">
        <ele>1149.338636391</ele>
        <time>2016-08-11T09:31:10Z</time>
      </trkpt>
      <trkpt lat="45.61564" lon="6.09427">
        <ele>1149.338636391</ele>
        <time>2016-08-11T09:31:20Z</time>
      </trkpt>
      <trkpt lat="45.61566" lon="6.09426">
        <ele>1154.919743211</ele>
        <time>2016-08-11T09:31:25Z</time>
      </trkpt>
      <trkpt lat="45.61578" lon="6.09426">
        <ele>1160.173576526</ele>
        <time>2016-08-11T09:31:40Z</time>
      </trkpt>
      <trkpt lat="45.6158" lon="6.09424">
        <ele>1160.173576526</ele>
        <time>2016-08-11T09:31:45Z</time>
      </trkpt>
      <trkpt lat="45.61581" lon="6.09424">
        <ele>1160.173576526</ele>
        <time>2016-08-11T09:31:55Z</time>
      </trkpt>
      <trkpt lat="45.61581" lon="6.09424">
        <ele>1160.173576526</ele>
        <time>2016-08-11T09:32:00Z</time>
      </trkpt>
      <trkpt lat="45.6159" lon="6.09421">
        <ele>1165.261293896</ele>
        <time>2016-08-11T09:32:10Z</time>
      </trkpt>
      <trkpt lat="45.61594" lon="6.09419">
        <ele>1165.261293896</ele>
        <time>2016-08-11T09:32:15Z</time>
      </trkpt>
      <trkpt lat="45.61603" lon="6.09417">
        <ele>1170.7654554</ele>
        <time>2016-08-11T09:32:25Z</time>
      </trkpt>
      <trkpt lat="45.61605" lon="6.09414">
        <ele>1170.7654554</ele>
        <time>2016-08-11T09:32:30Z</time>
      </trkpt>
      <trkpt lat="45.61609" lon="6.09411">
        <ele>1170.7654554</ele>
        <time>2016-08-11T09:32:40Z</time>
      </trkpt>
      <trkpt lat="45.6161" lon="6.09411">
        <ele>1170.7654554</ele>
        <time>2016-08-11T09:32:45Z</time>
      </trkpt>
      <trkpt lat="45.61615" lon="6.09401">
        <ele>1176.359345005</ele>
        <time>2016-08-11T09:32:55Z</time>
      </trkpt>
      <trkpt lat="45.61616" lon="6.09399">
        <ele>1176.359345005</ele>
        <time>2016-08-11T09:33:01Z</time>
      </trkpt>
      <trkpt lat="45.61617" lon="6.09397">
        <ele>1176.359345005</ele>
        <time>2016-08-11T09:33:11Z</time>
      </trkpt>
      <trkpt lat="45.61617" lon="6.09397">
        <ele>1176.359345005</ele>
        <time>2016-08-11T09:33:15Z</time>
      </trkpt>
      <trkpt lat="45.61618" lon="6.09397">
        <ele>1176.359345005</ele>
        <time>2016-08-11T09:33:26Z</time>
      </trkpt>
      <trkpt lat="45.61618" lon="6.09397">
        <ele>1176.359345005</ele>
        <time>2016-08-11T09:33:31Z</time>
      </trkpt>
      <trkpt lat="45.61623" lon="6.09396">
        <ele>1181.45158196</ele>
        <time>2016-08-11T09:33:41Z</time>
      </trkpt>
      <trkpt lat="45.61622" lon="6.09396">
        <ele>1181.45158196</ele>
        <time>2016-08-11T09:33:46Z</time>
      </trkpt>
      <trkpt lat="45.61624" lon="6.09395">
        <ele>1181.45158196</ele>
        <time>2016-08-11T09:33:50Z</time>
      </trkpt>
      <trkpt lat="45.61624" lon="6.09396">
        <ele>1181.45158196</ele>
        <time>2016-08-11T09:33:56Z</time>
      </trkpt>
      <trkpt lat="45.61626" lon="6.09401">
        <ele>1181.45158196</ele>
        <time>2016-08-11T09:34:00Z</time>
      </trkpt>
      <trkpt lat="45.61627" lon="6.09409">
        <ele>1186.793940118</ele>
        <time>2016-08-11T09:34:16Z</time>
      </trkpt>
      <trkpt lat="45.61627" lon="6.09409">
        <ele>1186.793940118</ele>
        <time>2016-08-11T09:34:20Z</time>
      </trkpt>
      <trkpt lat="45.61625" lon="6.09413">
        <ele>1186.793940118</ele>
        <time>2016-08-11T09:34:31Z</time>
      </trkpt>
      <trkpt lat="45.61623" lon="6.09418">
        <ele>1186.793940118</ele>
        <time>2016-08-11T09:34:46Z</time>
      </trkpt>
      <trkpt lat="45.61622" lon="6.09421">
        <ele>1191.351444889</ele>
        <time>2016-08-11T09:34:51Z</time>
      </trkpt>
      <trkpt lat="45.61622" lon="6.09429">
        <ele>1191.351444889</ele>
        <time>2016-08-11T09:35:01Z</time>
      </trkpt>
      <trkpt lat="45.6162" lon="6.09432">
        <ele>1191.351444889</ele>
        <time>2016-08-11T09:35:06Z</time>
      </trkpt>
      <trkpt lat="45.61616" lon="6.09436">
        <ele>1196.186968991</ele>
        <time>2016-08-11T09:35:16Z</time>
      </trkpt>
      <trkpt lat="45.61613" lon="6.09438">
        <ele>1196.186968991</ele>
        <time>2016-08-11T09:35:20Z</time>
      </trkpt>
      <trkpt lat="45.61614" lon="6.09445">
        <ele>1196.186968991</ele>
        <time>2016-08-11T09:35:31Z</time>
      </trkpt>
      <trkpt lat="45.61615" lon="6.09445">
        <ele>1196.186968991</ele>
        <time>2016-08-11T09:35:36Z</time>
      </trkpt>
      <trkpt lat="45.61612" lon="6.09453">
        <ele>1200.98640173</ele>
        <time>2016-08-11T09:35:46Z</time>
      </trkpt>
      <trkpt lat="45.61612" lon="6.09455">
        <ele>1200.98640173</ele>
        <time>2016-08-11T09:35:51Z</time>
      </trkpt>
      <trkpt lat="45.61612" lon="6.09456">
        <ele>1200.98640173</ele>
        <time>2016-08-11T09:36:01Z</time>
      </trkpt>
      <trkpt lat="45.61611" lon="6.09457">
        <ele>1200.98640173</ele>
        <time>2016-08-11T09:36:05Z</time>
      </trkpt>
      <trkpt lat="45.61611" lon="6.09457">
        <ele>1200.98640173</ele>
        <time>2016-08-11T09:36:20Z</time>
      </trkpt>
      <trkpt lat="45.61611" lon="6.09457">
        <ele>1200.98640173</ele>
        <time>2016-08-11T09:36:25Z</time>
      </trkpt>
      <trkpt lat="45.61611" lon="6.09457">
        <ele>1200.98640173</ele>
        <time>2016-08-11T09:36:35Z</time>
      </trkpt>
      <trkpt lat="45.61611" lon="6.09458">
        <ele>1200.98640173</ele>
        <time>2016-08-11T09:36:40Z</time>
      </trkpt>
      <trkpt lat="45.61611" lon="6.09458">
        <ele>1200.98640173</ele>
        <time>2016-08-11T09:36:50Z</time>
      </trkpt>
      <trkpt lat="45.61611" lon="6.09458">
        <ele>1200.98640173</ele>
        <time>2016-08-11T09:36:55Z</time>
      </trkpt>
      <trkpt lat="45.61611" lon="6.09457">
        <ele>1200.98640173</ele>
        <time>2016-08-11T09:37:05Z</time>
      </trkpt>
      <trkpt lat="45.61611" lon="6.09457">
        <ele>1200.98640173</ele>
        <time>2016-08-11T09:37:10Z</time>
      </trkpt>
      <trkpt lat="45.61611" lon="6.09457">
        <ele>1200.98640173</ele>
        <time>2016-08-11T09:37:21Z</time>
      </trkpt>
      <trkpt lat="45.61611" lon="6.09457">
        <ele>1200.98640173</ele>
        <time>2016-08-11T09:37:25Z</time>
      </trkpt>
      <trkpt lat="45.61611" lon="6.09457">
        <ele>1200.98640173</ele>
        <time>2016-08-11T09:37:36Z</time>
      </trkpt>
      <trkpt lat="45.61611" lon="6.09457">
        <ele>1200.98640173</ele>
        <time>2016-08-11T09:37:41Z</time>
      </trkpt>
      <trkpt lat="45.61611" lon="6.09457">
        <ele>1200.98640173</ele>
        <time>2016-08-11T09:37:51Z</time>
      </trkpt>
      <trkpt lat="45.61611" lon="6.09457">
        <ele>1200.98640173</ele>
        <time>2016-08-11T09:37:56Z</time>
      </trkpt>
      <trkpt lat="45.61613" lon="6.09455">
        <ele>1200.98640173</ele>
        <time>2016-08-11T09:38:06Z</time>
      </trkpt>
      <trkpt lat="45.61614" lon="6.09455">
        <ele>1200.98640173</ele>
        <time>2016-08-11T09:38:10Z</time>
      </trkpt>
      <trkpt lat="45.61618" lon="6.09457">
        <ele>1205.747461393</ele>
        <time>2016-08-11T09:38:25Z</time>
      </trkpt>
      <trkpt lat="45.61618" lon="6.09456">
        <ele>1205.747461393</ele>
        <time>2016-08-11T09:38:30Z</time>
      </trkpt>
      <trkpt lat="45.61621" lon="6.09462">
        <ele>1205.747461393</ele>
        <time>2016-08-11T09:38:40Z</time>
      </trkpt>
      <trkpt lat="45.61623" lon="6.09464">
        <ele>1205.747461393</ele>
        <time>2016-08-11T09:38:45Z</time>
      </trkpt>
      <trkpt lat="45.61628" lon="6.09466">
        <ele>1210.179820213</ele>
        <time>2016-08-11T09:38:55Z</time>
      </trkpt>
      <trkpt lat="45.61629" lon="6.09467">
        <ele>1210.179820213</ele>
        <time>2016-08-11T09:39:00Z</time>
      </trkpt>
      <trkpt lat="45.61634" lon="6.09468">
        <ele>1210.179820213</ele>
        <time>2016-08-11T09:39:10Z</time>
      </trkpt>
      <trkpt lat="45.61634" lon="6.0947">
        <ele>1210.179820213</ele>
        <time>2016-08-11T09:39:15Z</time>
      </trkpt>
      <trkpt lat="45.61636" lon="6.09473">
        <ele>1214.736749002</ele>
        <time>2016-08-11T09:39:30Z</time>
      </trkpt>
      <trkpt lat="45.61639" lon="6.09477">
        <ele>1214.736749002</ele>
        <time>2016-08-11T09:39:35Z</time>
      </trkpt>
      <trkpt lat="45.61644" lon="6.09483">
        <ele>1218.684148454</ele>
        <time>2016-08-11T09:39:45Z</time>
      </trkpt>
      <trkpt lat="45.61647" lon="6.09486">
        <ele>1218.684148454</ele>
        <time>2016-08-11T09:39:50Z</time>
      </trkpt>
      <trkpt lat="45.61647" lon="6.09492">
        <ele>1218.684148454</ele>
        <time>2016-08-11T09:39:55Z</time>
      </trkpt>
      <trkpt lat="45.61647" lon="6.09491">
        <ele>1218.684148454</ele>
        <time>2016-08-11T09:40:00Z</time>
      </trkpt>
      <trkpt lat="45.61647" lon="6.0949">
        <ele>1218.684148454</ele>
        <time>2016-08-11T09:40:05Z</time>
      </trkpt>
      <trkpt lat="45.61649" lon="6.09491">
        <ele>1223.218675976</ele>
        <time>2016-08-11T09:40:10Z</time>
      </trkpt>
      <trkpt lat="45.61653" lon="6.09495">
        <ele>1223.218675976</ele>
        <time>2016-08-11T09:40:20Z</time>
      </trkpt>
      <trkpt lat="45.61655" lon="6.09497">
        <ele>1223.218675976</ele>
        <time>2016-08-11T09:40:25Z</time>
      </trkpt>
      <trkpt lat="45.61658" lon="6.09499">
        <ele>1228.149435653</ele>
        <time>2016-08-11T09:40:35Z</time>
      </trkpt>
      <trkpt lat="45.6166" lon="6.09499">
        <ele>1228.149435653</ele>
        <time>2016-08-11T09:40:40Z</time>
      </trkpt>
      <trkpt lat="45.61665" lon="6.09503">
        <ele>1228.149435653</ele>
        <time>2016-08-11T09:40:50Z</time>
      </trkpt>
      <trkpt lat="45.61666" lon="6.09504">
        <ele>1228.149435653</ele>
        <time>2016-08-11T09:40:55Z</time>
      </trkpt>
      <trkpt lat="45.61669" lon="6.09506">
        <ele>1233.442826682</ele>
        <time>2016-08-11T09:41:05Z</time>
      </trkpt>
      <trkpt lat="45.6167" lon="6.09507">
        <ele>1233.442826682</ele>
        <time>2016-08-11T09:41:10Z</time>
      </trkpt>
      <trkpt lat="45.61678" lon="6.09508">
        <ele>1238.778459909</ele>
        <time>2016-08-11T09:41:20Z</time>
      </trkpt>
      <trkpt lat="45.6168" lon="6.09509">
        <ele>1238.778459909</ele>
        <time>2016-08-11T09:41:25Z</time>
      </trkpt>
      <trkpt lat="45.61684" lon="6.09513">
        <ele>1238.778459909</ele>
        <time>2016-08-11T09:41:40Z</time>
      </trkpt>
      <trkpt lat="45.61688" lon="6.09514">
        <ele>1243.85958287</ele>
        <time>2016-08-11T09:41:45Z</time>
      </trkpt>
      <trkpt lat="45.61709" lon="6.09515">
        <ele>1248.988895492</ele>
        <time>2016-08-11T09:41:55Z</time>
      </trkpt>
      <trkpt lat="45.6171" lon="6.09513">
        <ele>1248.988895492</ele>
        <time>2016-08-11T09:42:00Z</time>
      </trkpt>
      <trkpt lat="45.61711" lon="6.09514">
        <ele>1248.988895492</ele>
        <time>2016-08-11T09:42:05Z</time>
      </trkpt>
      <trkpt lat="45.61716" lon="6.09515">
        <ele>1248.988895492</ele>
        <time>2016-08-11T09:42:10Z</time>
      </trkpt>
      <trkpt lat="45.61718" lon="6.09515">
        <ele>1253.58177534</ele>
        <time>2016-08-11T09:42:15Z</time>
      </trkpt>
      <trkpt lat="45.61721" lon="6.09517">
        <ele>1253.58177534</ele>
        <time>2016-08-11T09:42:20Z</time>
      </trkpt>
      <trkpt lat="45.61723" lon="6.09524">
        <ele>1253.58177534</ele>
        <time>2016-08-11T09:42:30Z</time>
      </trkpt>
      <trkpt lat="45.61724" lon="6.09527">
        <ele>1258.107485072</ele>
        <time>2016-08-11T09:42:35Z</time>
      </trkpt>
      <trkpt lat="45.61726" lon="6.09533">
        <ele>1258.107485072</ele>
        <time>2016-08-11T09:42:45Z</time>
      </trkpt>
      <trkpt lat="45.61727" lon="6.09538">
        <ele>1258.107485072</ele>
        <time>2016-08-11T09:42:50Z</time>
      </trkpt>
      <trkpt lat="45.61729" lon="6.09542">
        <ele>1263.001062939</ele>
        <time>2016-08-11T09:42:55Z</time>
      </trkpt>
      <trkpt lat="45.61731" lon="6.09546">
        <ele>1263.001062939</ele>
        <time>2016-08-11T09:43:00Z</time>
      </trkpt>
      <trkpt lat="45.61734" lon="6.09547">
        <ele>1263.001062939</ele>
        <time>2016-08-11T09:43:15Z</time>
      </trkpt>
      <trkpt lat="45.61733" lon="6.09541">
        <ele>1266.214016088</ele>
        <time>2016-08-11T09:43:20Z</time>
      </trkpt>
      <trkpt lat="45.61736" lon="6.09536">
        <ele>1266.214016088</ele>
        <time>2016-08-11T09:43:30Z</time>
      </trkpt>
      <trkpt lat="45.6174" lon="6.09531">
        <ele>1269.168916358</ele>
        <time>2016-08-11T09:43:35Z</time>
      </trkpt>
      <trkpt lat="45.61742" lon="6.09533">
        <ele>1269.168916358</ele>
        <time>2016-08-11T09:43:45Z</time>
      </trkpt>
      <trkpt lat="45.61743" lon="6.0953">
        <ele>1269.168916358</ele>
        <time>2016-08-11T09:43:50Z</time>
      </trkpt>
      <trkpt lat="45.61746" lon="6.09528">
        <ele>1269.168916358</ele>
        <time>2016-08-11T09:44:00Z</time>
      </trkpt>
      <trkpt lat="45.61746" lon="6.09527">
        <ele>1269.168916358</ele>
        <time>2016-08-11T09:44:05Z</time>
      </trkpt>
      <trkpt lat="45.61746" lon="6.09527">
        <ele>1269.168916358</ele>
        <time>2016-08-11T09:44:15Z</time>
      </trkpt>
      <trkpt lat="45.61746" lon="6.09527">
        <ele>1269.168916358</ele>
        <time>2016-08-11T09:44:20Z</time>
      </trkpt>
      <trkpt lat="45.6175" lon="6.09525">
        <ele>1271.887171408</ele>
        <time>2016-08-11T09:44:30Z</time>
      </trkpt>
      <trkpt lat="45.61754" lon="6.09524">
        <ele>1271.887171408</ele>
        <time>2016-08-11T09:44:35Z</time>
      </trkpt>
      <trkpt lat="45.61756" lon="6.09527">
        <ele>1271.887171408</ele>
        <time>2016-08-11T09:44:45Z</time>
      </trkpt>
      <trkpt lat="45.61757" lon="6.09527">
        <ele>1271.887171408</ele>
        <time>2016-08-11T09:44:50Z</time>
      </trkpt>
      <trkpt lat="45.61763" lon="6.0953">
        <ele>1275.542488513</ele>
        <time>2016-08-11T09:45:00Z</time>
      </trkpt>
      <trkpt lat="45.61763" lon="6.0953">
        <ele>1275.542488513</ele>
        <time>2016-08-11T09:45:05Z</time>
      </trkpt>
      <trkpt lat="45.61763" lon="6.0953">
        <ele>1275.542488513</ele>
        <time>2016-08-11T09:45:15Z</time>
      </trkpt>
      <trkpt lat="45.61769" lon="6.09523">
        <ele>1275.542488513</ele>
        <time>2016-08-11T09:45:20Z</time>
      </trkpt>
      <trkpt lat="45.61771" lon="6.0952">
        <ele>1279.201820568</ele>
        <time>2016-08-11T09:45:30Z</time>
      </trkpt>
      <trkpt lat="45.61772" lon="6.0952">
        <ele>1279.201820568</ele>
        <time>2016-08-11T09:45:35Z</time>
      </trkpt>
      <trkpt lat="45.61772" lon="6.0952">
        <ele>1279.201820568</ele>
        <time>2016-08-11T09:45:40Z</time>
      </trkpt>
      <trkpt lat="45.61774" lon="6.09519">
        <ele>1279.201820568</ele>
        <time>2016-08-11T09:45:45Z</time>
      </trkpt>
      <trkpt lat="45.61774" lon="6.09519">
        <ele>1279.201820568</ele>
        <time>2016-08-11T09:45:50Z</time>
      </trkpt>
      <trkpt lat="45.61774" lon="6.0952">
        <ele>1279.201820568</ele>
        <time>2016-08-11T09:45:55Z</time>
      </trkpt>
      <trkpt lat="45.61774" lon="6.09519">
        <ele>1279.201820568</ele>
        <time>2016-08-11T09:46:00Z</time>
      </trkpt>
      <trkpt lat="45.61774" lon="6.0952">
        <ele>1279.201820568</ele>
        <time>2016-08-11T09:46:05Z</time>
      </trkpt>
      <trkpt lat="45.61774" lon="6.0952">
        <ele>1279.201820568</ele>
        <time>2016-08-11T09:46:15Z</time>
      </trkpt>
      <trkpt lat="45.61775" lon="6.09521">
        <ele>1279.201820568</ele>
        <time>2016-08-11T09:46:20Z</time>
      </trkpt>
      <trkpt lat="45.6178" lon="6.09524">
        <ele>1283.153884162</ele>
        <time>2016-08-11T09:46:30Z</time>
      </trkpt>
      <trkpt lat="45.6178" lon="6.09525">
        <ele>1283.153884162</ele>
        <time>2016-08-11T09:46:35Z</time>
      </trkpt>
      <trkpt lat="45.61781" lon="6.09525">
        <ele>1283.153884162</ele>
        <time>2016-08-11T09:46:45Z</time>
      </trkpt>
      <trkpt lat="45.61782" lon="6.09526">
        <ele>1283.153884162</ele>
        <time>2016-08-11T09:46:50Z</time>
      </trkpt>
      <trkpt lat="45.6179" lon="6.09526">
        <ele>1287.665419848</ele>
        <time>2016-08-11T09:47:00Z</time>
      </trkpt>
      <trkpt lat="45.61797" lon="6.09525">
        <ele>1287.665419848</ele>
        <time>2016-08-11T09:47:05Z</time>
      </trkpt>
      <trkpt lat="45.61807" lon="6.09528">
        <ele>1292.405570595</ele>
        <time>2016-08-11T09:47:15Z</time>
      </trkpt>
      <trkpt lat="45.61807" lon="6.09528">
        <ele>1292.405570595</ele>
        <time>2016-08-11T09:47:20Z</time>
      </trkpt>
      <trkpt lat="45.61808" lon="6.09528">
        <ele>1292.405570595</ele>
        <time>2016-08-11T09:47:25Z</time>
      </trkpt>
      <trkpt lat="45.61809" lon="6.09528">
        <ele>1292.405570595</ele>
        <time>2016-08-11T09:47:35Z</time>
      </trkpt>
      <trkpt lat="45.61814" lon="6.09531">
        <ele>1292.405570595</ele>
        <time>2016-08-11T09:47:40Z</time>
      </trkpt>
      <trkpt lat="45.61823" lon="6.09533">
        <ele>1297.643726678</ele>
        <time>2016-08-11T09:47:50Z</time>
      </trkpt>
      <trkpt lat="45.61829" lon="6.09536">
        <ele>1297.643726678</ele>
        <time>2016-08-11T09:47:55Z</time>
      </trkpt>
      <trkpt lat="45.61838" lon="6.0954">
        <ele>1302.331086403</ele>
        <time>2016-08-11T09:48:05Z</time>
      </trkpt>
      <trkpt lat="45.61835" lon="6.09541">
        <ele>1302.331086403</ele>
        <time>2016-08-11T09:48:10Z</time>
      </trkpt>
      <trkpt lat="45.61839" lon="6.09549">
        <ele>1306.362261911</ele>
        <time>2016-08-11T09:48:21Z</time>
      </trkpt>
      <trkpt lat="45.61845" lon="6.0955">
        <ele>1306.362261911</ele>
        <time>2016-08-11T09:48:25Z</time>
      </trkpt>
      <trkpt lat="45.61843" lon="6.09554">
        <ele>1310.506209132</ele>
        <time>2016-08-11T09:48:35Z</time>
      </trkpt>
      <trkpt lat="45.61839" lon="6.09557">
        <ele>1310.506209132</ele>
        <time>2016-08-11T09:48:40Z</time>
      </trkpt>
      <trkpt lat="45.61836" lon="6.0956">
        <ele>1310.506209132</ele>
        <time>2016-08-11T09:48:50Z</time>
      </trkpt>
      <trkpt lat="45.61837" lon="6.09561">
        <ele>1313.457519373</ele>
        <time>2016-08-11T09:48:55Z</time>
      </trkpt>
      <trkpt lat="45.61837" lon="6.09561">
        <ele>1313.457519373</ele>
        <time>2016-08-11T09:49:05Z</time>
      </trkpt>
      <trkpt lat="45.61837" lon="6.09561">
        <ele>1313.457519373</ele>
        <time>2016-08-11T09:49:10Z</time>
      </trkpt>
      <trkpt lat="45.61837" lon="6.09561">
        <ele>1313.457519373</ele>
        <time>2016-08-11T09:49:20Z</time>
      </trkpt>
      <trkpt lat="45.61838" lon="6.09563">
        <ele>1313.457519373</ele>
        <time>2016-08-11T09:49:25Z</time>
      </trkpt>
      <trkpt lat="45.61842" lon="6.09568">
        <ele>1313.457519373</ele>
        <time>2016-08-11T09:49:41Z</time>
      </trkpt>
      <trkpt lat="45.61852" lon="6.09577">
        <ele>1316.604155318</ele>
        <time>2016-08-11T09:49:50Z</time>
      </trkpt>
      <trkpt lat="45.61852" lon="6.09581">
        <ele>1316.604155318</ele>
        <time>2016-08-11T09:49:56Z</time>
      </trkpt>
      <trkpt lat="45.61855" lon="6.09586">
        <ele>1316.604155318</ele>
        <time>2016-08-11T09:50:00Z</time>
      </trkpt>
      <trkpt lat="45.61862" lon="6.09592">
        <ele>1319.214010766</ele>
        <time>2016-08-11T09:50:10Z</time>
      </trkpt>
      <trkpt lat="45.61861" lon="6.09595">
        <ele>1319.214010766</ele>
        <time>2016-08-11T09:50:15Z</time>
      </trkpt>
      <trkpt lat="45.6186" lon="6.09596">
        <ele>1319.214010766</ele>
        <time>2016-08-11T09:50:26Z</time>
      </trkpt>
      <trkpt lat="45.6186" lon="6.09596">
        <ele>1319.214010766</ele>
        <time>2016-08-11T09:50:30Z</time>
      </trkpt>
      <trkpt lat="45.6187" lon="6.09602">
        <ele>1322.051436967</ele>
        <time>2016-08-11T09:50:40Z</time>
      </trkpt>
      <trkpt lat="45.61869" lon="6.09604">
        <ele>1322.051436967</ele>
        <time>2016-08-11T09:50:45Z</time>
      </trkpt>
      <trkpt lat="45.61868" lon="6.09613">
        <ele>1322.051436967</ele>
        <time>2016-08-11T09:50:55Z</time>
      </trkpt>
      <trkpt lat="45.6187" lon="6.09615">
        <ele>1324.815226448</ele>
        <time>2016-08-11T09:51:00Z</time>
      </trkpt>
      <trkpt lat="45.6187" lon="6.09615">
        <ele>1324.815226448</ele>
        <time>2016-08-11T09:51:10Z</time>
      </trkpt>
      <trkpt lat="45.6187" lon="6.09617">
        <ele>1324.815226448</ele>
        <time>2016-08-11T09:51:15Z</time>
      </trkpt>
      <trkpt lat="45.61873" lon="6.09626">
        <ele>1324.815226448</ele>
        <time>2016-08-11T09:51:25Z</time>
      </trkpt>
      <trkpt lat="45.61875" lon="6.09626">
        <ele>1327.226515102</ele>
        <time>2016-08-11T09:51:30Z</time>
      </trkpt>
      <trkpt lat="45.61878" lon="6.09623">
        <ele>1327.226515102</ele>
        <time>2016-08-11T09:51:40Z</time>
      </trkpt>
      <trkpt lat="45.6188" lon="6.09624">
        <ele>1327.226515102</ele>
        <time>2016-08-11T09:51:45Z</time>
      </trkpt>
      <trkpt lat="45.61881" lon="6.09624">
        <ele>1327.226515102</ele>
        <time>2016-08-11T09:51:55Z</time>
      </trkpt>
      <trkpt lat="45.61881" lon="6.09624">
        <ele>1327.226515102</ele>
        <time>2016-08-11T09:52:00Z</time>
      </trkpt>
      <trkpt lat="45.61881" lon="6.09624">
        <ele>1327.226515102</ele>
        <time>2016-08-11T09:52:10Z</time>
      </trkpt>
      <trkpt lat="45.61883" lon="6.09625">
        <ele>1330.469034703</ele>
        <time>2016-08-11T09:52:15Z</time>
      </trkpt>
      <trkpt lat="45.61888" lon="6.09626">
        <ele>1330.469034703</ele>
        <time>2016-08-11T09:52:30Z</time>
      </trkpt>
      <trkpt lat="45.6189" lon="6.09627">
        <ele>1330.469034703</ele>
        <time>2016-08-11T09:52:35Z</time>
      </trkpt>
      <trkpt lat="45.61896" lon="6.09628">
        <ele>1334.196090299</ele>
        <time>2016-08-11T09:52:45Z</time>
      </trkpt>
      <trkpt lat="45.61902" lon="6.09631">
        <ele>1334.196090299</ele>
        <time>2016-08-11T09:52:50Z</time>
      </trkpt>
      <trkpt lat="45.61905" lon="6.09636">
        <ele>1337.940961247</ele>
        <time>2016-08-11T09:53:00Z</time>
      </trkpt>
      <trkpt lat="45.61906" lon="6.09636">
        <ele>1337.940961247</ele>
        <time>2016-08-11T09:53:05Z</time>
      </trkpt>
      <trkpt lat="45.61906" lon="6.09636">
        <ele>1337.940961247</ele>
        <time>2016-08-11T09:53:15Z</time>
      </trkpt>
      <trkpt lat="45.61906" lon="6.09636">
        <ele>1337.940961247</ele>
        <time>2016-08-11T09:53:20Z</time>
      </trkpt>
      <trkpt lat="45.61906" lon="6.09636">
        <ele>1337.940961247</ele>
        <time>2016-08-11T09:53:30Z</time>
      </trkpt>
      <trkpt lat="45.61906" lon="6.09636">
        <ele>1337.940961247</ele>
        <time>2016-08-11T09:53:35Z</time>
      </trkpt>
      <trkpt lat="45.61906" lon="6.09636">
        <ele>1337.940961247</ele>
        <time>2016-08-11T09:53:45Z</time>
      </trkpt>
      <trkpt lat="45.61906" lon="6.09636">
        <ele>1337.940961247</ele>
        <time>2016-08-11T09:53:50Z</time>
      </trkpt>
      <trkpt lat="45.61906" lon="6.09636">
        <ele>1337.940961247</ele>
        <time>2016-08-11T09:54:00Z</time>
      </trkpt>
      <trkpt lat="45.61906" lon="6.09636">
        <ele>1337.940961247</ele>
        <time>2016-08-11T09:54:05Z</time>
      </trkpt>
      <trkpt lat="45.61906" lon="6.09636">
        <ele>1337.940961247</ele>
        <time>2016-08-11T09:54:15Z</time>
      </trkpt>
      <trkpt lat="45.61909" lon="6.09638">
        <ele>1337.940961247</ele>
        <time>2016-08-11T09:54:20Z</time>
      </trkpt>
      <trkpt lat="45.61912" lon="6.09642">
        <ele>1337.940961247</ele>
        <time>2016-08-11T09:54:35Z</time>
      </trkpt>
      <trkpt lat="45.61912" lon="6.09643">
        <ele>1341.415246586</ele>
        <time>2016-08-11T09:54:40Z</time>
      </trkpt>
      <trkpt lat="45.61912" lon="6.09643">
        <ele>1341.415246586</ele>
        <time>2016-08-11T09:54:50Z</time>
      </trkpt>
      <trkpt lat="45.61912" lon="6.09643">
        <ele>1341.415246586</ele>
        <time>2016-08-11T09:54:55Z</time>
      </trkpt>
      <trkpt lat="45.61912" lon="6.09643">
        <ele>1341.415246586</ele>
        <time>2016-08-11T09:55:05Z</time>
      </trkpt>
      <trkpt lat="45.61913" lon="6.09646">
        <ele>1341.415246586</ele>
        <time>2016-08-11T09:55:10Z</time>
      </trkpt>
      <trkpt lat="45.61921" lon="6.09651">
        <ele>1345.793595137</ele>
        <time>2016-08-11T09:55:20Z</time>
      </trkpt>
      <trkpt lat="45.61922" lon="6.09653">
        <ele>1345.793595137</ele>
        <time>2016-08-11T09:55:26Z</time>
      </trkpt>
      <trkpt lat="45.61922" lon="6.09653">
        <ele>1345.793595137</ele>
        <time>2016-08-11T09:55:36Z</time>
      </trkpt>
      <trkpt lat="45.6193" lon="6.09657">
        <ele>1349.711874022</ele>
        <time>2016-08-11T09:55:40Z</time>
      </trkpt>
      <trkpt lat="45.61932" lon="6.09657">
        <ele>1349.711874022</ele>
        <time>2016-08-11T09:55:51Z</time>
      </trkpt>
      <trkpt lat="45.61933" lon="6.09658">
        <ele>1349.711874022</ele>
        <time>2016-08-11T09:55:55Z</time>
      </trkpt>
      <trkpt lat="45.61933" lon="6.09658">
        <ele>1349.711874022</ele>
        <time>2016-08-11T09:56:11Z</time>
      </trkpt>
      <trkpt lat="45.61933" lon="6.09658">
        <ele>1349.711874022</ele>
        <time>2016-08-11T09:56:16Z</time>
      </trkpt>
      <trkpt lat="45.61934" lon="6.09658">
        <ele>1349.711874022</ele>
        <time>2016-08-11T09:56:25Z</time>
      </trkpt>
      <trkpt lat="45.61933" lon="6.09663">
        <ele>1349.711874022</ele>
        <time>2016-08-11T09:56:30Z</time>
      </trkpt>
      <trkpt lat="45.61934" lon="6.09664">
        <ele>1349.711874022</ele>
        <time>2016-08-11T09:56:41Z</time>
      </trkpt>
      <trkpt lat="45.61935" lon="6.09665">
        <ele>1354.789695741</ele>
        <time>2016-08-11T09:56:45Z</time>
      </trkpt>
      <trkpt lat="45.61935" lon="6.09665">
        <ele>1354.789695741</ele>
        <time>2016-08-11T09:56:55Z</time>
      </trkpt>
      <trkpt lat="45.61938" lon="6.09665">
        <ele>1354.789695741</ele>
        <time>2016-08-11T09:57:01Z</time>
      </trkpt>
      <trkpt lat="45.61945" lon="6.09672">
        <ele>1358.92157135</ele>
        <time>2016-08-11T09:57:11Z</time>
      </trkpt>
      <trkpt lat="45.61946" lon="6.09672">
        <ele>1358.92157135</ele>
        <time>2016-08-11T09:57:15Z</time>
      </trkpt>
      <trkpt lat="45.61945" lon="6.09673">
        <ele>1358.92157135</ele>
        <time>2016-08-11T09:57:25Z</time>
      </trkpt>
      <trkpt lat="45.61945" lon="6.09674">
        <ele>1358.92157135</ele>
        <time>2016-08-11T09:57:31Z</time>
      </trkpt>
      <trkpt lat="45.61945" lon="6.09673">
        <ele>1358.92157135</ele>
        <time>2016-08-11T09:57:35Z</time>
      </trkpt>
      <trkpt lat="45.61946" lon="6.09677">
        <ele>1358.92157135</ele>
        <time>2016-08-11T09:57:45Z</time>
      </trkpt>
      <trkpt lat="45.61949" lon="6.09678">
        <ele>1358.92157135</ele>
        <time>2016-08-11T09:57:50Z</time>
      </trkpt>
      <trkpt lat="45.61946" lon="6.09683">
        <ele>1363.906281867</ele>
        <time>2016-08-11T09:58:00Z</time>
      </trkpt>
      <trkpt lat="45.61949" lon="6.09685">
        <ele>1363.906281867</ele>
        <time>2016-08-11T09:58:05Z</time>
      </trkpt>
      <trkpt lat="45.61951" lon="6.09684">
        <ele>1363.906281867</ele>
        <time>2016-08-11T09:58:16Z</time>
      </trkpt>
      <trkpt lat="45.61951" lon="6.09684">
        <ele>1363.906281867</ele>
        <time>2016-08-11T09:58:21Z</time>
      </trkpt>
      <trkpt lat="45.61951" lon="6.09684">
        <ele>1363.906281867</ele>
        <time>2016-08-11T09:58:25Z</time>
      </trkpt>
      <trkpt lat="45.61951" lon="6.09684">
        <ele>1363.906281867</ele>
        <time>2016-08-11T09:58:30Z</time>
      </trkpt>
      <trkpt lat="45.61951" lon="6.09684">
        <ele>1363.906281867</ele>
        <time>2016-08-11T09:58:35Z</time>
      </trkpt>
      <trkpt lat="45.61951" lon="6.09684">
        <ele>1363.906281867</ele>
        <time>2016-08-11T09:58:40Z</time>
      </trkpt>
      <trkpt lat="45.61951" lon="6.09684">
        <ele>1363.906281867</ele>
        <time>2016-08-11T09:58:45Z</time>
      </trkpt>
      <trkpt lat="45.61951" lon="6.09684">
        <ele>1363.906281867</ele>
        <time>2016-08-11T09:58:50Z</time>
      </trkpt>
      <trkpt lat="45.61951" lon="6.09684">
        <ele>1363.906281867</ele>
        <time>2016-08-11T09:58:55Z</time>
      </trkpt>
      <trkpt lat="45.61951" lon="6.09684">
        <ele>1363.906281867</ele>
        <time>2016-08-11T09:59:05Z</time>
      </trkpt>
      <trkpt lat="45.61951" lon="6.09684">
        <ele>1363.906281867</ele>
        <time>2016-08-11T09:59:10Z</time>
      </trkpt>
      <trkpt lat="45.61951" lon="6.09684">
        <ele>1363.906281867</ele>
        <time>2016-08-11T09:59:20Z</time>
      </trkpt>
      <trkpt lat="45.61951" lon="6.09684">
        <ele>1363.906281867</ele>
        <time>2016-08-11T09:59:25Z</time>
      </trkpt>
      <trkpt lat="45.61951" lon="6.09684">
        <ele>1363.906281867</ele>
        <time>2016-08-11T09:59:35Z</time>
      </trkpt>
      <trkpt lat="45.61951" lon="6.09684">
        <ele>1363.906281867</ele>
        <time>2016-08-11T09:59:40Z</time>
      </trkpt>
      <trkpt lat="45.61952" lon="6.09685">
        <ele>1363.906281867</ele>
        <time>2016-08-11T09:59:50Z</time>
      </trkpt>
      <trkpt lat="45.61952" lon="6.09687">
        <ele>1363.906281867</ele>
        <time>2016-08-11T09:59:55Z</time>
      </trkpt>
      <trkpt lat="45.61953" lon="6.09692">
        <ele>1368.958122826</ele>
        <time>2016-08-11T10:00:05Z</time>
      </trkpt>
      <trkpt lat="45.61955" lon="6.09695">
        <ele>1368.958122826</ele>
        <time>2016-08-11T10:00:10Z</time>
      </trkpt>
      <trkpt lat="45.61955" lon="6.09695">
        <ele>1368.958122826</ele>
        <time>2016-08-11T10:00:20Z</time>
      </trkpt>
      <trkpt lat="45.61958" lon="6.09696">
        <ele>1368.958122826</ele>
        <time>2016-08-11T10:00:25Z</time>
      </trkpt>
      <trkpt lat="45.61957" lon="6.097">
        <ele>1368.958122826</ele>
        <time>2016-08-11T10:00:40Z</time>
      </trkpt>
      <trkpt lat="45.61958" lon="6.097">
        <ele>1374.645944659</ele>
        <time>2016-08-11T10:00:45Z</time>
      </trkpt>
      <trkpt lat="45.61961" lon="6.097">
        <ele>1374.645944659</ele>
        <time>2016-08-11T10:00:55Z</time>
      </trkpt>
      <trkpt lat="45.61963" lon="6.097">
        <ele>1374.645944659</ele>
        <time>2016-08-11T10:01:00Z</time>
      </trkpt>
      <trkpt lat="45.61965" lon="6.09701">
        <ele>1374.645944659</ele>
        <time>2016-08-11T10:01:10Z</time>
      </trkpt>
      <trkpt lat="45.61966" lon="6.097">
        <ele>1374.645944659</ele>
        <time>2016-08-11T10:01:15Z</time>
      </trkpt>
      <trkpt lat="45.61966" lon="6.09701">
        <ele>1374.645944659</ele>
        <time>2016-08-11T10:01:25Z</time>
      </trkpt>
      <trkpt lat="45.61971" lon="6.09707">
        <ele>1378.612732032</ele>
        <time>2016-08-11T10:01:30Z</time>
      </trkpt>
      <trkpt lat="45.61973" lon="6.09716">
        <ele>1378.612732032</ele>
        <time>2016-08-11T10:01:40Z</time>
      </trkpt>
      <trkpt lat="45.61973" lon="6.09718">
        <ele>1378.612732032</ele>
        <time>2016-08-11T10:01:45Z</time>
      </trkpt>
      <trkpt lat="45.61973" lon="6.09721">
        <ele>1383.579357429</ele>
        <time>2016-08-11T10:01:55Z</time>
      </trkpt>
      <trkpt lat="45.61972" lon="6.09722">
        <ele>1383.579357429</ele>
        <time>2016-08-11T10:02:00Z</time>
      </trkpt>
      <trkpt lat="45.61973" lon="6.09722">
        <ele>1383.579357429</ele>
        <time>2016-08-11T10:02:10Z</time>
      </trkpt>
      <trkpt lat="45.61973" lon="6.09722">
        <ele>1383.579357429</ele>
        <time>2016-08-11T10:02:15Z</time>
      </trkpt>
      <trkpt lat="45.61973" lon="6.09723">
        <ele>1383.579357429</ele>
        <time>2016-08-11T10:02:25Z</time>
      </trkpt>
      <trkpt lat="45.61973" lon="6.09723">
        <ele>1383.579357429</ele>
        <time>2016-08-11T10:02:30Z</time>
      </trkpt>
      <trkpt lat="45.61973" lon="6.09723">
        <ele>1383.579357429</ele>
        <time>2016-08-11T10:02:40Z</time>
      </trkpt>
      <trkpt lat="45.61973" lon="6.09723">
        <ele>1383.579357429</ele>
        <time>2016-08-11T10:02:45Z</time>
      </trkpt>
      <trkpt lat="45.61973" lon="6.09723">
        <ele>1383.579357429</ele>
        <time>2016-08-11T10:02:55Z</time>
      </trkpt>
      <trkpt lat="45.61973" lon="6.09726">
        <ele>1383.579357429</ele>
        <time>2016-08-11T10:03:00Z</time>
      </trkpt>
      <trkpt lat="45.61977" lon="6.0973">
        <ele>1388.605271239</ele>
        <time>2016-08-11T10:03:11Z</time>
      </trkpt>
      <trkpt lat="45.61977" lon="6.0973">
        <ele>1388.605271239</ele>
        <time>2016-08-11T10:03:15Z</time>
      </trkpt>
      <trkpt lat="45.61978" lon="6.09738">
        <ele>1388.605271239</ele>
        <time>2016-08-11T10:03:30Z</time>
      </trkpt>
      <trkpt lat="45.61979" lon="6.09739">
        <ele>1388.605271239</ele>
        <time>2016-08-11T10:03:36Z</time>
      </trkpt>
      <trkpt lat="45.61979" lon="6.0974">
        <ele>1388.605271239</ele>
        <time>2016-08-11T10:03:48Z</time>
      </trkpt>
      <trkpt lat="45.61982" lon="6.09743">
        <ele>1393.395330607</ele>
        <time>2016-08-11T10:03:50Z</time>
      </trkpt>
      <trkpt lat="45.61986" lon="6.09754">
        <ele>1393.395330607</ele>
        <time>2016-08-11T10:04:01Z</time>
      </trkpt>
      <trkpt lat="45.61986" lon="6.09754">
        <ele>1393.395330607</ele>
        <time>2016-08-11T10:04:05Z</time>
      </trkpt>
      <trkpt lat="45.61989" lon="6.09755">
        <ele>1399.117909584</ele>
        <time>2016-08-11T10:04:16Z</time>
      </trkpt>
      <trkpt lat="45.61989" lon="6.09756">
        <ele>1399.117909584</ele>
        <time>2016-08-11T10:04:21Z</time>
      </trkpt>
      <trkpt lat="45.61989" lon="6.09755">
        <ele>1399.117909584</ele>
        <time>2016-08-11T10:04:31Z</time>
      </trkpt>
      <trkpt lat="45.61989" lon="6.09755">
        <ele>1399.117909584</ele>
        <time>2016-08-11T10:04:35Z</time>
      </trkpt>
      <trkpt lat="45.61989" lon="6.09755">
        <ele>1399.117909584</ele>
        <time>2016-08-11T10:04:46Z</time>
      </trkpt>
      <trkpt lat="45.61988" lon="6.09756">
        <ele>1399.117909584</ele>
        <time>2016-08-11T10:04:51Z</time>
      </trkpt>
      <trkpt lat="45.61983" lon="6.09755">
        <ele>1399.117909584</ele>
        <time>2016-08-11T10:05:01Z</time>
      </trkpt>
      <trkpt lat="45.61983" lon="6.09755">
        <ele>1399.117909584</ele>
        <time>2016-08-11T10:05:05Z</time>
      </trkpt>
      <trkpt lat="45.61984" lon="6.09759">
        <ele>1405.267706227</ele>
        <time>2016-08-11T10:05:16Z</time>
      </trkpt>
      <trkpt lat="45.61983" lon="6.0976">
        <ele>1405.267706227</ele>
        <time>2016-08-11T10:05:21Z</time>
      </trkpt>
      <trkpt lat="45.61984" lon="6.09762">
        <ele>1405.267706227</ele>
        <time>2016-08-11T10:05:31Z</time>
      </trkpt>
      <trkpt lat="45.61984" lon="6.09762">
        <ele>1405.267706227</ele>
        <time>2016-08-11T10:05:36Z</time>
      </trkpt>
      <trkpt lat="45.61984" lon="6.09762">
        <ele>1405.267706227</ele>
        <time>2016-08-11T10:05:46Z</time>
      </trkpt>
      <trkpt lat="45.61984" lon="6.09762">
        <ele>1405.267706227</ele>
        <time>2016-08-11T10:05:50Z</time>
      </trkpt>
      <trkpt lat="45.61984" lon="6.09763">
        <ele>1405.267706227</ele>
        <time>2016-08-11T10:06:06Z</time>
      </trkpt>
      <trkpt lat="45.61984" lon="6.09763">
        <ele>1405.267706227</ele>
        <time>2016-08-11T10:06:11Z</time>
      </trkpt>
      <trkpt lat="45.61991" lon="6.09775">
        <ele>1411.231269387</ele>
        <time>2016-08-11T10:06:20Z</time>
      </trkpt>
      <trkpt lat="45.61994" lon="6.09779">
        <ele>1411.231269387</ele>
        <time>2016-08-11T10:06:27Z</time>
      </trkpt>
      <trkpt lat="45.61996" lon="6.09782">
        <ele>1411.231269387</ele>
        <time>2016-08-11T10:06:36Z</time>
      </trkpt>
      <trkpt lat="45.61996" lon="6.09782">
        <ele>1411.231269387</ele>
        <time>2016-08-11T10:06:41Z</time>
      </trkpt>
      <trkpt lat="45.61996" lon="6.09782">
        <ele>1411.231269387</ele>
        <time>2016-08-11T10:06:50Z</time>
      </trkpt>
      <trkpt lat="45.61996" lon="6.09781">
        <ele>1411.231269387</ele>
        <time>2016-08-11T10:06:56Z</time>
      </trkpt>
      <trkpt lat="45.61998" lon="6.09783">
        <ele>1416.584903829</ele>
        <time>2016-08-11T10:07:06Z</time>
      </trkpt>
      <trkpt lat="45.62001" lon="6.09783">
        <ele>1416.584903829</ele>
        <time>2016-08-11T10:07:10Z</time>
      </trkpt>
      <trkpt lat="45.62003" lon="6.09784">
        <ele>1416.584903829</ele>
        <time>2016-08-11T10:07:15Z</time>
      </trkpt>
      <trkpt lat="45.62004" lon="6.09784">
        <ele>1416.584903829</ele>
        <time>2016-08-11T10:07:25Z</time>
      </trkpt>
      <trkpt lat="45.62004" lon="6.09784">
        <ele>1416.584903829</ele>
        <time>2016-08-11T10:07:31Z</time>
      </trkpt>
      <trkpt lat="45.62004" lon="6.09784">
        <ele>1416.584903829</ele>
        <time>2016-08-11T10:07:41Z</time>
      </trkpt>
      <trkpt lat="45.62004" lon="6.09789">
        <ele>1420.649583451</ele>
        <time>2016-08-11T10:07:46Z</time>
      </trkpt>
      <trkpt lat="45.62001" lon="6.09792">
        <ele>1420.649583451</ele>
        <time>2016-08-11T10:08:00Z</time>
      </trkpt>
      <trkpt lat="45.62" lon="6.09793">
        <ele>1420.649583451</ele>
        <time>2016-08-11T10:08:15Z</time>
      </trkpt>
      <trkpt lat="45.62" lon="6.09792">
        <ele>1420.649583451</ele>
        <time>2016-08-11T10:08:20Z</time>
      </trkpt>
      <trkpt lat="45.62" lon="6.09792">
        <ele>1420.649583451</ele>
        <time>2016-08-11T10:08:30Z</time>
      </trkpt>
      <trkpt lat="45.62" lon="6.09792">
        <ele>1420.649583451</ele>
        <time>2016-08-11T10:08:35Z</time>
      </trkpt>
      <trkpt lat="45.62" lon="6.09792">
        <ele>1420.649583451</ele>
        <time>2016-08-11T10:08:46Z</time>
      </trkpt>
      <trkpt lat="45.62" lon="6.09792">
        <ele>1420.649583451</ele>
        <time>2016-08-11T10:08:50Z</time>
      </trkpt>
      <trkpt lat="45.62" lon="6.09792">
        <ele>1420.649583451</ele>
        <time>2016-08-11T10:09:00Z</time>
      </trkpt>
      <trkpt lat="45.62" lon="6.09792">
        <ele>1420.649583451</ele>
        <time>2016-08-11T10:09:05Z</time>
      </trkpt>
      <trkpt lat="45.62" lon="6.09792">
        <ele>1420.649583451</ele>
        <time>2016-08-11T10:09:15Z</time>
      </trkpt>
      <trkpt lat="45.62" lon="6.09792">
        <ele>1420.649583451</ele>
        <time>2016-08-11T10:09:20Z</time>
      </trkpt>
      <trkpt lat="45.62" lon="6.09793">
        <ele>1420.649583451</ele>
        <time>2016-08-11T10:09:30Z</time>
      </trkpt>
      <trkpt lat="45.62" lon="6.09793">
        <ele>1420.649583451</ele>
        <time>2016-08-11T10:09:35Z</time>
      </trkpt>
      <trkpt lat="45.62" lon="6.09793">
        <ele>1420.649583451</ele>
        <time>2016-08-11T10:09:45Z</time>
      </trkpt>
      <trkpt lat="45.62008" lon="6.098">
        <ele>1425.682128346</ele>
        <time>2016-08-11T10:09:50Z</time>
      </trkpt>
      <trkpt lat="45.62012" lon="6.09801">
        <ele>1425.682128346</ele>
        <time>2016-08-11T10:10:00Z</time>
      </trkpt>
      <trkpt lat="45.62012" lon="6.09804">
        <ele>1425.682128346</ele>
        <time>2016-08-11T10:10:05Z</time>
      </trkpt>
      <trkpt lat="45.62013" lon="6.09806">
        <ele>1425.682128346</ele>
        <time>2016-08-11T10:10:20Z</time>
      </trkpt>
      <trkpt lat="45.62013" lon="6.09806">
        <ele>1425.682128346</ele>
        <time>2016-08-11T10:10:25Z</time>
      </trkpt>
      <trkpt lat="45.62012" lon="6.09806">
        <ele>1429.879837605</ele>
        <time>2016-08-11T10:10:35Z</time>
      </trkpt>
      <trkpt lat="45.62012" lon="6.09807">
        <ele>1429.879837605</ele>
        <time>2016-08-11T10:10:50Z</time>
      </trkpt>
      <trkpt lat="45.62012" lon="6.09807">
        <ele>1429.879837605</ele>
        <time>2016-08-11T10:10:55Z</time>
      </trkpt>
      <trkpt lat="45.62012" lon="6.09808">
        <ele>1429.879837605</ele>
        <time>2016-08-11T10:11:05Z</time>
      </trkpt>
      <trkpt lat="45.62012" lon="6.09808">
        <ele>1429.879837605</ele>
        <time>2016-08-11T10:11:11Z</time>
      </trkpt>
      <trkpt lat="45.62012" lon="6.09808">
        <ele>1429.879837605</ele>
        <time>2016-08-11T10:11:20Z</time>
      </trkpt>
      <trkpt lat="45.62012" lon="6.09808">
        <ele>1429.879837605</ele>
        <time>2016-08-11T10:11:25Z</time>
      </trkpt>
      <trkpt lat="45.62012" lon="6.09808">
        <ele>1429.879837605</ele>
        <time>2016-08-11T10:11:36Z</time>
      </trkpt>
      <trkpt lat="45.62012" lon="6.09808">
        <ele>1429.879837605</ele>
        <time>2016-08-11T10:11:40Z</time>
      </trkpt>
      <trkpt lat="45.62012" lon="6.09808">
        <ele>1429.879837605</ele>
        <time>2016-08-11T10:11:50Z</time>
      </trkpt>
      <trkpt lat="45.62012" lon="6.09808">
        <ele>1429.879837605</ele>
        <time>2016-08-11T10:11:55Z</time>
      </trkpt>
      <trkpt lat="45.62013" lon="6.09808">
        <ele>1429.879837605</ele>
        <time>2016-08-11T10:12:06Z</time>
      </trkpt>
      <trkpt lat="45.62013" lon="6.09808">
        <ele>1429.879837605</ele>
        <time>2016-08-11T10:12:10Z</time>
      </trkpt>
      <trkpt lat="45.62014" lon="6.09822">
        <ele>1433.304213521</ele>
        <time>2016-08-11T10:12:20Z</time>
      </trkpt>
      <trkpt lat="45.62011" lon="6.09819">
        <ele>1433.304213521</ele>
        <time>2016-08-11T10:12:25Z</time>
      </trkpt>
      <trkpt lat="45.62013" lon="6.09823">
        <ele>1433.304213521</ele>
        <time>2016-08-11T10:12:35Z</time>
      </trkpt>
      <trkpt lat="45.62013" lon="6.09822">
        <ele>1433.304213521</ele>
        <time>2016-08-11T10:12:40Z</time>
      </trkpt>
      <trkpt lat="45.62013" lon="6.0982">
        <ele>1433.304213521</ele>
        <time>2016-08-11T10:12:50Z</time>
      </trkpt>
      <trkpt lat="45.62013" lon="6.0982">
        <ele>1433.304213521</ele>
        <time>2016-08-11T10:12:55Z</time>
      </trkpt>
      <trkpt lat="45.62013" lon="6.0982">
        <ele>1433.304213521</ele>
        <time>2016-08-11T10:13:05Z</time>
      </trkpt>
      <trkpt lat="45.62013" lon="6.0982">
        <ele>1433.304213521</ele>
        <time>2016-08-11T10:13:10Z</time>
      </trkpt>
      <trkpt lat="45.62013" lon="6.0982">
        <ele>1433.304213521</ele>
        <time>2016-08-11T10:13:20Z</time>
      </trkpt>
      <trkpt lat="45.62013" lon="6.0982">
        <ele>1433.304213521</ele>
        <time>2016-08-11T10:13:25Z</time>
      </trkpt>
      <trkpt lat="45.62013" lon="6.0982">
        <ele>1433.304213521</ele>
        <time>2016-08-11T10:13:36Z</time>
      </trkpt>
      <trkpt lat="45.62013" lon="6.0982">
        <ele>1433.304213521</ele>
        <time>2016-08-11T10:13:40Z</time>
      </trkpt>
      <trkpt lat="45.6201" lon="6.09824">
        <ele>1437.743827769</ele>
        <time>2016-08-11T10:13:55Z</time>
      </trkpt>
      <trkpt lat="45.62009" lon="6.09826">
        <ele>1437.743827769</ele>
        <time>2016-08-11T10:14:00Z</time>
      </trkpt>
      <trkpt lat="45.62011" lon="6.09827">
        <ele>1437.743827769</ele>
        <time>2016-08-11T10:14:10Z</time>
      </trkpt>
      <trkpt lat="45.62011" lon="6.09826">
        <ele>1437.743827769</ele>
        <time>2016-08-11T10:14:16Z</time>
      </trkpt>
      <trkpt lat="45.62011" lon="6.09826">
        <ele>1437.743827769</ele>
        <time>2016-08-11T10:14:25Z</time>
      </trkpt>
      <trkpt lat="45.62011" lon="6.09826">
        <ele>1437.743827769</ele>
        <time>2016-08-11T10:14:30Z</time>
      </trkpt>
      <trkpt lat="45.62011" lon="6.09826">
        <ele>1437.743827769</ele>
        <time>2016-08-11T10:14:40Z</time>
      </trkpt>
      <trkpt lat="45.62011" lon="6.09826">
        <ele>1437.743827769</ele>
        <time>2016-08-11T10:14:45Z</time>
      </trkpt>
      <trkpt lat="45.62011" lon="6.09826">
        <ele>1437.743827769</ele>
        <time>2016-08-11T10:14:56Z</time>
      </trkpt>
      <trkpt lat="45.62011" lon="6.09826">
        <ele>1437.743827769</ele>
        <time>2016-08-11T10:15:00Z</time>
      </trkpt>
      <trkpt lat="45.62011" lon="6.09831">
        <ele>1437.743827769</ele>
        <time>2016-08-11T10:15:10Z</time>
      </trkpt>
      <trkpt lat="45.62009" lon="6.09833">
        <ele>1443.556041767</ele>
        <time>2016-08-11T10:15:15Z</time>
      </trkpt>
      <trkpt lat="45.62011" lon="6.09833">
        <ele>1443.556041767</ele>
        <time>2016-08-11T10:15:25Z</time>
      </trkpt>
      <trkpt lat="45.62011" lon="6.09833">
        <ele>1443.556041767</ele>
        <time>2016-08-11T10:15:30Z</time>
      </trkpt>
      <trkpt lat="45.62012" lon="6.09838">
        <ele>1443.556041767</ele>
        <time>2016-08-11T10:15:40Z</time>
      </trkpt>
      <trkpt lat="45.62013" lon="6.09838">
        <ele>1443.556041767</ele>
        <time>2016-08-11T10:15:45Z</time>
      </trkpt>
      <trkpt lat="45.62015" lon="6.09841">
        <ele>1450.779943035</ele>
        <time>2016-08-11T10:15:55Z</time>
      </trkpt>
      <trkpt lat="45.62015" lon="6.09842">
        <ele>1450.779943035</ele>
        <time>2016-08-11T10:16:00Z</time>
      </trkpt>
      <trkpt lat="45.62016" lon="6.09843">
        <ele>1450.779943035</ele>
        <time>2016-08-11T10:16:05Z</time>
      </trkpt>
      <trkpt lat="45.62016" lon="6.09844">
        <ele>1450.779943035</ele>
        <time>2016-08-11T10:16:10Z</time>
      </trkpt>
      <trkpt lat="45.62016" lon="6.09844">
        <ele>1450.779943035</ele>
        <time>2016-08-11T10:16:15Z</time>
      </trkpt>
      <trkpt lat="45.62016" lon="6.09844">
        <ele>1450.779943035</ele>
        <time>2016-08-11T10:16:20Z</time>
      </trkpt>
      <trkpt lat="45.62016" lon="6.09844">
        <ele>1450.779943035</ele>
        <time>2016-08-11T10:16:30Z</time>
      </trkpt>
      <trkpt lat="45.62016" lon="6.09844">
        <ele>1450.779943035</ele>
        <time>2016-08-11T10:16:35Z</time>
      </trkpt>
      <trkpt lat="45.62016" lon="6.09844">
        <ele>1450.779943035</ele>
        <time>2016-08-11T10:16:45Z</time>
      </trkpt>
      <trkpt lat="45.62016" lon="6.09844">
        <ele>1450.779943035</ele>
        <time>2016-08-11T10:16:50Z</time>
      </trkpt>
      <trkpt lat="45.62016" lon="6.09844">
        <ele>1450.779943035</ele>
        <time>2016-08-11T10:17:00Z</time>
      </trkpt>
      <trkpt lat="45.62024" lon="6.09852">
        <ele>1456.997931109</ele>
        <time>2016-08-11T10:17:05Z</time>
      </trkpt>
      <trkpt lat="45.62024" lon="6.09861">
        <ele>1456.997931109</ele>
        <time>2016-08-11T10:17:15Z</time>
      </trkpt>
      <trkpt lat="45.62023" lon="6.09864">
        <ele>1456.997931109</ele>
        <time>2016-08-11T10:17:20Z</time>
      </trkpt>
      <trkpt lat="45.62026" lon="6.09869">
        <ele>1464.296287918</ele>
        <time>2016-08-11T10:17:30Z</time>
      </trkpt>
      <trkpt lat="45.62026" lon="6.0987">
        <ele>1464.296287918</ele>
        <time>2016-08-11T10:17:35Z</time>
      </trkpt>
      <trkpt lat="45.62026" lon="6.09872">
        <ele>1464.296287918</ele>
        <time>2016-08-11T10:17:40Z</time>
      </trkpt>
      <trkpt lat="45.62025" lon="6.09872">
        <ele>1464.296287918</ele>
        <time>2016-08-11T10:17:55Z</time>
      </trkpt>
      <trkpt lat="45.62028" lon="6.09872">
        <ele>1464.296287918</ele>
        <time>2016-08-11T10:18:00Z</time>
      </trkpt>
      <trkpt lat="45.62033" lon="6.09873">
        <ele>1470.714047636</ele>
        <time>2016-08-11T10:18:10Z</time>
      </trkpt>
      <trkpt lat="45.62033" lon="6.09873">
        <ele>1470.714047636</ele>
        <time>2016-08-11T10:18:15Z</time>
      </trkpt>
      <trkpt lat="45.62033" lon="6.09873">
        <ele>1470.714047636</ele>
        <time>2016-08-11T10:18:25Z</time>
      </trkpt>
      <trkpt lat="45.62033" lon="6.09873">
        <ele>1470.714047636</ele>
        <time>2016-08-11T10:18:30Z</time>
      </trkpt>
      <trkpt lat="45.62033" lon="6.09873">
        <ele>1470.714047636</ele>
        <time>2016-08-11T10:18:45Z</time>
      </trkpt>
      <trkpt lat="45.62034" lon="6.09876">
        <ele>1470.714047636</ele>
        <time>2016-08-11T10:18:50Z</time>
      </trkpt>
      <trkpt lat="45.62037" lon="6.09886">
        <ele>1477.895571148</ele>
        <time>2016-08-11T10:19:00Z</time>
      </trkpt>
      <trkpt lat="45.62035" lon="6.09891">
        <ele>1477.895571148</ele>
        <time>2016-08-11T10:19:05Z</time>
      </trkpt>
      <trkpt lat="45.62036" lon="6.09889">
        <ele>1477.895571148</ele>
        <time>2016-08-11T10:19:15Z</time>
      </trkpt>
      <trkpt lat="45.62037" lon="6.0989">
        <ele>1477.895571148</ele>
        <time>2016-08-11T10:19:20Z</time>
      </trkpt>
      <trkpt lat="45.62037" lon="6.0989">
        <ele>1477.895571148</ele>
        <time>2016-08-11T10:19:30Z</time>
      </trkpt>
      <trkpt lat="45.62038" lon="6.09894">
        <ele>1485.056595685</ele>
        <time>2016-08-11T10:19:35Z</time>
      </trkpt>
      <trkpt lat="45.62044" lon="6.09903">
        <ele>1485.056595685</ele>
        <time>2016-08-11T10:19:45Z</time>
      </trkpt>
      <trkpt lat="45.62045" lon="6.09905">
        <ele>1491.75888072</ele>
        <time>2016-08-11T10:19:50Z</time>
      </trkpt>
      <trkpt lat="45.62051" lon="6.09906">
        <ele>1491.75888072</ele>
        <time>2016-08-11T10:20:00Z</time>
      </trkpt>
      <trkpt lat="45.62053" lon="6.09907">
        <ele>1491.75888072</ele>
        <time>2016-08-11T10:20:05Z</time>
      </trkpt>
      <trkpt lat="45.62055" lon="6.09906">
        <ele>1498.030138216</ele>
        <time>2016-08-11T10:20:15Z</time>
      </trkpt>
      <trkpt lat="45.62055" lon="6.09906">
        <ele>1498.030138216</ele>
        <time>2016-08-11T10:20:20Z</time>
      </trkpt>
      <trkpt lat="45.62055" lon="6.09908">
        <ele>1498.030138216</ele>
        <time>2016-08-11T10:20:30Z</time>
      </trkpt>
      <trkpt lat="45.62056" lon="6.09913">
        <ele>1498.030138216</ele>
        <time>2016-08-11T10:20:35Z</time>
      </trkpt>
      <trkpt lat="45.62055" lon="6.09914">
        <ele>1498.030138216</ele>
        <time>2016-08-11T10:20:40Z</time>
      </trkpt>
      <trkpt lat="45.62055" lon="6.09915">
        <ele>1498.030138216</ele>
        <time>2016-08-11T10:20:45Z</time>
      </trkpt>
      <trkpt lat="45.62055" lon="6.09914">
        <ele>1498.030138216</ele>
        <time>2016-08-11T10:20:50Z</time>
      </trkpt>
      <trkpt lat="45.62057" lon="6.09916">
        <ele>1498.030138216</ele>
        <time>2016-08-11T10:21:00Z</time>
      </trkpt>
      <trkpt lat="45.62056" lon="6.09916">
        <ele>1503.609172299</ele>
        <time>2016-08-11T10:21:05Z</time>
      </trkpt>
      <trkpt lat="45.62058" lon="6.09922">
        <ele>1503.609172299</ele>
        <time>2016-08-11T10:21:15Z</time>
      </trkpt>
      <trkpt lat="45.62075" lon="6.09931">
        <ele>1512.334344806</ele>
        <time>2016-08-11T10:42:23Z</time>
      </trkpt>
      <trkpt lat="45.62075" lon="6.09932">
        <ele>1512.334344806</ele>
        <time>2016-08-11T10:42:28Z</time>
      </trkpt>
      <trkpt lat="45.62075" lon="6.09932">
        <ele>1512.334344806</ele>
        <time>2016-08-11T10:42:33Z</time>
      </trkpt>
      <trkpt lat="45.62075" lon="6.09932">
        <ele>1512.334344806</ele>
        <time>2016-08-11T10:42:43Z</time>
      </trkpt>
      <trkpt lat="45.62075" lon="6.09932">
        <ele>1512.334344806</ele>
        <time>2016-08-11T10:42:52Z</time>
      </trkpt>
      <trkpt lat="45.62075" lon="6.09932">
        <ele>1512.334344806</ele>
        <time>2016-08-11T10:42:55Z</time>
      </trkpt>
      <trkpt lat="45.62078" lon="6.09938">
        <ele>1512.334344806</ele>
        <time>2016-08-11T10:43:03Z</time>
      </trkpt>
      <trkpt lat="45.62079" lon="6.09945">
        <ele>1521.395345944</ele>
        <time>2016-08-11T10:43:08Z</time>
      </trkpt>
      <trkpt lat="45.62079" lon="6.09945">
        <ele>1521.395345944</ele>
        <time>2016-08-11T10:43:18Z</time>
      </trkpt>
      <trkpt lat="45.62081" lon="6.09946">
        <ele>1521.395345944</ele>
        <time>2016-08-11T10:43:24Z</time>
      </trkpt>
      <trkpt lat="45.62081" lon="6.09946">
        <ele>1521.395345944</ele>
        <time>2016-08-11T10:43:33Z</time>
      </trkpt>
      <trkpt lat="45.62081" lon="6.09946">
        <ele>1521.395345944</ele>
        <time>2016-08-11T10:43:39Z</time>
      </trkpt>
      <trkpt lat="45.62088" lon="6.09949">
        <ele>1528.859427309</ele>
        <time>2016-08-11T10:43:49Z</time>
      </trkpt>
      <trkpt lat="45.62088" lon="6.09951">
        <ele>1528.859427309</ele>
        <time>2016-08-11T10:43:53Z</time>
      </trkpt>
      <trkpt lat="45.62088" lon="6.09951">
        <ele>1528.859427309</ele>
        <time>2016-08-11T10:44:03Z</time>
      </trkpt>
      <trkpt lat="45.62088" lon="6.09951">
        <ele>1528.859427309</ele>
        <time>2016-08-11T10:44:08Z</time>
      </trkpt>
      <trkpt lat="45.62096" lon="6.09963">
        <ele>1537.810897677</ele>
        <time>2016-08-11T10:44:23Z</time>
      </trkpt>
      <trkpt lat="45.62098" lon="6.09965">
        <ele>1537.810897677</ele>
        <time>2016-08-11T10:44:28Z</time>
      </trkpt>
      <trkpt lat="45.62099" lon="6.09966">
        <ele>1537.810897677</ele>
        <time>2016-08-11T10:44:38Z</time>
      </trkpt>
      <trkpt lat="45.62099" lon="6.09967">
        <ele>1537.810897677</ele>
        <time>2016-08-11T10:44:43Z</time>
      </trkpt>
      <trkpt lat="45.62107" lon="6.09977">
        <ele>1546.099769807</ele>
        <time>2016-08-11T10:44:54Z</time>
      </trkpt>
      <trkpt lat="45.6211" lon="6.09981">
        <ele>1546.099769807</ele>
        <time>2016-08-11T10:44:58Z</time>
      </trkpt>
      <trkpt lat="45.62118" lon="6.09987">
        <ele>1554.454694291</ele>
        <time>2016-08-11T10:45:09Z</time>
      </trkpt>
      <trkpt lat="45.62114" lon="6.09989">
        <ele>1554.454694291</ele>
        <time>2016-08-11T10:45:13Z</time>
      </trkpt>
      <trkpt lat="45.62112" lon="6.09992">
        <ele>1554.454694291</ele>
        <time>2016-08-11T10:45:23Z</time>
      </trkpt>
      <trkpt lat="45.62114" lon="6.09991">
        <ele>1554.454694291</ele>
        <time>2016-08-11T10:45:28Z</time>
      </trkpt>
      <trkpt lat="45.6213" lon="6.09995">
        <ele>1563.059809688</ele>
        <time>2016-08-11T10:45:43Z</time>
      </trkpt>
      <trkpt lat="45.62129" lon="6.09993">
        <ele>1563.059809688</ele>
        <time>2016-08-11T10:45:58Z</time>
      </trkpt>
      <trkpt lat="45.62129" lon="6.09993">
        <ele>1563.059809688</ele>
        <time>2016-08-11T10:46:03Z</time>
      </trkpt>
      <trkpt lat="45.62129" lon="6.09993">
        <ele>1563.059809688</ele>
        <time>2016-08-11T10:46:14Z</time>
      </trkpt>
      <trkpt lat="45.62129" lon="6.09993">
        <ele>1563.059809688</ele>
        <time>2016-08-11T10:46:18Z</time>
      </trkpt>
      <trkpt lat="45.62141" lon="6.10003">
        <ele>1571.077422656</ele>
        <time>2016-08-11T10:46:28Z</time>
      </trkpt>
      <trkpt lat="45.6215" lon="6.10005">
        <ele>1577.570571455</ele>
        <time>2016-08-11T10:46:33Z</time>
      </trkpt>
      <trkpt lat="45.62148" lon="6.10007">
        <ele>1577.570571455</ele>
        <time>2016-08-11T10:46:43Z</time>
      </trkpt>
      <trkpt lat="45.62151" lon="6.10012">
        <ele>1577.570571455</ele>
        <time>2016-08-11T10:46:49Z</time>
      </trkpt>
      <trkpt lat="45.62153" lon="6.10013">
        <ele>1577.570571455</ele>
        <time>2016-08-11T10:46:58Z</time>
      </trkpt>
      <trkpt lat="45.62156" lon="6.10015">
        <ele>1583.09679391</ele>
        <time>2016-08-11T10:47:03Z</time>
      </trkpt>
      <trkpt lat="45.62157" lon="6.10018">
        <ele>1583.09679391</ele>
        <time>2016-08-11T10:47:13Z</time>
      </trkpt>
      <trkpt lat="45.62157" lon="6.10025">
        <ele>1583.09679391</ele>
        <time>2016-08-11T10:47:18Z</time>
      </trkpt>
      <trkpt lat="45.62157" lon="6.10033">
        <ele>1589.198698777</ele>
        <time>2016-08-11T10:47:28Z</time>
      </trkpt>
      <trkpt lat="45.62158" lon="6.10034">
        <ele>1589.198698777</ele>
        <time>2016-08-11T10:47:33Z</time>
      </trkpt>
      <trkpt lat="45.6216" lon="6.10035">
        <ele>1589.198698777</ele>
        <time>2016-08-11T10:47:43Z</time>
      </trkpt>
      <trkpt lat="45.62164" lon="6.10041">
        <ele>1593.839429765</ele>
        <time>2016-08-11T10:47:48Z</time>
      </trkpt>
      <trkpt lat="45.62174" lon="6.10045">
        <ele>1597.356344154</ele>
        <time>2016-08-11T10:47:58Z</time>
      </trkpt>
      <trkpt lat="45.62175" lon="6.10044">
        <ele>1597.356344154</ele>
        <time>2016-08-11T10:48:03Z</time>
      </trkpt>
      <trkpt lat="45.62178" lon="6.10048">
        <ele>1597.356344154</ele>
        <time>2016-08-11T10:48:13Z</time>
      </trkpt>
      <trkpt lat="45.62179" lon="6.10049">
        <ele>1597.356344154</ele>
        <time>2016-08-11T10:48:18Z</time>
      </trkpt>
      <trkpt lat="45.62179" lon="6.10051">
        <ele>1597.356344154</ele>
        <time>2016-08-11T10:48:28Z</time>
      </trkpt>
      <trkpt lat="45.62179" lon="6.10051">
        <ele>1597.356344154</ele>
        <time>2016-08-11T10:48:34Z</time>
      </trkpt>
      <trkpt lat="45.62192" lon="6.10059">
        <ele>1599.920361299</ele>
        <time>2016-08-11T10:48:43Z</time>
      </trkpt>
      <trkpt lat="45.62195" lon="6.10063">
        <ele>1599.920361299</ele>
        <time>2016-08-11T10:48:48Z</time>
      </trkpt>
      <trkpt lat="45.62191" lon="6.10072">
        <ele>1602.699389868</ele>
        <time>2016-08-11T10:48:59Z</time>
      </trkpt>
      <trkpt lat="45.62198" lon="6.10075">
        <ele>1602.699389868</ele>
        <time>2016-08-11T10:49:03Z</time>
      </trkpt>
      <trkpt lat="45.62197" lon="6.10075">
        <ele>1602.699389868</ele>
        <time>2016-08-11T10:49:19Z</time>
      </trkpt>
      <trkpt lat="45.62197" lon="6.10075">
        <ele>1602.699389868</ele>
        <time>2016-08-11T10:49:23Z</time>
      </trkpt>
      <trkpt lat="45.62197" lon="6.10075">
        <ele>1602.699389868</ele>
        <time>2016-08-11T10:49:33Z</time>
      </trkpt>
      <trkpt lat="45.62197" lon="6.10075">
        <ele>1602.699389868</ele>
        <time>2016-08-11T10:49:38Z</time>
      </trkpt>
      <trkpt lat="45.62197" lon="6.10075">
        <ele>1602.699389868</ele>
        <time>2016-08-11T10:49:48Z</time>
      </trkpt>
      <trkpt lat="45.62197" lon="6.10075">
        <ele>1602.699389868</ele>
        <time>2016-08-11T10:49:53Z</time>
      </trkpt>
      <trkpt lat="45.62207" lon="6.10081">
        <ele>1604.429846506</ele>
        <time>2016-08-11T10:50:03Z</time>
      </trkpt>
      <trkpt lat="45.6221" lon="6.10081">
        <ele>1604.429846506</ele>
        <time>2016-08-11T10:50:08Z</time>
      </trkpt>
      <trkpt lat="45.62212" lon="6.10084">
        <ele>1604.429846506</ele>
        <time>2016-08-11T10:50:18Z</time>
      </trkpt>
      <trkpt lat="45.62212" lon="6.10084">
        <ele>1604.429846506</ele>
        <time>2016-08-11T10:50:23Z</time>
      </trkpt>
      <trkpt lat="45.62228" lon="6.1009">
        <ele>1606.598094574</ele>
        <time>2016-08-11T10:50:33Z</time>
      </trkpt>
      <trkpt lat="45.62224" lon="6.10088">
        <ele>1606.598094574</ele>
        <time>2016-08-11T10:50:38Z</time>
      </trkpt>
      <trkpt lat="45.62229" lon="6.10095">
        <ele>1608.890901813</ele>
        <time>2016-08-11T10:50:48Z</time>
      </trkpt>
      <trkpt lat="45.6223" lon="6.10097">
        <ele>1608.890901813</ele>
        <time>2016-08-11T10:50:53Z</time>
      </trkpt>
      <trkpt lat="45.62225" lon="6.10098">
        <ele>1608.890901813</ele>
        <time>2016-08-11T10:51:08Z</time>
      </trkpt>
      <trkpt lat="45.62225" lon="6.10098">
        <ele>1608.890901813</ele>
        <time>2016-08-11T10:51:13Z</time>
      </trkpt>
      <trkpt lat="45.62225" lon="6.10098">
        <ele>1608.890901813</ele>
        <time>2016-08-11T10:51:23Z</time>
      </trkpt>
      <trkpt lat="45.62225" lon="6.10098">
        <ele>1608.890901813</ele>
        <time>2016-08-11T10:51:28Z</time>
      </trkpt>
      <trkpt lat="45.62226" lon="6.10108">
        <ele>1610.541858684</ele>
        <time>2016-08-11T10:51:38Z</time>
      </trkpt>
      <trkpt lat="45.62233" lon="6.10115">
        <ele>1610.541858684</ele>
        <time>2016-08-11T10:51:43Z</time>
      </trkpt>
      <trkpt lat="45.62238" lon="6.10117">
        <ele>1613.386403766</ele>
        <time>2016-08-11T10:51:53Z</time>
      </trkpt>
      <trkpt lat="45.62241" lon="6.10114">
        <ele>1613.386403766</ele>
        <time>2016-08-11T10:51:58Z</time>
      </trkpt>
      <trkpt lat="45.6224" lon="6.10115">
        <ele>1613.386403766</ele>
        <time>2016-08-11T10:52:08Z</time>
      </trkpt>
      <trkpt lat="45.62243" lon="6.10119">
        <ele>1613.386403766</ele>
        <time>2016-08-11T10:52:13Z</time>
      </trkpt>
      <trkpt lat="45.62245" lon="6.10122">
        <ele>1615.764789011</ele>
        <time>2016-08-11T10:52:23Z</time>
      </trkpt>
      <trkpt lat="45.62244" lon="6.10122">
        <ele>1615.764789011</ele>
        <time>2016-08-11T10:52:28Z</time>
      </trkpt>
      <trkpt lat="45.62245" lon="6.10123">
        <ele>1615.764789011</ele>
        <time>2016-08-11T10:52:38Z</time>
      </trkpt>
      <trkpt lat="45.62245" lon="6.10123">
        <ele>1615.764789011</ele>
        <time>2016-08-11T10:52:43Z</time>
      </trkpt>
      <trkpt lat="45.62245" lon="6.10123">
        <ele>1615.764789011</ele>
        <time>2016-08-11T10:52:53Z</time>
      </trkpt>
      <trkpt lat="45.62245" lon="6.10123">
        <ele>1615.764789011</ele>
        <time>2016-08-11T10:52:58Z</time>
      </trkpt>
      <trkpt lat="45.62254" lon="6.10128">
        <ele>1618.20427073</ele>
        <time>2016-08-11T10:53:08Z</time>
      </trkpt>
      <trkpt lat="45.62252" lon="6.10137">
        <ele>1618.20427073</ele>
        <time>2016-08-11T10:53:13Z</time>
      </trkpt>
      <trkpt lat="45.62257" lon="6.10138">
        <ele>1621.009244502</ele>
        <time>2016-08-11T10:53:23Z</time>
      </trkpt>
      <trkpt lat="45.62258" lon="6.10142">
        <ele>1621.009244502</ele>
        <time>2016-08-11T10:53:28Z</time>
      </trkpt>
      <trkpt lat="45.62261" lon="6.10143">
        <ele>1621.009244502</ele>
        <time>2016-08-11T10:53:38Z</time>
      </trkpt>
      <trkpt lat="45.62263" lon="6.10143">
        <ele>1621.009244502</ele>
        <time>2016-08-11T10:53:43Z</time>
      </trkpt>
      <trkpt lat="45.62262" lon="6.10143">
        <ele>1621.009244502</ele>
        <time>2016-08-11T10:53:58Z</time>
      </trkpt>
      <trkpt lat="45.62271" lon="6.10156">
        <ele>1623.702213308</ele>
        <time>2016-08-11T10:54:13Z</time>
      </trkpt>
      <trkpt lat="45.62273" lon="6.10157">
        <ele>1623.702213308</ele>
        <time>2016-08-11T10:54:18Z</time>
      </trkpt>
      <trkpt lat="45.62274" lon="6.10158">
        <ele>1623.702213308</ele>
        <time>2016-08-11T10:54:23Z</time>
      </trkpt>
      <trkpt lat="45.62273" lon="6.10157">
        <ele>1623.702213308</ele>
        <time>2016-08-11T10:54:28Z</time>
      </trkpt>
      <trkpt lat="45.62275" lon="6.10157">
        <ele>1623.702213308</ele>
        <time>2016-08-11T10:54:33Z</time>
      </trkpt>
      <trkpt lat="45.62277" lon="6.10156">
        <ele>1623.702213308</ele>
        <time>2016-08-11T10:54:38Z</time>
      </trkpt>
      <trkpt lat="45.62278" lon="6.10156">
        <ele>1623.702213308</ele>
        <time>2016-08-11T10:54:49Z</time>
      </trkpt>
      <trkpt lat="45.62278" lon="6.10156">
        <ele>1623.702213308</ele>
        <time>2016-08-11T10:54:53Z</time>
      </trkpt>
      <trkpt lat="45.62278" lon="6.10156">
        <ele>1623.702213308</ele>
        <time>2016-08-11T10:55:03Z</time>
      </trkpt>
      <trkpt lat="45.62278" lon="6.10156">
        <ele>1623.702213308</ele>
        <time>2016-08-11T10:55:08Z</time>
      </trkpt>
      <trkpt lat="45.62278" lon="6.10156">
        <ele>1623.702213308</ele>
        <time>2016-08-11T10:55:18Z</time>
      </trkpt>
      <trkpt lat="45.62278" lon="6.10156">
        <ele>1623.702213308</ele>
        <time>2016-08-11T10:55:23Z</time>
      </trkpt>
      <trkpt lat="45.62284" lon="6.10161">
        <ele>1626.298530168</ele>
        <time>2016-08-11T10:55:33Z</time>
      </trkpt>
      <trkpt lat="45.62285" lon="6.10166">
        <ele>1626.298530168</ele>
        <time>2016-08-11T10:55:38Z</time>
      </trkpt>
      <trkpt lat="45.62287" lon="6.1017">
        <ele>1626.298530168</ele>
        <time>2016-08-11T10:55:48Z</time>
      </trkpt>
      <trkpt lat="45.62291" lon="6.1017">
        <ele>1629.672718115</ele>
        <time>2016-08-11T10:55:53Z</time>
      </trkpt>
      <trkpt lat="45.62292" lon="6.10172">
        <ele>1629.672718115</ele>
        <time>2016-08-11T10:56:03Z</time>
      </trkpt>
      <trkpt lat="45.62292" lon="6.10172">
        <ele>1629.672718115</ele>
        <time>2016-08-11T10:56:08Z</time>
      </trkpt>
      <trkpt lat="45.62296" lon="6.10177">
        <ele>1629.672718115</ele>
        <time>2016-08-11T10:56:18Z</time>
      </trkpt>
      <trkpt lat="45.62296" lon="6.10181">
        <ele>1633.459468625</ele>
        <time>2016-08-11T10:56:23Z</time>
      </trkpt>
      <trkpt lat="45.62297" lon="6.10187">
        <ele>1633.459468625</ele>
        <time>2016-08-11T10:56:38Z</time>
      </trkpt>
      <trkpt lat="45.62297" lon="6.10187">
        <ele>1633.459468625</ele>
        <time>2016-08-11T10:56:43Z</time>
      </trkpt>
      <trkpt lat="45.62297" lon="6.10188">
        <ele>1633.459468625</ele>
        <time>2016-08-11T10:56:53Z</time>
      </trkpt>
      <trkpt lat="45.62301" lon="6.10189">
        <ele>1633.459468625</ele>
        <time>2016-08-11T10:56:58Z</time>
      </trkpt>
      <trkpt lat="45.62305" lon="6.10194">
        <ele>1637.192446906</ele>
        <time>2016-08-11T10:57:08Z</time>
      </trkpt>
      <trkpt lat="45.62307" lon="6.10194">
        <ele>1637.192446906</ele>
        <time>2016-08-11T10:57:13Z</time>
      </trkpt>
      <trkpt lat="45.62313" lon="6.10194">
        <ele>1637.192446906</ele>
        <time>2016-08-11T10:57:23Z</time>
      </trkpt>
      <trkpt lat="45.62314" lon="6.10194">
        <ele>1640.873030496</ele>
        <time>2016-08-11T10:57:28Z</time>
      </trkpt>
      <trkpt lat="45.62316" lon="6.10197">
        <ele>1640.873030496</ele>
        <time>2016-08-11T10:57:38Z</time>
      </trkpt>
      <trkpt lat="45.62318" lon="6.102">
        <ele>1640.873030496</ele>
        <time>2016-08-11T10:57:43Z</time>
      </trkpt>
      <trkpt lat="45.62322" lon="6.10202">
        <ele>1644.780813192</ele>
        <time>2016-08-11T10:57:53Z</time>
      </trkpt>
      <trkpt lat="45.62322" lon="6.10203">
        <ele>1644.780813192</ele>
        <time>2016-08-11T10:57:58Z</time>
      </trkpt>
      <trkpt lat="45.62322" lon="6.10205">
        <ele>1644.780813192</ele>
        <time>2016-08-11T10:58:08Z</time>
      </trkpt>
      <trkpt lat="45.62322" lon="6.10205">
        <ele>1644.780813192</ele>
        <time>2016-08-11T10:58:13Z</time>
      </trkpt>
      <trkpt lat="45.62322" lon="6.10205">
        <ele>1644.780813192</ele>
        <time>2016-08-11T10:58:23Z</time>
      </trkpt>
      <trkpt lat="45.62322" lon="6.10205">
        <ele>1644.780813192</ele>
        <time>2016-08-11T10:58:28Z</time>
      </trkpt>
      <trkpt lat="45.62322" lon="6.10205">
        <ele>1644.780813192</ele>
        <time>2016-08-11T10:58:38Z</time>
      </trkpt>
      <trkpt lat="45.62322" lon="6.10205">
        <ele>1644.780813192</ele>
        <time>2016-08-11T10:58:43Z</time>
      </trkpt>
      <trkpt lat="45.62322" lon="6.10205">
        <ele>1644.780813192</ele>
        <time>2016-08-11T10:58:53Z</time>
      </trkpt>
      <trkpt lat="45.62326" lon="6.10209">
        <ele>1644.780813192</ele>
        <time>2016-08-11T10:58:58Z</time>
      </trkpt>
      <trkpt lat="45.62332" lon="6.10217">
        <ele>1649.449299536</ele>
        <time>2016-08-11T10:59:08Z</time>
      </trkpt>
      <trkpt lat="45.62336" lon="6.1022">
        <ele>1649.449299536</ele>
        <time>2016-08-11T10:59:13Z</time>
      </trkpt>
      <trkpt lat="45.62341" lon="6.10227">
        <ele>1653.844933889</ele>
        <time>2016-08-11T10:59:28Z</time>
      </trkpt>
      <trkpt lat="45.62339" lon="6.10229">
        <ele>1653.844933889</ele>
        <time>2016-08-11T10:59:33Z</time>
      </trkpt>
      <trkpt lat="45.62338" lon="6.10229">
        <ele>1653.844933889</ele>
        <time>2016-08-11T10:59:43Z</time>
      </trkpt>
      <trkpt lat="45.62338" lon="6.10229">
        <ele>1653.844933889</ele>
        <time>2016-08-11T10:59:48Z</time>
      </trkpt>
      <trkpt lat="45.62338" lon="6.10229">
        <ele>1653.844933889</ele>
        <time>2016-08-11T10:59:58Z</time>
      </trkpt>
      <trkpt lat="45.62338" lon="6.10229">
        <ele>1653.844933889</ele>
        <time>2016-08-11T11:00:03Z</time>
      </trkpt>
      <trkpt lat="45.62338" lon="6.10229">
        <ele>1653.844933889</ele>
        <time>2016-08-11T11:00:13Z</time>
      </trkpt>
      <trkpt lat="45.62338" lon="6.10229">
        <ele>1653.844933889</ele>
        <time>2016-08-11T11:00:18Z</time>
      </trkpt>
      <trkpt lat="45.62338" lon="6.10229">
        <ele>1653.844933889</ele>
        <time>2016-08-11T11:00:28Z</time>
      </trkpt>
      <trkpt lat="45.62338" lon="6.10229">
        <ele>1653.844933889</ele>
        <time>2016-08-11T11:00:33Z</time>
      </trkpt>
      <trkpt lat="45.62339" lon="6.10231">
        <ele>1653.844933889</ele>
        <time>2016-08-11T11:00:43Z</time>
      </trkpt>
      <trkpt lat="45.6234" lon="6.10231">
        <ele>1653.844933889</ele>
        <time>2016-08-11T11:00:48Z</time>
      </trkpt>
      <trkpt lat="45.6234" lon="6.10231">
        <ele>1653.844933889</ele>
        <time>2016-08-11T11:00:58Z</time>
      </trkpt>
      <trkpt lat="45.6234" lon="6.10231">
        <ele>1653.844933889</ele>
        <time>2016-08-11T11:01:03Z</time>
      </trkpt>
      <trkpt lat="45.62343" lon="6.1023">
        <ele>1657.568302697</ele>
        <time>2016-08-11T11:01:13Z</time>
      </trkpt>
      <trkpt lat="45.62345" lon="6.10231">
        <ele>1657.568302697</ele>
        <time>2016-08-11T11:01:18Z</time>
      </trkpt>
      <trkpt lat="45.62346" lon="6.10232">
        <ele>1657.568302697</ele>
        <time>2016-08-11T11:01:33Z</time>
      </trkpt>
      <trkpt lat="45.62346" lon="6.10232">
        <ele>1657.568302697</ele>
        <time>2016-08-11T11:01:38Z</time>
      </trkpt>
      <trkpt lat="45.62347" lon="6.10231">
        <ele>1657.568302697</ele>
        <time>2016-08-11T11:01:48Z</time>
      </trkpt>
      <trkpt lat="45.62347" lon="6.10231">
        <ele>1657.568302697</ele>
        <time>2016-08-11T11:01:53Z</time>
      </trkpt>
      <trkpt lat="45.62345" lon="6.10233">
        <ele>1657.568302697</ele>
        <time>2016-08-11T11:02:03Z</time>
      </trkpt>
      <trkpt lat="45.62345" lon="6.10234">
        <ele>1657.568302697</ele>
        <time>2016-08-11T11:02:08Z</time>
      </trkpt>
      <trkpt lat="45.62345" lon="6.10234">
        <ele>1657.568302697</ele>
        <time>2016-08-11T11:02:18Z</time>
      </trkpt>
      <trkpt lat="45.62345" lon="6.10234">
        <ele>1657.568302697</ele>
        <time>2016-08-11T11:02:23Z</time>
      </trkpt>
      <trkpt lat="45.62345" lon="6.10234">
        <ele>1657.568302697</ele>
        <time>2016-08-11T11:02:33Z</time>
      </trkpt>
      <trkpt lat="45.62345" lon="6.10234">
        <ele>1657.568302697</ele>
        <time>2016-08-11T11:02:38Z</time>
      </trkpt>
      <trkpt lat="45.62345" lon="6.10234">
        <ele>1657.568302697</ele>
        <time>2016-08-11T11:02:48Z</time>
      </trkpt>
      <trkpt lat="45.62345" lon="6.10235">
        <ele>1657.568302697</ele>
        <time>2016-08-11T11:02:53Z</time>
      </trkpt>
      <trkpt lat="45.62344" lon="6.10235">
        <ele>1657.568302697</ele>
        <time>2016-08-11T11:02:58Z</time>
      </trkpt>
      <trkpt lat="45.62344" lon="6.10235">
        <ele>1657.568302697</ele>
        <time>2016-08-11T11:03:03Z</time>
      </trkpt>
      <trkpt lat="45.62344" lon="6.10235">
        <ele>1657.568302697</ele>
        <time>2016-08-11T11:03:08Z</time>
      </trkpt>
      <trkpt lat="45.62345" lon="6.10236">
        <ele>1657.568302697</ele>
        <time>2016-08-11T11:03:18Z</time>
      </trkpt>
      <trkpt lat="45.62345" lon="6.10236">
        <ele>1657.568302697</ele>
        <time>2016-08-11T11:03:23Z</time>
      </trkpt>
      <trkpt lat="45.62345" lon="6.10236">
        <ele>1660.385542391</ele>
        <time>2016-08-11T11:03:33Z</time>
      </trkpt>
      <trkpt lat="45.62345" lon="6.10236">
        <ele>1660.385542391</ele>
        <time>2016-08-11T11:03:38Z</time>
      </trkpt>
      <trkpt lat="45.62344" lon="6.10236">
        <ele>1660.385542391</ele>
        <time>2016-08-11T11:03:48Z</time>
      </trkpt>
      <trkpt lat="45.62344" lon="6.10235">
        <ele>1660.385542391</ele>
        <time>2016-08-11T11:03:53Z</time>
      </trkpt>
      <trkpt lat="45.62343" lon="6.10236">
        <ele>1660.385542391</ele>
        <time>2016-08-11T11:04:03Z</time>
      </trkpt>
      <trkpt lat="45.62343" lon="6.10235">
        <ele>1660.385542391</ele>
        <time>2016-08-11T11:04:08Z</time>
      </trkpt>
      <trkpt lat="45.62343" lon="6.10235">
        <ele>1660.385542391</ele>
        <time>2016-08-11T11:04:18Z</time>
      </trkpt>
      <trkpt lat="45.62343" lon="6.10235">
        <ele>1660.385542391</ele>
        <time>2016-08-11T11:04:23Z</time>
      </trkpt>
      <trkpt lat="45.62343" lon="6.10235">
        <ele>1660.385542391</ele>
        <time>2016-08-11T11:04:28Z</time>
      </trkpt>
      <trkpt lat="45.62343" lon="6.10235">
        <ele>1660.385542391</ele>
        <time>2016-08-11T11:04:33Z</time>
      </trkpt>
      <trkpt lat="45.62349" lon="6.10237">
        <ele>1660.385542391</ele>
        <time>2016-08-11T11:04:43Z</time>
      </trkpt>
      <trkpt lat="45.62352" lon="6.10236">
        <ele>1662.774135301</ele>
        <time>2016-08-11T11:04:48Z</time>
      </trkpt>
      <trkpt lat="45.62354" lon="6.10234">
        <ele>1662.774135301</ele>
        <time>2016-08-11T11:04:58Z</time>
      </trkpt>
      <trkpt lat="45.62355" lon="6.10235">
        <ele>1662.774135301</ele>
        <time>2016-08-11T11:05:03Z</time>
      </trkpt>
      <trkpt lat="45.62354" lon="6.10235">
        <ele>1662.774135301</ele>
        <time>2016-08-11T11:05:13Z</time>
      </trkpt>
      <trkpt lat="45.62358" lon="6.10232">
        <ele>1664.482445162</ele>
        <time>2016-08-11T11:05:18Z</time>
      </trkpt>
      <trkpt lat="45.62359" lon="6.10233">
        <ele>1664.482445162</ele>
        <time>2016-08-11T11:05:28Z</time>
      </trkpt>
      <trkpt lat="45.62362" lon="6.1023">
        <ele>1664.482445162</ele>
        <time>2016-08-11T11:05:33Z</time>
      </trkpt>
      <trkpt lat="45.62364" lon="6.10227">
        <ele>1664.482445162</ele>
        <time>2016-08-11T11:05:43Z</time>
      </trkpt>
      <trkpt lat="45.62366" lon="6.10228">
        <ele>1666.119882296</ele>
        <time>2016-08-11T11:05:48Z</time>
      </trkpt>
      <trkpt lat="45.62372" lon="6.10228">
        <ele>1666.119882296</ele>
        <time>2016-08-11T11:05:58Z</time>
      </trkpt>
      <trkpt lat="45.62376" lon="6.10227">
        <ele>1667.414338029</ele>
        <time>2016-08-11T11:06:03Z</time>
      </trkpt>
      <trkpt lat="45.62376" lon="6.10235">
        <ele>1667.414338029</ele>
        <time>2016-08-11T11:06:18Z</time>
      </trkpt>
      <trkpt lat="45.62375" lon="6.10238">
        <ele>1667.414338029</ele>
        <time>2016-08-11T11:06:23Z</time>
      </trkpt>
      <trkpt lat="45.62379" lon="6.10243">
        <ele>1669.394632215</ele>
        <time>2016-08-11T11:06:33Z</time>
      </trkpt>
      <trkpt lat="45.6238" lon="6.10244">
        <ele>1669.394632215</ele>
        <time>2016-08-11T11:06:38Z</time>
      </trkpt>
      <trkpt lat="45.6238" lon="6.10248">
        <ele>1669.394632215</ele>
        <time>2016-08-11T11:06:48Z</time>
      </trkpt>
      <trkpt lat="45.62382" lon="6.1025">
        <ele>1669.394632215</ele>
        <time>2016-08-11T11:06:53Z</time>
      </trkpt>
      <trkpt lat="45.62385" lon="6.10252">
        <ele>1671.600578975</ele>
        <time>2016-08-11T11:07:03Z</time>
      </trkpt>
      <trkpt lat="45.62385" lon="6.10256">
        <ele>1671.600578975</ele>
        <time>2016-08-11T11:07:08Z</time>
      </trkpt>
      <trkpt lat="45.62387" lon="6.10253">
        <ele>1671.600578975</ele>
        <time>2016-08-11T11:07:18Z</time>
      </trkpt>
      <trkpt lat="45.62395" lon="6.10254">
        <ele>1673.450199703</ele>
        <time>2016-08-11T11:07:23Z</time>
      </trkpt>
      <trkpt lat="45.62396" lon="6.10257">
        <ele>1673.450199703</ele>
        <time>2016-08-11T11:07:33Z</time>
      </trkpt>
      <trkpt lat="45.62397" lon="6.10257">
        <ele>1673.450199703</ele>
        <time>2016-08-11T11:07:38Z</time>
      </trkpt>
      <trkpt lat="45.62401" lon="6.10253">
        <ele>1673.450199703</ele>
        <time>2016-08-11T11:07:48Z</time>
      </trkpt>
      <trkpt lat="45.62402" lon="6.10252">
        <ele>1675.121052104</ele>
        <time>2016-08-11T11:07:53Z</time>
      </trkpt>
      <trkpt lat="45.62404" lon="6.10254">
        <ele>1675.121052104</ele>
        <time>2016-08-11T11:08:03Z</time>
      </trkpt>
      <trkpt lat="45.62404" lon="6.10255">
        <ele>1675.121052104</ele>
        <time>2016-08-11T11:08:08Z</time>
      </trkpt>
      <trkpt lat="45.62406" lon="6.10265">
        <ele>1677.66264395</ele>
        <time>2016-08-11T11:08:23Z</time>
      </trkpt>
      <trkpt lat="45.62407" lon="6.10265">
        <ele>1677.66264395</ele>
        <time>2016-08-11T11:08:28Z</time>
      </trkpt>
      <trkpt lat="45.62412" lon="6.10267">
        <ele>1677.66264395</ele>
        <time>2016-08-11T11:08:38Z</time>
      </trkpt>
      <trkpt lat="45.62413" lon="6.10267">
        <ele>1677.66264395</ele>
        <time>2016-08-11T11:08:43Z</time>
      </trkpt>
      <trkpt lat="45.62418" lon="6.10271">
        <ele>1680.442151047</ele>
        <time>2016-08-11T11:08:53Z</time>
      </trkpt>
      <trkpt lat="45.62419" lon="6.10275">
        <ele>1680.442151047</ele>
        <time>2016-08-11T11:08:58Z</time>
      </trkpt>
      <trkpt lat="45.62418" lon="6.10276">
        <ele>1680.442151047</ele>
        <time>2016-08-11T11:09:08Z</time>
      </trkpt>
      <trkpt lat="45.6242" lon="6.10275">
        <ele>1680.442151047</ele>
        <time>2016-08-11T11:09:13Z</time>
      </trkpt>
      <trkpt lat="45.62421" lon="6.10274">
        <ele>1680.442151047</ele>
        <time>2016-08-11T11:09:23Z</time>
      </trkpt>
      <trkpt lat="45.62421" lon="6.10274">
        <ele>1680.442151047</ele>
        <time>2016-08-11T11:09:28Z</time>
      </trkpt>
      <trkpt lat="45.62421" lon="6.10274">
        <ele>1680.442151047</ele>
        <time>2016-08-11T11:09:38Z</time>
      </trkpt>
      <trkpt lat="45.62421" lon="6.10274">
        <ele>1680.442151047</ele>
        <time>2016-08-11T11:09:43Z</time>
      </trkpt>
      <trkpt lat="45.6242" lon="6.10276">
        <ele>1680.442151047</ele>
        <time>2016-08-11T11:09:53Z</time>
      </trkpt>
      <trkpt lat="45.6242" lon="6.10275">
        <ele>1683.007735232</ele>
        <time>2016-08-11T11:09:58Z</time>
      </trkpt>
      <trkpt lat="45.6242" lon="6.10275">
        <ele>1683.007735232</ele>
        <time>2016-08-11T11:10:08Z</time>
      </trkpt>
      <trkpt lat="45.6242" lon="6.10275">
        <ele>1683.007735232</ele>
        <time>2016-08-11T11:10:13Z</time>
      </trkpt>
      <trkpt lat="45.6242" lon="6.10275">
        <ele>1683.007735232</ele>
        <time>2016-08-11T11:10:23Z</time>
      </trkpt>
      <trkpt lat="45.6242" lon="6.10275">
        <ele>1683.007735232</ele>
        <time>2016-08-11T11:10:28Z</time>
      </trkpt>
      <trkpt lat="45.6242" lon="6.10275">
        <ele>1683.007735232</ele>
        <time>2016-08-11T11:10:38Z</time>
      </trkpt>
      <trkpt lat="45.6242" lon="6.10276">
        <ele>1683.007735232</ele>
        <time>2016-08-11T11:10:43Z</time>
      </trkpt>
      <trkpt lat="45.62421" lon="6.10276">
        <ele>1683.007735232</ele>
        <time>2016-08-11T11:10:58Z</time>
      </trkpt>
      <trkpt lat="45.62423" lon="6.10276">
        <ele>1683.007735232</ele>
        <time>2016-08-11T11:11:03Z</time>
      </trkpt>
      <trkpt lat="45.62429" lon="6.1028">
        <ele>1685.381119768</ele>
        <time>2016-08-11T11:11:13Z</time>
      </trkpt>
      <trkpt lat="45.62429" lon="6.1028">
        <ele>1685.381119768</ele>
        <time>2016-08-11T11:11:18Z</time>
      </trkpt>
      <trkpt lat="45.62434" lon="6.10282">
        <ele>1685.381119768</ele>
        <time>2016-08-11T11:11:28Z</time>
      </trkpt>
      <trkpt lat="45.62436" lon="6.10285">
        <ele>1685.381119768</ele>
        <time>2016-08-11T11:11:33Z</time>
      </trkpt>
      <trkpt lat="45.62435" lon="6.10285">
        <ele>1687.733142227</ele>
        <time>2016-08-11T11:11:43Z</time>
      </trkpt>
      <trkpt lat="45.62435" lon="6.10286">
        <ele>1687.733142227</ele>
        <time>2016-08-11T11:11:48Z</time>
      </trkpt>
      <trkpt lat="45.62435" lon="6.10286">
        <ele>1687.733142227</ele>
        <time>2016-08-11T11:11:58Z</time>
      </trkpt>
      <trkpt lat="45.62435" lon="6.10286">
        <ele>1687.733142227</ele>
        <time>2016-08-11T11:12:03Z</time>
      </trkpt>
      <trkpt lat="45.62438" lon="6.10287">
        <ele>1687.733142227</ele>
        <time>2016-08-11T11:12:13Z</time>
      </trkpt>
      <trkpt lat="45.6244" lon="6.1029">
        <ele>1687.733142227</ele>
        <time>2016-08-11T11:12:18Z</time>
      </trkpt>
      <trkpt lat="45.62443" lon="6.10293">
        <ele>1690.223710447</ele>
        <time>2016-08-11T11:12:28Z</time>
      </trkpt>
      <trkpt lat="45.62445" lon="6.10295">
        <ele>1690.223710447</ele>
        <time>2016-08-11T11:12:33Z</time>
      </trkpt>
      <trkpt lat="45.62449" lon="6.10299">
        <ele>1690.223710447</ele>
        <time>2016-08-11T11:12:43Z</time>
      </trkpt>
      <trkpt lat="45.62449" lon="6.10299">
        <ele>1690.223710447</ele>
        <time>2016-08-11T11:12:48Z</time>
      </trkpt>
      <trkpt lat="45.6245" lon="6.10301">
        <ele>1693.301858222</ele>
        <time>2016-08-11T11:12:58Z</time>
      </trkpt>
      <trkpt lat="45.62451" lon="6.10301">
        <ele>1693.301858222</ele>
        <time>2016-08-11T11:13:03Z</time>
      </trkpt>
      <trkpt lat="45.62451" lon="6.10301">
        <ele>1693.301858222</ele>
        <time>2016-08-11T11:13:14Z</time>
      </trkpt>
      <trkpt lat="45.62451" lon="6.10301">
        <ele>1693.301858222</ele>
        <time>2016-08-11T11:13:18Z</time>
      </trkpt>
      <trkpt lat="45.62451" lon="6.10301">
        <ele>1693.301858222</ele>
        <time>2016-08-11T11:13:34Z</time>
      </trkpt>
      <trkpt lat="45.62451" lon="6.10301">
        <ele>1693.301858222</ele>
        <time>2016-08-11T11:13:38Z</time>
      </trkpt>
      <trkpt lat="45.62458" lon="6.10306">
        <ele>1693.301858222</ele>
        <time>2016-08-11T11:13:48Z</time>
      </trkpt>
      <trkpt lat="45.62461" lon="6.10308">
        <ele>1695.875039864</ele>
        <time>2016-08-11T11:13:53Z</time>
      </trkpt>
      <trkpt lat="45.62467" lon="6.10314">
        <ele>1695.875039864</ele>
        <time>2016-08-11T11:14:04Z</time>
      </trkpt>
      <trkpt lat="45.62466" lon="6.10319">
        <ele>1698.287829414</ele>
        <time>2016-08-11T11:14:09Z</time>
      </trkpt>
      <trkpt lat="45.62469" lon="6.10326">
        <ele>1698.287829414</ele>
        <time>2016-08-11T11:14:19Z</time>
      </trkpt>
      <trkpt lat="45.62473" lon="6.10329">
        <ele>1699.954587068</ele>
        <time>2016-08-11T11:14:23Z</time>
      </trkpt>
      <trkpt lat="45.62477" lon="6.10331">
        <ele>1699.954587068</ele>
        <time>2016-08-11T11:14:33Z</time>
      </trkpt>
      <trkpt lat="45.62477" lon="6.10331">
        <ele>1699.954587068</ele>
        <time>2016-08-11T11:14:38Z</time>
      </trkpt>
      <trkpt lat="45.62477" lon="6.10331">
        <ele>1699.954587068</ele>
        <time>2016-08-11T11:14:48Z</time>
      </trkpt>
      <trkpt lat="45.62478" lon="6.10332">
        <ele>1699.954587068</ele>
        <time>2016-08-11T11:14:53Z</time>
      </trkpt>
      <trkpt lat="45.62481" lon="6.10334">
        <ele>1699.954587068</ele>
        <time>2016-08-11T11:14:58Z</time>
      </trkpt>
      <trkpt lat="45.62484" lon="6.10337">
        <ele>1701.544787621</ele>
        <time>2016-08-11T11:15:08Z</time>
      </trkpt>
      <trkpt lat="45.62485" lon="6.10339">
        <ele>1701.544787621</ele>
        <time>2016-08-11T11:15:13Z</time>
      </trkpt>
      <trkpt lat="45.62485" lon="6.1034">
        <ele>1701.544787621</ele>
        <time>2016-08-11T11:15:23Z</time>
      </trkpt>
      <trkpt lat="45.62485" lon="6.1034">
        <ele>1701.544787621</ele>
        <time>2016-08-11T11:15:28Z</time>
      </trkpt>
      <trkpt lat="45.62485" lon="6.1034">
        <ele>1701.544787621</ele>
        <time>2016-08-11T11:15:38Z</time>
      </trkpt>
      <trkpt lat="45.62485" lon="6.1034">
        <ele>1701.544787621</ele>
        <time>2016-08-11T11:15:43Z</time>
      </trkpt>
      <trkpt lat="45.62487" lon="6.10345">
        <ele>1701.544787621</ele>
        <time>2016-08-11T11:15:53Z</time>
      </trkpt>
      <trkpt lat="45.62489" lon="6.10348">
        <ele>1703.223851554</ele>
        <time>2016-08-11T11:15:58Z</time>
      </trkpt>
      <trkpt lat="45.62492" lon="6.10354">
        <ele>1703.223851554</ele>
        <time>2016-08-11T11:16:08Z</time>
      </trkpt>
      <trkpt lat="45.62493" lon="6.10358">
        <ele>1703.223851554</ele>
        <time>2016-08-11T11:16:13Z</time>
      </trkpt>
      <trkpt lat="45.62497" lon="6.10365">
        <ele>1704.540314797</ele>
        <time>2016-08-11T11:16:28Z</time>
      </trkpt>
      <trkpt lat="45.62498" lon="6.10365">
        <ele>1704.540314797</ele>
        <time>2016-08-11T11:16:33Z</time>
      </trkpt>
      <trkpt lat="45.62498" lon="6.10365">
        <ele>1704.540314797</ele>
        <time>2016-08-11T11:16:43Z</time>
      </trkpt>
      <trkpt lat="45.62498" lon="6.10365">
        <ele>1704.540314797</ele>
        <time>2016-08-11T11:16:48Z</time>
      </trkpt>
      <trkpt lat="45.62498" lon="6.10365">
        <ele>1704.540314797</ele>
        <time>2016-08-11T11:16:58Z</time>
      </trkpt>
      <trkpt lat="45.62498" lon="6.10365">
        <ele>1704.540314797</ele>
        <time>2016-08-11T11:17:03Z</time>
      </trkpt>
      <trkpt lat="45.62502" lon="6.10369">
        <ele>1704.540314797</ele>
        <time>2016-08-11T11:17:13Z</time>
      </trkpt>
      <trkpt lat="45.62502" lon="6.10374">
        <ele>1705.531540607</ele>
        <time>2016-08-11T11:17:18Z</time>
      </trkpt>
      <trkpt lat="45.62504" lon="6.10384">
        <ele>1705.531540607</ele>
        <time>2016-08-11T11:17:28Z</time>
      </trkpt>
      <trkpt lat="45.62504" lon="6.1039">
        <ele>1706.232783863</ele>
        <time>2016-08-11T11:17:33Z</time>
      </trkpt>
      <trkpt lat="45.6251" lon="6.10395">
        <ele>1706.232783863</ele>
        <time>2016-08-11T11:17:43Z</time>
      </trkpt>
      <trkpt lat="45.62512" lon="6.104">
        <ele>1706.827051108</ele>
        <time>2016-08-11T11:17:48Z</time>
      </trkpt>
      <trkpt lat="45.62518" lon="6.10408">
        <ele>1706.827051108</ele>
        <time>2016-08-11T11:17:58Z</time>
      </trkpt>
      <trkpt lat="45.6252" lon="6.10411">
        <ele>1707.033121033</ele>
        <time>2016-08-11T11:18:03Z</time>
      </trkpt>
      <trkpt lat="45.62527" lon="6.10418">
        <ele>1707.033121033</ele>
        <time>2016-08-11T11:18:13Z</time>
      </trkpt>
      <trkpt lat="45.62532" lon="6.10423">
        <ele>1707.340678015</ele>
        <time>2016-08-11T11:18:18Z</time>
      </trkpt>
      <trkpt lat="45.6253" lon="6.10427">
        <ele>1707.340678015</ele>
        <time>2016-08-11T11:18:28Z</time>
      </trkpt>
      <trkpt lat="45.62529" lon="6.10428">
        <ele>1707.340678015</ele>
        <time>2016-08-11T11:18:33Z</time>
      </trkpt>
      <trkpt lat="45.62531" lon="6.10427">
        <ele>1707.340678015</ele>
        <time>2016-08-11T11:18:48Z</time>
      </trkpt>
      <trkpt lat="45.62537" lon="6.10436">
        <ele>1707.452807283</ele>
        <time>2016-08-11T11:18:53Z</time>
      </trkpt>
      <trkpt lat="45.62542" lon="6.10436">
        <ele>1707.452807283</ele>
        <time>2016-08-11T11:18:58Z</time>
      </trkpt>
      <trkpt lat="45.62546" lon="6.10438">
        <ele>1707.98918025</ele>
        <time>2016-08-11T11:19:03Z</time>
      </trkpt>
      <trkpt lat="45.62548" lon="6.10439">
        <ele>1707.98918025</ele>
        <time>2016-08-11T11:19:08Z</time>
      </trkpt>
      <trkpt lat="45.62551" lon="6.1044">
        <ele>1707.98918025</ele>
        <time>2016-08-11T11:19:13Z</time>
      </trkpt>
      <trkpt lat="45.62552" lon="6.10439">
        <ele>1707.98918025</ele>
        <time>2016-08-11T11:19:18Z</time>
      </trkpt>
      <trkpt lat="45.62556" lon="6.10449">
        <ele>1708.181915431</ele>
        <time>2016-08-11T11:19:28Z</time>
      </trkpt>
      <trkpt lat="45.62559" lon="6.10448">
        <ele>1708.181915431</ele>
        <time>2016-08-11T11:19:33Z</time>
      </trkpt>
      <trkpt lat="45.62568" lon="6.10461">
        <ele>1708.363133906</ele>
        <time>2016-08-11T11:19:48Z</time>
      </trkpt>
      <trkpt lat="45.62569" lon="6.10464">
        <ele>1708.363133906</ele>
        <time>2016-08-11T11:19:53Z</time>
      </trkpt>
      <trkpt lat="45.62572" lon="6.10472">
        <ele>1708.363133906</ele>
        <time>2016-08-11T11:20:03Z</time>
      </trkpt>
      <trkpt lat="45.62572" lon="6.10475">
        <ele>1709.279221408</ele>
        <time>2016-08-11T11:20:08Z</time>
      </trkpt>
      <trkpt lat="45.62575" lon="6.10478">
        <ele>1709.279221408</ele>
        <time>2016-08-11T11:20:18Z</time>
      </trkpt>
      <trkpt lat="45.62577" lon="6.10482">
        <ele>1709.279221408</ele>
        <time>2016-08-11T11:20:23Z</time>
      </trkpt>
      <trkpt lat="45.62578" lon="6.10483">
        <ele>1709.279221408</ele>
        <time>2016-08-11T11:20:33Z</time>
      </trkpt>
      <trkpt lat="45.62578" lon="6.10483">
        <ele>1709.279221408</ele>
        <time>2016-08-11T11:20:38Z</time>
      </trkpt>
      <trkpt lat="45.62579" lon="6.10484">
        <ele>1710.435159071</ele>
        <time>2016-08-11T11:20:48Z</time>
      </trkpt>
      <trkpt lat="45.6258" lon="6.10485">
        <ele>1710.435159071</ele>
        <time>2016-08-11T11:20:53Z</time>
      </trkpt>
      <trkpt lat="45.62585" lon="6.10481">
        <ele>1710.435159071</ele>
        <time>2016-08-11T11:21:03Z</time>
      </trkpt>
      <trkpt lat="45.62586" lon="6.10481">
        <ele>1710.435159071</ele>
        <time>2016-08-11T11:21:08Z</time>
      </trkpt>
      <trkpt lat="45.62586" lon="6.10481">
        <ele>1710.435159071</ele>
        <time>2016-08-11T11:21:18Z</time>
      </trkpt>
      <trkpt lat="45.62585" lon="6.10481">
        <ele>1710.435159071</ele>
        <time>2016-08-11T11:21:23Z</time>
      </trkpt>
      <trkpt lat="45.62588" lon="6.10485">
        <ele>1711.376296874</ele>
        <time>2016-08-11T11:21:33Z</time>
      </trkpt>
      <trkpt lat="45.62588" lon="6.10485">
        <ele>1711.376296874</ele>
        <time>2016-08-11T11:21:38Z</time>
      </trkpt>
      <trkpt lat="45.62595" lon="6.10485">
        <ele>1711.376296874</ele>
        <time>2016-08-11T11:21:53Z</time>
      </trkpt>
      <trkpt lat="45.62601" lon="6.10497">
        <ele>1713.004084167</ele>
        <time>2016-08-11T11:22:08Z</time>
      </trkpt>
      <trkpt lat="45.62604" lon="6.10501">
        <ele>1713.004084167</ele>
        <time>2016-08-11T11:22:13Z</time>
      </trkpt>
      <trkpt lat="45.62608" lon="6.10503">
        <ele>1713.004084167</ele>
        <time>2016-08-11T11:22:23Z</time>
      </trkpt>
      <trkpt lat="45.62609" lon="6.10504">
        <ele>1714.39011196</ele>
        <time>2016-08-11T11:22:28Z</time>
      </trkpt>
      <trkpt lat="45.6261" lon="6.10505">
        <ele>1714.39011196</ele>
        <time>2016-08-11T11:22:33Z</time>
      </trkpt>
      <trkpt lat="45.62613" lon="6.10506">
        <ele>1714.39011196</ele>
        <time>2016-08-11T11:22:43Z</time>
      </trkpt>
      <trkpt lat="45.62612" lon="6.10507">
        <ele>1714.39011196</ele>
        <time>2016-08-11T11:22:48Z</time>
      </trkpt>
      <trkpt lat="45.62615" lon="6.10504">
        <ele>1714.39011196</ele>
        <time>2016-08-11T11:22:58Z</time>
      </trkpt>
      <trkpt lat="45.62617" lon="6.10505">
        <ele>1715.411502626</ele>
        <time>2016-08-11T11:23:03Z</time>
      </trkpt>
      <trkpt lat="45.62623" lon="6.10505">
        <ele>1715.411502626</ele>
        <time>2016-08-11T11:23:13Z</time>
      </trkpt>
      <trkpt lat="45.62626" lon="6.10508">
        <ele>1716.247199658</ele>
        <time>2016-08-11T11:23:18Z</time>
      </trkpt>
      <trkpt lat="45.62634" lon="6.1051">
        <ele>1716.247199658</ele>
        <time>2016-08-11T11:23:33Z</time>
      </trkpt>
      <trkpt lat="45.62636" lon="6.10509">
        <ele>1717.207399999</ele>
        <time>2016-08-11T11:23:38Z</time>
      </trkpt>
      <trkpt lat="45.6264" lon="6.10514">
        <ele>1717.207399999</ele>
        <time>2016-08-11T11:23:48Z</time>
      </trkpt>
      <trkpt lat="45.6264" lon="6.10516">
        <ele>1717.207399999</ele>
        <time>2016-08-11T11:23:53Z</time>
      </trkpt>
      <trkpt lat="45.62642" lon="6.10517">
        <ele>1717.207399999</ele>
        <time>2016-08-11T11:24:03Z</time>
      </trkpt>
      <trkpt lat="45.62647" lon="6.10522">
        <ele>1718.431924142</ele>
        <time>2016-08-11T11:24:08Z</time>
      </trkpt>
      <trkpt lat="45.62653" lon="6.10527">
        <ele>1718.431924142</ele>
        <time>2016-08-11T11:24:18Z</time>
      </trkpt>
      <trkpt lat="45.62653" lon="6.10528">
        <ele>1718.431924142</ele>
        <time>2016-08-11T11:24:23Z</time>
      </trkpt>
      <trkpt lat="45.62655" lon="6.1053">
        <ele>1720.193832962</ele>
        <time>2016-08-11T11:24:33Z</time>
      </trkpt>
      <trkpt lat="45.62656" lon="6.10532">
        <ele>1720.193832962</ele>
        <time>2016-08-11T11:24:38Z</time>
      </trkpt>
      <trkpt lat="45.6266" lon="6.10536">
        <ele>1720.193832962</ele>
        <time>2016-08-11T11:24:49Z</time>
      </trkpt>
      <trkpt lat="45.62661" lon="6.10539">
        <ele>1721.584441976</ele>
        <time>2016-08-11T11:24:53Z</time>
      </trkpt>
      <trkpt lat="45.62658" lon="6.10539">
        <ele>1721.584441976</ele>
        <time>2016-08-11T11:25:03Z</time>
      </trkpt>
      <trkpt lat="45.62659" lon="6.10543">
        <ele>1721.584441976</ele>
        <time>2016-08-11T11:25:08Z</time>
      </trkpt>
      <trkpt lat="45.62658" lon="6.10543">
        <ele>1721.584441976</ele>
        <time>2016-08-11T11:25:23Z</time>
      </trkpt>
      <trkpt lat="45.62658" lon="6.10543">
        <ele>1721.584441976</ele>
        <time>2016-08-11T11:25:28Z</time>
      </trkpt>
      <trkpt lat="45.62658" lon="6.10543">
        <ele>1721.584441976</ele>
        <time>2016-08-11T11:25:38Z</time>
      </trkpt>
      <trkpt lat="45.62658" lon="6.10543">
        <ele>1721.584441976</ele>
        <time>2016-08-11T11:25:43Z</time>
      </trkpt>
      <trkpt lat="45.62658" lon="6.10543">
        <ele>1721.584441976</ele>
        <time>2016-08-11T11:25:53Z</time>
      </trkpt>
      <trkpt lat="45.62658" lon="6.10543">
        <ele>1721.584441976</ele>
        <time>2016-08-11T11:25:58Z</time>
      </trkpt>
      <trkpt lat="45.62658" lon="6.10543">
        <ele>1721.584441976</ele>
        <time>2016-08-11T11:26:08Z</time>
      </trkpt>
      <trkpt lat="45.62658" lon="6.10543">
        <ele>1721.584441976</ele>
        <time>2016-08-11T11:26:13Z</time>
      </trkpt>
      <trkpt lat="45.62658" lon="6.10544">
        <ele>1721.584441976</ele>
        <time>2016-08-11T11:26:23Z</time>
      </trkpt>
      <trkpt lat="45.62657" lon="6.10544">
        <ele>1721.584441976</ele>
        <time>2016-08-11T11:26:28Z</time>
      </trkpt>
      <trkpt lat="45.62662" lon="6.10548">
        <ele>1723.792637005</ele>
        <time>2016-08-11T11:26:38Z</time>
      </trkpt>
      <trkpt lat="45.62664" lon="6.10549">
        <ele>1723.792637005</ele>
        <time>2016-08-11T11:26:43Z</time>
      </trkpt>
      <trkpt lat="45.62664" lon="6.10555">
        <ele>1723.792637005</ele>
        <time>2016-08-11T11:26:53Z</time>
      </trkpt>
      <trkpt lat="45.62668" lon="6.10555">
        <ele>1726.756583157</ele>
        <time>2016-08-11T11:26:58Z</time>
      </trkpt>
      <trkpt lat="45.6267" lon="6.10557">
        <ele>1726.756583157</ele>
        <time>2016-08-11T11:27:08Z</time>
      </trkpt>
      <trkpt lat="45.6267" lon="6.10559">
        <ele>1726.756583157</ele>
        <time>2016-08-11T11:27:13Z</time>
      </trkpt>
      <trkpt lat="45.6267" lon="6.10564">
        <ele>1726.756583157</ele>
        <time>2016-08-11T11:27:23Z</time>
      </trkpt>
      <trkpt lat="45.6267" lon="6.10565">
        <ele>1726.756583157</ele>
        <time>2016-08-11T11:27:28Z</time>
      </trkpt>
      <trkpt lat="45.62671" lon="6.10566">
        <ele>1726.756583157</ele>
        <time>2016-08-11T11:27:39Z</time>
      </trkpt>
      <trkpt lat="45.62672" lon="6.10565">
        <ele>1729.983762353</ele>
        <time>2016-08-11T11:27:43Z</time>
      </trkpt>
      <trkpt lat="45.62674" lon="6.10569">
        <ele>1729.983762353</ele>
        <time>2016-08-11T11:27:53Z</time>
      </trkpt>
      <trkpt lat="45.62674" lon="6.1057">
        <ele>1729.983762353</ele>
        <time>2016-08-11T11:27:58Z</time>
      </trkpt>
      <trkpt lat="45.62677" lon="6.10575">
        <ele>1729.983762353</ele>
        <time>2016-08-11T11:28:08Z</time>
      </trkpt>
      <trkpt lat="45.62678" lon="6.10574">
        <ele>1733.596078431</ele>
        <time>2016-08-11T11:28:14Z</time>
      </trkpt>
      <trkpt lat="45.62681" lon="6.10578">
        <ele>1733.596078431</ele>
        <time>2016-08-11T11:28:24Z</time>
      </trkpt>
      <trkpt lat="45.62683" lon="6.10581">
        <ele>1733.596078431</ele>
        <time>2016-08-11T11:28:29Z</time>
      </trkpt>
      <trkpt lat="45.62686" lon="6.10582">
        <ele>1737.56073691</ele>
        <time>2016-08-11T11:28:39Z</time>
      </trkpt>
      <trkpt lat="45.62687" lon="6.10584">
        <ele>1737.56073691</ele>
        <time>2016-08-11T11:28:43Z</time>
      </trkpt>
      <trkpt lat="45.62689" lon="6.10584">
        <ele>1737.56073691</ele>
        <time>2016-08-11T11:28:48Z</time>
      </trkpt>
      <trkpt lat="45.62689" lon="6.10583">
        <ele>1737.56073691</ele>
        <time>2016-08-11T11:28:59Z</time>
      </trkpt>
      <trkpt lat="45.62691" lon="6.10589">
        <ele>1737.56073691</ele>
        <time>2016-08-11T11:29:03Z</time>
      </trkpt>
      <trkpt lat="45.62695" lon="6.10591">
        <ele>1741.413474653</ele>
        <time>2016-08-11T11:29:08Z</time>
      </trkpt>
      <trkpt lat="45.62697" lon="6.10592">
        <ele>1741.413474653</ele>
        <time>2016-08-11T11:29:13Z</time>
      </trkpt>
      <trkpt lat="45.62697" lon="6.10593">
        <ele>1741.413474653</ele>
        <time>2016-08-11T11:29:18Z</time>
      </trkpt>
      <trkpt lat="45.62697" lon="6.10593">
        <ele>1741.413474653</ele>
        <time>2016-08-11T11:29:23Z</time>
      </trkpt>
      <trkpt lat="45.62699" lon="6.10594">
        <ele>1741.413474653</ele>
        <time>2016-08-11T11:29:30Z</time>
      </trkpt>
      <trkpt lat="45.62705" lon="6.10596">
        <ele>1745.013436709</ele>
        <time>2016-08-11T11:29:38Z</time>
      </trkpt>
      <trkpt lat="45.62708" lon="6.10595">
        <ele>1745.013436709</ele>
        <time>2016-08-11T11:29:43Z</time>
      </trkpt>
      <trkpt lat="45.62705" lon="6.10599">
        <ele>1745.013436709</ele>
        <time>2016-08-11T11:29:53Z</time>
      </trkpt>
      <trkpt lat="45.62705" lon="6.10601">
        <ele>1748.807652969</ele>
        <time>2016-08-11T11:29:58Z</time>
      </trkpt>
      <trkpt lat="45.62705" lon="6.10602">
        <ele>1748.807652969</ele>
        <time>2016-08-11T11:30:08Z</time>
      </trkpt>
      <trkpt lat="45.6271" lon="6.10604">
        <ele>1748.807652969</ele>
        <time>2016-08-11T11:30:13Z</time>
      </trkpt>
      <trkpt lat="45.62712" lon="6.10607">
        <ele>1748.807652969</ele>
        <time>2016-08-11T11:30:23Z</time>
      </trkpt>
      <trkpt lat="45.62712" lon="6.10608">
        <ele>1752.344087765</ele>
        <time>2016-08-11T11:30:28Z</time>
      </trkpt>
      <trkpt lat="45.62712" lon="6.10608">
        <ele>1752.344087765</ele>
        <time>2016-08-11T11:30:43Z</time>
      </trkpt>
      <trkpt lat="45.62715" lon="6.10615">
        <ele>1752.344087765</ele>
        <time>2016-08-11T11:30:48Z</time>
      </trkpt>
      <trkpt lat="45.62714" lon="6.10616">
        <ele>1752.344087765</ele>
        <time>2016-08-11T11:30:58Z</time>
      </trkpt>
      <trkpt lat="45.62715" lon="6.10617">
        <ele>1752.344087765</ele>
        <time>2016-08-11T11:31:04Z</time>
      </trkpt>
      <trkpt lat="45.62718" lon="6.10622">
        <ele>1755.925710568</ele>
        <time>2016-08-11T11:31:14Z</time>
      </trkpt>
      <trkpt lat="45.6272" lon="6.10626">
        <ele>1755.925710568</ele>
        <time>2016-08-11T11:31:18Z</time>
      </trkpt>
      <trkpt lat="45.62723" lon="6.10625">
        <ele>1755.925710568</ele>
        <time>2016-08-11T11:31:28Z</time>
      </trkpt>
      <trkpt lat="45.62722" lon="6.1063">
        <ele>1759.688735191</ele>
        <time>2016-08-11T11:31:34Z</time>
      </trkpt>
      <trkpt lat="45.62723" lon="6.10632">
        <ele>1759.688735191</ele>
        <time>2016-08-11T11:31:43Z</time>
      </trkpt>
      <trkpt lat="45.62724" lon="6.10633">
        <ele>1759.688735191</ele>
        <time>2016-08-11T11:31:48Z</time>
      </trkpt>
      <trkpt lat="45.62727" lon="6.10639">
        <ele>1759.688735191</ele>
        <time>2016-08-11T11:31:58Z</time>
      </trkpt>
      <trkpt lat="45.62728" lon="6.1064">
        <ele>1763.470458436</ele>
        <time>2016-08-11T11:32:03Z</time>
      </trkpt>
      <trkpt lat="45.6273" lon="6.10643">
        <ele>1763.470458436</ele>
        <time>2016-08-11T11:32:13Z</time>
      </trkpt>
      <trkpt lat="45.6273" lon="6.10644">
        <ele>1763.470458436</ele>
        <time>2016-08-11T11:32:18Z</time>
      </trkpt>
      <trkpt lat="45.6273" lon="6.10644">
        <ele>1763.470458436</ele>
        <time>2016-08-11T11:32:28Z</time>
      </trkpt>
      <trkpt lat="45.6273" lon="6.10644">
        <ele>1763.470458436</ele>
        <time>2016-08-11T11:32:33Z</time>
      </trkpt>
      <trkpt lat="45.6273" lon="6.10644">
        <ele>1763.470458436</ele>
        <time>2016-08-11T11:32:43Z</time>
      </trkpt>
      <trkpt lat="45.6273" lon="6.10644">
        <ele>1763.470458436</ele>
        <time>2016-08-11T11:32:48Z</time>
      </trkpt>
      <trkpt lat="45.6273" lon="6.10644">
        <ele>1763.470458436</ele>
        <time>2016-08-11T11:32:58Z</time>
      </trkpt>
      <trkpt lat="45.6273" lon="6.10644">
        <ele>1763.470458436</ele>
        <time>2016-08-11T11:33:03Z</time>
      </trkpt>
      <trkpt lat="45.62733" lon="6.10645">
        <ele>1763.470458436</ele>
        <time>2016-08-11T11:33:13Z</time>
      </trkpt>
      <trkpt lat="45.62732" lon="6.10644">
        <ele>1763.470458436</ele>
        <time>2016-08-11T11:33:18Z</time>
      </trkpt>
      <trkpt lat="45.62734" lon="6.10647">
        <ele>1767.120080774</ele>
        <time>2016-08-11T11:33:33Z</time>
      </trkpt>
      <trkpt lat="45.62734" lon="6.10647">
        <ele>1767.120080774</ele>
        <time>2016-08-11T11:33:38Z</time>
      </trkpt>
      <trkpt lat="45.62733" lon="6.10646">
        <ele>1767.120080774</ele>
        <time>2016-08-11T11:33:48Z</time>
      </trkpt>
      <trkpt lat="45.62735" lon="6.10649">
        <ele>1767.120080774</ele>
        <time>2016-08-11T11:33:53Z</time>
      </trkpt>
      <trkpt lat="45.62737" lon="6.10655">
        <ele>1767.120080774</ele>
        <time>2016-08-11T11:34:03Z</time>
      </trkpt>
      <trkpt lat="45.62737" lon="6.10655">
        <ele>1767.120080774</ele>
        <time>2016-08-11T11:34:08Z</time>
      </trkpt>
      <trkpt lat="45.62737" lon="6.10656">
        <ele>1767.120080774</ele>
        <time>2016-08-11T11:34:18Z</time>
      </trkpt>
      <trkpt lat="45.62737" lon="6.10656">
        <ele>1767.120080774</ele>
        <time>2016-08-11T11:34:23Z</time>
      </trkpt>
      <trkpt lat="45.62737" lon="6.10656">
        <ele>1767.120080774</ele>
        <time>2016-08-11T11:34:33Z</time>
      </trkpt>
      <trkpt lat="45.62741" lon="6.10661">
        <ele>1771.363326577</ele>
        <time>2016-08-11T11:34:38Z</time>
      </trkpt>
      <trkpt lat="45.62743" lon="6.10666">
        <ele>1771.363326577</ele>
        <time>2016-08-11T11:34:48Z</time>
      </trkpt>
      <trkpt lat="45.62745" lon="6.10665">
        <ele>1771.363326577</ele>
        <time>2016-08-11T11:34:53Z</time>
      </trkpt>
      <trkpt lat="45.62746" lon="6.10664">
        <ele>1771.363326577</ele>
        <time>2016-08-11T11:35:03Z</time>
      </trkpt>
      <trkpt lat="45.62746" lon="6.10666">
        <ele>1771.363326577</ele>
        <time>2016-08-11T11:35:08Z</time>
      </trkpt>
      <trkpt lat="45.62747" lon="6.10666">
        <ele>1776.438471826</ele>
        <time>2016-08-11T11:35:19Z</time>
      </trkpt>
      <trkpt lat="45.62747" lon="6.10667">
        <ele>1776.438471826</ele>
        <time>2016-08-11T11:35:23Z</time>
      </trkpt>
      <trkpt lat="45.62747" lon="6.10667">
        <ele>1776.438471826</ele>
        <time>2016-08-11T11:35:33Z</time>
      </trkpt>
      <trkpt lat="45.62747" lon="6.10667">
        <ele>1776.438471826</ele>
        <time>2016-08-11T11:35:38Z</time>
      </trkpt>
      <trkpt lat="45.62747" lon="6.10667">
        <ele>1776.438471826</ele>
        <time>2016-08-11T11:35:48Z</time>
      </trkpt>
      <trkpt lat="45.62747" lon="6.10667">
        <ele>1776.438471826</ele>
        <time>2016-08-11T11:35:53Z</time>
      </trkpt>
      <trkpt lat="45.62748" lon="6.10669">
        <ele>1776.438471826</ele>
        <time>2016-08-11T11:36:03Z</time>
      </trkpt>
      <trkpt lat="45.62749" lon="6.10673">
        <ele>1776.438471826</ele>
        <time>2016-08-11T11:36:08Z</time>
      </trkpt>
      <trkpt lat="45.62749" lon="6.10674">
        <ele>1776.438471826</ele>
        <time>2016-08-11T11:36:13Z</time>
      </trkpt>
      <trkpt lat="45.62749" lon="6.10675">
        <ele>1776.438471826</ele>
        <time>2016-08-11T11:36:18Z</time>
      </trkpt>
      <trkpt lat="45.62749" lon="6.10675">
        <ele>1776.438471826</ele>
        <time>2016-08-11T11:36:23Z</time>
      </trkpt>
      <trkpt lat="45.62749" lon="6.10675">
        <ele>1776.438471826</ele>
        <time>2016-08-11T11:36:28Z</time>
      </trkpt>
      <trkpt lat="45.62749" lon="6.10675">
        <ele>1776.438471826</ele>
        <time>2016-08-11T11:36:33Z</time>
      </trkpt>
      <trkpt lat="45.62749" lon="6.10675">
        <ele>1776.438471826</ele>
        <time>2016-08-11T11:36:38Z</time>
      </trkpt>
      <trkpt lat="45.62751" lon="6.10674">
        <ele>1776.438471826</ele>
        <time>2016-08-11T11:36:53Z</time>
      </trkpt>
      <trkpt lat="45.62748" lon="6.10673">
        <ele>1782.41985661</ele>
        <time>2016-08-11T11:36:58Z</time>
      </trkpt>
      <trkpt lat="45.62749" lon="6.10673">
        <ele>1782.41985661</ele>
        <time>2016-08-11T11:37:08Z</time>
      </trkpt>
      <trkpt lat="45.62749" lon="6.10673">
        <ele>1782.41985661</ele>
        <time>2016-08-11T11:37:13Z</time>
      </trkpt>
      <trkpt lat="45.62749" lon="6.10673">
        <ele>1782.41985661</ele>
        <time>2016-08-11T11:37:23Z</time>
      </trkpt>
      <trkpt lat="45.62749" lon="6.10673">
        <ele>1782.41985661</ele>
        <time>2016-08-11T11:37:28Z</time>
      </trkpt>
      <trkpt lat="45.62749" lon="6.10673">
        <ele>1782.41985661</ele>
        <time>2016-08-11T11:37:38Z</time>
      </trkpt>
      <trkpt lat="45.62749" lon="6.10673">
        <ele>1782.41985661</ele>
        <time>2016-08-11T11:37:43Z</time>
      </trkpt>
      <trkpt lat="45.62749" lon="6.10673">
        <ele>1782.41985661</ele>
        <time>2016-08-11T11:37:53Z</time>
      </trkpt>
      <trkpt lat="45.62749" lon="6.10673">
        <ele>1782.41985661</ele>
        <time>2016-08-11T11:37:58Z</time>
      </trkpt>
      <trkpt lat="45.62749" lon="6.10673">
        <ele>1782.41985661</ele>
        <time>2016-08-11T11:38:08Z</time>
      </trkpt>
      <trkpt lat="45.62749" lon="6.10673">
        <ele>1782.41985661</ele>
        <time>2016-08-11T11:38:13Z</time>
      </trkpt>
      <trkpt lat="45.62749" lon="6.10673">
        <ele>1782.41985661</ele>
        <time>2016-08-11T11:38:23Z</time>
      </trkpt>
      <trkpt lat="45.62749" lon="6.10673">
        <ele>1782.41985661</ele>
        <time>2016-08-11T11:38:28Z</time>
      </trkpt>
      <trkpt lat="45.62749" lon="6.10673">
        <ele>1782.41985661</ele>
        <time>2016-08-11T11:38:38Z</time>
      </trkpt>
      <trkpt lat="45.6275" lon="6.10673">
        <ele>1782.41985661</ele>
        <time>2016-08-11T11:38:43Z</time>
      </trkpt>
      <trkpt lat="45.62749" lon="6.10673">
        <ele>1782.41985661</ele>
        <time>2016-08-11T11:38:53Z</time>
      </trkpt>
      <trkpt lat="45.62749" lon="6.10673">
        <ele>1782.41985661</ele>
        <time>2016-08-11T11:38:58Z</time>
      </trkpt>
      <trkpt lat="45.6275" lon="6.10673">
        <ele>1782.41985661</ele>
        <time>2016-08-11T11:39:08Z</time>
      </trkpt>
      <trkpt lat="45.6275" lon="6.10673">
        <ele>1782.41985661</ele>
        <time>2016-08-11T11:39:13Z</time>
      </trkpt>
      <trkpt lat="45.62749" lon="6.10673">
        <ele>1782.41985661</ele>
        <time>2016-08-11T11:39:23Z</time>
      </trkpt>
      <trkpt lat="45.62749" lon="6.10673">
        <ele>1782.41985661</ele>
        <time>2016-08-11T11:39:28Z</time>
      </trkpt>
      <trkpt lat="45.62749" lon="6.10673">
        <ele>1782.41985661</ele>
        <time>2016-08-11T11:39:33Z</time>
      </trkpt>
      <trkpt lat="45.62749" lon="6.10673">
        <ele>1782.41985661</ele>
        <time>2016-08-11T11:39:43Z</time>
      </trkpt>
      <trkpt lat="45.62749" lon="6.10673">
        <ele>1782.41985661</ele>
        <time>2016-08-11T11:39:48Z</time>
      </trkpt>
      <trkpt lat="45.62749" lon="6.10673">
        <ele>1782.41985661</ele>
        <time>2016-08-11T11:39:58Z</time>
      </trkpt>
      <trkpt lat="45.62749" lon="6.10673">
        <ele>1782.41985661</ele>
        <time>2016-08-11T11:40:03Z</time>
      </trkpt>
      <trkpt lat="45.62749" lon="6.10673">
        <ele>1782.41985661</ele>
        <time>2016-08-11T11:40:13Z</time>
      </trkpt>
      <trkpt lat="45.62748" lon="6.10673">
        <ele>1782.41985661</ele>
        <time>2016-08-11T11:40:18Z</time>
      </trkpt>
      <trkpt lat="45.62748" lon="6.10673">
        <ele>1782.41985661</ele>
        <time>2016-08-11T11:40:28Z</time>
      </trkpt>
      <trkpt lat="45.62748" lon="6.10673">
        <ele>1782.41985661</ele>
        <time>2016-08-11T11:40:33Z</time>
      </trkpt>
      <trkpt lat="45.62748" lon="6.10673">
        <ele>1782.41985661</ele>
        <time>2016-08-11T11:40:44Z</time>
      </trkpt>
      <trkpt lat="45.62748" lon="6.10671">
        <ele>1782.41985661</ele>
        <time>2016-08-11T11:40:48Z</time>
      </trkpt>
      <trkpt lat="45.62748" lon="6.10671">
        <ele>1782.41985661</ele>
        <time>2016-08-11T11:40:53Z</time>
      </trkpt>
      <trkpt lat="45.62747" lon="6.10671">
        <ele>1782.41985661</ele>
        <time>2016-08-11T11:40:58Z</time>
      </trkpt>
      <trkpt lat="45.62747" lon="6.10671">
        <ele>1782.41985661</ele>
        <time>2016-08-11T11:41:03Z</time>
      </trkpt>
      <trkpt lat="45.62747" lon="6.10671">
        <ele>1782.41985661</ele>
        <time>2016-08-11T11:41:08Z</time>
      </trkpt>
      <trkpt lat="45.62747" lon="6.10671">
        <ele>1782.41985661</ele>
        <time>2016-08-11T11:41:13Z</time>
      </trkpt>
      <trkpt lat="45.62747" lon="6.10672">
        <ele>1782.41985661</ele>
        <time>2016-08-11T11:41:18Z</time>
      </trkpt>
      <trkpt lat="45.62746" lon="6.10673">
        <ele>1782.41985661</ele>
        <time>2016-08-11T11:41:23Z</time>
      </trkpt>
      <trkpt lat="45.62746" lon="6.10673">
        <ele>1782.41985661</ele>
        <time>2016-08-11T11:41:33Z</time>
      </trkpt>
      <trkpt lat="45.62746" lon="6.10673">
        <ele>1782.41985661</ele>
        <time>2016-08-11T11:41:38Z</time>
      </trkpt>
      <trkpt lat="45.62745" lon="6.10673">
        <ele>1788.508689842</ele>
        <time>2016-08-11T11:41:48Z</time>
      </trkpt>
      <trkpt lat="45.62745" lon="6.10674">
        <ele>1788.508689842</ele>
        <time>2016-08-11T11:41:54Z</time>
      </trkpt>
      <trkpt lat="45.62747" lon="6.10673">
        <ele>1788.508689842</ele>
        <time>2016-08-11T11:42:03Z</time>
      </trkpt>
      <trkpt lat="45.6275" lon="6.10671">
        <ele>1788.508689842</ele>
        <time>2016-08-11T11:42:08Z</time>
      </trkpt>
      <trkpt lat="45.62756" lon="6.10673">
        <ele>1792.810841834</ele>
        <time>2016-08-11T11:42:18Z</time>
      </trkpt>
      <trkpt lat="45.62758" lon="6.10673">
        <ele>1792.810841834</ele>
        <time>2016-08-11T11:42:23Z</time>
      </trkpt>
      <trkpt lat="45.62763" lon="6.10678">
        <ele>1792.810841834</ele>
        <time>2016-08-11T11:42:38Z</time>
      </trkpt>
      <trkpt lat="45.62765" lon="6.10678">
        <ele>1797.325890634</ele>
        <time>2016-08-11T11:42:43Z</time>
      </trkpt>
      <trkpt lat="45.62767" lon="6.10678">
        <ele>1797.325890634</ele>
        <time>2016-08-11T11:42:53Z</time>
      </trkpt>
      <trkpt lat="45.62768" lon="6.10678">
        <ele>1797.325890634</ele>
        <time>2016-08-11T11:42:58Z</time>
      </trkpt>
      <trkpt lat="45.62779" lon="6.10683">
        <ele>1801.021813365</ele>
        <time>2016-08-11T11:43:08Z</time>
      </trkpt>
      <trkpt lat="45.62778" lon="6.10682">
        <ele>1801.021813365</ele>
        <time>2016-08-11T11:43:13Z</time>
      </trkpt>
      <trkpt lat="45.62782" lon="6.10682">
        <ele>1801.021813365</ele>
        <time>2016-08-11T11:43:23Z</time>
      </trkpt>
      <trkpt lat="45.62783" lon="6.10683">
        <ele>1801.021813365</ele>
        <time>2016-08-11T11:43:28Z</time>
      </trkpt>
      <trkpt lat="45.62787" lon="6.10686">
        <ele>1804.819775144</ele>
        <time>2016-08-11T11:43:38Z</time>
      </trkpt>
      <trkpt lat="45.62787" lon="6.10687">
        <ele>1804.819775144</ele>
        <time>2016-08-11T11:43:43Z</time>
      </trkpt>
      <trkpt lat="45.62791" lon="6.10689">
        <ele>1804.819775144</ele>
        <time>2016-08-11T11:43:53Z</time>
      </trkpt>
      <trkpt lat="45.62791" lon="6.10691">
        <ele>1804.819775144</ele>
        <time>2016-08-11T11:43:58Z</time>
      </trkpt>
      <trkpt lat="45.62792" lon="6.10692">
        <ele>1804.819775144</ele>
        <time>2016-08-11T11:44:08Z</time>
      </trkpt>
      <trkpt lat="45.62791" lon="6.10692">
        <ele>1804.819775144</ele>
        <time>2016-08-11T11:44:13Z</time>
      </trkpt>
      <trkpt lat="45.62792" lon="6.10693">
        <ele>1804.819775144</ele>
        <time>2016-08-11T11:44:23Z</time>
      </trkpt>
      <trkpt lat="45.62792" lon="6.10693">
        <ele>1804.819775144</ele>
        <time>2016-08-11T11:44:28Z</time>
      </trkpt>
      <trkpt lat="45.62792" lon="6.10693">
        <ele>1804.819775144</ele>
        <time>2016-08-11T11:44:38Z</time>
      </trkpt>
      <trkpt lat="45.62793" lon="6.10691">
        <ele>1808.56356262</ele>
        <time>2016-08-11T11:44:43Z</time>
      </trkpt>
      <trkpt lat="45.62793" lon="6.10694">
        <ele>1808.56356262</ele>
        <time>2016-08-11T11:44:58Z</time>
      </trkpt>
      <trkpt lat="45.62793" lon="6.10693">
        <ele>1808.56356262</ele>
        <time>2016-08-11T11:45:03Z</time>
      </trkpt>
      <trkpt lat="45.62793" lon="6.10693">
        <ele>1808.56356262</ele>
        <time>2016-08-11T11:45:13Z</time>
      </trkpt>
      <trkpt lat="45.62793" lon="6.10693">
        <ele>1808.56356262</ele>
        <time>2016-08-11T11:45:18Z</time>
      </trkpt>
      <trkpt lat="45.62793" lon="6.10693">
        <ele>1808.56356262</ele>
        <time>2016-08-11T11:45:28Z</time>
      </trkpt>
      <trkpt lat="45.62793" lon="6.10693">
        <ele>1808.56356262</ele>
        <time>2016-08-11T11:45:33Z</time>
      </trkpt>
      <trkpt lat="45.62793" lon="6.10693">
        <ele>1808.56356262</ele>
        <time>2016-08-11T11:45:43Z</time>
      </trkpt>
      <trkpt lat="45.62793" lon="6.10693">
        <ele>1808.56356262</ele>
        <time>2016-08-11T11:45:48Z</time>
      </trkpt>
      <trkpt lat="45.62793" lon="6.10693">
        <ele>1808.56356262</ele>
        <time>2016-08-11T11:45:58Z</time>
      </trkpt>
      <trkpt lat="45.62793" lon="6.10693">
        <ele>1808.56356262</ele>
        <time>2016-08-11T11:46:03Z</time>
      </trkpt>
      <trkpt lat="45.62793" lon="6.10693">
        <ele>1808.56356262</ele>
        <time>2016-08-11T11:46:13Z</time>
      </trkpt>
      <trkpt lat="45.62793" lon="6.10693">
        <ele>1808.56356262</ele>
        <time>2016-08-11T11:46:18Z</time>
      </trkpt>
      <trkpt lat="45.62792" lon="6.10696">
        <ele>1808.56356262</ele>
        <time>2016-08-11T11:46:28Z</time>
      </trkpt>
      <trkpt lat="45.62792" lon="6.10696">
        <ele>1808.56356262</ele>
        <time>2016-08-11T11:46:33Z</time>
      </trkpt>
      <trkpt lat="45.62791" lon="6.10697">
        <ele>1808.56356262</ele>
        <time>2016-08-11T11:46:43Z</time>
      </trkpt>
      <trkpt lat="45.62792" lon="6.10697">
        <ele>1808.56356262</ele>
        <time>2016-08-11T11:46:48Z</time>
      </trkpt>
      <trkpt lat="45.628" lon="6.10708">
        <ele>1813.118429357</ele>
        <time>2016-08-11T11:46:58Z</time>
      </trkpt>
      <trkpt lat="45.62801" lon="6.10708">
        <ele>1813.118429357</ele>
        <time>2016-08-11T11:47:03Z</time>
      </trkpt>
      <trkpt lat="45.62803" lon="6.10708">
        <ele>1813.118429357</ele>
        <time>2016-08-11T11:47:13Z</time>
      </trkpt>
      <trkpt lat="45.62804" lon="6.1071">
        <ele>1813.118429357</ele>
        <time>2016-08-11T11:47:18Z</time>
      </trkpt>
      <trkpt lat="45.62803" lon="6.10718">
        <ele>1818.706971117</ele>
        <time>2016-08-11T11:47:33Z</time>
      </trkpt>
      <trkpt lat="45.62807" lon="6.10719">
        <ele>1818.706971117</ele>
        <time>2016-08-11T11:47:38Z</time>
      </trkpt>
      <trkpt lat="45.62815" lon="6.10726">
        <ele>1823.224750636</ele>
        <time>2016-08-11T11:47:48Z</time>
      </trkpt>
      <trkpt lat="45.62818" lon="6.1073">
        <ele>1823.224750636</ele>
        <time>2016-08-11T11:47:53Z</time>
      </trkpt>
      <trkpt lat="45.62824" lon="6.10735">
        <ele>1826.888889773</ele>
        <time>2016-08-11T11:48:03Z</time>
      </trkpt>
      <trkpt lat="45.62826" lon="6.10736">
        <ele>1826.888889773</ele>
        <time>2016-08-11T11:48:08Z</time>
      </trkpt>
      <trkpt lat="45.62831" lon="6.10737">
        <ele>1826.888889773</ele>
        <time>2016-08-11T11:48:19Z</time>
      </trkpt>
      <trkpt lat="45.62832" lon="6.10737">
        <ele>1826.888889773</ele>
        <time>2016-08-11T11:48:23Z</time>
      </trkpt>
      <trkpt lat="45.62832" lon="6.10737">
        <ele>1826.888889773</ele>
        <time>2016-08-11T11:48:33Z</time>
      </trkpt>
      <trkpt lat="45.62832" lon="6.10736">
        <ele>1826.888889773</ele>
        <time>2016-08-11T11:48:38Z</time>
      </trkpt>
      <trkpt lat="45.62832" lon="6.10736">
        <ele>1826.888889773</ele>
        <time>2016-08-11T11:48:49Z</time>
      </trkpt>
      <trkpt lat="45.62832" lon="6.10736">
        <ele>1826.888889773</ele>
        <time>2016-08-11T11:48:53Z</time>
      </trkpt>
      <trkpt lat="45.62833" lon="6.10739">
        <ele>1830.191641648</ele>
        <time>2016-08-11T11:49:03Z</time>
      </trkpt>
      <trkpt lat="45.62833" lon="6.10738">
        <ele>1830.191641648</ele>
        <time>2016-08-11T11:49:09Z</time>
      </trkpt>
      <trkpt lat="45.62835" lon="6.10741">
        <ele>1830.191641648</ele>
        <time>2016-08-11T11:49:19Z</time>
      </trkpt>
      <trkpt lat="45.62836" lon="6.10741">
        <ele>1830.191641648</ele>
        <time>2016-08-11T11:49:24Z</time>
      </trkpt>
      <trkpt lat="45.62838" lon="6.10742">
        <ele>1830.191641648</ele>
        <time>2016-08-11T11:49:34Z</time>
      </trkpt>
      <trkpt lat="45.6284" lon="6.10744">
        <ele>1830.191641648</ele>
        <time>2016-08-11T11:49:38Z</time>
      </trkpt>
      <trkpt lat="45.62843" lon="6.10748">
        <ele>1834.59992511</ele>
        <time>2016-08-11T11:49:53Z</time>
      </trkpt>
      <trkpt lat="45.62842" lon="6.10747">
        <ele>1834.59992511</ele>
        <time>2016-08-11T11:49:58Z</time>
      </trkpt>
      <trkpt lat="45.62843" lon="6.10747">
        <ele>1834.59992511</ele>
        <time>2016-08-11T11:50:08Z</time>
      </trkpt>
      <trkpt lat="45.62845" lon="6.10748">
        <ele>1834.59992511</ele>
        <time>2016-08-11T11:50:14Z</time>
      </trkpt>
      <trkpt lat="45.62848" lon="6.10751">
        <ele>1834.59992511</ele>
        <time>2016-08-11T11:50:23Z</time>
      </trkpt>
      <trkpt lat="45.62852" lon="6.10753">
        <ele>1838.585056386</ele>
        <time>2016-08-11T11:50:29Z</time>
      </trkpt>
      <trkpt lat="45.62856" lon="6.10755">
        <ele>1838.585056386</ele>
        <time>2016-08-11T11:50:39Z</time>
      </trkpt>
      <trkpt lat="45.62859" lon="6.10756">
        <ele>1838.585056386</ele>
        <time>2016-08-11T11:50:43Z</time>
      </trkpt>
      <trkpt lat="45.62862" lon="6.10761">
        <ele>1841.453403426</ele>
        <time>2016-08-11T11:50:54Z</time>
      </trkpt>
      <trkpt lat="45.62862" lon="6.10763">
        <ele>1841.453403426</ele>
        <time>2016-08-11T11:50:58Z</time>
      </trkpt>
      <trkpt lat="45.62871" lon="6.1077">
        <ele>1843.863747632</ele>
        <time>2016-08-11T11:51:14Z</time>
      </trkpt>
      <trkpt lat="45.62872" lon="6.1077">
        <ele>1843.863747632</ele>
        <time>2016-08-11T11:51:18Z</time>
      </trkpt>
      <trkpt lat="45.62872" lon="6.1077">
        <ele>1843.863747632</ele>
        <time>2016-08-11T11:51:29Z</time>
      </trkpt>
      <trkpt lat="45.62872" lon="6.1077">
        <ele>1843.863747632</ele>
        <time>2016-08-11T11:51:33Z</time>
      </trkpt>
      <trkpt lat="45.62872" lon="6.10769">
        <ele>1843.863747632</ele>
        <time>2016-08-11T11:51:49Z</time>
      </trkpt>
      <trkpt lat="45.62872" lon="6.10769">
        <ele>1843.863747632</ele>
        <time>2016-08-11T11:51:53Z</time>
      </trkpt>
      <trkpt lat="45.62872" lon="6.10769">
        <ele>1843.863747632</ele>
        <time>2016-08-11T11:52:04Z</time>
      </trkpt>
      <trkpt lat="45.62872" lon="6.10769">
        <ele>1843.863747632</ele>
        <time>2016-08-11T11:52:09Z</time>
      </trkpt>
      <trkpt lat="45.62872" lon="6.10769">
        <ele>1843.863747632</ele>
        <time>2016-08-11T11:52:18Z</time>
      </trkpt>
      <trkpt lat="45.62871" lon="6.10769">
        <ele>1843.863747632</ele>
        <time>2016-08-11T11:52:23Z</time>
      </trkpt>
      <trkpt lat="45.6287" lon="6.10775">
        <ele>1843.863747632</ele>
        <time>2016-08-11T11:52:34Z</time>
      </trkpt>
      <trkpt lat="45.62873" lon="6.10773">
        <ele>1847.437319748</ele>
        <time>2016-08-11T11:52:39Z</time>
      </trkpt>
      <trkpt lat="45.62871" lon="6.10774">
        <ele>1847.437319748</ele>
        <time>2016-08-11T11:52:49Z</time>
      </trkpt>
      <trkpt lat="45.62871" lon="6.10776">
        <ele>1847.437319748</ele>
        <time>2016-08-11T11:52:54Z</time>
      </trkpt>
      <trkpt lat="45.62872" lon="6.10776">
        <ele>1847.437319748</ele>
        <time>2016-08-11T11:53:04Z</time>
      </trkpt>
      <trkpt lat="45.62872" lon="6.10776">
        <ele>1847.437319748</ele>
        <time>2016-08-11T11:53:09Z</time>
      </trkpt>
      <trkpt lat="45.62872" lon="6.10776">
        <ele>1847.437319748</ele>
        <time>2016-08-11T11:53:19Z</time>
      </trkpt>
      <trkpt lat="45.62873" lon="6.10777">
        <ele>1847.437319748</ele>
        <time>2016-08-11T11:53:23Z</time>
      </trkpt>
      <trkpt lat="45.62876" lon="6.1078">
        <ele>1847.437319748</ele>
        <time>2016-08-11T11:53:33Z</time>
      </trkpt>
      <trkpt lat="45.62876" lon="6.10782">
        <ele>1850.932796773</ele>
        <time>2016-08-11T11:53:38Z</time>
      </trkpt>
      <trkpt lat="45.62877" lon="6.10786">
        <ele>1850.932796773</ele>
        <time>2016-08-11T11:53:49Z</time>
      </trkpt>
      <trkpt lat="45.62877" lon="6.10786">
        <ele>1850.932796773</ele>
        <time>2016-08-11T11:53:53Z</time>
      </trkpt>
      <trkpt lat="45.62877" lon="6.10786">
        <ele>1850.932796773</ele>
        <time>2016-08-11T11:54:04Z</time>
      </trkpt>
      <trkpt lat="45.62877" lon="6.10786">
        <ele>1850.932796773</ele>
        <time>2016-08-11T11:54:09Z</time>
      </trkpt>
      <trkpt lat="45.62876" lon="6.10785">
        <ele>1850.932796773</ele>
        <time>2016-08-11T11:54:19Z</time>
      </trkpt>
      <trkpt lat="45.62877" lon="6.10786">
        <ele>1850.932796773</ele>
        <time>2016-08-11T11:54:24Z</time>
      </trkpt>
      <trkpt lat="45.62879" lon="6.10789">
        <ele>1853.489068415</ele>
        <time>2016-08-11T11:54:29Z</time>
      </trkpt>
      <trkpt lat="45.62882" lon="6.10789">
        <ele>1853.489068415</ele>
        <time>2016-08-11T11:54:39Z</time>
      </trkpt>
      <trkpt lat="45.62886" lon="6.1079">
        <ele>1853.489068415</ele>
        <time>2016-08-11T11:54:44Z</time>
      </trkpt>
      <trkpt lat="45.62891" lon="6.10796">
        <ele>1855.897386221</ele>
        <time>2016-08-11T11:54:54Z</time>
      </trkpt>
      <trkpt lat="45.62894" lon="6.10798">
        <ele>1855.897386221</ele>
        <time>2016-08-11T11:54:59Z</time>
      </trkpt>
      <trkpt lat="45.62897" lon="6.10798">
        <ele>1855.897386221</ele>
        <time>2016-08-11T11:55:09Z</time>
      </trkpt>
      <trkpt lat="45.629" lon="6.10801">
        <ele>1858.02610598</ele>
        <time>2016-08-11T11:55:14Z</time>
      </trkpt>
      <trkpt lat="45.62905" lon="6.10805">
        <ele>1858.02610598</ele>
        <time>2016-08-11T11:55:23Z</time>
      </trkpt>
      <trkpt lat="45.62907" lon="6.10807">
        <ele>1858.02610598</ele>
        <time>2016-08-11T11:55:29Z</time>
      </trkpt>
      <trkpt lat="45.62916" lon="6.10813">
        <ele>1859.609986373</ele>
        <time>2016-08-11T11:55:39Z</time>
      </trkpt>
      <trkpt lat="45.62918" lon="6.10813">
        <ele>1859.609986373</ele>
        <time>2016-08-11T11:55:44Z</time>
      </trkpt>
      <trkpt lat="45.62919" lon="6.1081">
        <ele>1859.609986373</ele>
        <time>2016-08-11T11:55:54Z</time>
      </trkpt>
      <trkpt lat="45.6292" lon="6.1081">
        <ele>1859.609986373</ele>
        <time>2016-08-11T11:55:58Z</time>
      </trkpt>
      <trkpt lat="45.6292" lon="6.10811">
        <ele>1859.609986373</ele>
        <time>2016-08-11T11:56:09Z</time>
      </trkpt>
      <trkpt lat="45.6292" lon="6.10811">
        <ele>1859.609986373</ele>
        <time>2016-08-11T11:56:14Z</time>
      </trkpt>
      <trkpt lat="45.6292" lon="6.1081">
        <ele>1859.609986373</ele>
        <time>2016-08-11T11:56:24Z</time>
      </trkpt>
      <trkpt lat="45.6292" lon="6.1081">
        <ele>1859.609986373</ele>
        <time>2016-08-11T11:56:29Z</time>
      </trkpt>
      <trkpt lat="45.62921" lon="6.1081">
        <ele>1859.609986373</ele>
        <time>2016-08-11T11:56:39Z</time>
      </trkpt>
      <trkpt lat="45.62924" lon="6.10811">
        <ele>1860.549109501</ele>
        <time>2016-08-11T11:56:43Z</time>
      </trkpt>
      <trkpt lat="45.62927" lon="6.10813">
        <ele>1860.549109501</ele>
        <time>2016-08-11T11:56:49Z</time>
      </trkpt>
      <trkpt lat="45.62933" lon="6.10815">
        <ele>1861.185285254</ele>
        <time>2016-08-11T11:56:59Z</time>
      </trkpt>
      <trkpt lat="45.62934" lon="6.10815">
        <ele>1861.185285254</ele>
        <time>2016-08-11T11:57:04Z</time>
      </trkpt>
      <trkpt lat="45.62934" lon="6.10815">
        <ele>1861.185285254</ele>
        <time>2016-08-11T11:57:14Z</time>
      </trkpt>
      <trkpt lat="45.62935" lon="6.10813">
        <ele>1861.185285254</ele>
        <time>2016-08-11T11:57:19Z</time>
      </trkpt>
      <trkpt lat="45.62938" lon="6.1081">
        <ele>1861.185285254</ele>
        <time>2016-08-11T11:57:29Z</time>
      </trkpt>
      <trkpt lat="45.62939" lon="6.1081">
        <ele>1861.185285254</ele>
        <time>2016-08-11T11:57:34Z</time>
      </trkpt>
      <trkpt lat="45.62939" lon="6.1081">
        <ele>1861.185285254</ele>
        <time>2016-08-11T11:57:44Z</time>
      </trkpt>
      <trkpt lat="45.62939" lon="6.1081">
        <ele>1861.185285254</ele>
        <time>2016-08-11T11:57:49Z</time>
      </trkpt>
      <trkpt lat="45.62939" lon="6.1081">
        <ele>1861.185285254</ele>
        <time>2016-08-11T11:57:59Z</time>
      </trkpt>
      <trkpt lat="45.62939" lon="6.1081">
        <ele>1861.185285254</ele>
        <time>2016-08-11T11:58:04Z</time>
      </trkpt>
      <trkpt lat="45.62939" lon="6.1081">
        <ele>1861.185285254</ele>
        <time>2016-08-11T11:58:14Z</time>
      </trkpt>
      <trkpt lat="45.62939" lon="6.1081">
        <ele>1861.185285254</ele>
        <time>2016-08-11T11:58:18Z</time>
      </trkpt>
      <trkpt lat="45.62939" lon="6.1081">
        <ele>1861.185285254</ele>
        <time>2016-08-11T11:58:29Z</time>
      </trkpt>
      <trkpt lat="45.6294" lon="6.10811">
        <ele>1861.547717279</ele>
        <time>2016-08-11T11:58:34Z</time>
      </trkpt>
      <trkpt lat="45.62947" lon="6.1081">
        <ele>1861.547717279</ele>
        <time>2016-08-11T11:58:48Z</time>
      </trkpt>
      <trkpt lat="45.62947" lon="6.1081">
        <ele>1861.547717279</ele>
        <time>2016-08-11T11:58:54Z</time>
      </trkpt>
      <trkpt lat="45.62951" lon="6.1081">
        <ele>1861.952550708</ele>
        <time>2016-08-11T11:59:04Z</time>
      </trkpt>
      <trkpt lat="45.62952" lon="6.10809">
        <ele>1861.952550708</ele>
        <time>2016-08-11T11:59:08Z</time>
      </trkpt>
      <trkpt lat="45.62952" lon="6.10809">
        <ele>1861.952550708</ele>
        <time>2016-08-11T11:59:19Z</time>
      </trkpt>
      <trkpt lat="45.62952" lon="6.10809">
        <ele>1861.952550708</ele>
        <time>2016-08-11T11:59:24Z</time>
      </trkpt>
      <trkpt lat="45.62952" lon="6.10809">
        <ele>1861.952550708</ele>
        <time>2016-08-11T11:59:34Z</time>
      </trkpt>
      <trkpt lat="45.62952" lon="6.10809">
        <ele>1861.952550708</ele>
        <time>2016-08-11T11:59:39Z</time>
      </trkpt>
      <trkpt lat="45.62952" lon="6.10809">
        <ele>1861.952550708</ele>
        <time>2016-08-11T11:59:48Z</time>
      </trkpt>
      <trkpt lat="45.62952" lon="6.10809">
        <ele>1861.952550708</ele>
        <time>2016-08-11T11:59:54Z</time>
      </trkpt>
      <trkpt lat="45.62952" lon="6.10809">
        <ele>1861.952550708</ele>
        <time>2016-08-11T12:00:03Z</time>
      </trkpt>
      <trkpt lat="45.62952" lon="6.10809">
        <ele>1861.952550708</ele>
        <time>2016-08-11T12:00:09Z</time>
      </trkpt>
      <trkpt lat="45.62952" lon="6.10809">
        <ele>1861.952550708</ele>
        <time>2016-08-11T12:00:19Z</time>
      </trkpt>
      <trkpt lat="45.62952" lon="6.10809">
        <ele>1861.952550708</ele>
        <time>2016-08-11T12:00:24Z</time>
      </trkpt>
      <trkpt lat="45.62952" lon="6.10809">
        <ele>1861.952550708</ele>
        <time>2016-08-11T12:00:29Z</time>
      </trkpt>
      <trkpt lat="45.62958" lon="6.10807">
        <ele>1861.952550708</ele>
        <time>2016-08-11T12:00:38Z</time>
      </trkpt>
      <trkpt lat="45.62962" lon="6.10807">
        <ele>1861.827643636</ele>
        <time>2016-08-11T12:00:43Z</time>
      </trkpt>
      <trkpt lat="45.62965" lon="6.10806">
        <ele>1861.827643636</ele>
        <time>2016-08-11T12:00:54Z</time>
      </trkpt>
      <trkpt lat="45.62967" lon="6.10805">
        <ele>1861.827643636</ele>
        <time>2016-08-11T12:00:58Z</time>
      </trkpt>
      <trkpt lat="45.62969" lon="6.10803">
        <ele>1861.827643636</ele>
        <time>2016-08-11T12:01:08Z</time>
      </trkpt>
      <trkpt lat="45.62968" lon="6.108">
        <ele>1861.797566398</ele>
        <time>2016-08-11T12:01:14Z</time>
      </trkpt>
      <trkpt lat="45.62969" lon="6.10801">
        <ele>1861.797566398</ele>
        <time>2016-08-11T12:01:24Z</time>
      </trkpt>
      <trkpt lat="45.62968" lon="6.10801">
        <ele>1861.797566398</ele>
        <time>2016-08-11T12:01:29Z</time>
      </trkpt>
      <trkpt lat="45.62968" lon="6.108">
        <ele>1861.797566398</ele>
        <time>2016-08-11T12:01:39Z</time>
      </trkpt>
      <trkpt lat="45.62968" lon="6.108">
        <ele>1861.797566398</ele>
        <time>2016-08-11T12:01:44Z</time>
      </trkpt>
      <trkpt lat="45.62968" lon="6.108">
        <ele>1861.797566398</ele>
        <time>2016-08-11T12:01:54Z</time>
      </trkpt>
      <trkpt lat="45.62968" lon="6.108">
        <ele>1861.797566398</ele>
        <time>2016-08-11T12:01:59Z</time>
      </trkpt>
      <trkpt lat="45.62968" lon="6.10801">
        <ele>1861.797566398</ele>
        <time>2016-08-11T12:02:09Z</time>
      </trkpt>
      <trkpt lat="45.62969" lon="6.10801">
        <ele>1861.797566398</ele>
        <time>2016-08-11T12:02:14Z</time>
      </trkpt>
      <trkpt lat="45.62968" lon="6.10802">
        <ele>1861.797566398</ele>
        <time>2016-08-11T12:02:24Z</time>
      </trkpt>
      <trkpt lat="45.62969" lon="6.10803">
        <ele>1861.797566398</ele>
        <time>2016-08-11T12:02:28Z</time>
      </trkpt>
      <trkpt lat="45.62969" lon="6.10804">
        <ele>1861.797566398</ele>
        <time>2016-08-11T12:02:39Z</time>
      </trkpt>
      <trkpt lat="45.62969" lon="6.10804">
        <ele>1861.797566398</ele>
        <time>2016-08-11T12:02:43Z</time>
      </trkpt>
      <trkpt lat="45.62969" lon="6.10803">
        <ele>1861.797566398</ele>
        <time>2016-08-11T12:03:00Z</time>
      </trkpt>
      <trkpt lat="45.62969" lon="6.10803">
        <ele>1861.797566398</ele>
        <time>2016-08-11T12:03:03Z</time>
      </trkpt>
      <trkpt lat="45.62969" lon="6.10802">
        <ele>1861.797566398</ele>
        <time>2016-08-11T12:03:14Z</time>
      </trkpt>
      <trkpt lat="45.62969" lon="6.10802">
        <ele>1861.797566398</ele>
        <time>2016-08-11T12:03:19Z</time>
      </trkpt>
      <trkpt lat="45.62969" lon="6.10802">
        <ele>1861.797566398</ele>
        <time>2016-08-11T12:03:28Z</time>
      </trkpt>
      <trkpt lat="45.62969" lon="6.10803">
        <ele>1861.797566398</ele>
        <time>2016-08-11T12:03:34Z</time>
      </trkpt>
      <trkpt lat="45.62969" lon="6.10803">
        <ele>1861.797566398</ele>
        <time>2016-08-11T12:03:44Z</time>
      </trkpt>
      <trkpt lat="45.62969" lon="6.10803">
        <ele>1861.797566398</ele>
        <time>2016-08-11T12:03:49Z</time>
      </trkpt>
      <trkpt lat="45.62969" lon="6.10802">
        <ele>1861.797566398</ele>
        <time>2016-08-11T12:03:59Z</time>
      </trkpt>
      <trkpt lat="45.62969" lon="6.10802">
        <ele>1861.797566398</ele>
        <time>2016-08-11T12:04:04Z</time>
      </trkpt>
      <trkpt lat="45.62969" lon="6.10802">
        <ele>1861.797566398</ele>
        <time>2016-08-11T12:04:14Z</time>
      </trkpt>
      <trkpt lat="45.62969" lon="6.10802">
        <ele>1861.797566398</ele>
        <time>2016-08-11T12:04:18Z</time>
      </trkpt>
      <trkpt lat="45.62969" lon="6.10802">
        <ele>1861.797566398</ele>
        <time>2016-08-11T12:04:29Z</time>
      </trkpt>
      <trkpt lat="45.62969" lon="6.10802">
        <ele>1861.797566398</ele>
        <time>2016-08-11T12:04:33Z</time>
      </trkpt>
      <trkpt lat="45.62969" lon="6.10802">
        <ele>1861.797566398</ele>
        <time>2016-08-11T12:04:43Z</time>
      </trkpt>
      <trkpt lat="45.62969" lon="6.10802">
        <ele>1861.797566398</ele>
        <time>2016-08-11T12:04:49Z</time>
      </trkpt>
      <trkpt lat="45.62969" lon="6.10802">
        <ele>1861.797566398</ele>
        <time>2016-08-11T12:04:59Z</time>
      </trkpt>
      <trkpt lat="45.62969" lon="6.10802">
        <ele>1861.797566398</ele>
        <time>2016-08-11T12:05:03Z</time>
      </trkpt>
      <trkpt lat="45.62969" lon="6.10802">
        <ele>1861.797566398</ele>
        <time>2016-08-11T12:05:19Z</time>
      </trkpt>
      <trkpt lat="45.62969" lon="6.10802">
        <ele>1861.797566398</ele>
        <time>2016-08-11T12:05:24Z</time>
      </trkpt>
      <trkpt lat="45.62969" lon="6.10803">
        <ele>1862.152329187</ele>
        <time>2016-08-11T12:05:34Z</time>
      </trkpt>
      <trkpt lat="45.62969" lon="6.10803">
        <ele>1862.152329187</ele>
        <time>2016-08-11T12:05:39Z</time>
      </trkpt>
      <trkpt lat="45.62969" lon="6.10803">
        <ele>1862.152329187</ele>
        <time>2016-08-11T12:05:48Z</time>
      </trkpt>
      <trkpt lat="45.62969" lon="6.10803">
        <ele>1862.152329187</ele>
        <time>2016-08-11T12:05:54Z</time>
      </trkpt>
      <trkpt lat="45.62969" lon="6.10803">
        <ele>1862.152329187</ele>
        <time>2016-08-11T12:06:04Z</time>
      </trkpt>
      <trkpt lat="45.62969" lon="6.10803">
        <ele>1862.152329187</ele>
        <time>2016-08-11T12:06:08Z</time>
      </trkpt>
      <trkpt lat="45.62969" lon="6.10803">
        <ele>1862.152329187</ele>
        <time>2016-08-11T12:06:19Z</time>
      </trkpt>
      <trkpt lat="45.62969" lon="6.10803">
        <ele>1862.152329187</ele>
        <time>2016-08-11T12:06:24Z</time>
      </trkpt>
      <trkpt lat="45.62969" lon="6.10803">
        <ele>1862.152329187</ele>
        <time>2016-08-11T12:06:28Z</time>
      </trkpt>
      <trkpt lat="45.62969" lon="6.10803">
        <ele>1862.152329187</ele>
        <time>2016-08-11T12:06:33Z</time>
      </trkpt>
      <trkpt lat="45.62969" lon="6.10803">
        <ele>1862.152329187</ele>
        <time>2016-08-11T12:06:38Z</time>
      </trkpt>
      <trkpt lat="45.62969" lon="6.10803">
        <ele>1862.152329187</ele>
        <time>2016-08-11T12:06:43Z</time>
      </trkpt>
      <trkpt lat="45.62969" lon="6.10803">
        <ele>1862.152329187</ele>
        <time>2016-08-11T12:06:48Z</time>
      </trkpt>
      <trkpt lat="45.62969" lon="6.10803">
        <ele>1862.152329187</ele>
        <time>2016-08-11T12:06:53Z</time>
      </trkpt>
      <trkpt lat="45.62969" lon="6.10803">
        <ele>1862.152329187</ele>
        <time>2016-08-11T12:06:58Z</time>
      </trkpt>
      <trkpt lat="45.62969" lon="6.10803">
        <ele>1862.152329187</ele>
        <time>2016-08-11T12:07:04Z</time>
      </trkpt>
      <trkpt lat="45.62969" lon="6.10803">
        <ele>1862.152329187</ele>
        <time>2016-08-11T12:07:13Z</time>
      </trkpt>
      <trkpt lat="45.62969" lon="6.10803">
        <ele>1862.152329187</ele>
        <time>2016-08-11T12:07:19Z</time>
      </trkpt>
      <trkpt lat="45.62969" lon="6.10803">
        <ele>1862.152329187</ele>
        <time>2016-08-11T12:07:29Z</time>
      </trkpt>
      <trkpt lat="45.62969" lon="6.10803">
        <ele>1862.152329187</ele>
        <time>2016-08-11T12:07:34Z</time>
      </trkpt>
      <trkpt lat="45.62969" lon="6.10803">
        <ele>1862.152329187</ele>
        <time>2016-08-11T12:07:44Z</time>
      </trkpt>
      <trkpt lat="45.62969" lon="6.10805">
        <ele>1862.152329187</ele>
        <time>2016-08-11T12:07:49Z</time>
      </trkpt>
      <trkpt lat="45.62971" lon="6.10804">
        <ele>1862.152329187</ele>
        <time>2016-08-11T12:07:59Z</time>
      </trkpt>
      <trkpt lat="45.62974" lon="6.10802">
        <ele>1862.152329187</ele>
        <time>2016-08-11T12:08:04Z</time>
      </trkpt>
      <trkpt lat="45.62979" lon="6.10801">
        <ele>1862.150524023</ele>
        <time>2016-08-11T12:08:14Z</time>
      </trkpt>
      <trkpt lat="45.62978" lon="6.10799">
        <ele>1862.150524023</ele>
        <time>2016-08-11T12:08:18Z</time>
      </trkpt>
      <trkpt lat="45.62978" lon="6.10799">
        <ele>1862.150524023</ele>
        <time>2016-08-11T12:08:29Z</time>
      </trkpt>
      <trkpt lat="45.62978" lon="6.10799">
        <ele>1862.150524023</ele>
        <time>2016-08-11T12:08:33Z</time>
      </trkpt>
      <trkpt lat="45.62981" lon="6.10805">
        <ele>1862.150524023</ele>
        <time>2016-08-11T12:08:48Z</time>
      </trkpt>
      <trkpt lat="45.62985" lon="6.10807">
        <ele>1861.538586548</ele>
        <time>2016-08-11T12:08:54Z</time>
      </trkpt>
      <trkpt lat="45.62987" lon="6.10809">
        <ele>1861.538586548</ele>
        <time>2016-08-11T12:09:04Z</time>
      </trkpt>
      <trkpt lat="45.62988" lon="6.10809">
        <ele>1861.538586548</ele>
        <time>2016-08-11T12:09:10Z</time>
      </trkpt>
      <trkpt lat="45.6299" lon="6.1081">
        <ele>1861.538586548</ele>
        <time>2016-08-11T12:09:20Z</time>
      </trkpt>
      <trkpt lat="45.6299" lon="6.1081">
        <ele>1861.538586548</ele>
        <time>2016-08-11T12:09:23Z</time>
      </trkpt>
      <trkpt lat="45.6299" lon="6.1081">
        <ele>1861.538586548</ele>
        <time>2016-08-11T12:09:34Z</time>
      </trkpt>
      <trkpt lat="45.6299" lon="6.1081">
        <ele>1861.538586548</ele>
        <time>2016-08-11T12:09:39Z</time>
      </trkpt>
      <trkpt lat="45.6299" lon="6.1081">
        <ele>1861.538586548</ele>
        <time>2016-08-11T12:09:49Z</time>
      </trkpt>
      <trkpt lat="45.62994" lon="6.10808">
        <ele>1859.794944045</ele>
        <time>2016-08-11T12:09:54Z</time>
      </trkpt>
      <trkpt lat="45.63001" lon="6.10808">
        <ele>1859.794944045</ele>
        <time>2016-08-11T12:10:04Z</time>
      </trkpt>
      <trkpt lat="45.63003" lon="6.10808">
        <ele>1858.024763243</ele>
        <time>2016-08-11T12:10:09Z</time>
      </trkpt>
      <trkpt lat="45.63004" lon="6.10811">
        <ele>1858.024763243</ele>
        <time>2016-08-11T12:10:24Z</time>
      </trkpt>
      <trkpt lat="45.63003" lon="6.10813">
        <ele>1858.024763243</ele>
        <time>2016-08-11T12:10:29Z</time>
      </trkpt>
      <trkpt lat="45.63004" lon="6.10813">
        <ele>1858.024763243</ele>
        <time>2016-08-11T12:10:39Z</time>
      </trkpt>
      <trkpt lat="45.63004" lon="6.10816">
        <ele>1858.024763243</ele>
        <time>2016-08-11T12:10:44Z</time>
      </trkpt>
      <trkpt lat="45.63008" lon="6.10818">
        <ele>1854.513561261</ele>
        <time>2016-08-11T12:10:54Z</time>
      </trkpt>
      <trkpt lat="45.63009" lon="6.1082">
        <ele>1854.513561261</ele>
        <time>2016-08-11T12:11:00Z</time>
      </trkpt>
      <trkpt lat="45.63013" lon="6.1082">
        <ele>1854.513561261</ele>
        <time>2016-08-11T12:11:09Z</time>
      </trkpt>
      <trkpt lat="45.63016" lon="6.10822">
        <ele>1850.848190741</ele>
        <time>2016-08-11T12:11:14Z</time>
      </trkpt>
      <trkpt lat="45.6302" lon="6.10831">
        <ele>1850.848190741</ele>
        <time>2016-08-11T12:11:24Z</time>
      </trkpt>
      <trkpt lat="45.63021" lon="6.10832">
        <ele>1850.848190741</ele>
        <time>2016-08-11T12:11:28Z</time>
      </trkpt>
      <trkpt lat="45.63028" lon="6.10843">
        <ele>1846.481416684</ele>
        <time>2016-08-11T12:11:39Z</time>
      </trkpt>
      <trkpt lat="45.63032" lon="6.10848">
        <ele>1846.481416684</ele>
        <time>2016-08-11T12:11:43Z</time>
      </trkpt>
      <trkpt lat="45.63039" lon="6.10855">
        <ele>1841.916734902</ele>
        <time>2016-08-11T12:11:54Z</time>
      </trkpt>
      <trkpt lat="45.6304" lon="6.10858">
        <ele>1841.916734902</ele>
        <time>2016-08-11T12:12:00Z</time>
      </trkpt>
      <trkpt lat="45.63043" lon="6.10864">
        <ele>1841.916734902</ele>
        <time>2016-08-11T12:12:09Z</time>
      </trkpt>
      <trkpt lat="45.63046" lon="6.10871">
        <ele>1837.62089114</ele>
        <time>2016-08-11T12:12:14Z</time>
      </trkpt>
      <trkpt lat="45.63049" lon="6.10885">
        <ele>1833.881133189</ele>
        <time>2016-08-11T12:12:29Z</time>
      </trkpt>
      <trkpt lat="45.63052" lon="6.10889">
        <ele>1833.881133189</ele>
        <time>2016-08-11T12:12:34Z</time>
      </trkpt>
      <trkpt lat="45.63052" lon="6.10893">
        <ele>1833.881133189</ele>
        <time>2016-08-11T12:12:44Z</time>
      </trkpt>
      <trkpt lat="45.63051" lon="6.10894">
        <ele>1833.881133189</ele>
        <time>2016-08-11T12:12:49Z</time>
      </trkpt>
      <trkpt lat="45.63051" lon="6.10895">
        <ele>1830.385230891</ele>
        <time>2016-08-11T12:12:59Z</time>
      </trkpt>
      <trkpt lat="45.63051" lon="6.10895">
        <ele>1830.385230891</ele>
        <time>2016-08-11T12:13:04Z</time>
      </trkpt>
      <trkpt lat="45.63051" lon="6.10895">
        <ele>1830.385230891</ele>
        <time>2016-08-11T12:13:14Z</time>
      </trkpt>
      <trkpt lat="45.63051" lon="6.10895">
        <ele>1830.385230891</ele>
        <time>2016-08-11T12:13:20Z</time>
      </trkpt>
      <trkpt lat="45.63051" lon="6.10895">
        <ele>1830.385230891</ele>
        <time>2016-08-11T12:13:29Z</time>
      </trkpt>
      <trkpt lat="45.63051" lon="6.10895">
        <ele>1830.385230891</ele>
        <time>2016-08-11T12:13:34Z</time>
      </trkpt>
      <trkpt lat="45.63051" lon="6.10895">
        <ele>1830.385230891</ele>
        <time>2016-08-11T12:13:44Z</time>
      </trkpt>
      <trkpt lat="45.63051" lon="6.10893">
        <ele>1830.385230891</ele>
        <time>2016-08-11T12:13:49Z</time>
      </trkpt>
      <trkpt lat="45.63049" lon="6.10895">
        <ele>1830.385230891</ele>
        <time>2016-08-11T12:13:59Z</time>
      </trkpt>
      <trkpt lat="45.63049" lon="6.10895">
        <ele>1830.385230891</ele>
        <time>2016-08-11T12:14:04Z</time>
      </trkpt>
      <trkpt lat="45.63049" lon="6.10895">
        <ele>1830.385230891</ele>
        <time>2016-08-11T12:14:14Z</time>
      </trkpt>
      <trkpt lat="45.63048" lon="6.10895">
        <ele>1830.385230891</ele>
        <time>2016-08-11T12:14:19Z</time>
      </trkpt>
      <trkpt lat="45.63048" lon="6.10894">
        <ele>1830.385230891</ele>
        <time>2016-08-11T12:14:29Z</time>
      </trkpt>
      <trkpt lat="45.6305" lon="6.10896">
        <ele>1830.385230891</ele>
        <time>2016-08-11T12:14:34Z</time>
      </trkpt>
      <trkpt lat="45.63051" lon="6.10897">
        <ele>1830.385230891</ele>
        <time>2016-08-11T12:14:44Z</time>
      </trkpt>
      <trkpt lat="45.63051" lon="6.10897">
        <ele>1830.385230891</ele>
        <time>2016-08-11T12:14:49Z</time>
      </trkpt>
      <trkpt lat="45.63051" lon="6.10895">
        <ele>1830.385230891</ele>
        <time>2016-08-11T12:14:59Z</time>
      </trkpt>
      <trkpt lat="45.6305" lon="6.10896">
        <ele>1827.99572806</ele>
        <time>2016-08-11T12:15:04Z</time>
      </trkpt>
      <trkpt lat="45.63051" lon="6.10898">
        <ele>1827.99572806</ele>
        <time>2016-08-11T12:15:19Z</time>
      </trkpt>
      <trkpt lat="45.63052" lon="6.10898">
        <ele>1827.99572806</ele>
        <time>2016-08-11T12:15:34Z</time>
      </trkpt>
      <trkpt lat="45.63051" lon="6.10895">
        <ele>1827.99572806</ele>
        <time>2016-08-11T12:15:38Z</time>
      </trkpt>
      <trkpt lat="45.63051" lon="6.10896">
        <ele>1827.99572806</ele>
        <time>2016-08-11T12:15:48Z</time>
      </trkpt>
      <trkpt lat="45.63051" lon="6.10896">
        <ele>1827.99572806</ele>
        <time>2016-08-11T12:15:54Z</time>
      </trkpt>
      <trkpt lat="45.63051" lon="6.10896">
        <ele>1827.99572806</ele>
        <time>2016-08-11T12:16:03Z</time>
      </trkpt>
      <trkpt lat="45.63051" lon="6.10896">
        <ele>1827.99572806</ele>
        <time>2016-08-11T12:16:08Z</time>
      </trkpt>
      <trkpt lat="45.63051" lon="6.10896">
        <ele>1827.99572806</ele>
        <time>2016-08-11T12:16:18Z</time>
      </trkpt>
      <trkpt lat="45.63051" lon="6.10896">
        <ele>1827.99572806</ele>
        <time>2016-08-11T12:16:23Z</time>
      </trkpt>
      <trkpt lat="45.63048" lon="6.10896">
        <ele>1827.99572806</ele>
        <time>2016-08-11T12:16:38Z</time>
      </trkpt>
      <trkpt lat="45.63047" lon="6.10895">
        <ele>1824.914269565</ele>
        <time>2016-08-11T12:16:43Z</time>
      </trkpt>
      <trkpt lat="45.63047" lon="6.10895">
        <ele>1824.914269565</ele>
        <time>2016-08-11T12:16:53Z</time>
      </trkpt>
      <trkpt lat="45.63047" lon="6.10895">
        <ele>1824.914269565</ele>
        <time>2016-08-11T12:16:59Z</time>
      </trkpt>
      <trkpt lat="45.63047" lon="6.10895">
        <ele>1824.914269565</ele>
        <time>2016-08-11T12:17:09Z</time>
      </trkpt>
      <trkpt lat="45.63047" lon="6.10895">
        <ele>1824.914269565</ele>
        <time>2016-08-11T12:17:13Z</time>
      </trkpt>
      <trkpt lat="45.63047" lon="6.10895">
        <ele>1824.914269565</ele>
        <time>2016-08-11T12:17:23Z</time>
      </trkpt>
      <trkpt lat="45.63047" lon="6.10895">
        <ele>1824.914269565</ele>
        <time>2016-08-11T12:17:28Z</time>
      </trkpt>
      <trkpt lat="45.63047" lon="6.10895">
        <ele>1824.914269565</ele>
        <time>2016-08-11T12:17:38Z</time>
      </trkpt>
      <trkpt lat="45.63047" lon="6.10895">
        <ele>1824.914269565</ele>
        <time>2016-08-11T12:17:44Z</time>
      </trkpt>
      <trkpt lat="45.63047" lon="6.10895">
        <ele>1824.914269565</ele>
        <time>2016-08-11T12:17:53Z</time>
      </trkpt>
      <trkpt lat="45.63047" lon="6.10895">
        <ele>1824.914269565</ele>
        <time>2016-08-11T12:17:59Z</time>
      </trkpt>
      <trkpt lat="45.63047" lon="6.10895">
        <ele>1824.914269565</ele>
        <time>2016-08-11T12:18:08Z</time>
      </trkpt>
      <trkpt lat="45.63047" lon="6.10895">
        <ele>1824.914269565</ele>
        <time>2016-08-11T12:18:13Z</time>
      </trkpt>
      <trkpt lat="45.63045" lon="6.10896">
        <ele>1824.914269565</ele>
        <time>2016-08-11T12:18:24Z</time>
      </trkpt>
      <trkpt lat="45.63045" lon="6.10896">
        <ele>1824.914269565</ele>
        <time>2016-08-11T12:18:28Z</time>
      </trkpt>
      <trkpt lat="45.63045" lon="6.10896">
        <ele>1824.914269565</ele>
        <time>2016-08-11T12:18:39Z</time>
      </trkpt>
      <trkpt lat="45.63045" lon="6.10896">
        <ele>1824.914269565</ele>
        <time>2016-08-11T12:18:43Z</time>
      </trkpt>
      <trkpt lat="45.63045" lon="6.10896">
        <ele>1824.914269565</ele>
        <time>2016-08-11T12:18:48Z</time>
      </trkpt>
      <trkpt lat="45.63045" lon="6.10896">
        <ele>1824.914269565</ele>
        <time>2016-08-11T12:18:58Z</time>
      </trkpt>
      <trkpt lat="45.63045" lon="6.10896">
        <ele>1824.914269565</ele>
        <time>2016-08-11T12:19:03Z</time>
      </trkpt>
      <trkpt lat="45.63045" lon="6.10896">
        <ele>1824.914269565</ele>
        <time>2016-08-11T12:19:13Z</time>
      </trkpt>
      <trkpt lat="45.63045" lon="6.10896">
        <ele>1824.914269565</ele>
        <time>2016-08-11T12:19:18Z</time>
      </trkpt>
      <trkpt lat="45.63045" lon="6.10896">
        <ele>1824.914269565</ele>
        <time>2016-08-11T12:19:28Z</time>
      </trkpt>
      <trkpt lat="45.63045" lon="6.10896">
        <ele>1824.914269565</ele>
        <time>2016-08-11T12:19:33Z</time>
      </trkpt>
      <trkpt lat="45.63045" lon="6.10896">
        <ele>1824.914269565</ele>
        <time>2016-08-11T12:19:43Z</time>
      </trkpt>
      <trkpt lat="45.63045" lon="6.10896">
        <ele>1824.914269565</ele>
        <time>2016-08-11T12:19:48Z</time>
      </trkpt>
      <trkpt lat="45.63045" lon="6.10897">
        <ele>1824.914269565</ele>
        <time>2016-08-11T12:19:58Z</time>
      </trkpt>
      <trkpt lat="45.63045" lon="6.10897">
        <ele>1824.914269565</ele>
        <time>2016-08-11T12:20:03Z</time>
      </trkpt>
      <trkpt lat="45.63045" lon="6.10897">
        <ele>1824.914269565</ele>
        <time>2016-08-11T12:20:13Z</time>
      </trkpt>
      <trkpt lat="45.63045" lon="6.10897">
        <ele>1824.914269565</ele>
        <time>2016-08-11T12:20:18Z</time>
      </trkpt>
      <trkpt lat="45.63045" lon="6.10897">
        <ele>1824.914269565</ele>
        <time>2016-08-11T12:20:28Z</time>
      </trkpt>
      <trkpt lat="45.63045" lon="6.10897">
        <ele>1824.914269565</ele>
        <time>2016-08-11T12:20:33Z</time>
      </trkpt>
      <trkpt lat="45.63045" lon="6.10897">
        <ele>1824.914269565</ele>
        <time>2016-08-11T12:20:48Z</time>
      </trkpt>
      <trkpt lat="45.63045" lon="6.10897">
        <ele>1824.914269565</ele>
        <time>2016-08-11T12:20:53Z</time>
      </trkpt>
      <trkpt lat="45.63045" lon="6.10897">
        <ele>1824.914269565</ele>
        <time>2016-08-11T12:21:04Z</time>
      </trkpt>
      <trkpt lat="45.63045" lon="6.10897">
        <ele>1824.914269565</ele>
        <time>2016-08-11T12:21:08Z</time>
      </trkpt>
      <trkpt lat="45.63045" lon="6.10897">
        <ele>1824.914269565</ele>
        <time>2016-08-11T12:21:18Z</time>
      </trkpt>
      <trkpt lat="45.63045" lon="6.10897">
        <ele>1824.914269565</ele>
        <time>2016-08-11T12:21:23Z</time>
      </trkpt>
      <trkpt lat="45.63045" lon="6.10897">
        <ele>1824.914269565</ele>
        <time>2016-08-11T12:21:33Z</time>
      </trkpt>
      <trkpt lat="45.63045" lon="6.10897">
        <ele>1824.914269565</ele>
        <time>2016-08-11T12:21:38Z</time>
      </trkpt>
      <trkpt lat="45.63045" lon="6.10897">
        <ele>1824.914269565</ele>
        <time>2016-08-11T12:21:48Z</time>
      </trkpt>
      <trkpt lat="45.63045" lon="6.10897">
        <ele>1824.914269565</ele>
        <time>2016-08-11T12:21:53Z</time>
      </trkpt>
      <trkpt lat="45.63045" lon="6.10897">
        <ele>1824.914269565</ele>
        <time>2016-08-11T12:22:03Z</time>
      </trkpt>
      <trkpt lat="45.63045" lon="6.10897">
        <ele>1824.914269565</ele>
        <time>2016-08-11T12:22:08Z</time>
      </trkpt>
      <trkpt lat="45.63046" lon="6.10897">
        <ele>1824.914269565</ele>
        <time>2016-08-11T12:22:18Z</time>
      </trkpt>
      <trkpt lat="45.63046" lon="6.10897">
        <ele>1824.914269565</ele>
        <time>2016-08-11T12:22:23Z</time>
      </trkpt>
      <trkpt lat="45.63046" lon="6.10897">
        <ele>1824.914269565</ele>
        <time>2016-08-11T12:22:33Z</time>
      </trkpt>
      <trkpt lat="45.63046" lon="6.10897">
        <ele>1824.914269565</ele>
        <time>2016-08-11T12:22:38Z</time>
      </trkpt>
      <trkpt lat="45.63046" lon="6.10897">
        <ele>1824.914269565</ele>
        <time>2016-08-11T12:22:48Z</time>
      </trkpt>
      <trkpt lat="45.63046" lon="6.10897">
        <ele>1824.914269565</ele>
        <time>2016-08-11T12:22:53Z</time>
      </trkpt>
      <trkpt lat="45.63046" lon="6.10897">
        <ele>1824.914269565</ele>
        <time>2016-08-11T12:23:08Z</time>
      </trkpt>
      <trkpt lat="45.63046" lon="6.10897">
        <ele>1824.914269565</ele>
        <time>2016-08-11T12:23:13Z</time>
      </trkpt>
      <trkpt lat="45.63046" lon="6.10897">
        <ele>1824.914269565</ele>
        <time>2016-08-11T12:23:56Z</time>
      </trkpt>
      <trkpt lat="45.63046" lon="6.10897">
        <ele>1824.914269565</ele>
        <time>2016-08-11T12:24:15Z</time>
      </trkpt>
      <trkpt lat="45.63046" lon="6.10897">
        <ele>1824.914269565</ele>
        <time>2016-08-11T12:24:15Z</time>
      </trkpt>
      <trkpt lat="45.63046" lon="6.10897">
        <ele>1824.914269565</ele>
        <time>2016-08-11T12:24:31Z</time>
      </trkpt>
      <trkpt lat="45.63046" lon="6.10897">
        <ele>1824.914269565</ele>
        <time>2016-08-11T12:24:32Z</time>
      </trkpt>
      <trkpt lat="45.63046" lon="6.10897">
        <ele>1824.914269565</ele>
        <time>2016-08-11T12:24:44Z</time>
      </trkpt>
      <trkpt lat="45.63046" lon="6.10897">
        <ele>1824.914269565</ele>
        <time>2016-08-11T12:24:59Z</time>
      </trkpt>
      <trkpt lat="45.63046" lon="6.10897">
        <ele>1824.914269565</ele>
        <time>2016-08-11T12:24:59Z</time>
      </trkpt>
      <trkpt lat="45.63046" lon="6.10897">
        <ele>1824.914269565</ele>
        <time>2016-08-11T12:25:17Z</time>
      </trkpt>
      <trkpt lat="45.63046" lon="6.10897">
        <ele>1824.914269565</ele>
        <time>2016-08-11T12:25:19Z</time>
      </trkpt>
      <trkpt lat="45.63046" lon="6.10897">
        <ele>1824.914269565</ele>
        <time>2016-08-11T12:25:32Z</time>
      </trkpt>
      <trkpt lat="45.63046" lon="6.10897">
        <ele>1824.914269565</ele>
        <time>2016-08-11T12:25:32Z</time>
      </trkpt>
      <trkpt lat="45.63046" lon="6.10897">
        <ele>1824.914269565</ele>
        <time>2016-08-11T12:25:34Z</time>
      </trkpt>
      <trkpt lat="45.63046" lon="6.10897">
        <ele>1824.914269565</ele>
        <time>2016-08-11T12:25:47Z</time>
      </trkpt>
      <trkpt lat="45.63046" lon="6.10897">
        <ele>1824.914269565</ele>
        <time>2016-08-11T12:25:47Z</time>
      </trkpt>
      <trkpt lat="45.63046" lon="6.10897">
        <ele>1824.914269565</ele>
        <time>2016-08-11T12:25:49Z</time>
      </trkpt>
      <trkpt lat="45.63046" lon="6.10897">
        <ele>1824.914269565</ele>
        <time>2016-08-11T12:26:01Z</time>
      </trkpt>
      <trkpt lat="45.63046" lon="6.10897">
        <ele>1824.914269565</ele>
        <time>2016-08-11T12:26:02Z</time>
      </trkpt>
      <trkpt lat="45.63046" lon="6.10897">
        <ele>1824.914269565</ele>
        <time>2016-08-11T12:26:08Z</time>
      </trkpt>
      <trkpt lat="45.63046" lon="6.10897">
        <ele>1824.914269565</ele>
        <time>2016-08-11T12:26:09Z</time>
      </trkpt>
      <trkpt lat="45.63046" lon="6.10897">
        <ele>1824.914269565</ele>
        <time>2016-08-11T12:26:32Z</time>
      </trkpt>
      <trkpt lat="45.63046" lon="6.10897">
        <ele>1824.914269565</ele>
        <time>2016-08-11T12:26:33Z</time>
      </trkpt>
      <trkpt lat="45.63046" lon="6.10897">
        <ele>1824.914269565</ele>
        <time>2016-08-11T12:26:51Z</time>
      </trkpt>
      <trkpt lat="45.63046" lon="6.10897">
        <ele>1824.914269565</ele>
        <time>2016-08-11T12:26:51Z</time>
      </trkpt>
      <trkpt lat="45.63046" lon="6.10897">
        <ele>1824.914269565</ele>
        <time>2016-08-11T12:27:09Z</time>
      </trkpt>
      <trkpt lat="45.63046" lon="6.10897">
        <ele>1824.914269565</ele>
        <time>2016-08-11T12:27:20Z</time>
      </trkpt>
      <trkpt lat="45.63046" lon="6.10897">
        <ele>1824.914269565</ele>
        <time>2016-08-11T12:27:51Z</time>
      </trkpt>
      <trkpt lat="45.63072" lon="6.10903">
        <ele>1821.349599368</ele>
        <time>2016-08-11T13:28:43Z</time>
      </trkpt>
      <trkpt lat="45.63071" lon="6.10902">
        <ele>1821.349599368</ele>
        <time>2016-08-11T13:28:46Z</time>
      </trkpt>
      <trkpt lat="45.63071" lon="6.10907">
        <ele>1821.349599368</ele>
        <time>2016-08-11T13:28:56Z</time>
      </trkpt>
      <trkpt lat="45.63069" lon="6.10906">
        <ele>1821.349599368</ele>
        <time>2016-08-11T13:29:00Z</time>
      </trkpt>
      <trkpt lat="45.6307" lon="6.10907">
        <ele>1819.225405248</ele>
        <time>2016-08-11T13:29:10Z</time>
      </trkpt>
      <trkpt lat="45.6307" lon="6.10907">
        <ele>1819.225405248</ele>
        <time>2016-08-11T13:29:15Z</time>
      </trkpt>
      <trkpt lat="45.63069" lon="6.10907">
        <ele>1819.225405248</ele>
        <time>2016-08-11T13:29:25Z</time>
      </trkpt>
      <trkpt lat="45.63069" lon="6.10907">
        <ele>1819.225405248</ele>
        <time>2016-08-11T13:29:31Z</time>
      </trkpt>
      <trkpt lat="45.63078" lon="6.10916">
        <ele>1817.149113202</ele>
        <time>2016-08-11T13:29:40Z</time>
      </trkpt>
      <trkpt lat="45.6308" lon="6.10917">
        <ele>1817.149113202</ele>
        <time>2016-08-11T13:29:45Z</time>
      </trkpt>
      <trkpt lat="45.63086" lon="6.10919">
        <ele>1817.149113202</ele>
        <time>2016-08-11T13:29:56Z</time>
      </trkpt>
      <trkpt lat="45.63088" lon="6.10921">
        <ele>1815.559231389</ele>
        <time>2016-08-11T13:30:00Z</time>
      </trkpt>
      <trkpt lat="45.63094" lon="6.10924">
        <ele>1815.559231389</ele>
        <time>2016-08-11T13:30:10Z</time>
      </trkpt>
      <trkpt lat="45.63094" lon="6.10926">
        <ele>1815.559231389</ele>
        <time>2016-08-11T13:30:15Z</time>
      </trkpt>
      <trkpt lat="45.63093" lon="6.10924">
        <ele>1815.559231389</ele>
        <time>2016-08-11T13:30:31Z</time>
      </trkpt>
      <trkpt lat="45.63094" lon="6.10924">
        <ele>1815.559231389</ele>
        <time>2016-08-11T13:30:35Z</time>
      </trkpt>
      <trkpt lat="45.63094" lon="6.10924">
        <ele>1814.427923649</ele>
        <time>2016-08-11T13:30:40Z</time>
      </trkpt>
      <trkpt lat="45.63095" lon="6.10923">
        <ele>1814.427923649</ele>
        <time>2016-08-11T13:30:45Z</time>
      </trkpt>
      <trkpt lat="45.63095" lon="6.10923">
        <ele>1814.427923649</ele>
        <time>2016-08-11T13:30:50Z</time>
      </trkpt>
      <trkpt lat="45.63095" lon="6.10923">
        <ele>1814.427923649</ele>
        <time>2016-08-11T13:30:55Z</time>
      </trkpt>
      <trkpt lat="45.63099" lon="6.10925">
        <ele>1814.427923649</ele>
        <time>2016-08-11T13:31:11Z</time>
      </trkpt>
      <trkpt lat="45.63101" lon="6.10927">
        <ele>1814.427923649</ele>
        <time>2016-08-11T13:31:15Z</time>
      </trkpt>
      <trkpt lat="45.63106" lon="6.10932">
        <ele>1814.30414654</ele>
        <time>2016-08-11T13:31:25Z</time>
      </trkpt>
      <trkpt lat="45.63108" lon="6.10935">
        <ele>1814.30414654</ele>
        <time>2016-08-11T13:31:30Z</time>
      </trkpt>
      <trkpt lat="45.63113" lon="6.10935">
        <ele>1814.30414654</ele>
        <time>2016-08-11T13:31:41Z</time>
      </trkpt>
      <trkpt lat="45.63114" lon="6.10935">
        <ele>1814.30414654</ele>
        <time>2016-08-11T13:31:45Z</time>
      </trkpt>
      <trkpt lat="45.63118" lon="6.1094">
        <ele>1814.684506035</ele>
        <time>2016-08-11T13:31:56Z</time>
      </trkpt>
      <trkpt lat="45.63118" lon="6.10941">
        <ele>1814.684506035</ele>
        <time>2016-08-11T13:32:00Z</time>
      </trkpt>
      <trkpt lat="45.63118" lon="6.10942">
        <ele>1814.684506035</ele>
        <time>2016-08-11T13:32:10Z</time>
      </trkpt>
      <trkpt lat="45.6312" lon="6.10943">
        <ele>1814.684506035</ele>
        <time>2016-08-11T13:32:16Z</time>
      </trkpt>
      <trkpt lat="45.63121" lon="6.10944">
        <ele>1814.684506035</ele>
        <time>2016-08-11T13:32:25Z</time>
      </trkpt>
      <trkpt lat="45.63127" lon="6.10946">
        <ele>1815.677241827</ele>
        <time>2016-08-11T13:32:30Z</time>
      </trkpt>
      <trkpt lat="45.63129" lon="6.10948">
        <ele>1815.677241827</ele>
        <time>2016-08-11T13:32:41Z</time>
      </trkpt>
      <trkpt lat="45.63129" lon="6.10948">
        <ele>1815.677241827</ele>
        <time>2016-08-11T13:32:45Z</time>
      </trkpt>
      <trkpt lat="45.63132" lon="6.10947">
        <ele>1815.677241827</ele>
        <time>2016-08-11T13:32:56Z</time>
      </trkpt>
      <trkpt lat="45.63133" lon="6.10947">
        <ele>1815.677241827</ele>
        <time>2016-08-11T13:33:00Z</time>
      </trkpt>
      <trkpt lat="45.63133" lon="6.10947">
        <ele>1815.677241827</ele>
        <time>2016-08-11T13:33:10Z</time>
      </trkpt>
      <trkpt lat="45.63133" lon="6.10947">
        <ele>1815.677241827</ele>
        <time>2016-08-11T13:33:15Z</time>
      </trkpt>
      <trkpt lat="45.63138" lon="6.10949">
        <ele>1816.515879366</ele>
        <time>2016-08-11T13:33:30Z</time>
      </trkpt>
      <trkpt lat="45.63138" lon="6.10949">
        <ele>1816.515879366</ele>
        <time>2016-08-11T13:33:45Z</time>
      </trkpt>
      <trkpt lat="45.63138" lon="6.10949">
        <ele>1816.515879366</ele>
        <time>2016-08-11T13:33:50Z</time>
      </trkpt>
      <trkpt lat="45.63142" lon="6.10948">
        <ele>1816.515879366</ele>
        <time>2016-08-11T13:34:00Z</time>
      </trkpt>
      <trkpt lat="45.63142" lon="6.10948">
        <ele>1816.515879366</ele>
        <time>2016-08-11T13:34:06Z</time>
      </trkpt>
      <trkpt lat="45.63143" lon="6.10949">
        <ele>1816.515879366</ele>
        <time>2016-08-11T13:34:15Z</time>
      </trkpt>
      <trkpt lat="45.63147" lon="6.1095">
        <ele>1817.499146543</ele>
        <time>2016-08-11T13:34:20Z</time>
      </trkpt>
      <trkpt lat="45.63156" lon="6.10953">
        <ele>1819.191347834</ele>
        <time>2016-08-11T13:34:31Z</time>
      </trkpt>
      <trkpt lat="45.63155" lon="6.10953">
        <ele>1819.191347834</ele>
        <time>2016-08-11T13:34:36Z</time>
      </trkpt>
      <trkpt lat="45.63155" lon="6.10954">
        <ele>1819.191347834</ele>
        <time>2016-08-11T13:34:45Z</time>
      </trkpt>
      <trkpt lat="45.63156" lon="6.10954">
        <ele>1819.191347834</ele>
        <time>2016-08-11T13:34:50Z</time>
      </trkpt>
      <trkpt lat="45.63165" lon="6.10959">
        <ele>1821.10426985</ele>
        <time>2016-08-11T13:35:00Z</time>
      </trkpt>
      <trkpt lat="45.63167" lon="6.1096">
        <ele>1821.10426985</ele>
        <time>2016-08-11T13:35:05Z</time>
      </trkpt>
      <trkpt lat="45.63174" lon="6.10962">
        <ele>1822.784699843</ele>
        <time>2016-08-11T13:35:16Z</time>
      </trkpt>
      <trkpt lat="45.63176" lon="6.10964">
        <ele>1822.784699843</ele>
        <time>2016-08-11T13:35:20Z</time>
      </trkpt>
      <trkpt lat="45.63181" lon="6.10966">
        <ele>1822.784699843</ele>
        <time>2016-08-11T13:35:31Z</time>
      </trkpt>
      <trkpt lat="45.63184" lon="6.10967">
        <ele>1824.245501517</ele>
        <time>2016-08-11T13:35:35Z</time>
      </trkpt>
      <trkpt lat="45.6319" lon="6.10961">
        <ele>1824.245501517</ele>
        <time>2016-08-11T13:35:46Z</time>
      </trkpt>
      <trkpt lat="45.6319" lon="6.10958">
        <ele>1824.245501517</ele>
        <time>2016-08-11T13:35:50Z</time>
      </trkpt>
      <trkpt lat="45.63189" lon="6.10958">
        <ele>1824.490219784</ele>
        <time>2016-08-11T13:36:01Z</time>
      </trkpt>
      <trkpt lat="45.6319" lon="6.10958">
        <ele>1824.490219784</ele>
        <time>2016-08-11T13:36:05Z</time>
      </trkpt>
      <trkpt lat="45.63191" lon="6.10959">
        <ele>1824.490219784</ele>
        <time>2016-08-11T13:36:20Z</time>
      </trkpt>
      <trkpt lat="45.63194" lon="6.10957">
        <ele>1824.490219784</ele>
        <time>2016-08-11T13:36:35Z</time>
      </trkpt>
      <trkpt lat="45.63194" lon="6.10956">
        <ele>1824.490219784</ele>
        <time>2016-08-11T13:36:40Z</time>
      </trkpt>
      <trkpt lat="45.63196" lon="6.10956">
        <ele>1824.490219784</ele>
        <time>2016-08-11T13:36:50Z</time>
      </trkpt>
      <trkpt lat="45.632" lon="6.10959">
        <ele>1824.184111614</ele>
        <time>2016-08-11T13:36:56Z</time>
      </trkpt>
      <trkpt lat="45.63201" lon="6.10956">
        <ele>1824.184111614</ele>
        <time>2016-08-11T13:37:05Z</time>
      </trkpt>
      <trkpt lat="45.63202" lon="6.10956">
        <ele>1824.184111614</ele>
        <time>2016-08-11T13:37:10Z</time>
      </trkpt>
      <trkpt lat="45.63203" lon="6.10956">
        <ele>1824.184111614</ele>
        <time>2016-08-11T13:37:21Z</time>
      </trkpt>
      <trkpt lat="45.63203" lon="6.10956">
        <ele>1824.184111614</ele>
        <time>2016-08-11T13:37:25Z</time>
      </trkpt>
      <trkpt lat="45.63203" lon="6.10956">
        <ele>1824.184111614</ele>
        <time>2016-08-11T13:37:36Z</time>
      </trkpt>
      <trkpt lat="45.63203" lon="6.10956">
        <ele>1824.184111614</ele>
        <time>2016-08-11T13:37:40Z</time>
      </trkpt>
      <trkpt lat="45.63203" lon="6.10956">
        <ele>1824.184111614</ele>
        <time>2016-08-11T13:37:50Z</time>
      </trkpt>
      <trkpt lat="45.63203" lon="6.10956">
        <ele>1824.184111614</ele>
        <time>2016-08-11T13:37:55Z</time>
      </trkpt>
      <trkpt lat="45.63204" lon="6.10956">
        <ele>1824.184111614</ele>
        <time>2016-08-11T13:38:05Z</time>
      </trkpt>
      <trkpt lat="45.63207" lon="6.10957">
        <ele>1824.184111614</ele>
        <time>2016-08-11T13:38:10Z</time>
      </trkpt>
      <trkpt lat="45.63209" lon="6.10957">
        <ele>1823.512616459</ele>
        <time>2016-08-11T13:38:25Z</time>
      </trkpt>
      <trkpt lat="45.63209" lon="6.10957">
        <ele>1823.512616459</ele>
        <time>2016-08-11T13:38:30Z</time>
      </trkpt>
      <trkpt lat="45.63214" lon="6.10957">
        <ele>1823.512616459</ele>
        <time>2016-08-11T13:38:40Z</time>
      </trkpt>
      <trkpt lat="45.63213" lon="6.10956">
        <ele>1823.512616459</ele>
        <time>2016-08-11T13:38:45Z</time>
      </trkpt>
      <trkpt lat="45.63214" lon="6.10956">
        <ele>1823.512616459</ele>
        <time>2016-08-11T13:38:55Z</time>
      </trkpt>
      <trkpt lat="45.63215" lon="6.10958">
        <ele>1823.512616459</ele>
        <time>2016-08-11T13:39:01Z</time>
      </trkpt>
      <trkpt lat="45.63218" lon="6.10958">
        <ele>1821.783749432</ele>
        <time>2016-08-11T13:39:10Z</time>
      </trkpt>
      <trkpt lat="45.63218" lon="6.10958">
        <ele>1821.783749432</ele>
        <time>2016-08-11T13:39:15Z</time>
      </trkpt>
      <trkpt lat="45.63218" lon="6.10958">
        <ele>1821.783749432</ele>
        <time>2016-08-11T13:39:25Z</time>
      </trkpt>
      <trkpt lat="45.63218" lon="6.10958">
        <ele>1821.783749432</ele>
        <time>2016-08-11T13:39:30Z</time>
      </trkpt>
      <trkpt lat="45.63218" lon="6.10958">
        <ele>1821.783749432</ele>
        <time>2016-08-11T13:39:40Z</time>
      </trkpt>
      <trkpt lat="45.63218" lon="6.10958">
        <ele>1821.783749432</ele>
        <time>2016-08-11T13:39:45Z</time>
      </trkpt>
      <trkpt lat="45.63218" lon="6.10958">
        <ele>1821.783749432</ele>
        <time>2016-08-11T13:39:55Z</time>
      </trkpt>
      <trkpt lat="45.63218" lon="6.10958">
        <ele>1821.783749432</ele>
        <time>2016-08-11T13:40:00Z</time>
      </trkpt>
      <trkpt lat="45.63219" lon="6.1096">
        <ele>1821.783749432</ele>
        <time>2016-08-11T13:40:10Z</time>
      </trkpt>
      <trkpt lat="45.63221" lon="6.10962">
        <ele>1821.783749432</ele>
        <time>2016-08-11T13:40:15Z</time>
      </trkpt>
      <trkpt lat="45.63225" lon="6.10969">
        <ele>1820.520911909</ele>
        <time>2016-08-11T13:40:30Z</time>
      </trkpt>
      <trkpt lat="45.63226" lon="6.10969">
        <ele>1820.520911909</ele>
        <time>2016-08-11T13:40:35Z</time>
      </trkpt>
      <trkpt lat="45.6323" lon="6.1098">
        <ele>1819.404777881</ele>
        <time>2016-08-11T13:40:45Z</time>
      </trkpt>
      <trkpt lat="45.63231" lon="6.10983">
        <ele>1819.404777881</ele>
        <time>2016-08-11T13:40:50Z</time>
      </trkpt>
      <trkpt lat="45.63234" lon="6.10989">
        <ele>1819.404777881</ele>
        <time>2016-08-11T13:41:00Z</time>
      </trkpt>
      <trkpt lat="45.63238" lon="6.1099">
        <ele>1817.850708409</ele>
        <time>2016-08-11T13:41:05Z</time>
      </trkpt>
      <trkpt lat="45.63243" lon="6.10997">
        <ele>1817.850708409</ele>
        <time>2016-08-11T13:41:15Z</time>
      </trkpt>
      <trkpt lat="45.63243" lon="6.11">
        <ele>1816.038681101</ele>
        <time>2016-08-11T13:41:20Z</time>
      </trkpt>
      <trkpt lat="45.63245" lon="6.11007">
        <ele>1816.038681101</ele>
        <time>2016-08-11T13:41:31Z</time>
      </trkpt>
      <trkpt lat="45.63247" lon="6.1101">
        <ele>1816.038681101</ele>
        <time>2016-08-11T13:41:35Z</time>
      </trkpt>
      <trkpt lat="45.63249" lon="6.11017">
        <ele>1813.991927705</ele>
        <time>2016-08-11T13:41:45Z</time>
      </trkpt>
      <trkpt lat="45.63247" lon="6.11021">
        <ele>1813.991927705</ele>
        <time>2016-08-11T13:41:50Z</time>
      </trkpt>
      <trkpt lat="45.63247" lon="6.11022">
        <ele>1813.991927705</ele>
        <time>2016-08-11T13:42:00Z</time>
      </trkpt>
      <trkpt lat="45.63247" lon="6.11022">
        <ele>1813.991927705</ele>
        <time>2016-08-11T13:42:06Z</time>
      </trkpt>
      <trkpt lat="45.63247" lon="6.11022">
        <ele>1813.991927705</ele>
        <time>2016-08-11T13:42:20Z</time>
      </trkpt>
      <trkpt lat="45.63247" lon="6.11022">
        <ele>1813.991927705</ele>
        <time>2016-08-11T13:42:25Z</time>
      </trkpt>
      <trkpt lat="45.63247" lon="6.11022">
        <ele>1813.991927705</ele>
        <time>2016-08-11T13:42:35Z</time>
      </trkpt>
      <trkpt lat="45.63247" lon="6.11022">
        <ele>1813.991927705</ele>
        <time>2016-08-11T13:42:40Z</time>
      </trkpt>
      <trkpt lat="45.63247" lon="6.11022">
        <ele>1813.991927705</ele>
        <time>2016-08-11T13:42:50Z</time>
      </trkpt>
      <trkpt lat="45.63247" lon="6.11022">
        <ele>1813.991927705</ele>
        <time>2016-08-11T13:42:55Z</time>
      </trkpt>
      <trkpt lat="45.63247" lon="6.11022">
        <ele>1813.991927705</ele>
        <time>2016-08-11T13:43:05Z</time>
      </trkpt>
      <trkpt lat="45.63246" lon="6.11025">
        <ele>1813.991927705</ele>
        <time>2016-08-11T13:43:10Z</time>
      </trkpt>
      <trkpt lat="45.63246" lon="6.11031">
        <ele>1812.741292725</ele>
        <time>2016-08-11T13:43:21Z</time>
      </trkpt>
      <trkpt lat="45.63249" lon="6.11032">
        <ele>1812.741292725</ele>
        <time>2016-08-11T13:43:25Z</time>
      </trkpt>
      <trkpt lat="45.63245" lon="6.11036">
        <ele>1812.741292725</ele>
        <time>2016-08-11T13:43:36Z</time>
      </trkpt>
      <trkpt lat="45.63243" lon="6.11038">
        <ele>1811.366046183</ele>
        <time>2016-08-11T13:43:40Z</time>
      </trkpt>
      <trkpt lat="45.63244" lon="6.11041">
        <ele>1811.366046183</ele>
        <time>2016-08-11T13:43:50Z</time>
      </trkpt>
      <trkpt lat="45.63244" lon="6.11042">
        <ele>1811.366046183</ele>
        <time>2016-08-11T13:43:55Z</time>
      </trkpt>
      <trkpt lat="45.63244" lon="6.11042">
        <ele>1811.366046183</ele>
        <time>2016-08-11T13:44:05Z</time>
      </trkpt>
      <trkpt lat="45.63244" lon="6.11042">
        <ele>1811.366046183</ele>
        <time>2016-08-11T13:44:11Z</time>
      </trkpt>
      <trkpt lat="45.63244" lon="6.11042">
        <ele>1811.366046183</ele>
        <time>2016-08-11T13:44:26Z</time>
      </trkpt>
      <trkpt lat="45.63242" lon="6.11045">
        <ele>1811.366046183</ele>
        <time>2016-08-11T13:44:41Z</time>
      </trkpt>
      <trkpt lat="45.63242" lon="6.11045">
        <ele>1811.366046183</ele>
        <time>2016-08-11T13:44:46Z</time>
      </trkpt>
      <trkpt lat="45.63242" lon="6.11048">
        <ele>1811.366046183</ele>
        <time>2016-08-11T13:44:56Z</time>
      </trkpt>
      <trkpt lat="45.63242" lon="6.11048">
        <ele>1811.366046183</ele>
        <time>2016-08-11T13:45:00Z</time>
      </trkpt>
      <trkpt lat="45.63241" lon="6.11053">
        <ele>1809.877993499</ele>
        <time>2016-08-11T13:45:10Z</time>
      </trkpt>
      <trkpt lat="45.63241" lon="6.11055">
        <ele>1809.877993499</ele>
        <time>2016-08-11T13:45:16Z</time>
      </trkpt>
      <trkpt lat="45.6324" lon="6.11055">
        <ele>1809.877993499</ele>
        <time>2016-08-11T13:45:26Z</time>
      </trkpt>
      <trkpt lat="45.63241" lon="6.11055">
        <ele>1809.877993499</ele>
        <time>2016-08-11T13:45:30Z</time>
      </trkpt>
      <trkpt lat="45.63245" lon="6.11057">
        <ele>1809.877993499</ele>
        <time>2016-08-11T13:45:41Z</time>
      </trkpt>
      <trkpt lat="45.63248" lon="6.11057">
        <ele>1808.720594894</ele>
        <time>2016-08-11T13:45:45Z</time>
      </trkpt>
      <trkpt lat="45.63249" lon="6.11058">
        <ele>1808.720594894</ele>
        <time>2016-08-11T13:45:56Z</time>
      </trkpt>
      <trkpt lat="45.63249" lon="6.11058">
        <ele>1808.720594894</ele>
        <time>2016-08-11T13:46:00Z</time>
      </trkpt>
      <trkpt lat="45.6325" lon="6.11058">
        <ele>1808.720594894</ele>
        <time>2016-08-11T13:46:11Z</time>
      </trkpt>
      <trkpt lat="45.6325" lon="6.1106">
        <ele>1808.720594894</ele>
        <time>2016-08-11T13:46:15Z</time>
      </trkpt>
      <trkpt lat="45.6325" lon="6.1106">
        <ele>1808.720594894</ele>
        <time>2016-08-11T13:46:26Z</time>
      </trkpt>
      <trkpt lat="45.6325" lon="6.11059">
        <ele>1808.720594894</ele>
        <time>2016-08-11T13:46:30Z</time>
      </trkpt>
      <trkpt lat="45.63251" lon="6.11057">
        <ele>1808.720594894</ele>
        <time>2016-08-11T13:46:46Z</time>
      </trkpt>
      <trkpt lat="45.63251" lon="6.11058">
        <ele>1808.720594894</ele>
        <time>2016-08-11T13:46:50Z</time>
      </trkpt>
      <trkpt lat="45.63251" lon="6.11058">
        <ele>1808.720594894</ele>
        <time>2016-08-11T13:47:00Z</time>
      </trkpt>
      <trkpt lat="45.63251" lon="6.11058">
        <ele>1808.720594894</ele>
        <time>2016-08-11T13:47:06Z</time>
      </trkpt>
      <trkpt lat="45.63252" lon="6.11058">
        <ele>1808.720594894</ele>
        <time>2016-08-11T13:47:16Z</time>
      </trkpt>
      <trkpt lat="45.63252" lon="6.11056">
        <ele>1807.294883853</ele>
        <time>2016-08-11T13:47:21Z</time>
      </trkpt>
      <trkpt lat="45.63252" lon="6.11055">
        <ele>1807.294883853</ele>
        <time>2016-08-11T13:47:30Z</time>
      </trkpt>
      <trkpt lat="45.63252" lon="6.11054">
        <ele>1807.294883853</ele>
        <time>2016-08-11T13:47:35Z</time>
      </trkpt>
      <trkpt lat="45.63253" lon="6.11056">
        <ele>1807.294883853</ele>
        <time>2016-08-11T13:47:46Z</time>
      </trkpt>
      <trkpt lat="45.63254" lon="6.11057">
        <ele>1807.294883853</ele>
        <time>2016-08-11T13:47:50Z</time>
      </trkpt>
      <trkpt lat="45.63258" lon="6.11061">
        <ele>1807.294883853</ele>
        <time>2016-08-11T13:48:01Z</time>
      </trkpt>
      <trkpt lat="45.63259" lon="6.1106">
        <ele>1806.919987565</ele>
        <time>2016-08-11T13:48:06Z</time>
      </trkpt>
      <trkpt lat="45.6326" lon="6.11061">
        <ele>1806.919987565</ele>
        <time>2016-08-11T13:48:16Z</time>
      </trkpt>
      <trkpt lat="45.6326" lon="6.1106">
        <ele>1806.919987565</ele>
        <time>2016-08-11T13:48:20Z</time>
      </trkpt>
      <trkpt lat="45.63261" lon="6.11061">
        <ele>1806.919987565</ele>
        <time>2016-08-11T13:48:30Z</time>
      </trkpt>
      <trkpt lat="45.63263" lon="6.11063">
        <ele>1806.919987565</ele>
        <time>2016-08-11T13:48:36Z</time>
      </trkpt>
      <trkpt lat="45.63264" lon="6.11063">
        <ele>1806.919987565</ele>
        <time>2016-08-11T13:48:46Z</time>
      </trkpt>
      <trkpt lat="45.63264" lon="6.11063">
        <ele>1806.919987565</ele>
        <time>2016-08-11T13:48:50Z</time>
      </trkpt>
      <trkpt lat="45.63266" lon="6.11064">
        <ele>1806.919987565</ele>
        <time>2016-08-11T13:49:01Z</time>
      </trkpt>
      <trkpt lat="45.63267" lon="6.11063">
        <ele>1806.919987565</ele>
        <time>2016-08-11T13:49:05Z</time>
      </trkpt>
      <trkpt lat="45.63266" lon="6.11063">
        <ele>1806.797482698</ele>
        <time>2016-08-11T13:49:16Z</time>
      </trkpt>
      <trkpt lat="45.63266" lon="6.11063">
        <ele>1806.797482698</ele>
        <time>2016-08-11T13:49:21Z</time>
      </trkpt>
      <trkpt lat="45.63266" lon="6.11063">
        <ele>1806.797482698</ele>
        <time>2016-08-11T13:49:26Z</time>
      </trkpt>
      <trkpt lat="45.63265" lon="6.11065">
        <ele>1806.797482698</ele>
        <time>2016-08-11T13:49:35Z</time>
      </trkpt>
      <trkpt lat="45.63265" lon="6.11066">
        <ele>1806.797482698</ele>
        <time>2016-08-11T13:49:41Z</time>
      </trkpt>
      <trkpt lat="45.63269" lon="6.11065">
        <ele>1806.797482698</ele>
        <time>2016-08-11T13:49:51Z</time>
      </trkpt>
      <trkpt lat="45.63269" lon="6.11065">
        <ele>1806.797482698</ele>
        <time>2016-08-11T13:49:56Z</time>
      </trkpt>
      <trkpt lat="45.6327" lon="6.11064">
        <ele>1806.797482698</ele>
        <time>2016-08-11T13:50:06Z</time>
      </trkpt>
      <trkpt lat="45.63271" lon="6.11065">
        <ele>1806.475007039</ele>
        <time>2016-08-11T13:50:10Z</time>
      </trkpt>
      <trkpt lat="45.63275" lon="6.11065">
        <ele>1806.475007039</ele>
        <time>2016-08-11T13:50:21Z</time>
      </trkpt>
      <trkpt lat="45.63276" lon="6.11066">
        <ele>1806.475007039</ele>
        <time>2016-08-11T13:50:25Z</time>
      </trkpt>
      <trkpt lat="45.63278" lon="6.11067">
        <ele>1806.475007039</ele>
        <time>2016-08-11T13:50:36Z</time>
      </trkpt>
      <trkpt lat="45.63278" lon="6.11067">
        <ele>1806.475007039</ele>
        <time>2016-08-11T13:50:40Z</time>
      </trkpt>
      <trkpt lat="45.63278" lon="6.11067">
        <ele>1806.475007039</ele>
        <time>2016-08-11T13:50:50Z</time>
      </trkpt>
      <trkpt lat="45.63285" lon="6.11066">
        <ele>1805.966226578</ele>
        <time>2016-08-11T13:50:56Z</time>
      </trkpt>
      <trkpt lat="45.63289" lon="6.11068">
        <ele>1805.966226578</ele>
        <time>2016-08-11T13:51:06Z</time>
      </trkpt>
      <trkpt lat="45.63289" lon="6.11069">
        <ele>1805.966226578</ele>
        <time>2016-08-11T13:51:10Z</time>
      </trkpt>
      <trkpt lat="45.6329" lon="6.11069">
        <ele>1805.966226578</ele>
        <time>2016-08-11T13:51:21Z</time>
      </trkpt>
      <trkpt lat="45.6329" lon="6.11069">
        <ele>1805.966226578</ele>
        <time>2016-08-11T13:51:26Z</time>
      </trkpt>
      <trkpt lat="45.6329" lon="6.11069">
        <ele>1805.966226578</ele>
        <time>2016-08-11T13:51:30Z</time>
      </trkpt>
      <trkpt lat="45.6329" lon="6.11069">
        <ele>1805.966226578</ele>
        <time>2016-08-11T13:51:41Z</time>
      </trkpt>
      <trkpt lat="45.6329" lon="6.11069">
        <ele>1805.966226578</ele>
        <time>2016-08-11T13:51:46Z</time>
      </trkpt>
      <trkpt lat="45.6329" lon="6.11069">
        <ele>1805.966226578</ele>
        <time>2016-08-11T13:51:55Z</time>
      </trkpt>
      <trkpt lat="45.6329" lon="6.11069">
        <ele>1805.966226578</ele>
        <time>2016-08-11T13:52:00Z</time>
      </trkpt>
      <trkpt lat="45.63292" lon="6.1107">
        <ele>1805.966226578</ele>
        <time>2016-08-11T13:52:10Z</time>
      </trkpt>
      <trkpt lat="45.63294" lon="6.11069">
        <ele>1805.284234781</ele>
        <time>2016-08-11T13:52:15Z</time>
      </trkpt>
      <trkpt lat="45.63295" lon="6.11069">
        <ele>1805.284234781</ele>
        <time>2016-08-11T13:52:26Z</time>
      </trkpt>
      <trkpt lat="45.63295" lon="6.11069">
        <ele>1805.284234781</ele>
        <time>2016-08-11T13:52:31Z</time>
      </trkpt>
      <trkpt lat="45.63295" lon="6.11069">
        <ele>1805.284234781</ele>
        <time>2016-08-11T13:52:41Z</time>
      </trkpt>
      <trkpt lat="45.63295" lon="6.11069">
        <ele>1805.284234781</ele>
        <time>2016-08-11T13:52:46Z</time>
      </trkpt>
      <trkpt lat="45.63301" lon="6.11069">
        <ele>1805.284234781</ele>
        <time>2016-08-11T13:52:56Z</time>
      </trkpt>
      <trkpt lat="45.63301" lon="6.1107">
        <ele>1805.284234781</ele>
        <time>2016-08-11T13:53:01Z</time>
      </trkpt>
      <trkpt lat="45.63301" lon="6.1107">
        <ele>1804.729790958</ele>
        <time>2016-08-11T13:53:11Z</time>
      </trkpt>
      <trkpt lat="45.63301" lon="6.1107">
        <ele>1804.729790958</ele>
        <time>2016-08-11T13:53:16Z</time>
      </trkpt>
      <trkpt lat="45.63301" lon="6.1107">
        <ele>1804.729790958</ele>
        <time>2016-08-11T13:53:26Z</time>
      </trkpt>
      <trkpt lat="45.63301" lon="6.1107">
        <ele>1804.729790958</ele>
        <time>2016-08-11T13:53:30Z</time>
      </trkpt>
      <trkpt lat="45.63301" lon="6.1107">
        <ele>1804.729790958</ele>
        <time>2016-08-11T13:53:41Z</time>
      </trkpt>
      <trkpt lat="45.63301" lon="6.1107">
        <ele>1804.729790958</ele>
        <time>2016-08-11T13:53:46Z</time>
      </trkpt>
      <trkpt lat="45.63301" lon="6.1107">
        <ele>1804.729790958</ele>
        <time>2016-08-11T13:53:50Z</time>
      </trkpt>
      <trkpt lat="45.63301" lon="6.1107">
        <ele>1804.729790958</ele>
        <time>2016-08-11T13:54:01Z</time>
      </trkpt>
      <trkpt lat="45.63301" lon="6.1107">
        <ele>1804.729790958</ele>
        <time>2016-08-11T13:54:15Z</time>
      </trkpt>
      <trkpt lat="45.63301" lon="6.1107">
        <ele>1804.729790958</ele>
        <time>2016-08-11T13:54:21Z</time>
      </trkpt>
      <trkpt lat="45.63301" lon="6.1107">
        <ele>1804.729790958</ele>
        <time>2016-08-11T13:54:31Z</time>
      </trkpt>
      <trkpt lat="45.633" lon="6.11073">
        <ele>1804.729790958</ele>
        <time>2016-08-11T13:54:35Z</time>
      </trkpt>
      <trkpt lat="45.63301" lon="6.11074">
        <ele>1804.729790958</ele>
        <time>2016-08-11T13:54:46Z</time>
      </trkpt>
      <trkpt lat="45.63304" lon="6.11075">
        <ele>1804.729790958</ele>
        <time>2016-08-11T13:54:51Z</time>
      </trkpt>
      <trkpt lat="45.63302" lon="6.11072">
        <ele>1803.428233055</ele>
        <time>2016-08-11T13:55:00Z</time>
      </trkpt>
      <trkpt lat="45.63301" lon="6.11073">
        <ele>1803.428233055</ele>
        <time>2016-08-11T13:55:06Z</time>
      </trkpt>
      <trkpt lat="45.63301" lon="6.11073">
        <ele>1803.428233055</ele>
        <time>2016-08-11T13:55:16Z</time>
      </trkpt>
      <trkpt lat="45.63301" lon="6.11073">
        <ele>1803.428233055</ele>
        <time>2016-08-11T13:55:21Z</time>
      </trkpt>
      <trkpt lat="45.63301" lon="6.11073">
        <ele>1803.428233055</ele>
        <time>2016-08-11T13:55:31Z</time>
      </trkpt>
      <trkpt lat="45.63301" lon="6.11073">
        <ele>1803.428233055</ele>
        <time>2016-08-11T13:55:36Z</time>
      </trkpt>
      <trkpt lat="45.63301" lon="6.11073">
        <ele>1803.428233055</ele>
        <time>2016-08-11T13:55:46Z</time>
      </trkpt>
      <trkpt lat="45.63301" lon="6.11073">
        <ele>1803.428233055</ele>
        <time>2016-08-11T13:55:51Z</time>
      </trkpt>
      <trkpt lat="45.63301" lon="6.11073">
        <ele>1803.428233055</ele>
        <time>2016-08-11T13:56:01Z</time>
      </trkpt>
      <trkpt lat="45.63301" lon="6.11073">
        <ele>1803.428233055</ele>
        <time>2016-08-11T13:56:06Z</time>
      </trkpt>
      <trkpt lat="45.63301" lon="6.11073">
        <ele>1803.428233055</ele>
        <time>2016-08-11T13:56:10Z</time>
      </trkpt>
      <trkpt lat="45.63301" lon="6.11073">
        <ele>1803.428233055</ele>
        <time>2016-08-11T13:56:21Z</time>
      </trkpt>
      <trkpt lat="45.63301" lon="6.11073">
        <ele>1803.428233055</ele>
        <time>2016-08-11T13:56:36Z</time>
      </trkpt>
      <trkpt lat="45.63301" lon="6.11073">
        <ele>1803.428233055</ele>
        <time>2016-08-11T13:56:40Z</time>
      </trkpt>
      <trkpt lat="45.63302" lon="6.11073">
        <ele>1803.428233055</ele>
        <time>2016-08-11T13:56:51Z</time>
      </trkpt>
      <trkpt lat="45.63304" lon="6.11073">
        <ele>1803.428233055</ele>
        <time>2016-08-11T13:56:56Z</time>
      </trkpt>
      <trkpt lat="45.63305" lon="6.11075">
        <ele>1803.428233055</ele>
        <time>2016-08-11T13:57:06Z</time>
      </trkpt>
      <trkpt lat="45.63304" lon="6.11075">
        <ele>1803.428233055</ele>
        <time>2016-08-11T13:57:10Z</time>
      </trkpt>
      <trkpt lat="45.63304" lon="6.11075">
        <ele>1803.428233055</ele>
        <time>2016-08-11T13:57:21Z</time>
      </trkpt>
      <trkpt lat="45.63304" lon="6.11075">
        <ele>1803.428233055</ele>
        <time>2016-08-11T13:57:26Z</time>
      </trkpt>
      <trkpt lat="45.63308" lon="6.11075">
        <ele>1802.012295637</ele>
        <time>2016-08-11T13:57:36Z</time>
      </trkpt>
      <trkpt lat="45.63312" lon="6.11075">
        <ele>1802.012295637</ele>
        <time>2016-08-11T13:57:41Z</time>
      </trkpt>
      <trkpt lat="45.6331" lon="6.11075">
        <ele>1802.012295637</ele>
        <time>2016-08-11T13:57:51Z</time>
      </trkpt>
      <trkpt lat="45.6331" lon="6.11075">
        <ele>1802.012295637</ele>
        <time>2016-08-11T13:57:55Z</time>
      </trkpt>
      <trkpt lat="45.63309" lon="6.11075">
        <ele>1802.012295637</ele>
        <time>2016-08-11T13:58:06Z</time>
      </trkpt>
      <trkpt lat="45.63309" lon="6.11075">
        <ele>1802.012295637</ele>
        <time>2016-08-11T13:58:11Z</time>
      </trkpt>
      <trkpt lat="45.63309" lon="6.11075">
        <ele>1802.012295637</ele>
        <time>2016-08-11T13:58:20Z</time>
      </trkpt>
      <trkpt lat="45.63309" lon="6.11075">
        <ele>1802.012295637</ele>
        <time>2016-08-11T13:58:26Z</time>
      </trkpt>
      <trkpt lat="45.63309" lon="6.11075">
        <ele>1802.012295637</ele>
        <time>2016-08-11T13:58:36Z</time>
      </trkpt>
      <trkpt lat="45.63309" lon="6.11075">
        <ele>1802.012295637</ele>
        <time>2016-08-11T13:58:41Z</time>
      </trkpt>
      <trkpt lat="45.6331" lon="6.11076">
        <ele>1802.012295637</ele>
        <time>2016-08-11T13:58:56Z</time>
      </trkpt>
      <trkpt lat="45.6331" lon="6.11077">
        <ele>1802.012295637</ele>
        <time>2016-08-11T13:59:01Z</time>
      </trkpt>
      <trkpt lat="45.63312" lon="6.11077">
        <ele>1800.203815014</ele>
        <time>2016-08-11T13:59:11Z</time>
      </trkpt>
      <trkpt lat="45.63314" lon="6.11078">
        <ele>1800.203815014</ele>
        <time>2016-08-11T13:59:16Z</time>
      </trkpt>
      <trkpt lat="45.63315" lon="6.1108">
        <ele>1800.203815014</ele>
        <time>2016-08-11T13:59:26Z</time>
      </trkpt>
      <trkpt lat="45.63315" lon="6.11081">
        <ele>1800.203815014</ele>
        <time>2016-08-11T13:59:30Z</time>
      </trkpt>
      <trkpt lat="45.63317" lon="6.11082">
        <ele>1800.203815014</ele>
        <time>2016-08-11T13:59:41Z</time>
      </trkpt>
      <trkpt lat="45.63318" lon="6.11083">
        <ele>1797.890206127</ele>
        <time>2016-08-11T13:59:45Z</time>
      </trkpt>
      <trkpt lat="45.63319" lon="6.11081">
        <ele>1797.890206127</ele>
        <time>2016-08-11T13:59:56Z</time>
      </trkpt>
      <trkpt lat="45.63319" lon="6.11081">
        <ele>1797.890206127</ele>
        <time>2016-08-11T14:00:00Z</time>
      </trkpt>
      <trkpt lat="45.63321" lon="6.11081">
        <ele>1797.890206127</ele>
        <time>2016-08-11T14:00:11Z</time>
      </trkpt>
      <trkpt lat="45.63323" lon="6.11081">
        <ele>1797.890206127</ele>
        <time>2016-08-11T14:00:16Z</time>
      </trkpt>
      <trkpt lat="45.63323" lon="6.11082">
        <ele>1797.890206127</ele>
        <time>2016-08-11T14:00:26Z</time>
      </trkpt>
      <trkpt lat="45.63324" lon="6.11082">
        <ele>1797.890206127</ele>
        <time>2016-08-11T14:00:31Z</time>
      </trkpt>
      <trkpt lat="45.63326" lon="6.11085">
        <ele>1795.112610726</ele>
        <time>2016-08-11T14:00:41Z</time>
      </trkpt>
      <trkpt lat="45.63328" lon="6.11087">
        <ele>1795.112610726</ele>
        <time>2016-08-11T14:00:46Z</time>
      </trkpt>
      <trkpt lat="45.63328" lon="6.11089">
        <ele>1795.112610726</ele>
        <time>2016-08-11T14:00:55Z</time>
      </trkpt>
      <trkpt lat="45.63329" lon="6.11089">
        <ele>1795.112610726</ele>
        <time>2016-08-11T14:01:01Z</time>
      </trkpt>
      <trkpt lat="45.63329" lon="6.11089">
        <ele>1795.112610726</ele>
        <time>2016-08-11T14:01:10Z</time>
      </trkpt>
      <trkpt lat="45.63329" lon="6.1109">
        <ele>1795.112610726</ele>
        <time>2016-08-11T14:01:16Z</time>
      </trkpt>
      <trkpt lat="45.63329" lon="6.11092">
        <ele>1795.112610726</ele>
        <time>2016-08-11T14:01:26Z</time>
      </trkpt>
      <trkpt lat="45.63329" lon="6.11093">
        <ele>1795.112610726</ele>
        <time>2016-08-11T14:01:31Z</time>
      </trkpt>
      <trkpt lat="45.6333" lon="6.11094">
        <ele>1795.112610726</ele>
        <time>2016-08-11T14:01:41Z</time>
      </trkpt>
      <trkpt lat="45.6333" lon="6.11096">
        <ele>1792.054482553</ele>
        <time>2016-08-11T14:01:45Z</time>
      </trkpt>
      <trkpt lat="45.63329" lon="6.11096">
        <ele>1792.054482553</ele>
        <time>2016-08-11T14:01:56Z</time>
      </trkpt>
      <trkpt lat="45.63329" lon="6.11096">
        <ele>1792.054482553</ele>
        <time>2016-08-11T14:02:01Z</time>
      </trkpt>
      <trkpt lat="45.6333" lon="6.11099">
        <ele>1792.054482553</ele>
        <time>2016-08-11T14:02:16Z</time>
      </trkpt>
      <trkpt lat="45.63331" lon="6.11099">
        <ele>1792.054482553</ele>
        <time>2016-08-11T14:02:21Z</time>
      </trkpt>
      <trkpt lat="45.63333" lon="6.11097">
        <ele>1792.054482553</ele>
        <time>2016-08-11T14:02:31Z</time>
      </trkpt>
      <trkpt lat="45.63332" lon="6.11098">
        <ele>1792.054482553</ele>
        <time>2016-08-11T14:02:36Z</time>
      </trkpt>
      <trkpt lat="45.63332" lon="6.11098">
        <ele>1792.054482553</ele>
        <time>2016-08-11T14:02:46Z</time>
      </trkpt>
      <trkpt lat="45.63332" lon="6.11098">
        <ele>1792.054482553</ele>
        <time>2016-08-11T14:02:50Z</time>
      </trkpt>
      <trkpt lat="45.63332" lon="6.11098">
        <ele>1792.054482553</ele>
        <time>2016-08-11T14:03:01Z</time>
      </trkpt>
      <trkpt lat="45.63332" lon="6.11098">
        <ele>1792.054482553</ele>
        <time>2016-08-11T14:03:05Z</time>
      </trkpt>
      <trkpt lat="45.63332" lon="6.11098">
        <ele>1792.054482553</ele>
        <time>2016-08-11T14:03:16Z</time>
      </trkpt>
      <trkpt lat="45.63332" lon="6.11098">
        <ele>1792.054482553</ele>
        <time>2016-08-11T14:03:21Z</time>
      </trkpt>
      <trkpt lat="45.63332" lon="6.11098">
        <ele>1792.054482553</ele>
        <time>2016-08-11T14:03:31Z</time>
      </trkpt>
      <trkpt lat="45.63332" lon="6.11098">
        <ele>1792.054482553</ele>
        <time>2016-08-11T14:03:36Z</time>
      </trkpt>
      <trkpt lat="45.63332" lon="6.11098">
        <ele>1792.054482553</ele>
        <time>2016-08-11T14:03:46Z</time>
      </trkpt>
      <trkpt lat="45.63332" lon="6.11098">
        <ele>1792.054482553</ele>
        <time>2016-08-11T14:03:51Z</time>
      </trkpt>
      <trkpt lat="45.63332" lon="6.11098">
        <ele>1792.054482553</ele>
        <time>2016-08-11T14:04:00Z</time>
      </trkpt>
      <trkpt lat="45.63332" lon="6.11098">
        <ele>1792.054482553</ele>
        <time>2016-08-11T14:04:05Z</time>
      </trkpt>
      <trkpt lat="45.63332" lon="6.11098">
        <ele>1792.054482553</ele>
        <time>2016-08-11T14:04:15Z</time>
      </trkpt>
      <trkpt lat="45.63332" lon="6.11098">
        <ele>1792.054482553</ele>
        <time>2016-08-11T14:04:21Z</time>
      </trkpt>
      <trkpt lat="45.63332" lon="6.11098">
        <ele>1792.054482553</ele>
        <time>2016-08-11T14:04:31Z</time>
      </trkpt>
      <trkpt lat="45.63332" lon="6.11098">
        <ele>1792.054482553</ele>
        <time>2016-08-11T14:04:36Z</time>
      </trkpt>
      <trkpt lat="45.63332" lon="6.11098">
        <ele>1792.054482553</ele>
        <time>2016-08-11T14:04:51Z</time>
      </trkpt>
      <trkpt lat="45.63335" lon="6.11101">
        <ele>1789.030609905</ele>
        <time>2016-08-11T14:04:56Z</time>
      </trkpt>
      <trkpt lat="45.63335" lon="6.11102">
        <ele>1789.030609905</ele>
        <time>2016-08-11T14:05:06Z</time>
      </trkpt>
      <trkpt lat="45.63335" lon="6.11102">
        <ele>1789.030609905</ele>
        <time>2016-08-11T14:05:10Z</time>
      </trkpt>
      <trkpt lat="45.63335" lon="6.11102">
        <ele>1789.030609905</ele>
        <time>2016-08-11T14:05:21Z</time>
      </trkpt>
      <trkpt lat="45.63335" lon="6.11102">
        <ele>1789.030609905</ele>
        <time>2016-08-11T14:05:26Z</time>
      </trkpt>
      <trkpt lat="45.63335" lon="6.11102">
        <ele>1789.030609905</ele>
        <time>2016-08-11T14:05:45Z</time>
      </trkpt>
      <trkpt lat="45.63336" lon="6.11102">
        <ele>1789.030609905</ele>
        <time>2016-08-11T14:05:51Z</time>
      </trkpt>
      <trkpt lat="45.63336" lon="6.11102">
        <ele>1789.030609905</ele>
        <time>2016-08-11T14:06:01Z</time>
      </trkpt>
      <trkpt lat="45.63336" lon="6.11102">
        <ele>1789.030609905</ele>
        <time>2016-08-11T14:06:06Z</time>
      </trkpt>
      <trkpt lat="45.63336" lon="6.11102">
        <ele>1789.030609905</ele>
        <time>2016-08-11T14:06:16Z</time>
      </trkpt>
      <trkpt lat="45.63336" lon="6.11102">
        <ele>1789.030609905</ele>
        <time>2016-08-11T14:06:21Z</time>
      </trkpt>
      <trkpt lat="45.63336" lon="6.11102">
        <ele>1789.030609905</ele>
        <time>2016-08-11T14:06:36Z</time>
      </trkpt>
      <trkpt lat="45.63336" lon="6.11102">
        <ele>1789.030609905</ele>
        <time>2016-08-11T14:06:41Z</time>
      </trkpt>
      <trkpt lat="45.63336" lon="6.11102">
        <ele>1789.030609905</ele>
        <time>2016-08-11T14:06:51Z</time>
      </trkpt>
      <trkpt lat="45.63336" lon="6.11102">
        <ele>1789.030609905</ele>
        <time>2016-08-11T14:06:56Z</time>
      </trkpt>
      <trkpt lat="45.63336" lon="6.11102">
        <ele>1789.030609905</ele>
        <time>2016-08-11T14:07:06Z</time>
      </trkpt>
      <trkpt lat="45.63336" lon="6.11102">
        <ele>1789.030609905</ele>
        <time>2016-08-11T14:07:10Z</time>
      </trkpt>
      <trkpt lat="45.63336" lon="6.11102">
        <ele>1789.030609905</ele>
        <time>2016-08-11T14:07:21Z</time>
      </trkpt>
      <trkpt lat="45.63336" lon="6.11102">
        <ele>1789.030609905</ele>
        <time>2016-08-11T14:07:26Z</time>
      </trkpt>
      <trkpt lat="45.63336" lon="6.11102">
        <ele>1789.030609905</ele>
        <time>2016-08-11T14:07:36Z</time>
      </trkpt>
      <trkpt lat="45.63336" lon="6.11102">
        <ele>1789.030609905</ele>
        <time>2016-08-11T14:07:41Z</time>
      </trkpt>
      <trkpt lat="45.63336" lon="6.11102">
        <ele>1789.030609905</ele>
        <time>2016-08-11T14:07:56Z</time>
      </trkpt>
      <trkpt lat="45.63336" lon="6.11102">
        <ele>1789.030609905</ele>
        <time>2016-08-11T14:08:11Z</time>
      </trkpt>
      <trkpt lat="45.63336" lon="6.11102">
        <ele>1789.030609905</ele>
        <time>2016-08-11T14:08:16Z</time>
      </trkpt>
      <trkpt lat="45.63336" lon="6.11102">
        <ele>1789.030609905</ele>
        <time>2016-08-11T14:08:26Z</time>
      </trkpt>
      <trkpt lat="45.63336" lon="6.11103">
        <ele>1789.030609905</ele>
        <time>2016-08-11T14:08:31Z</time>
      </trkpt>
      <trkpt lat="45.63336" lon="6.11103">
        <ele>1789.030609905</ele>
        <time>2016-08-11T14:08:41Z</time>
      </trkpt>
      <trkpt lat="45.63336" lon="6.11102">
        <ele>1789.030609905</ele>
        <time>2016-08-11T14:08:46Z</time>
      </trkpt>
      <trkpt lat="45.63336" lon="6.11102">
        <ele>1789.030609905</ele>
        <time>2016-08-11T14:08:56Z</time>
      </trkpt>
      <trkpt lat="45.63336" lon="6.11102">
        <ele>1789.030609905</ele>
        <time>2016-08-11T14:09:01Z</time>
      </trkpt>
      <trkpt lat="45.63336" lon="6.11102">
        <ele>1789.030609905</ele>
        <time>2016-08-11T14:09:11Z</time>
      </trkpt>
      <trkpt lat="45.63336" lon="6.11102">
        <ele>1789.030609905</ele>
        <time>2016-08-11T14:09:16Z</time>
      </trkpt>
      <trkpt lat="45.63344" lon="6.111">
        <ele>1785.756018238</ele>
        <time>2016-08-11T14:09:26Z</time>
      </trkpt>
      <trkpt lat="45.63343" lon="6.111">
        <ele>1785.756018238</ele>
        <time>2016-08-11T14:09:31Z</time>
      </trkpt>
      <trkpt lat="45.63343" lon="6.111">
        <ele>1785.756018238</ele>
        <time>2016-08-11T14:09:41Z</time>
      </trkpt>
      <trkpt lat="45.63344" lon="6.111">
        <ele>1785.756018238</ele>
        <time>2016-08-11T14:09:46Z</time>
      </trkpt>
      <trkpt lat="45.63343" lon="6.11101">
        <ele>1785.756018238</ele>
        <time>2016-08-11T14:09:56Z</time>
      </trkpt>
      <trkpt lat="45.63346" lon="6.11102">
        <ele>1785.756018238</ele>
        <time>2016-08-11T14:10:01Z</time>
      </trkpt>
      <trkpt lat="45.6335" lon="6.11103">
        <ele>1782.255485045</ele>
        <time>2016-08-11T14:10:11Z</time>
      </trkpt>
      <trkpt lat="45.63351" lon="6.11103">
        <ele>1782.255485045</ele>
        <time>2016-08-11T14:10:15Z</time>
      </trkpt>
      <trkpt lat="45.63352" lon="6.11103">
        <ele>1782.255485045</ele>
        <time>2016-08-11T14:10:26Z</time>
      </trkpt>
      <trkpt lat="45.63352" lon="6.11105">
        <ele>1782.255485045</ele>
        <time>2016-08-11T14:10:31Z</time>
      </trkpt>
      <trkpt lat="45.6335" lon="6.11105">
        <ele>1782.255485045</ele>
        <time>2016-08-11T14:10:35Z</time>
      </trkpt>
      <trkpt lat="45.63353" lon="6.11105">
        <ele>1782.255485045</ele>
        <time>2016-08-11T14:10:46Z</time>
      </trkpt>
      <trkpt lat="45.63355" lon="6.11109">
        <ele>1778.408370643</ele>
        <time>2016-08-11T14:10:51Z</time>
      </trkpt>
      <trkpt lat="45.63357" lon="6.1111">
        <ele>1778.408370643</ele>
        <time>2016-08-11T14:11:01Z</time>
      </trkpt>
      <trkpt lat="45.63358" lon="6.1111">
        <ele>1778.408370643</ele>
        <time>2016-08-11T14:11:06Z</time>
      </trkpt>
      <trkpt lat="45.63358" lon="6.11112">
        <ele>1778.408370643</ele>
        <time>2016-08-11T14:11:16Z</time>
      </trkpt>
      <trkpt lat="45.63359" lon="6.11112">
        <ele>1778.408370643</ele>
        <time>2016-08-11T14:11:21Z</time>
      </trkpt>
      <trkpt lat="45.63359" lon="6.11112">
        <ele>1778.408370643</ele>
        <time>2016-08-11T14:11:31Z</time>
      </trkpt>
      <trkpt lat="45.63359" lon="6.11112">
        <ele>1778.408370643</ele>
        <time>2016-08-11T14:11:36Z</time>
      </trkpt>
      <trkpt lat="45.63359" lon="6.11112">
        <ele>1778.408370643</ele>
        <time>2016-08-11T14:11:46Z</time>
      </trkpt>
      <trkpt lat="45.63359" lon="6.11112">
        <ele>1778.408370643</ele>
        <time>2016-08-11T14:11:50Z</time>
      </trkpt>
      <trkpt lat="45.63359" lon="6.11112">
        <ele>1778.408370643</ele>
        <time>2016-08-11T14:12:01Z</time>
      </trkpt>
      <trkpt lat="45.63359" lon="6.11112">
        <ele>1778.408370643</ele>
        <time>2016-08-11T14:12:06Z</time>
      </trkpt>
      <trkpt lat="45.63359" lon="6.11114">
        <ele>1778.408370643</ele>
        <time>2016-08-11T14:12:16Z</time>
      </trkpt>
      <trkpt lat="45.63359" lon="6.11113">
        <ele>1778.408370643</ele>
        <time>2016-08-11T14:12:21Z</time>
      </trkpt>
      <trkpt lat="45.63359" lon="6.11115">
        <ele>1778.408370643</ele>
        <time>2016-08-11T14:12:25Z</time>
      </trkpt>
      <trkpt lat="45.6336" lon="6.11114">
        <ele>1774.536072115</ele>
        <time>2016-08-11T14:12:36Z</time>
      </trkpt>
      <trkpt lat="45.6336" lon="6.11114">
        <ele>1774.536072115</ele>
        <time>2016-08-11T14:12:41Z</time>
      </trkpt>
      <trkpt lat="45.63361" lon="6.11115">
        <ele>1774.536072115</ele>
        <time>2016-08-11T14:12:51Z</time>
      </trkpt>
      <trkpt lat="45.63361" lon="6.11115">
        <ele>1774.536072115</ele>
        <time>2016-08-11T14:12:56Z</time>
      </trkpt>
      <trkpt lat="45.63363" lon="6.11116">
        <ele>1774.536072115</ele>
        <time>2016-08-11T14:13:06Z</time>
      </trkpt>
      <trkpt lat="45.63363" lon="6.11116">
        <ele>1774.536072115</ele>
        <time>2016-08-11T14:13:11Z</time>
      </trkpt>
      <trkpt lat="45.63366" lon="6.11114">
        <ele>1774.536072115</ele>
        <time>2016-08-11T14:13:21Z</time>
      </trkpt>
      <trkpt lat="45.63368" lon="6.11116">
        <ele>1774.536072115</ele>
        <time>2016-08-11T14:13:26Z</time>
      </trkpt>
      <trkpt lat="45.63368" lon="6.11116">
        <ele>1770.64808177</ele>
        <time>2016-08-11T14:13:36Z</time>
      </trkpt>
      <trkpt lat="45.63368" lon="6.11116">
        <ele>1770.64808177</ele>
        <time>2016-08-11T14:13:41Z</time>
      </trkpt>
      <trkpt lat="45.63368" lon="6.11116">
        <ele>1770.64808177</ele>
        <time>2016-08-11T14:13:51Z</time>
      </trkpt>
      <trkpt lat="45.63368" lon="6.11116">
        <ele>1770.64808177</ele>
        <time>2016-08-11T14:13:56Z</time>
      </trkpt>
      <trkpt lat="45.63368" lon="6.11116">
        <ele>1770.64808177</ele>
        <time>2016-08-11T14:14:06Z</time>
      </trkpt>
      <trkpt lat="45.63368" lon="6.11116">
        <ele>1770.64808177</ele>
        <time>2016-08-11T14:14:10Z</time>
      </trkpt>
      <trkpt lat="45.63368" lon="6.11116">
        <ele>1770.64808177</ele>
        <time>2016-08-11T14:14:21Z</time>
      </trkpt>
      <trkpt lat="45.63368" lon="6.11116">
        <ele>1770.64808177</ele>
        <time>2016-08-11T14:14:25Z</time>
      </trkpt>
      <trkpt lat="45.63369" lon="6.11117">
        <ele>1770.64808177</ele>
        <time>2016-08-11T14:14:35Z</time>
      </trkpt>
      <trkpt lat="45.63368" lon="6.11117">
        <ele>1770.64808177</ele>
        <time>2016-08-11T14:14:40Z</time>
      </trkpt>
      <trkpt lat="45.63369" lon="6.11117">
        <ele>1770.64808177</ele>
        <time>2016-08-11T14:14:51Z</time>
      </trkpt>
      <trkpt lat="45.63369" lon="6.11117">
        <ele>1770.64808177</ele>
        <time>2016-08-11T14:14:55Z</time>
      </trkpt>
      <trkpt lat="45.6337" lon="6.11122">
        <ele>1770.64808177</ele>
        <time>2016-08-11T14:15:10Z</time>
      </trkpt>
      <trkpt lat="45.6337" lon="6.11124">
        <ele>1770.64808177</ele>
        <time>2016-08-11T14:15:15Z</time>
      </trkpt>
      <trkpt lat="45.6337" lon="6.11123">
        <ele>1770.64808177</ele>
        <time>2016-08-11T14:15:25Z</time>
      </trkpt>
      <trkpt lat="45.6337" lon="6.11123">
        <ele>1770.64808177</ele>
        <time>2016-08-11T14:15:31Z</time>
      </trkpt>
      <trkpt lat="45.63375" lon="6.1113">
        <ele>1766.464860773</ele>
        <time>2016-08-11T14:15:41Z</time>
      </trkpt>
      <trkpt lat="45.63377" lon="6.11134">
        <ele>1766.464860773</ele>
        <time>2016-08-11T14:15:45Z</time>
      </trkpt>
      <trkpt lat="45.6338" lon="6.11142">
        <ele>1762.016287999</ele>
        <time>2016-08-11T14:15:55Z</time>
      </trkpt>
      <trkpt lat="45.63381" lon="6.11142">
        <ele>1762.016287999</ele>
        <time>2016-08-11T14:16:00Z</time>
      </trkpt>
      <trkpt lat="45.63382" lon="6.11143">
        <ele>1762.016287999</ele>
        <time>2016-08-11T14:16:10Z</time>
      </trkpt>
      <trkpt lat="45.63382" lon="6.11143">
        <ele>1762.016287999</ele>
        <time>2016-08-11T14:16:16Z</time>
      </trkpt>
      <trkpt lat="45.63382" lon="6.11143">
        <ele>1762.016287999</ele>
        <time>2016-08-11T14:16:25Z</time>
      </trkpt>
      <trkpt lat="45.63382" lon="6.11143">
        <ele>1762.016287999</ele>
        <time>2016-08-11T14:16:31Z</time>
      </trkpt>
      <trkpt lat="45.63382" lon="6.11143">
        <ele>1762.016287999</ele>
        <time>2016-08-11T14:16:40Z</time>
      </trkpt>
      <trkpt lat="45.6338" lon="6.11146">
        <ele>1762.016287999</ele>
        <time>2016-08-11T14:16:45Z</time>
      </trkpt>
      <trkpt lat="45.63388" lon="6.11148">
        <ele>1757.90705774</ele>
        <time>2016-08-11T14:17:00Z</time>
      </trkpt>
      <trkpt lat="45.63389" lon="6.1115">
        <ele>1757.90705774</ele>
        <time>2016-08-11T14:17:05Z</time>
      </trkpt>
      <trkpt lat="45.6339" lon="6.1115">
        <ele>1757.90705774</ele>
        <time>2016-08-11T14:17:15Z</time>
      </trkpt>
      <trkpt lat="45.6339" lon="6.1115">
        <ele>1757.90705774</ele>
        <time>2016-08-11T14:17:20Z</time>
      </trkpt>
      <trkpt lat="45.6339" lon="6.1115">
        <ele>1757.90705774</ele>
        <time>2016-08-11T14:17:25Z</time>
      </trkpt>
      <trkpt lat="45.6339" lon="6.1115">
        <ele>1757.90705774</ele>
        <time>2016-08-11T14:17:30Z</time>
      </trkpt>
      <trkpt lat="45.6339" lon="6.1115">
        <ele>1757.90705774</ele>
        <time>2016-08-11T14:17:35Z</time>
      </trkpt>
      <trkpt lat="45.6339" lon="6.1115">
        <ele>1757.90705774</ele>
        <time>2016-08-11T14:17:41Z</time>
      </trkpt>
      <trkpt lat="45.6339" lon="6.1115">
        <ele>1757.90705774</ele>
        <time>2016-08-11T14:17:50Z</time>
      </trkpt>
      <trkpt lat="45.6339" lon="6.1115">
        <ele>1757.90705774</ele>
        <time>2016-08-11T14:17:56Z</time>
      </trkpt>
      <trkpt lat="45.6339" lon="6.1115">
        <ele>1757.90705774</ele>
        <time>2016-08-11T14:18:05Z</time>
      </trkpt>
      <trkpt lat="45.63393" lon="6.11152">
        <ele>1757.90705774</ele>
        <time>2016-08-11T14:18:10Z</time>
      </trkpt>
      <trkpt lat="45.63394" lon="6.11151">
        <ele>1757.90705774</ele>
        <time>2016-08-11T14:18:21Z</time>
      </trkpt>
      <trkpt lat="45.63394" lon="6.11152">
        <ele>1757.90705774</ele>
        <time>2016-08-11T14:18:25Z</time>
      </trkpt>
      <trkpt lat="45.63394" lon="6.11153">
        <ele>1757.90705774</ele>
        <time>2016-08-11T14:18:35Z</time>
      </trkpt>
      <trkpt lat="45.63395" lon="6.11155">
        <ele>1753.831635245</ele>
        <time>2016-08-11T14:18:40Z</time>
      </trkpt>
      <trkpt lat="45.63399" lon="6.11153">
        <ele>1753.831635245</ele>
        <time>2016-08-11T14:18:50Z</time>
      </trkpt>
      <trkpt lat="45.63399" lon="6.11153">
        <ele>1753.831635245</ele>
        <time>2016-08-11T14:18:55Z</time>
      </trkpt>
      <trkpt lat="45.63398" lon="6.11155">
        <ele>1753.831635245</ele>
        <time>2016-08-11T14:19:05Z</time>
      </trkpt>
      <trkpt lat="45.63398" lon="6.11155">
        <ele>1753.831635245</ele>
        <time>2016-08-11T14:19:10Z</time>
      </trkpt>
      <trkpt lat="45.63398" lon="6.11155">
        <ele>1753.831635245</ele>
        <time>2016-08-11T14:19:25Z</time>
      </trkpt>
      <trkpt lat="45.63401" lon="6.11165">
        <ele>1749.794859165</ele>
        <time>2016-08-11T14:19:30Z</time>
      </trkpt>
      <trkpt lat="45.63409" lon="6.11175">
        <ele>1746.521455684</ele>
        <time>2016-08-11T14:19:40Z</time>
      </trkpt>
      <trkpt lat="45.63408" lon="6.11176">
        <ele>1746.521455684</ele>
        <time>2016-08-11T14:19:45Z</time>
      </trkpt>
      <trkpt lat="45.63408" lon="6.11176">
        <ele>1746.521455684</ele>
        <time>2016-08-11T14:19:55Z</time>
      </trkpt>
      <trkpt lat="45.63409" lon="6.11176">
        <ele>1746.521455684</ele>
        <time>2016-08-11T14:20:00Z</time>
      </trkpt>
      <trkpt lat="45.63408" lon="6.11177">
        <ele>1746.521455684</ele>
        <time>2016-08-11T14:20:10Z</time>
      </trkpt>
      <trkpt lat="45.63408" lon="6.11176">
        <ele>1746.521455684</ele>
        <time>2016-08-11T14:20:15Z</time>
      </trkpt>
      <trkpt lat="45.63409" lon="6.11177">
        <ele>1746.521455684</ele>
        <time>2016-08-11T14:20:26Z</time>
      </trkpt>
      <trkpt lat="45.63409" lon="6.11178">
        <ele>1746.521455684</ele>
        <time>2016-08-11T14:20:30Z</time>
      </trkpt>
      <trkpt lat="45.63409" lon="6.11178">
        <ele>1746.521455684</ele>
        <time>2016-08-11T14:20:45Z</time>
      </trkpt>
      <trkpt lat="45.63409" lon="6.11178">
        <ele>1746.521455684</ele>
        <time>2016-08-11T14:20:50Z</time>
      </trkpt>
      <trkpt lat="45.63409" lon="6.11178">
        <ele>1746.521455684</ele>
        <time>2016-08-11T14:21:00Z</time>
      </trkpt>
      <trkpt lat="45.6341" lon="6.11178">
        <ele>1746.521455684</ele>
        <time>2016-08-11T14:21:05Z</time>
      </trkpt>
      <trkpt lat="45.6341" lon="6.11178">
        <ele>1746.521455684</ele>
        <time>2016-08-11T14:21:15Z</time>
      </trkpt>
      <trkpt lat="45.6341" lon="6.11178">
        <ele>1746.521455684</ele>
        <time>2016-08-11T14:21:20Z</time>
      </trkpt>
      <trkpt lat="45.63413" lon="6.11186">
        <ele>1744.104120048</ele>
        <time>2016-08-11T14:21:30Z</time>
      </trkpt>
      <trkpt lat="45.63413" lon="6.11188">
        <ele>1744.104120048</ele>
        <time>2016-08-11T14:21:35Z</time>
      </trkpt>
      <trkpt lat="45.63415" lon="6.11189">
        <ele>1744.104120048</ele>
        <time>2016-08-11T14:21:40Z</time>
      </trkpt>
      <trkpt lat="45.63415" lon="6.11189">
        <ele>1744.104120048</ele>
        <time>2016-08-11T14:21:45Z</time>
      </trkpt>
      <trkpt lat="45.63416" lon="6.11188">
        <ele>1744.104120048</ele>
        <time>2016-08-11T14:21:56Z</time>
      </trkpt>
      <trkpt lat="45.63418" lon="6.1119">
        <ele>1744.104120048</ele>
        <time>2016-08-11T14:22:00Z</time>
      </trkpt>
      <trkpt lat="45.63423" lon="6.11193">
        <ele>1742.482021805</ele>
        <time>2016-08-11T14:22:15Z</time>
      </trkpt>
      <trkpt lat="45.63424" lon="6.11193">
        <ele>1742.482021805</ele>
        <time>2016-08-11T14:22:20Z</time>
      </trkpt>
      <trkpt lat="45.63423" lon="6.11193">
        <ele>1742.482021805</ele>
        <time>2016-08-11T14:22:30Z</time>
      </trkpt>
      <trkpt lat="45.63423" lon="6.11193">
        <ele>1742.482021805</ele>
        <time>2016-08-11T14:22:35Z</time>
      </trkpt>
      <trkpt lat="45.63424" lon="6.11193">
        <ele>1742.482021805</ele>
        <time>2016-08-11T14:22:45Z</time>
      </trkpt>
      <trkpt lat="45.63422" lon="6.11194">
        <ele>1742.482021805</ele>
        <time>2016-08-11T14:22:50Z</time>
      </trkpt>
      <trkpt lat="45.63421" lon="6.11195">
        <ele>1742.482021805</ele>
        <time>2016-08-11T14:23:00Z</time>
      </trkpt>
      <trkpt lat="45.63421" lon="6.11195">
        <ele>1742.482021805</ele>
        <time>2016-08-11T14:23:05Z</time>
      </trkpt>
      <trkpt lat="45.63421" lon="6.11195">
        <ele>1742.482021805</ele>
        <time>2016-08-11T14:23:15Z</time>
      </trkpt>
      <trkpt lat="45.63421" lon="6.11195">
        <ele>1742.482021805</ele>
        <time>2016-08-11T14:23:20Z</time>
      </trkpt>
      <trkpt lat="45.63421" lon="6.11195">
        <ele>1742.482021805</ele>
        <time>2016-08-11T14:23:30Z</time>
      </trkpt>
      <trkpt lat="45.63423" lon="6.11192">
        <ele>1742.482021805</ele>
        <time>2016-08-11T14:23:35Z</time>
      </trkpt>
      <trkpt lat="45.63424" lon="6.11194">
        <ele>1740.875816226</ele>
        <time>2016-08-11T14:23:45Z</time>
      </trkpt>
      <trkpt lat="45.63423" lon="6.11194">
        <ele>1740.875816226</ele>
        <time>2016-08-11T14:23:50Z</time>
      </trkpt>
      <trkpt lat="45.63422" lon="6.11196">
        <ele>1740.875816226</ele>
        <time>2016-08-11T14:24:00Z</time>
      </trkpt>
      <trkpt lat="45.63422" lon="6.11196">
        <ele>1740.875816226</ele>
        <time>2016-08-11T14:24:05Z</time>
      </trkpt>
      <trkpt lat="45.63422" lon="6.11196">
        <ele>1740.875816226</ele>
        <time>2016-08-11T14:24:20Z</time>
      </trkpt>
      <trkpt lat="45.63422" lon="6.11197">
        <ele>1740.875816226</ele>
        <time>2016-08-11T14:24:25Z</time>
      </trkpt>
      <trkpt lat="45.63421" lon="6.11198">
        <ele>1740.875816226</ele>
        <time>2016-08-11T14:24:35Z</time>
      </trkpt>
      <trkpt lat="45.63421" lon="6.11198">
        <ele>1740.875816226</ele>
        <time>2016-08-11T14:24:40Z</time>
      </trkpt>
      <trkpt lat="45.63421" lon="6.11198">
        <ele>1740.875816226</ele>
        <time>2016-08-11T14:24:50Z</time>
      </trkpt>
      <trkpt lat="45.63421" lon="6.11198">
        <ele>1740.875816226</ele>
        <time>2016-08-11T14:24:55Z</time>
      </trkpt>
      <trkpt lat="45.63421" lon="6.11198">
        <ele>1740.875816226</ele>
        <time>2016-08-11T14:25:05Z</time>
      </trkpt>
      <trkpt lat="45.63421" lon="6.11198">
        <ele>1740.875816226</ele>
        <time>2016-08-11T14:25:10Z</time>
      </trkpt>
      <trkpt lat="45.63422" lon="6.11198">
        <ele>1740.875816226</ele>
        <time>2016-08-11T14:25:15Z</time>
      </trkpt>
      <trkpt lat="45.63423" lon="6.11196">
        <ele>1740.875816226</ele>
        <time>2016-08-11T14:25:20Z</time>
      </trkpt>
      <trkpt lat="45.63422" lon="6.11197">
        <ele>1740.875816226</ele>
        <time>2016-08-11T14:25:25Z</time>
      </trkpt>
      <trkpt lat="45.63422" lon="6.11197">
        <ele>1740.875816226</ele>
        <time>2016-08-11T14:25:31Z</time>
      </trkpt>
      <trkpt lat="45.63423" lon="6.11197">
        <ele>1740.875816226</ele>
        <time>2016-08-11T14:25:40Z</time>
      </trkpt>
      <trkpt lat="45.63422" lon="6.11197">
        <ele>1739.571959917</ele>
        <time>2016-08-11T14:25:45Z</time>
      </trkpt>
      <trkpt lat="45.63423" lon="6.11198">
        <ele>1739.571959917</ele>
        <time>2016-08-11T14:25:55Z</time>
      </trkpt>
      <trkpt lat="45.63423" lon="6.11198">
        <ele>1739.571959917</ele>
        <time>2016-08-11T14:26:00Z</time>
      </trkpt>
      <trkpt lat="45.63423" lon="6.11198">
        <ele>1739.571959917</ele>
        <time>2016-08-11T14:26:10Z</time>
      </trkpt>
      <trkpt lat="45.63423" lon="6.11198">
        <ele>1739.571959917</ele>
        <time>2016-08-11T14:26:15Z</time>
      </trkpt>
      <trkpt lat="45.63423" lon="6.11198">
        <ele>1739.571959917</ele>
        <time>2016-08-11T14:26:25Z</time>
      </trkpt>
      <trkpt lat="45.63423" lon="6.11198">
        <ele>1739.571959917</ele>
        <time>2016-08-11T14:26:30Z</time>
      </trkpt>
      <trkpt lat="45.63422" lon="6.11199">
        <ele>1739.571959917</ele>
        <time>2016-08-11T14:26:45Z</time>
      </trkpt>
      <trkpt lat="45.63422" lon="6.11198">
        <ele>1739.571959917</ele>
        <time>2016-08-11T14:26:50Z</time>
      </trkpt>
      <trkpt lat="45.63422" lon="6.11198">
        <ele>1739.571959917</ele>
        <time>2016-08-11T14:27:00Z</time>
      </trkpt>
      <trkpt lat="45.63422" lon="6.11198">
        <ele>1739.571959917</ele>
        <time>2016-08-11T14:27:05Z</time>
      </trkpt>
      <trkpt lat="45.63422" lon="6.11198">
        <ele>1739.571959917</ele>
        <time>2016-08-11T14:27:15Z</time>
      </trkpt>
      <trkpt lat="45.63422" lon="6.11198">
        <ele>1739.571959917</ele>
        <time>2016-08-11T14:27:20Z</time>
      </trkpt>
      <trkpt lat="45.63422" lon="6.11198">
        <ele>1739.571959917</ele>
        <time>2016-08-11T14:27:30Z</time>
      </trkpt>
      <trkpt lat="45.63422" lon="6.11198">
        <ele>1739.571959917</ele>
        <time>2016-08-11T14:27:35Z</time>
      </trkpt>
      <trkpt lat="45.63425" lon="6.11197">
        <ele>1739.571959917</ele>
        <time>2016-08-11T14:27:45Z</time>
      </trkpt>
      <trkpt lat="45.63427" lon="6.11198">
        <ele>1739.571959917</ele>
        <time>2016-08-11T14:27:50Z</time>
      </trkpt>
      <trkpt lat="45.63429" lon="6.11199">
        <ele>1738.690740494</ele>
        <time>2016-08-11T14:28:00Z</time>
      </trkpt>
      <trkpt lat="45.63429" lon="6.11199">
        <ele>1738.690740494</ele>
        <time>2016-08-11T14:28:05Z</time>
      </trkpt>
      <trkpt lat="45.63433" lon="6.11202">
        <ele>1738.690740494</ele>
        <time>2016-08-11T14:28:15Z</time>
      </trkpt>
      <trkpt lat="45.63433" lon="6.11203">
        <ele>1738.690740494</ele>
        <time>2016-08-11T14:28:20Z</time>
      </trkpt>
      <trkpt lat="45.63437" lon="6.11203">
        <ele>1738.690740494</ele>
        <time>2016-08-11T14:28:30Z</time>
      </trkpt>
      <trkpt lat="45.63438" lon="6.11203">
        <ele>1737.621718281</ele>
        <time>2016-08-11T14:28:35Z</time>
      </trkpt>
      <trkpt lat="45.63438" lon="6.11203">
        <ele>1737.621718281</ele>
        <time>2016-08-11T14:28:45Z</time>
      </trkpt>
      <trkpt lat="45.63437" lon="6.11203">
        <ele>1737.621718281</ele>
        <time>2016-08-11T14:28:50Z</time>
      </trkpt>
      <trkpt lat="45.63437" lon="6.11204">
        <ele>1737.621718281</ele>
        <time>2016-08-11T14:29:05Z</time>
      </trkpt>
      <trkpt lat="45.63436" lon="6.11207">
        <ele>1737.621718281</ele>
        <time>2016-08-11T14:29:10Z</time>
      </trkpt>
      <trkpt lat="45.63437" lon="6.11207">
        <ele>1737.621718281</ele>
        <time>2016-08-11T14:29:21Z</time>
      </trkpt>
      <trkpt lat="45.63445" lon="6.11213">
        <ele>1736.232024957</ele>
        <time>2016-08-11T14:29:25Z</time>
      </trkpt>
      <trkpt lat="45.63448" lon="6.1122">
        <ele>1736.232024957</ele>
        <time>2016-08-11T14:29:36Z</time>
      </trkpt>
      <trkpt lat="45.63449" lon="6.11221">
        <ele>1736.232024957</ele>
        <time>2016-08-11T14:29:40Z</time>
      </trkpt>
      <trkpt lat="45.63452" lon="6.11224">
        <ele>1735.264005587</ele>
        <time>2016-08-11T14:29:50Z</time>
      </trkpt>
      <trkpt lat="45.63457" lon="6.11228">
        <ele>1735.264005587</ele>
        <time>2016-08-11T14:29:55Z</time>
      </trkpt>
      <trkpt lat="45.6346" lon="6.11227">
        <ele>1734.395413875</ele>
        <time>2016-08-11T14:30:05Z</time>
      </trkpt>
      <trkpt lat="45.63463" lon="6.11223">
        <ele>1734.395413875</ele>
        <time>2016-08-11T14:30:10Z</time>
      </trkpt>
      <trkpt lat="45.63465" lon="6.11236">
        <ele>1733.903760965</ele>
        <time>2016-08-11T14:30:20Z</time>
      </trkpt>
      <trkpt lat="45.63467" lon="6.11236">
        <ele>1733.903760965</ele>
        <time>2016-08-11T14:30:25Z</time>
      </trkpt>
      <trkpt lat="45.6347" lon="6.11233">
        <ele>1733.903760965</ele>
        <time>2016-08-11T14:30:35Z</time>
      </trkpt>
      <trkpt lat="45.63474" lon="6.11236">
        <ele>1733.324494289</ele>
        <time>2016-08-11T14:30:40Z</time>
      </trkpt>
      <trkpt lat="45.63476" lon="6.11236">
        <ele>1733.324494289</ele>
        <time>2016-08-11T14:30:50Z</time>
      </trkpt>
      <trkpt lat="45.63476" lon="6.11237">
        <ele>1733.324494289</ele>
        <time>2016-08-11T14:30:55Z</time>
      </trkpt>
      <trkpt lat="45.63476" lon="6.11237">
        <ele>1733.324494289</ele>
        <time>2016-08-11T14:31:10Z</time>
      </trkpt>
      <trkpt lat="45.63476" lon="6.11237">
        <ele>1733.324494289</ele>
        <time>2016-08-11T14:31:15Z</time>
      </trkpt>
      <trkpt lat="45.63476" lon="6.11237">
        <ele>1733.324494289</ele>
        <time>2016-08-11T14:31:25Z</time>
      </trkpt>
      <trkpt lat="45.63476" lon="6.11237">
        <ele>1733.324494289</ele>
        <time>2016-08-11T14:31:30Z</time>
      </trkpt>
      <trkpt lat="45.63476" lon="6.11237">
        <ele>1733.324494289</ele>
        <time>2016-08-11T14:31:40Z</time>
      </trkpt>
      <trkpt lat="45.63476" lon="6.11237">
        <ele>1733.324494289</ele>
        <time>2016-08-11T14:31:45Z</time>
      </trkpt>
      <trkpt lat="45.63476" lon="6.11237">
        <ele>1733.324494289</ele>
        <time>2016-08-11T14:31:55Z</time>
      </trkpt>
      <trkpt lat="45.63476" lon="6.11237">
        <ele>1733.324494289</ele>
        <time>2016-08-11T14:32:00Z</time>
      </trkpt>
      <trkpt lat="45.6348" lon="6.11237">
        <ele>1733.324494289</ele>
        <time>2016-08-11T14:32:10Z</time>
      </trkpt>
      <trkpt lat="45.6348" lon="6.11237">
        <ele>1733.324494289</ele>
        <time>2016-08-11T14:32:15Z</time>
      </trkpt>
      <trkpt lat="45.6348" lon="6.1124">
        <ele>1733.324494289</ele>
        <time>2016-08-11T14:32:25Z</time>
      </trkpt>
      <trkpt lat="45.6348" lon="6.1124">
        <ele>1732.803830783</ele>
        <time>2016-08-11T14:32:30Z</time>
      </trkpt>
      <trkpt lat="45.6348" lon="6.1124">
        <ele>1732.803830783</ele>
        <time>2016-08-11T14:32:40Z</time>
      </trkpt>
      <trkpt lat="45.6348" lon="6.1124">
        <ele>1732.803830783</ele>
        <time>2016-08-11T14:32:45Z</time>
      </trkpt>
      <trkpt lat="45.6348" lon="6.11242">
        <ele>1732.803830783</ele>
        <time>2016-08-11T14:33:00Z</time>
      </trkpt>
      <trkpt lat="45.6348" lon="6.11242">
        <ele>1732.803830783</ele>
        <time>2016-08-11T14:33:05Z</time>
      </trkpt>
      <trkpt lat="45.63483" lon="6.11244">
        <ele>1732.803830783</ele>
        <time>2016-08-11T14:33:15Z</time>
      </trkpt>
      <trkpt lat="45.63484" lon="6.11244">
        <ele>1732.803830783</ele>
        <time>2016-08-11T14:33:20Z</time>
      </trkpt>
      <trkpt lat="45.63484" lon="6.11246">
        <ele>1732.803830783</ele>
        <time>2016-08-11T14:33:30Z</time>
      </trkpt>
      <trkpt lat="45.63485" lon="6.11246">
        <ele>1732.803830783</ele>
        <time>2016-08-11T14:33:35Z</time>
      </trkpt>
      <trkpt lat="45.63486" lon="6.11247">
        <ele>1732.803830783</ele>
        <time>2016-08-11T14:33:45Z</time>
      </trkpt>
      <trkpt lat="45.63485" lon="6.11247">
        <ele>1732.803830783</ele>
        <time>2016-08-11T14:33:50Z</time>
      </trkpt>
      <trkpt lat="45.63485" lon="6.11248">
        <ele>1732.803830783</ele>
        <time>2016-08-11T14:34:00Z</time>
      </trkpt>
      <trkpt lat="45.63486" lon="6.11248">
        <ele>1731.900605807</ele>
        <time>2016-08-11T14:34:05Z</time>
      </trkpt>
      <trkpt lat="45.63486" lon="6.11248">
        <ele>1731.900605807</ele>
        <time>2016-08-11T14:34:15Z</time>
      </trkpt>
      <trkpt lat="45.63486" lon="6.11248">
        <ele>1731.900605807</ele>
        <time>2016-08-11T14:34:20Z</time>
      </trkpt>
      <trkpt lat="45.6349" lon="6.11252">
        <ele>1731.900605807</ele>
        <time>2016-08-11T14:34:30Z</time>
      </trkpt>
      <trkpt lat="45.63495" lon="6.11253">
        <ele>1731.215898526</ele>
        <time>2016-08-11T14:34:35Z</time>
      </trkpt>
      <trkpt lat="45.63502" lon="6.11258">
        <ele>1731.215898526</ele>
        <time>2016-08-11T14:34:45Z</time>
      </trkpt>
      <trkpt lat="45.63502" lon="6.11258">
        <ele>1730.729573099</ele>
        <time>2016-08-11T14:34:50Z</time>
      </trkpt>
      <trkpt lat="45.63502" lon="6.11258">
        <ele>1730.729573099</ele>
        <time>2016-08-11T14:35:01Z</time>
      </trkpt>
      <trkpt lat="45.63504" lon="6.11259">
        <ele>1730.729573099</ele>
        <time>2016-08-11T14:35:05Z</time>
      </trkpt>
      <trkpt lat="45.63511" lon="6.11263">
        <ele>1729.845981576</ele>
        <time>2016-08-11T14:35:15Z</time>
      </trkpt>
      <trkpt lat="45.63511" lon="6.11262">
        <ele>1729.845981576</ele>
        <time>2016-08-11T14:35:20Z</time>
      </trkpt>
      <trkpt lat="45.63516" lon="6.11265">
        <ele>1729.845981576</ele>
        <time>2016-08-11T14:35:35Z</time>
      </trkpt>
      <trkpt lat="45.6352" lon="6.11266">
        <ele>1729.167258042</ele>
        <time>2016-08-11T14:35:40Z</time>
      </trkpt>
      <trkpt lat="45.63525" lon="6.11267">
        <ele>1729.167258042</ele>
        <time>2016-08-11T14:35:51Z</time>
      </trkpt>
      <trkpt lat="45.63525" lon="6.11267">
        <ele>1729.167258042</ele>
        <time>2016-08-11T14:35:55Z</time>
      </trkpt>
      <trkpt lat="45.63526" lon="6.1127">
        <ele>1729.167258042</ele>
        <time>2016-08-11T14:36:06Z</time>
      </trkpt>
      <trkpt lat="45.63525" lon="6.11271">
        <ele>1729.167258042</ele>
        <time>2016-08-11T14:36:11Z</time>
      </trkpt>
      <trkpt lat="45.63525" lon="6.11271">
        <ele>1729.167258042</ele>
        <time>2016-08-11T14:36:20Z</time>
      </trkpt>
      <trkpt lat="45.63525" lon="6.11271">
        <ele>1729.167258042</ele>
        <time>2016-08-11T14:36:26Z</time>
      </trkpt>
      <trkpt lat="45.63525" lon="6.11271">
        <ele>1729.167258042</ele>
        <time>2016-08-11T14:36:35Z</time>
      </trkpt>
      <trkpt lat="45.63525" lon="6.11271">
        <ele>1729.167258042</ele>
        <time>2016-08-11T14:36:41Z</time>
      </trkpt>
      <trkpt lat="45.63526" lon="6.11269">
        <ele>1728.530205496</ele>
        <time>2016-08-11T14:36:51Z</time>
      </trkpt>
      <trkpt lat="45.63526" lon="6.11269">
        <ele>1728.530205496</ele>
        <time>2016-08-11T14:36:55Z</time>
      </trkpt>
      <trkpt lat="45.63526" lon="6.1127">
        <ele>1728.530205496</ele>
        <time>2016-08-11T14:37:06Z</time>
      </trkpt>
      <trkpt lat="45.63526" lon="6.1127">
        <ele>1728.530205496</ele>
        <time>2016-08-11T14:37:11Z</time>
      </trkpt>
      <trkpt lat="45.63526" lon="6.11269">
        <ele>1728.530205496</ele>
        <time>2016-08-11T14:37:26Z</time>
      </trkpt>
      <trkpt lat="45.63526" lon="6.11269">
        <ele>1728.530205496</ele>
        <time>2016-08-11T14:37:30Z</time>
      </trkpt>
      <trkpt lat="45.63525" lon="6.1127">
        <ele>1728.530205496</ele>
        <time>2016-08-11T14:37:36Z</time>
      </trkpt>
      <trkpt lat="45.63525" lon="6.1127">
        <ele>1728.530205496</ele>
        <time>2016-08-11T14:37:41Z</time>
      </trkpt>
      <trkpt lat="45.63525" lon="6.1127">
        <ele>1728.530205496</ele>
        <time>2016-08-11T14:37:45Z</time>
      </trkpt>
      <trkpt lat="45.63525" lon="6.11269">
        <ele>1728.530205496</ele>
        <time>2016-08-11T14:37:56Z</time>
      </trkpt>
      <trkpt lat="45.63525" lon="6.11269">
        <ele>1728.530205496</ele>
        <time>2016-08-11T14:38:00Z</time>
      </trkpt>
      <trkpt lat="45.63526" lon="6.1127">
        <ele>1728.530205496</ele>
        <time>2016-08-11T14:38:10Z</time>
      </trkpt>
      <trkpt lat="45.63529" lon="6.11273">
        <ele>1728.530205496</ele>
        <time>2016-08-11T14:38:16Z</time>
      </trkpt>
      <trkpt lat="45.63532" lon="6.11271">
        <ele>1728.215874713</ele>
        <time>2016-08-11T14:38:25Z</time>
      </trkpt>
      <trkpt lat="45.63535" lon="6.11271">
        <ele>1728.215874713</ele>
        <time>2016-08-11T14:38:31Z</time>
      </trkpt>
      <trkpt lat="45.63537" lon="6.1127">
        <ele>1728.215874713</ele>
        <time>2016-08-11T14:38:41Z</time>
      </trkpt>
      <trkpt lat="45.63539" lon="6.11268">
        <ele>1728.215874713</ele>
        <time>2016-08-11T14:38:45Z</time>
      </trkpt>
      <trkpt lat="45.63538" lon="6.11269">
        <ele>1728.215874713</ele>
        <time>2016-08-11T14:38:56Z</time>
      </trkpt>
      <trkpt lat="45.63539" lon="6.1127">
        <ele>1728.215874713</ele>
        <time>2016-08-11T14:39:02Z</time>
      </trkpt>
      <trkpt lat="45.63538" lon="6.11268">
        <ele>1727.619149808</ele>
        <time>2016-08-11T14:39:11Z</time>
      </trkpt>
      <trkpt lat="45.63538" lon="6.1127">
        <ele>1727.619149808</ele>
        <time>2016-08-11T14:39:15Z</time>
      </trkpt>
      <trkpt lat="45.63538" lon="6.1127">
        <ele>1727.619149808</ele>
        <time>2016-08-11T14:39:25Z</time>
      </trkpt>
      <trkpt lat="45.63543" lon="6.11272">
        <ele>1727.619149808</ele>
        <time>2016-08-11T14:39:30Z</time>
      </trkpt>
      <trkpt lat="45.63551" lon="6.11273">
        <ele>1726.180218121</ele>
        <time>2016-08-11T14:39:41Z</time>
      </trkpt>
      <trkpt lat="45.63551" lon="6.11273">
        <ele>1726.180218121</ele>
        <time>2016-08-11T14:39:45Z</time>
      </trkpt>
      <trkpt lat="45.63552" lon="6.11278">
        <ele>1726.180218121</ele>
        <time>2016-08-11T14:39:55Z</time>
      </trkpt>
      <trkpt lat="45.63554" lon="6.11277">
        <ele>1726.180218121</ele>
        <time>2016-08-11T14:40:00Z</time>
      </trkpt>
      <trkpt lat="45.63555" lon="6.11279">
        <ele>1726.180218121</ele>
        <time>2016-08-11T14:40:11Z</time>
      </trkpt>
      <trkpt lat="45.63559" lon="6.11283">
        <ele>1725.256265189</ele>
        <time>2016-08-11T14:40:15Z</time>
      </trkpt>
      <trkpt lat="45.63562" lon="6.11288">
        <ele>1725.256265189</ele>
        <time>2016-08-11T14:40:26Z</time>
      </trkpt>
      <trkpt lat="45.63562" lon="6.11288">
        <ele>1725.256265189</ele>
        <time>2016-08-11T14:40:31Z</time>
      </trkpt>
      <trkpt lat="45.63566" lon="6.11293">
        <ele>1724.806404614</ele>
        <time>2016-08-11T14:40:41Z</time>
      </trkpt>
      <trkpt lat="45.63567" lon="6.11293">
        <ele>1724.806404614</ele>
        <time>2016-08-11T14:40:46Z</time>
      </trkpt>
      <trkpt lat="45.63571" lon="6.11291">
        <ele>1724.806404614</ele>
        <time>2016-08-11T14:41:00Z</time>
      </trkpt>
      <trkpt lat="45.63572" lon="6.1129">
        <ele>1724.806404614</ele>
        <time>2016-08-11T14:41:11Z</time>
      </trkpt>
      <trkpt lat="45.63572" lon="6.1129">
        <ele>1724.806404614</ele>
        <time>2016-08-11T14:41:15Z</time>
      </trkpt>
      <trkpt lat="45.63572" lon="6.1129">
        <ele>1724.806404614</ele>
        <time>2016-08-11T14:41:26Z</time>
      </trkpt>
      <trkpt lat="45.63572" lon="6.1129">
        <ele>1724.806404614</ele>
        <time>2016-08-11T14:41:30Z</time>
      </trkpt>
      <trkpt lat="45.63575" lon="6.11283">
        <ele>1725.223835148</ele>
        <time>2016-08-11T14:41:46Z</time>
      </trkpt>
      <trkpt lat="45.63575" lon="6.11284">
        <ele>1725.223835148</ele>
        <time>2016-08-11T14:41:51Z</time>
      </trkpt>
      <trkpt lat="45.63576" lon="6.11284">
        <ele>1725.223835148</ele>
        <time>2016-08-11T14:42:01Z</time>
      </trkpt>
      <trkpt lat="45.63576" lon="6.11284">
        <ele>1725.223835148</ele>
        <time>2016-08-11T14:42:06Z</time>
      </trkpt>
      <trkpt lat="45.63576" lon="6.11284">
        <ele>1725.223835148</ele>
        <time>2016-08-11T14:42:16Z</time>
      </trkpt>
      <trkpt lat="45.63576" lon="6.11284">
        <ele>1725.223835148</ele>
        <time>2016-08-11T14:42:21Z</time>
      </trkpt>
      <trkpt lat="45.63574" lon="6.11281">
        <ele>1725.223835148</ele>
        <time>2016-08-11T14:42:31Z</time>
      </trkpt>
      <trkpt lat="45.63573" lon="6.11281">
        <ele>1725.223835148</ele>
        <time>2016-08-11T14:42:36Z</time>
      </trkpt>
      <trkpt lat="45.63574" lon="6.11281">
        <ele>1725.223835148</ele>
        <time>2016-08-11T14:42:46Z</time>
      </trkpt>
      <trkpt lat="45.63574" lon="6.11281">
        <ele>1725.223835148</ele>
        <time>2016-08-11T14:42:51Z</time>
      </trkpt>
      <trkpt lat="45.63574" lon="6.11281">
        <ele>1725.223835148</ele>
        <time>2016-08-11T14:43:01Z</time>
      </trkpt>
      <trkpt lat="45.63574" lon="6.11281">
        <ele>1725.223835148</ele>
        <time>2016-08-11T14:43:06Z</time>
      </trkpt>
      <trkpt lat="45.63578" lon="6.11278">
        <ele>1726.005857271</ele>
        <time>2016-08-11T14:43:16Z</time>
      </trkpt>
      <trkpt lat="45.63578" lon="6.11279">
        <ele>1726.005857271</ele>
        <time>2016-08-11T14:43:20Z</time>
      </trkpt>
      <trkpt lat="45.6358" lon="6.11278">
        <ele>1726.005857271</ele>
        <time>2016-08-11T14:43:31Z</time>
      </trkpt>
      <trkpt lat="45.63581" lon="6.11278">
        <ele>1726.005857271</ele>
        <time>2016-08-11T14:43:36Z</time>
      </trkpt>
      <trkpt lat="45.6358" lon="6.11278">
        <ele>1726.005857271</ele>
        <time>2016-08-11T14:43:46Z</time>
      </trkpt>
      <trkpt lat="45.6358" lon="6.11278">
        <ele>1726.005857271</ele>
        <time>2016-08-11T14:43:51Z</time>
      </trkpt>
      <trkpt lat="45.63581" lon="6.11278">
        <ele>1726.005857271</ele>
        <time>2016-08-11T14:44:01Z</time>
      </trkpt>
      <trkpt lat="45.63581" lon="6.11278">
        <ele>1726.005857271</ele>
        <time>2016-08-11T14:44:05Z</time>
      </trkpt>
      <trkpt lat="45.6359" lon="6.11278">
        <ele>1727.694553952</ele>
        <time>2016-08-11T14:44:21Z</time>
      </trkpt>
      <trkpt lat="45.63589" lon="6.11279">
        <ele>1727.694553952</ele>
        <time>2016-08-11T14:44:25Z</time>
      </trkpt>
      <trkpt lat="45.63594" lon="6.1128">
        <ele>1727.694553952</ele>
        <time>2016-08-11T14:44:36Z</time>
      </trkpt>
      <trkpt lat="45.63595" lon="6.11281">
        <ele>1727.694553952</ele>
        <time>2016-08-11T14:44:40Z</time>
      </trkpt>
      <trkpt lat="45.63597" lon="6.11281">
        <ele>1728.628088984</ele>
        <time>2016-08-11T14:44:51Z</time>
      </trkpt>
      <trkpt lat="45.63597" lon="6.11281">
        <ele>1728.628088984</ele>
        <time>2016-08-11T14:44:56Z</time>
      </trkpt>
      <trkpt lat="45.63597" lon="6.11281">
        <ele>1728.628088984</ele>
        <time>2016-08-11T14:45:06Z</time>
      </trkpt>
      <trkpt lat="45.63597" lon="6.11281">
        <ele>1728.628088984</ele>
        <time>2016-08-11T14:45:10Z</time>
      </trkpt>
      <trkpt lat="45.63603" lon="6.11288">
        <ele>1728.628088984</ele>
        <time>2016-08-11T14:45:21Z</time>
      </trkpt>
      <trkpt lat="45.63608" lon="6.11296">
        <ele>1729.142396099</ele>
        <time>2016-08-11T14:45:26Z</time>
      </trkpt>
      <trkpt lat="45.63608" lon="6.11289">
        <ele>1729.142396099</ele>
        <time>2016-08-11T14:45:35Z</time>
      </trkpt>
      <trkpt lat="45.63608" lon="6.11288">
        <ele>1729.142396099</ele>
        <time>2016-08-11T14:45:41Z</time>
      </trkpt>
      <trkpt lat="45.63608" lon="6.11289">
        <ele>1729.142396099</ele>
        <time>2016-08-11T14:45:51Z</time>
      </trkpt>
      <trkpt lat="45.63607" lon="6.11289">
        <ele>1729.142396099</ele>
        <time>2016-08-11T14:45:56Z</time>
      </trkpt>
      <trkpt lat="45.63607" lon="6.11289">
        <ele>1729.142396099</ele>
        <time>2016-08-11T14:46:00Z</time>
      </trkpt>
      <trkpt lat="45.63607" lon="6.11289">
        <ele>1729.142396099</ele>
        <time>2016-08-11T14:46:11Z</time>
      </trkpt>
      <trkpt lat="45.63607" lon="6.11288">
        <ele>1729.142396099</ele>
        <time>2016-08-11T14:46:16Z</time>
      </trkpt>
      <trkpt lat="45.63607" lon="6.1129">
        <ele>1729.142396099</ele>
        <time>2016-08-11T14:46:26Z</time>
      </trkpt>
      <trkpt lat="45.63609" lon="6.1129">
        <ele>1729.142396099</ele>
        <time>2016-08-11T14:46:31Z</time>
      </trkpt>
      <trkpt lat="45.63612" lon="6.1129">
        <ele>1729.694160887</ele>
        <time>2016-08-11T14:46:40Z</time>
      </trkpt>
      <trkpt lat="45.63612" lon="6.1129">
        <ele>1729.694160887</ele>
        <time>2016-08-11T14:46:46Z</time>
      </trkpt>
      <trkpt lat="45.63612" lon="6.1129">
        <ele>1729.694160887</ele>
        <time>2016-08-11T14:46:56Z</time>
      </trkpt>
      <trkpt lat="45.63612" lon="6.1129">
        <ele>1729.694160887</ele>
        <time>2016-08-11T14:47:11Z</time>
      </trkpt>
      <trkpt lat="45.63612" lon="6.11291">
        <ele>1729.694160887</ele>
        <time>2016-08-11T14:47:16Z</time>
      </trkpt>
      <trkpt lat="45.63613" lon="6.11291">
        <ele>1729.694160887</ele>
        <time>2016-08-11T14:47:26Z</time>
      </trkpt>
      <trkpt lat="45.6362" lon="6.11293">
        <ele>1729.694160887</ele>
        <time>2016-08-11T14:47:31Z</time>
      </trkpt>
      <trkpt lat="45.63628" lon="6.11299">
        <ele>1728.689010091</ele>
        <time>2016-08-11T14:47:41Z</time>
      </trkpt>
      <trkpt lat="45.6363" lon="6.11299">
        <ele>1728.689010091</ele>
        <time>2016-08-11T14:47:46Z</time>
      </trkpt>
      <trkpt lat="45.63632" lon="6.11299">
        <ele>1728.689010091</ele>
        <time>2016-08-11T14:47:56Z</time>
      </trkpt>
      <trkpt lat="45.63632" lon="6.11299">
        <ele>1728.689010091</ele>
        <time>2016-08-11T14:48:00Z</time>
      </trkpt>
      <trkpt lat="45.63634" lon="6.11298">
        <ele>1728.689010091</ele>
        <time>2016-08-11T14:48:15Z</time>
      </trkpt>
      <trkpt lat="45.63636" lon="6.11296">
        <ele>1728.689010091</ele>
        <time>2016-08-11T14:48:20Z</time>
      </trkpt>
      <trkpt lat="45.63635" lon="6.11297">
        <ele>1726.815880227</ele>
        <time>2016-08-11T14:48:31Z</time>
      </trkpt>
      <trkpt lat="45.63635" lon="6.11297">
        <ele>1726.815880227</ele>
        <time>2016-08-11T14:48:41Z</time>
      </trkpt>
      <trkpt lat="45.63638" lon="6.11299">
        <ele>1726.815880227</ele>
        <time>2016-08-11T14:48:45Z</time>
      </trkpt>
      <trkpt lat="45.63643" lon="6.11301">
        <ele>1726.815880227</ele>
        <time>2016-08-11T14:48:56Z</time>
      </trkpt>
      <trkpt lat="45.63644" lon="6.11301">
        <ele>1724.571571206</ele>
        <time>2016-08-11T14:49:01Z</time>
      </trkpt>
      <trkpt lat="45.63646" lon="6.11303">
        <ele>1724.571571206</ele>
        <time>2016-08-11T14:49:05Z</time>
      </trkpt>
      <trkpt lat="45.63647" lon="6.11304">
        <ele>1724.571571206</ele>
        <time>2016-08-11T14:49:16Z</time>
      </trkpt>
      <trkpt lat="45.63647" lon="6.11303">
        <ele>1724.571571206</ele>
        <time>2016-08-11T14:49:31Z</time>
      </trkpt>
      <trkpt lat="45.63647" lon="6.11302">
        <ele>1724.571571206</ele>
        <time>2016-08-11T14:49:35Z</time>
      </trkpt>
      <trkpt lat="45.63653" lon="6.11304">
        <ele>1722.561680099</ele>
        <time>2016-08-11T14:49:40Z</time>
      </trkpt>
      <trkpt lat="45.63654" lon="6.11303">
        <ele>1722.561680099</ele>
        <time>2016-08-11T14:49:45Z</time>
      </trkpt>
      <trkpt lat="45.63654" lon="6.11305">
        <ele>1722.561680099</ele>
        <time>2016-08-11T14:49:50Z</time>
      </trkpt>
      <trkpt lat="45.63656" lon="6.11307">
        <ele>1722.561680099</ele>
        <time>2016-08-11T14:49:55Z</time>
      </trkpt>
      <trkpt lat="45.63658" lon="6.11308">
        <ele>1722.561680099</ele>
        <time>2016-08-11T14:50:05Z</time>
      </trkpt>
      <trkpt lat="45.6366" lon="6.11311">
        <ele>1721.202675691</ele>
        <time>2016-08-11T14:50:11Z</time>
      </trkpt>
      <trkpt lat="45.63659" lon="6.11314">
        <ele>1721.202675691</ele>
        <time>2016-08-11T14:50:20Z</time>
      </trkpt>
      <trkpt lat="45.63659" lon="6.11314">
        <ele>1721.202675691</ele>
        <time>2016-08-11T14:50:25Z</time>
      </trkpt>
      <trkpt lat="45.6366" lon="6.11314">
        <ele>1721.202675691</ele>
        <time>2016-08-11T14:50:36Z</time>
      </trkpt>
      <trkpt lat="45.6366" lon="6.11314">
        <ele>1721.202675691</ele>
        <time>2016-08-11T14:50:40Z</time>
      </trkpt>
      <trkpt lat="45.6366" lon="6.11314">
        <ele>1721.202675691</ele>
        <time>2016-08-11T14:50:51Z</time>
      </trkpt>
      <trkpt lat="45.6366" lon="6.11314">
        <ele>1721.202675691</ele>
        <time>2016-08-11T14:50:55Z</time>
      </trkpt>
      <trkpt lat="45.63661" lon="6.11314">
        <ele>1721.202675691</ele>
        <time>2016-08-11T14:51:06Z</time>
      </trkpt>
      <trkpt lat="45.63661" lon="6.11316">
        <ele>1721.202675691</ele>
        <time>2016-08-11T14:51:11Z</time>
      </trkpt>
      <trkpt lat="45.63662" lon="6.11317">
        <ele>1721.202675691</ele>
        <time>2016-08-11T14:51:21Z</time>
      </trkpt>
      <trkpt lat="45.63661" lon="6.11317">
        <ele>1721.202675691</ele>
        <time>2016-08-11T14:51:25Z</time>
      </trkpt>
      <trkpt lat="45.6366" lon="6.11317">
        <ele>1721.202675691</ele>
        <time>2016-08-11T14:51:41Z</time>
      </trkpt>
      <trkpt lat="45.6366" lon="6.11317">
        <ele>1721.202675691</ele>
        <time>2016-08-11T14:51:45Z</time>
      </trkpt>
      <trkpt lat="45.6366" lon="6.11317">
        <ele>1721.202675691</ele>
        <time>2016-08-11T14:51:56Z</time>
      </trkpt>
      <trkpt lat="45.6366" lon="6.11317">
        <ele>1721.202675691</ele>
        <time>2016-08-11T14:52:00Z</time>
      </trkpt>
      <trkpt lat="45.6366" lon="6.11317">
        <ele>1721.202675691</ele>
        <time>2016-08-11T14:52:11Z</time>
      </trkpt>
      <trkpt lat="45.63662" lon="6.11317">
        <ele>1719.293498677</ele>
        <time>2016-08-11T14:52:16Z</time>
      </trkpt>
      <trkpt lat="45.63663" lon="6.11318">
        <ele>1719.293498677</ele>
        <time>2016-08-11T14:52:26Z</time>
      </trkpt>
      <trkpt lat="45.63663" lon="6.11318">
        <ele>1719.293498677</ele>
        <time>2016-08-11T14:52:31Z</time>
      </trkpt>
      <trkpt lat="45.63665" lon="6.1132">
        <ele>1719.293498677</ele>
        <time>2016-08-11T14:52:41Z</time>
      </trkpt>
      <trkpt lat="45.63665" lon="6.1132">
        <ele>1719.293498677</ele>
        <time>2016-08-11T14:52:45Z</time>
      </trkpt>
      <trkpt lat="45.63665" lon="6.1132">
        <ele>1719.293498677</ele>
        <time>2016-08-11T14:52:55Z</time>
      </trkpt>
      <trkpt lat="45.63665" lon="6.11321">
        <ele>1719.293498677</ele>
        <time>2016-08-11T14:53:02Z</time>
      </trkpt>
      <trkpt lat="45.63665" lon="6.11321">
        <ele>1719.293498677</ele>
        <time>2016-08-11T14:53:11Z</time>
      </trkpt>
      <trkpt lat="45.63665" lon="6.11321">
        <ele>1719.293498677</ele>
        <time>2016-08-11T14:53:16Z</time>
      </trkpt>
      <trkpt lat="45.63665" lon="6.11321">
        <ele>1719.293498677</ele>
        <time>2016-08-11T14:53:26Z</time>
      </trkpt>
      <trkpt lat="45.63665" lon="6.11321">
        <ele>1719.293498677</ele>
        <time>2016-08-11T14:53:30Z</time>
      </trkpt>
      <trkpt lat="45.63665" lon="6.11321">
        <ele>1719.293498677</ele>
        <time>2016-08-11T14:53:41Z</time>
      </trkpt>
      <trkpt lat="45.63665" lon="6.11321">
        <ele>1719.293498677</ele>
        <time>2016-08-11T14:53:46Z</time>
      </trkpt>
      <trkpt lat="45.63665" lon="6.11321">
        <ele>1719.293498677</ele>
        <time>2016-08-11T14:53:56Z</time>
      </trkpt>
      <trkpt lat="45.63665" lon="6.11321">
        <ele>1719.293498677</ele>
        <time>2016-08-11T14:54:01Z</time>
      </trkpt>
      <trkpt lat="45.63665" lon="6.11321">
        <ele>1719.293498677</ele>
        <time>2016-08-11T14:54:16Z</time>
      </trkpt>
      <trkpt lat="45.63665" lon="6.11321">
        <ele>1719.293498677</ele>
        <time>2016-08-11T14:54:21Z</time>
      </trkpt>
      <trkpt lat="45.63666" lon="6.11321">
        <ele>1719.293498677</ele>
        <time>2016-08-11T14:54:31Z</time>
      </trkpt>
      <trkpt lat="45.63666" lon="6.11321">
        <ele>1719.293498677</ele>
        <time>2016-08-11T14:54:36Z</time>
      </trkpt>
      <trkpt lat="45.63666" lon="6.11322">
        <ele>1719.293498677</ele>
        <time>2016-08-11T14:54:45Z</time>
      </trkpt>
      <trkpt lat="45.63666" lon="6.11322">
        <ele>1719.293498677</ele>
        <time>2016-08-11T14:54:50Z</time>
      </trkpt>
      <trkpt lat="45.63666" lon="6.11322">
        <ele>1719.293498677</ele>
        <time>2016-08-11T14:55:00Z</time>
      </trkpt>
      <trkpt lat="45.63666" lon="6.11322">
        <ele>1719.293498677</ele>
        <time>2016-08-11T14:55:06Z</time>
      </trkpt>
      <trkpt lat="45.6367" lon="6.11321">
        <ele>1718.316967428</ele>
        <time>2016-08-11T14:55:20Z</time>
      </trkpt>
      <trkpt lat="45.63671" lon="6.1132">
        <ele>1718.316967428</ele>
        <time>2016-08-11T14:55:31Z</time>
      </trkpt>
      <trkpt lat="45.63671" lon="6.11322">
        <ele>1718.316967428</ele>
        <time>2016-08-11T14:55:36Z</time>
      </trkpt>
      <trkpt lat="45.63671" lon="6.11321">
        <ele>1718.316967428</ele>
        <time>2016-08-11T14:55:40Z</time>
      </trkpt>
      <trkpt lat="45.63672" lon="6.11321">
        <ele>1718.316967428</ele>
        <time>2016-08-11T14:55:51Z</time>
      </trkpt>
      <trkpt lat="45.63672" lon="6.11322">
        <ele>1718.316967428</ele>
        <time>2016-08-11T14:55:56Z</time>
      </trkpt>
      <trkpt lat="45.63675" lon="6.11324">
        <ele>1718.316967428</ele>
        <time>2016-08-11T14:56:06Z</time>
      </trkpt>
      <trkpt lat="45.63679" lon="6.11326">
        <ele>1717.050451482</ele>
        <time>2016-08-11T14:56:11Z</time>
      </trkpt>
      <trkpt lat="45.63685" lon="6.1133">
        <ele>1717.050451482</ele>
        <time>2016-08-11T14:56:21Z</time>
      </trkpt>
      <trkpt lat="45.63687" lon="6.11331">
        <ele>1717.050451482</ele>
        <time>2016-08-11T14:56:25Z</time>
      </trkpt>
      <trkpt lat="45.6369" lon="6.1133">
        <ele>1715.370813793</ele>
        <time>2016-08-11T14:56:36Z</time>
      </trkpt>
      <trkpt lat="45.6369" lon="6.1133">
        <ele>1715.370813793</ele>
        <time>2016-08-11T14:56:41Z</time>
      </trkpt>
      <trkpt lat="45.63693" lon="6.11334">
        <ele>1715.370813793</ele>
        <time>2016-08-11T14:56:51Z</time>
      </trkpt>
      <trkpt lat="45.63695" lon="6.11335">
        <ele>1715.370813793</ele>
        <time>2016-08-11T14:56:56Z</time>
      </trkpt>
      <trkpt lat="45.63695" lon="6.11335">
        <ele>1715.370813793</ele>
        <time>2016-08-11T14:57:05Z</time>
      </trkpt>
      <trkpt lat="45.63695" lon="6.11335">
        <ele>1715.370813793</ele>
        <time>2016-08-11T14:57:11Z</time>
      </trkpt>
      <trkpt lat="45.63694" lon="6.11335">
        <ele>1715.370813793</ele>
        <time>2016-08-11T14:57:21Z</time>
      </trkpt>
      <trkpt lat="45.63695" lon="6.11335">
        <ele>1715.370813793</ele>
        <time>2016-08-11T14:57:26Z</time>
      </trkpt>
      <trkpt lat="45.63695" lon="6.11341">
        <ele>1713.453424457</ele>
        <time>2016-08-11T14:57:36Z</time>
      </trkpt>
      <trkpt lat="45.63695" lon="6.11341">
        <ele>1713.453424457</ele>
        <time>2016-08-11T14:57:40Z</time>
      </trkpt>
      <trkpt lat="45.63705" lon="6.1134">
        <ele>1711.893844539</ele>
        <time>2016-08-11T14:57:56Z</time>
      </trkpt>
      <trkpt lat="45.63705" lon="6.1134">
        <ele>1711.893844539</ele>
        <time>2016-08-11T14:58:06Z</time>
      </trkpt>
      <trkpt lat="45.63705" lon="6.1134">
        <ele>1711.893844539</ele>
        <time>2016-08-11T14:58:11Z</time>
      </trkpt>
      <trkpt lat="45.63705" lon="6.11341">
        <ele>1711.893844539</ele>
        <time>2016-08-11T14:58:16Z</time>
      </trkpt>
      <trkpt lat="45.63709" lon="6.11341">
        <ele>1711.893844539</ele>
        <time>2016-08-11T14:58:26Z</time>
      </trkpt>
      <trkpt lat="45.6371" lon="6.11341">
        <ele>1711.893844539</ele>
        <time>2016-08-11T14:58:31Z</time>
      </trkpt>
      <trkpt lat="45.63711" lon="6.1134">
        <ele>1711.893844539</ele>
        <time>2016-08-11T14:58:41Z</time>
      </trkpt>
      <trkpt lat="45.63712" lon="6.11341">
        <ele>1711.893844539</ele>
        <time>2016-08-11T14:58:45Z</time>
      </trkpt>
      <trkpt lat="45.63714" lon="6.11342">
        <ele>1710.810614081</ele>
        <time>2016-08-11T14:58:56Z</time>
      </trkpt>
      <trkpt lat="45.63716" lon="6.11342">
        <ele>1710.810614081</ele>
        <time>2016-08-11T14:59:01Z</time>
      </trkpt>
      <trkpt lat="45.63717" lon="6.11343">
        <ele>1710.810614081</ele>
        <time>2016-08-11T14:59:11Z</time>
      </trkpt>
      <trkpt lat="45.6372" lon="6.11344">
        <ele>1710.810614081</ele>
        <time>2016-08-11T14:59:16Z</time>
      </trkpt>
      <trkpt lat="45.63726" lon="6.11345">
        <ele>1709.87995493</ele>
        <time>2016-08-11T14:59:25Z</time>
      </trkpt>
      <trkpt lat="45.6373" lon="6.11346">
        <ele>1709.87995493</ele>
        <time>2016-08-11T14:59:31Z</time>
      </trkpt>
      <trkpt lat="45.63735" lon="6.11351">
        <ele>1708.513277428</ele>
        <time>2016-08-11T14:59:41Z</time>
      </trkpt>
      <trkpt lat="45.63737" lon="6.11352">
        <ele>1708.513277428</ele>
        <time>2016-08-11T14:59:45Z</time>
      </trkpt>
      <trkpt lat="45.6374" lon="6.11352">
        <ele>1708.513277428</ele>
        <time>2016-08-11T15:00:00Z</time>
      </trkpt>
      <trkpt lat="45.63745" lon="6.11353">
        <ele>1708.760506832</ele>
        <time>2016-08-11T15:00:05Z</time>
      </trkpt>
      <trkpt lat="45.63749" lon="6.11359">
        <ele>1708.760506832</ele>
        <time>2016-08-11T15:00:16Z</time>
      </trkpt>
      <trkpt lat="45.6375" lon="6.11361">
        <ele>1708.760506832</ele>
        <time>2016-08-11T15:00:20Z</time>
      </trkpt>
      <trkpt lat="45.63751" lon="6.11366">
        <ele>1709.201952518</ele>
        <time>2016-08-11T15:00:30Z</time>
      </trkpt>
      <trkpt lat="45.6375" lon="6.11366">
        <ele>1709.201952518</ele>
        <time>2016-08-11T15:00:35Z</time>
      </trkpt>
      <trkpt lat="45.63752" lon="6.11366">
        <ele>1709.201952518</ele>
        <time>2016-08-11T15:00:45Z</time>
      </trkpt>
      <trkpt lat="45.63752" lon="6.11365">
        <ele>1709.201952518</ele>
        <time>2016-08-11T15:00:50Z</time>
      </trkpt>
      <trkpt lat="45.63752" lon="6.11365">
        <ele>1709.201952518</ele>
        <time>2016-08-11T15:01:00Z</time>
      </trkpt>
      <trkpt lat="45.63752" lon="6.11365">
        <ele>1709.201952518</ele>
        <time>2016-08-11T15:01:06Z</time>
      </trkpt>
      <trkpt lat="45.63752" lon="6.11365">
        <ele>1709.201952518</ele>
        <time>2016-08-11T15:01:16Z</time>
      </trkpt>
      <trkpt lat="45.63752" lon="6.11365">
        <ele>1709.201952518</ele>
        <time>2016-08-11T15:01:20Z</time>
      </trkpt>
      <trkpt lat="45.63752" lon="6.11365">
        <ele>1709.201952518</ele>
        <time>2016-08-11T15:01:30Z</time>
      </trkpt>
      <trkpt lat="45.63756" lon="6.11368">
        <ele>1709.201952518</ele>
        <time>2016-08-11T15:01:35Z</time>
      </trkpt>
      <trkpt lat="45.63762" lon="6.11371">
        <ele>1709.530505516</ele>
        <time>2016-08-11T15:01:45Z</time>
      </trkpt>
      <trkpt lat="45.63764" lon="6.11371">
        <ele>1709.530505516</ele>
        <time>2016-08-11T15:01:50Z</time>
      </trkpt>
      <trkpt lat="45.63767" lon="6.11372">
        <ele>1709.530505516</ele>
        <time>2016-08-11T15:02:01Z</time>
      </trkpt>
      <trkpt lat="45.63768" lon="6.11372">
        <ele>1709.530505516</ele>
        <time>2016-08-11T15:02:05Z</time>
      </trkpt>
      <trkpt lat="45.6377" lon="6.11371">
        <ele>1709.606109315</ele>
        <time>2016-08-11T15:02:15Z</time>
      </trkpt>
      <trkpt lat="45.6377" lon="6.11372">
        <ele>1709.606109315</ele>
        <time>2016-08-11T15:02:20Z</time>
      </trkpt>
      <trkpt lat="45.63771" lon="6.11373">
        <ele>1709.606109315</ele>
        <time>2016-08-11T15:02:31Z</time>
      </trkpt>
      <trkpt lat="45.63773" lon="6.11368">
        <ele>1709.606109315</ele>
        <time>2016-08-11T15:02:35Z</time>
      </trkpt>
      <trkpt lat="45.63782" lon="6.11376">
        <ele>1709.876222277</ele>
        <time>2016-08-11T15:02:45Z</time>
      </trkpt>
      <trkpt lat="45.63787" lon="6.1138">
        <ele>1709.876222277</ele>
        <time>2016-08-11T15:02:50Z</time>
      </trkpt>
      <trkpt lat="45.63792" lon="6.11378">
        <ele>1709.602075474</ele>
        <time>2016-08-11T15:03:01Z</time>
      </trkpt>
      <trkpt lat="45.63792" lon="6.11379">
        <ele>1709.602075474</ele>
        <time>2016-08-11T15:03:05Z</time>
      </trkpt>
      <trkpt lat="45.63794" lon="6.11378">
        <ele>1709.602075474</ele>
        <time>2016-08-11T15:03:20Z</time>
      </trkpt>
      <trkpt lat="45.638" lon="6.11379">
        <ele>1709.602075474</ele>
        <time>2016-08-11T15:03:25Z</time>
      </trkpt>
      <trkpt lat="45.63803" lon="6.11385">
        <ele>1709.830112924</ele>
        <time>2016-08-11T15:03:35Z</time>
      </trkpt>
      <trkpt lat="45.63805" lon="6.11385">
        <ele>1709.830112924</ele>
        <time>2016-08-11T15:03:40Z</time>
      </trkpt>
      <trkpt lat="45.63813" lon="6.11396">
        <ele>1709.366916371</ele>
        <time>2016-08-11T15:03:50Z</time>
      </trkpt>
      <trkpt lat="45.63817" lon="6.11399">
        <ele>1709.366916371</ele>
        <time>2016-08-11T15:03:55Z</time>
      </trkpt>
      <trkpt lat="45.63821" lon="6.11401">
        <ele>1709.366916371</ele>
        <time>2016-08-11T15:04:05Z</time>
      </trkpt>
      <trkpt lat="45.63824" lon="6.11404">
        <ele>1709.414540703</ele>
        <time>2016-08-11T15:04:10Z</time>
      </trkpt>
      <trkpt lat="45.6383" lon="6.11409">
        <ele>1709.414540703</ele>
        <time>2016-08-11T15:04:20Z</time>
      </trkpt>
      <trkpt lat="45.63831" lon="6.1141">
        <ele>1709.414540703</ele>
        <time>2016-08-11T15:04:25Z</time>
      </trkpt>
      <trkpt lat="45.63835" lon="6.11412">
        <ele>1709.644283127</ele>
        <time>2016-08-11T15:04:35Z</time>
      </trkpt>
      <trkpt lat="45.63836" lon="6.11412">
        <ele>1709.644283127</ele>
        <time>2016-08-11T15:04:40Z</time>
      </trkpt>
      <trkpt lat="45.63837" lon="6.11419">
        <ele>1709.644283127</ele>
        <time>2016-08-11T15:04:50Z</time>
      </trkpt>
      <trkpt lat="45.63842" lon="6.11423">
        <ele>1709.318832976</ele>
        <time>2016-08-11T15:04:55Z</time>
      </trkpt>
      <trkpt lat="45.63849" lon="6.11428">
        <ele>1709.318832976</ele>
        <time>2016-08-11T15:05:05Z</time>
      </trkpt>
      <trkpt lat="45.6385" lon="6.11427">
        <ele>1709.318832976</ele>
        <time>2016-08-11T15:05:10Z</time>
      </trkpt>
      <trkpt lat="45.6385" lon="6.11428">
        <ele>1709.630136316</ele>
        <time>2016-08-11T15:05:15Z</time>
      </trkpt>
      <trkpt lat="45.6385" lon="6.11427">
        <ele>1709.630136316</ele>
        <time>2016-08-11T15:05:20Z</time>
      </trkpt>
      <trkpt lat="45.63849" lon="6.11427">
        <ele>1709.630136316</ele>
        <time>2016-08-11T15:05:25Z</time>
      </trkpt>
      <trkpt lat="45.63854" lon="6.11431">
        <ele>1709.630136316</ele>
        <time>2016-08-11T15:05:31Z</time>
      </trkpt>
      <trkpt lat="45.6386" lon="6.1143">
        <ele>1710.095664142</ele>
        <time>2016-08-11T15:05:40Z</time>
      </trkpt>
      <trkpt lat="45.63861" lon="6.11431">
        <ele>1710.095664142</ele>
        <time>2016-08-11T15:05:45Z</time>
      </trkpt>
      <trkpt lat="45.6386" lon="6.11434">
        <ele>1710.095664142</ele>
        <time>2016-08-11T15:05:50Z</time>
      </trkpt>
      <trkpt lat="45.6386" lon="6.11435">
        <ele>1710.095664142</ele>
        <time>2016-08-11T15:05:55Z</time>
      </trkpt>
      <trkpt lat="45.6386" lon="6.11436">
        <ele>1710.095664142</ele>
        <time>2016-08-11T15:06:00Z</time>
      </trkpt>
      <trkpt lat="45.63861" lon="6.11436">
        <ele>1710.095664142</ele>
        <time>2016-08-11T15:06:05Z</time>
      </trkpt>
      <trkpt lat="45.63862" lon="6.11435">
        <ele>1710.095664142</ele>
        <time>2016-08-11T15:06:10Z</time>
      </trkpt>
      <trkpt lat="45.63862" lon="6.11435">
        <ele>1710.095664142</ele>
        <time>2016-08-11T15:06:21Z</time>
      </trkpt>
      <trkpt lat="45.63862" lon="6.11435">
        <ele>1710.095664142</ele>
        <time>2016-08-11T15:06:25Z</time>
      </trkpt>
      <trkpt lat="45.63861" lon="6.11435">
        <ele>1710.095664142</ele>
        <time>2016-08-11T15:06:35Z</time>
      </trkpt>
      <trkpt lat="45.63862" lon="6.11435">
        <ele>1710.095664142</ele>
        <time>2016-08-11T15:06:40Z</time>
      </trkpt>
      <trkpt lat="45.63862" lon="6.11436">
        <ele>1710.095664142</ele>
        <time>2016-08-11T15:06:45Z</time>
      </trkpt>
      <trkpt lat="45.63861" lon="6.11435">
        <ele>1710.095664142</ele>
        <time>2016-08-11T15:06:50Z</time>
      </trkpt>
      <trkpt lat="45.63861" lon="6.11434">
        <ele>1710.095664142</ele>
        <time>2016-08-11T15:06:55Z</time>
      </trkpt>
      <trkpt lat="45.63861" lon="6.11435">
        <ele>1710.095664142</ele>
        <time>2016-08-11T15:07:00Z</time>
      </trkpt>
      <trkpt lat="45.63861" lon="6.11435">
        <ele>1709.547439519</ele>
        <time>2016-08-11T15:07:05Z</time>
      </trkpt>
      <trkpt lat="45.63861" lon="6.11434">
        <ele>1709.547439519</ele>
        <time>2016-08-11T15:07:16Z</time>
      </trkpt>
      <trkpt lat="45.63862" lon="6.11435">
        <ele>1709.547439519</ele>
        <time>2016-08-11T15:07:20Z</time>
      </trkpt>
      <trkpt lat="45.63861" lon="6.11435">
        <ele>1709.547439519</ele>
        <time>2016-08-11T15:07:30Z</time>
      </trkpt>
      <trkpt lat="45.63861" lon="6.11435">
        <ele>1709.547439519</ele>
        <time>2016-08-11T15:07:35Z</time>
      </trkpt>
      <trkpt lat="45.63861" lon="6.11435">
        <ele>1709.547439519</ele>
        <time>2016-08-11T15:07:46Z</time>
      </trkpt>
      <trkpt lat="45.63861" lon="6.11435">
        <ele>1709.547439519</ele>
        <time>2016-08-11T15:07:50Z</time>
      </trkpt>
      <trkpt lat="45.63861" lon="6.11435">
        <ele>1709.547439519</ele>
        <time>2016-08-11T15:08:00Z</time>
      </trkpt>
      <trkpt lat="45.63861" lon="6.11436">
        <ele>1709.547439519</ele>
        <time>2016-08-11T15:08:05Z</time>
      </trkpt>
      <trkpt lat="45.63864" lon="6.11445">
        <ele>1708.491444211</ele>
        <time>2016-08-11T15:08:15Z</time>
      </trkpt>
      <trkpt lat="45.63867" lon="6.11448">
        <ele>1708.491444211</ele>
        <time>2016-08-11T15:08:20Z</time>
      </trkpt>
      <trkpt lat="45.63869" lon="6.11451">
        <ele>1708.491444211</ele>
        <time>2016-08-11T15:08:30Z</time>
      </trkpt>
      <trkpt lat="45.6387" lon="6.11451">
        <ele>1708.491444211</ele>
        <time>2016-08-11T15:08:35Z</time>
      </trkpt>
      <trkpt lat="45.63872" lon="6.11459">
        <ele>1707.109782476</ele>
        <time>2016-08-11T15:08:45Z</time>
      </trkpt>
      <trkpt lat="45.63873" lon="6.11455">
        <ele>1707.109782476</ele>
        <time>2016-08-11T15:08:50Z</time>
      </trkpt>
      <trkpt lat="45.63877" lon="6.11462">
        <ele>1707.109782476</ele>
        <time>2016-08-11T15:09:00Z</time>
      </trkpt>
      <trkpt lat="45.6388" lon="6.11468">
        <ele>1705.860400122</ele>
        <time>2016-08-11T15:09:05Z</time>
      </trkpt>
      <trkpt lat="45.63884" lon="6.1148">
        <ele>1704.590860383</ele>
        <time>2016-08-11T15:09:15Z</time>
      </trkpt>
      <trkpt lat="45.63886" lon="6.11484">
        <ele>1704.590860383</ele>
        <time>2016-08-11T15:09:20Z</time>
      </trkpt>
      <trkpt lat="45.63891" lon="6.11493">
        <ele>1702.727710144</ele>
        <time>2016-08-11T15:09:30Z</time>
      </trkpt>
      <trkpt lat="45.63893" lon="6.11498">
        <ele>1702.727710144</ele>
        <time>2016-08-11T15:09:35Z</time>
      </trkpt>
      <trkpt lat="45.63896" lon="6.11506">
        <ele>1700.75011646</ele>
        <time>2016-08-11T15:09:45Z</time>
      </trkpt>
      <trkpt lat="45.63896" lon="6.11507">
        <ele>1700.75011646</ele>
        <time>2016-08-11T15:09:50Z</time>
      </trkpt>
      <trkpt lat="45.63898" lon="6.11516">
        <ele>1700.75011646</ele>
        <time>2016-08-11T15:10:00Z</time>
      </trkpt>
      <trkpt lat="45.63898" lon="6.11522">
        <ele>1698.237739356</ele>
        <time>2016-08-11T15:10:05Z</time>
      </trkpt>
      <trkpt lat="45.63899" lon="6.11532">
        <ele>1698.237739356</ele>
        <time>2016-08-11T15:10:15Z</time>
      </trkpt>
      <trkpt lat="45.63899" lon="6.11539">
        <ele>1695.667307959</ele>
        <time>2016-08-11T15:10:20Z</time>
      </trkpt>
      <trkpt lat="45.63899" lon="6.11548">
        <ele>1695.667307959</ele>
        <time>2016-08-11T15:10:30Z</time>
      </trkpt>
      <trkpt lat="45.63899" lon="6.11549">
        <ele>1695.667307959</ele>
        <time>2016-08-11T15:10:35Z</time>
      </trkpt>
      <trkpt lat="45.639" lon="6.11556">
        <ele>1693.048368837</ele>
        <time>2016-08-11T15:10:40Z</time>
      </trkpt>
      <trkpt lat="45.639" lon="6.11562">
        <ele>1693.048368837</ele>
        <time>2016-08-11T15:10:45Z</time>
      </trkpt>
      <trkpt lat="45.639" lon="6.11562">
        <ele>1693.048368837</ele>
        <time>2016-08-11T15:10:50Z</time>
      </trkpt>
      <trkpt lat="45.639" lon="6.11569">
        <ele>1690.678118604</ele>
        <time>2016-08-11T15:10:55Z</time>
      </trkpt>
      <trkpt lat="45.63901" lon="6.11582">
        <ele>1690.678118604</ele>
        <time>2016-08-11T15:11:05Z</time>
      </trkpt>
      <trkpt lat="45.639" lon="6.11589">
        <ele>1688.254757663</ele>
        <time>2016-08-11T15:11:10Z</time>
      </trkpt>
      <trkpt lat="45.639" lon="6.11593">
        <ele>1688.254757663</ele>
        <time>2016-08-11T15:11:20Z</time>
      </trkpt>
      <trkpt lat="45.63899" lon="6.11595">
        <ele>1688.254757663</ele>
        <time>2016-08-11T15:11:26Z</time>
      </trkpt>
      <trkpt lat="45.63899" lon="6.11606">
        <ele>1686.07521507</ele>
        <time>2016-08-11T15:11:35Z</time>
      </trkpt>
      <trkpt lat="45.63899" lon="6.11611">
        <ele>1686.07521507</ele>
        <time>2016-08-11T15:11:40Z</time>
      </trkpt>
      <trkpt lat="45.63898" lon="6.1162">
        <ele>1683.981544001</ele>
        <time>2016-08-11T15:11:50Z</time>
      </trkpt>
      <trkpt lat="45.63897" lon="6.11628">
        <ele>1683.981544001</ele>
        <time>2016-08-11T15:11:55Z</time>
      </trkpt>
      <trkpt lat="45.63896" lon="6.11643">
        <ele>1681.538881027</ele>
        <time>2016-08-11T15:12:05Z</time>
      </trkpt>
      <trkpt lat="45.63895" lon="6.11652">
        <ele>1681.538881027</ele>
        <time>2016-08-11T15:12:10Z</time>
      </trkpt>
      <trkpt lat="45.63893" lon="6.11666">
        <ele>1678.921666009</ele>
        <time>2016-08-11T15:12:21Z</time>
      </trkpt>
      <trkpt lat="45.63891" lon="6.11673">
        <ele>1678.921666009</ele>
        <time>2016-08-11T15:12:25Z</time>
      </trkpt>
      <trkpt lat="45.63888" lon="6.11686">
        <ele>1676.436051698</ele>
        <time>2016-08-11T15:12:36Z</time>
      </trkpt>
      <trkpt lat="45.63885" lon="6.11694">
        <ele>1676.436051698</ele>
        <time>2016-08-11T15:12:40Z</time>
      </trkpt>
      <trkpt lat="45.63881" lon="6.11711">
        <ele>1673.788804845</ele>
        <time>2016-08-11T15:12:51Z</time>
      </trkpt>
      <trkpt lat="45.63879" lon="6.11717">
        <ele>1673.788804845</ele>
        <time>2016-08-11T15:12:55Z</time>
      </trkpt>
      <trkpt lat="45.63878" lon="6.11725">
        <ele>1670.996817588</ele>
        <time>2016-08-11T15:13:00Z</time>
      </trkpt>
      <trkpt lat="45.63874" lon="6.11738">
        <ele>1668.220158973</ele>
        <time>2016-08-11T15:13:10Z</time>
      </trkpt>
      <trkpt lat="45.63871" lon="6.11746">
        <ele>1668.220158973</ele>
        <time>2016-08-11T15:13:15Z</time>
      </trkpt>
      <trkpt lat="45.63867" lon="6.11763">
        <ele>1665.318766722</ele>
        <time>2016-08-11T15:13:26Z</time>
      </trkpt>
      <trkpt lat="45.63866" lon="6.11771">
        <ele>1665.318766722</ele>
        <time>2016-08-11T15:13:30Z</time>
      </trkpt>
      <trkpt lat="45.63863" lon="6.11788">
        <ele>1663.315993137</ele>
        <time>2016-08-11T15:13:40Z</time>
      </trkpt>
      <trkpt lat="45.6386" lon="6.11797">
        <ele>1663.315993137</ele>
        <time>2016-08-11T15:13:46Z</time>
      </trkpt>
      <trkpt lat="45.63856" lon="6.11811">
        <ele>1661.860377113</ele>
        <time>2016-08-11T15:13:56Z</time>
      </trkpt>
      <trkpt lat="45.63855" lon="6.11817">
        <ele>1661.860377113</ele>
        <time>2016-08-11T15:14:00Z</time>
      </trkpt>
      <trkpt lat="45.63855" lon="6.11829">
        <ele>1660.768734761</ele>
        <time>2016-08-11T15:14:11Z</time>
      </trkpt>
      <trkpt lat="45.63855" lon="6.11838">
        <ele>1660.768734761</ele>
        <time>2016-08-11T15:14:16Z</time>
      </trkpt>
      <trkpt lat="45.63856" lon="6.11853">
        <ele>1660.014315934</ele>
        <time>2016-08-11T15:14:26Z</time>
      </trkpt>
      <trkpt lat="45.63855" lon="6.1186">
        <ele>1660.014315934</ele>
        <time>2016-08-11T15:14:30Z</time>
      </trkpt>
      <trkpt lat="45.63852" lon="6.11878">
        <ele>1658.850727761</ele>
        <time>2016-08-11T15:14:41Z</time>
      </trkpt>
      <trkpt lat="45.6385" lon="6.11888">
        <ele>1658.850727761</ele>
        <time>2016-08-11T15:14:46Z</time>
      </trkpt>
      <trkpt lat="45.63848" lon="6.1191">
        <ele>1657.7403467</ele>
        <time>2016-08-11T15:15:01Z</time>
      </trkpt>
      <trkpt lat="45.63848" lon="6.11917">
        <ele>1657.7403467</ele>
        <time>2016-08-11T15:15:05Z</time>
      </trkpt>
      <trkpt lat="45.63852" lon="6.11929">
        <ele>1656.96723459</ele>
        <time>2016-08-11T15:15:15Z</time>
      </trkpt>
      <trkpt lat="45.63853" lon="6.11935">
        <ele>1656.96723459</ele>
        <time>2016-08-11T15:15:20Z</time>
      </trkpt>
      <trkpt lat="45.6385" lon="6.11942">
        <ele>1656.073004692</ele>
        <time>2016-08-11T15:15:30Z</time>
      </trkpt>
      <trkpt lat="45.63849" lon="6.11936">
        <ele>1656.073004692</ele>
        <time>2016-08-11T15:15:35Z</time>
      </trkpt>
      <trkpt lat="45.63848" lon="6.11926">
        <ele>1654.921433518</ele>
        <time>2016-08-11T15:15:45Z</time>
      </trkpt>
      <trkpt lat="45.63847" lon="6.11924">
        <ele>1654.921433518</ele>
        <time>2016-08-11T15:15:50Z</time>
      </trkpt>
      <trkpt lat="45.63846" lon="6.11912">
        <ele>1653.819295977</ele>
        <time>2016-08-11T15:16:00Z</time>
      </trkpt>
      <trkpt lat="45.63845" lon="6.11905">
        <ele>1653.819295977</ele>
        <time>2016-08-11T15:16:05Z</time>
      </trkpt>
      <trkpt lat="45.63842" lon="6.11887">
        <ele>1652.906525167</ele>
        <time>2016-08-11T15:16:16Z</time>
      </trkpt>
      <trkpt lat="45.63843" lon="6.11883">
        <ele>1652.906525167</ele>
        <time>2016-08-11T15:16:20Z</time>
      </trkpt>
      <trkpt lat="45.63842" lon="6.11876">
        <ele>1652.906525167</ele>
        <time>2016-08-11T15:16:25Z</time>
      </trkpt>
      <trkpt lat="45.63843" lon="6.1187">
        <ele>1652.023971529</ele>
        <time>2016-08-11T15:16:30Z</time>
      </trkpt>
      <trkpt lat="45.63842" lon="6.11851">
        <ele>1651.168159886</ele>
        <time>2016-08-11T15:16:40Z</time>
      </trkpt>
      <trkpt lat="45.63843" lon="6.11843">
        <ele>1651.168159886</ele>
        <time>2016-08-11T15:16:46Z</time>
      </trkpt>
      <trkpt lat="45.63841" lon="6.11829">
        <ele>1650.479870543</ele>
        <time>2016-08-11T15:16:56Z</time>
      </trkpt>
      <trkpt lat="45.6384" lon="6.1182">
        <ele>1650.479870543</ele>
        <time>2016-08-11T15:17:00Z</time>
      </trkpt>
      <trkpt lat="45.63837" lon="6.118">
        <ele>1649.656709791</ele>
        <time>2016-08-11T15:17:16Z</time>
      </trkpt>
      <trkpt lat="45.63836" lon="6.11787">
        <ele>1649.656709791</ele>
        <time>2016-08-11T15:17:30Z</time>
      </trkpt>
      <trkpt lat="45.63837" lon="6.11777">
        <ele>1649.139410215</ele>
        <time>2016-08-11T15:17:35Z</time>
      </trkpt>
      <trkpt lat="45.63836" lon="6.11767">
        <ele>1649.139410215</ele>
        <time>2016-08-11T15:17:46Z</time>
      </trkpt>
      <trkpt lat="45.63836" lon="6.1176">
        <ele>1648.326677554</ele>
        <time>2016-08-11T15:17:51Z</time>
      </trkpt>
      <trkpt lat="45.63838" lon="6.11752">
        <ele>1648.326677554</ele>
        <time>2016-08-11T15:18:01Z</time>
      </trkpt>
      <trkpt lat="45.63837" lon="6.11744">
        <ele>1647.526875948</ele>
        <time>2016-08-11T15:18:06Z</time>
      </trkpt>
      <trkpt lat="45.63835" lon="6.11731">
        <ele>1646.305122304</ele>
        <time>2016-08-11T15:18:16Z</time>
      </trkpt>
      <trkpt lat="45.63832" lon="6.11723">
        <ele>1646.305122304</ele>
        <time>2016-08-11T15:18:21Z</time>
      </trkpt>
      <trkpt lat="45.63832" lon="6.11713">
        <ele>1644.98022038</ele>
        <time>2016-08-11T15:18:30Z</time>
      </trkpt>
      <trkpt lat="45.63831" lon="6.11707">
        <ele>1644.98022038</ele>
        <time>2016-08-11T15:18:36Z</time>
      </trkpt>
      <trkpt lat="45.63831" lon="6.11693">
        <ele>1642.694956474</ele>
        <time>2016-08-11T15:18:46Z</time>
      </trkpt>
      <trkpt lat="45.6383" lon="6.11687">
        <ele>1642.694956474</ele>
        <time>2016-08-11T15:18:51Z</time>
      </trkpt>
      <trkpt lat="45.63829" lon="6.11682">
        <ele>1642.694956474</ele>
        <time>2016-08-11T15:18:55Z</time>
      </trkpt>
      <trkpt lat="45.63826" lon="6.11665">
        <ele>1640.675338046</ele>
        <time>2016-08-11T15:19:06Z</time>
      </trkpt>
      <trkpt lat="45.63825" lon="6.11661">
        <ele>1640.675338046</ele>
        <time>2016-08-11T15:19:10Z</time>
      </trkpt>
      <trkpt lat="45.63824" lon="6.11656">
        <ele>1640.675338046</ele>
        <time>2016-08-11T15:19:21Z</time>
      </trkpt>
      <trkpt lat="45.63823" lon="6.11656">
        <ele>1640.675338046</ele>
        <time>2016-08-11T15:19:26Z</time>
      </trkpt>
      <trkpt lat="45.63821" lon="6.11646">
        <ele>1638.471339097</ele>
        <time>2016-08-11T15:19:36Z</time>
      </trkpt>
      <trkpt lat="45.6382" lon="6.11641">
        <ele>1638.471339097</ele>
        <time>2016-08-11T15:19:41Z</time>
      </trkpt>
      <trkpt lat="45.63816" lon="6.11635">
        <ele>1635.954722284</ele>
        <time>2016-08-11T15:19:51Z</time>
      </trkpt>
      <trkpt lat="45.63813" lon="6.11628">
        <ele>1635.954722284</ele>
        <time>2016-08-11T15:19:55Z</time>
      </trkpt>
      <trkpt lat="45.63808" lon="6.11622">
        <ele>1633.007530156</ele>
        <time>2016-08-11T15:20:05Z</time>
      </trkpt>
      <trkpt lat="45.63806" lon="6.11614">
        <ele>1633.007530156</ele>
        <time>2016-08-11T15:20:10Z</time>
      </trkpt>
      <trkpt lat="45.63804" lon="6.11609">
        <ele>1630.242208694</ele>
        <time>2016-08-11T15:20:21Z</time>
      </trkpt>
      <trkpt lat="45.63804" lon="6.11609">
        <ele>1630.242208694</ele>
        <time>2016-08-11T15:20:26Z</time>
      </trkpt>
      <trkpt lat="45.63803" lon="6.11608">
        <ele>1630.242208694</ele>
        <time>2016-08-11T15:20:35Z</time>
      </trkpt>
      <trkpt lat="45.63801" lon="6.11599">
        <ele>1630.242208694</ele>
        <time>2016-08-11T15:20:40Z</time>
      </trkpt>
      <trkpt lat="45.63795" lon="6.11582">
        <ele>1626.928668061</ele>
        <time>2016-08-11T15:20:55Z</time>
      </trkpt>
      <trkpt lat="45.63787" lon="6.11573">
        <ele>1623.400720299</ele>
        <time>2016-08-11T15:21:06Z</time>
      </trkpt>
      <trkpt lat="45.63787" lon="6.11574">
        <ele>1623.400720299</ele>
        <time>2016-08-11T15:21:11Z</time>
      </trkpt>
      <trkpt lat="45.63785" lon="6.11576">
        <ele>1623.400720299</ele>
        <time>2016-08-11T15:21:15Z</time>
      </trkpt>
      <trkpt lat="45.63785" lon="6.11578">
        <ele>1623.400720299</ele>
        <time>2016-08-11T15:21:21Z</time>
      </trkpt>
      <trkpt lat="45.63784" lon="6.11579">
        <ele>1623.400720299</ele>
        <time>2016-08-11T15:21:26Z</time>
      </trkpt>
      <trkpt lat="45.63784" lon="6.11579">
        <ele>1623.400720299</ele>
        <time>2016-08-11T15:21:31Z</time>
      </trkpt>
      <trkpt lat="45.63784" lon="6.11579">
        <ele>1623.400720299</ele>
        <time>2016-08-11T15:21:40Z</time>
      </trkpt>
      <trkpt lat="45.63781" lon="6.11574">
        <ele>1620.112311051</ele>
        <time>2016-08-11T15:21:45Z</time>
      </trkpt>
      <trkpt lat="45.63779" lon="6.11578">
        <ele>1620.112311051</ele>
        <time>2016-08-11T15:21:56Z</time>
      </trkpt>
      <trkpt lat="45.63776" lon="6.11582">
        <ele>1620.112311051</ele>
        <time>2016-08-11T15:22:00Z</time>
      </trkpt>
      <trkpt lat="45.63776" lon="6.11589">
        <ele>1616.330408653</ele>
        <time>2016-08-11T15:22:11Z</time>
      </trkpt>
      <trkpt lat="45.63775" lon="6.11593">
        <ele>1616.330408653</ele>
        <time>2016-08-11T15:22:15Z</time>
      </trkpt>
      <trkpt lat="45.63773" lon="6.11602">
        <ele>1612.818244392</ele>
        <time>2016-08-11T15:22:25Z</time>
      </trkpt>
      <trkpt lat="45.63773" lon="6.11603">
        <ele>1612.818244392</ele>
        <time>2016-08-11T15:22:31Z</time>
      </trkpt>
      <trkpt lat="45.63771" lon="6.1161">
        <ele>1612.818244392</ele>
        <time>2016-08-11T15:22:40Z</time>
      </trkpt>
      <trkpt lat="45.6377" lon="6.11614">
        <ele>1612.818244392</ele>
        <time>2016-08-11T15:22:45Z</time>
      </trkpt>
      <trkpt lat="45.63768" lon="6.11622">
        <ele>1609.993912924</ele>
        <time>2016-08-11T15:22:56Z</time>
      </trkpt>
      <trkpt lat="45.63767" lon="6.11626">
        <ele>1609.993912924</ele>
        <time>2016-08-11T15:23:00Z</time>
      </trkpt>
      <trkpt lat="45.63764" lon="6.11635">
        <ele>1607.08987775</ele>
        <time>2016-08-11T15:23:11Z</time>
      </trkpt>
      <trkpt lat="45.63762" lon="6.11644">
        <ele>1607.08987775</ele>
        <time>2016-08-11T15:23:15Z</time>
      </trkpt>
      <trkpt lat="45.63758" lon="6.11655">
        <ele>1604.115659114</ele>
        <time>2016-08-11T15:23:26Z</time>
      </trkpt>
      <trkpt lat="45.63754" lon="6.11659">
        <ele>1604.115659114</ele>
        <time>2016-08-11T15:23:30Z</time>
      </trkpt>
      <trkpt lat="45.63749" lon="6.11666">
        <ele>1600.791942451</ele>
        <time>2016-08-11T15:23:41Z</time>
      </trkpt>
      <trkpt lat="45.63748" lon="6.11666">
        <ele>1600.791942451</ele>
        <time>2016-08-11T15:23:45Z</time>
      </trkpt>
      <trkpt lat="45.63748" lon="6.11667">
        <ele>1600.791942451</ele>
        <time>2016-08-11T15:23:50Z</time>
      </trkpt>
      <trkpt lat="45.63748" lon="6.11667">
        <ele>1600.791942451</ele>
        <time>2016-08-11T15:23:55Z</time>
      </trkpt>
      <trkpt lat="45.63748" lon="6.11667">
        <ele>1600.791942451</ele>
        <time>2016-08-11T15:24:00Z</time>
      </trkpt>
      <trkpt lat="45.63748" lon="6.11667">
        <ele>1600.791942451</ele>
        <time>2016-08-11T15:24:05Z</time>
      </trkpt>
      <trkpt lat="45.63748" lon="6.11667">
        <ele>1600.791942451</ele>
        <time>2016-08-11T15:24:10Z</time>
      </trkpt>
      <trkpt lat="45.63747" lon="6.11669">
        <ele>1600.791942451</ele>
        <time>2016-08-11T15:24:15Z</time>
      </trkpt>
      <trkpt lat="45.63745" lon="6.11667">
        <ele>1600.791942451</ele>
        <time>2016-08-11T15:24:25Z</time>
      </trkpt>
      <trkpt lat="45.63741" lon="6.11659">
        <ele>1596.572574332</ele>
        <time>2016-08-11T15:24:31Z</time>
      </trkpt>
      <trkpt lat="45.6374" lon="6.11648">
        <ele>1596.572574332</ele>
        <time>2016-08-11T15:24:41Z</time>
      </trkpt>
      <trkpt lat="45.63738" lon="6.11643">
        <ele>1592.539135218</ele>
        <time>2016-08-11T15:24:45Z</time>
      </trkpt>
      <trkpt lat="45.63733" lon="6.11633">
        <ele>1592.539135218</ele>
        <time>2016-08-11T15:24:56Z</time>
      </trkpt>
      <trkpt lat="45.63733" lon="6.11632">
        <ele>1588.396101532</ele>
        <time>2016-08-11T15:25:01Z</time>
      </trkpt>
      <trkpt lat="45.63725" lon="6.1162">
        <ele>1584.44627235</ele>
        <time>2016-08-11T15:25:11Z</time>
      </trkpt>
      <trkpt lat="45.63723" lon="6.11616">
        <ele>1584.44627235</ele>
        <time>2016-08-11T15:25:16Z</time>
      </trkpt>
      <trkpt lat="45.63716" lon="6.11606">
        <ele>1580.681292366</ele>
        <time>2016-08-11T15:25:31Z</time>
      </trkpt>
      <trkpt lat="45.63715" lon="6.11601">
        <ele>1580.681292366</ele>
        <time>2016-08-11T15:25:36Z</time>
      </trkpt>
      <trkpt lat="45.63712" lon="6.11594">
        <ele>1576.66041453</ele>
        <time>2016-08-11T15:25:45Z</time>
      </trkpt>
      <trkpt lat="45.63708" lon="6.11594">
        <ele>1576.66041453</ele>
        <time>2016-08-11T15:25:50Z</time>
      </trkpt>
      <trkpt lat="45.63703" lon="6.11596">
        <ele>1573.128717794</ele>
        <time>2016-08-11T15:26:00Z</time>
      </trkpt>
      <trkpt lat="45.63703" lon="6.11596">
        <ele>1573.128717794</ele>
        <time>2016-08-11T15:26:06Z</time>
      </trkpt>
      <trkpt lat="45.63704" lon="6.11597">
        <ele>1573.128717794</ele>
        <time>2016-08-11T15:26:16Z</time>
      </trkpt>
      <trkpt lat="45.63704" lon="6.11597">
        <ele>1573.128717794</ele>
        <time>2016-08-11T15:26:20Z</time>
      </trkpt>
      <trkpt lat="45.63705" lon="6.11598">
        <ele>1573.128717794</ele>
        <time>2016-08-11T15:26:31Z</time>
      </trkpt>
      <trkpt lat="45.63704" lon="6.11595">
        <ele>1573.128717794</ele>
        <time>2016-08-11T15:26:35Z</time>
      </trkpt>
      <trkpt lat="45.63702" lon="6.11595">
        <ele>1573.128717794</ele>
        <time>2016-08-11T15:26:46Z</time>
      </trkpt>
      <trkpt lat="45.63702" lon="6.11596">
        <ele>1573.128717794</ele>
        <time>2016-08-11T15:26:50Z</time>
      </trkpt>
      <trkpt lat="45.63702" lon="6.11595">
        <ele>1573.128717794</ele>
        <time>2016-08-11T15:27:01Z</time>
      </trkpt>
      <trkpt lat="45.63702" lon="6.11595">
        <ele>1573.128717794</ele>
        <time>2016-08-11T15:27:05Z</time>
      </trkpt>
      <trkpt lat="45.63702" lon="6.11597">
        <ele>1569.910347935</ele>
        <time>2016-08-11T15:27:15Z</time>
      </trkpt>
      <trkpt lat="45.63702" lon="6.11603">
        <ele>1569.910347935</ele>
        <time>2016-08-11T15:27:21Z</time>
      </trkpt>
      <trkpt lat="45.637" lon="6.11615">
        <ele>1566.985440011</ele>
        <time>2016-08-11T15:27:31Z</time>
      </trkpt>
      <trkpt lat="45.637" lon="6.1162">
        <ele>1566.985440011</ele>
        <time>2016-08-11T15:27:36Z</time>
      </trkpt>
      <trkpt lat="45.63695" lon="6.11634">
        <ele>1564.334606452</ele>
        <time>2016-08-11T15:27:46Z</time>
      </trkpt>
      <trkpt lat="45.63695" lon="6.11637">
        <ele>1564.334606452</ele>
        <time>2016-08-11T15:27:51Z</time>
      </trkpt>
      <trkpt lat="45.63694" lon="6.11645">
        <ele>1564.334606452</ele>
        <time>2016-08-11T15:28:01Z</time>
      </trkpt>
      <trkpt lat="45.63692" lon="6.11655">
        <ele>1561.506627539</ele>
        <time>2016-08-11T15:28:06Z</time>
      </trkpt>
      <trkpt lat="45.63689" lon="6.11663">
        <ele>1561.506627539</ele>
        <time>2016-08-11T15:28:16Z</time>
      </trkpt>
      <trkpt lat="45.63686" lon="6.11668">
        <ele>1558.660223579</ele>
        <time>2016-08-11T15:28:21Z</time>
      </trkpt>
      <trkpt lat="45.63682" lon="6.11679">
        <ele>1558.660223579</ele>
        <time>2016-08-11T15:28:25Z</time>
      </trkpt>
      <trkpt lat="45.63675" lon="6.11691">
        <ele>1556.662923075</ele>
        <time>2016-08-11T15:28:31Z</time>
      </trkpt>
      <trkpt lat="45.63674" lon="6.11696">
        <ele>1556.662923075</ele>
        <time>2016-08-11T15:28:36Z</time>
      </trkpt>
      <trkpt lat="45.63671" lon="6.11699">
        <ele>1556.662923075</ele>
        <time>2016-08-11T15:28:40Z</time>
      </trkpt>
      <trkpt lat="45.63662" lon="6.11713">
        <ele>1552.425008206</ele>
        <time>2016-08-11T15:28:50Z</time>
      </trkpt>
      <trkpt lat="45.6366" lon="6.11716">
        <ele>1552.425008206</ele>
        <time>2016-08-11T15:28:55Z</time>
      </trkpt>
      <trkpt lat="45.63651" lon="6.1173">
        <ele>1548.998443723</ele>
        <time>2016-08-11T15:29:06Z</time>
      </trkpt>
      <trkpt lat="45.63647" lon="6.11733">
        <ele>1548.998443723</ele>
        <time>2016-08-11T15:29:10Z</time>
      </trkpt>
      <trkpt lat="45.6364" lon="6.11735">
        <ele>1545.605817135</ele>
        <time>2016-08-11T15:29:21Z</time>
      </trkpt>
      <trkpt lat="45.63636" lon="6.11735">
        <ele>1545.605817135</ele>
        <time>2016-08-11T15:29:25Z</time>
      </trkpt>
      <trkpt lat="45.63628" lon="6.11735">
        <ele>1542.247160203</ele>
        <time>2016-08-11T15:29:36Z</time>
      </trkpt>
      <trkpt lat="45.63626" lon="6.11741">
        <ele>1542.247160203</ele>
        <time>2016-08-11T15:29:41Z</time>
      </trkpt>
      <trkpt lat="45.63619" lon="6.11748">
        <ele>1537.481169058</ele>
        <time>2016-08-11T15:29:50Z</time>
      </trkpt>
      <trkpt lat="45.63613" lon="6.11749">
        <ele>1537.481169058</ele>
        <time>2016-08-11T15:29:56Z</time>
      </trkpt>
      <trkpt lat="45.63606" lon="6.11751">
        <ele>1533.002571984</ele>
        <time>2016-08-11T15:30:05Z</time>
      </trkpt>
      <trkpt lat="45.63601" lon="6.11755">
        <ele>1533.002571984</ele>
        <time>2016-08-11T15:30:11Z</time>
      </trkpt>
      <trkpt lat="45.63591" lon="6.11758">
        <ele>1528.939555449</ele>
        <time>2016-08-11T15:30:21Z</time>
      </trkpt>
      <trkpt lat="45.63587" lon="6.11757">
        <ele>1528.939555449</ele>
        <time>2016-08-11T15:30:26Z</time>
      </trkpt>
      <trkpt lat="45.63584" lon="6.11755">
        <ele>1528.939555449</ele>
        <time>2016-08-11T15:30:30Z</time>
      </trkpt>
      <trkpt lat="45.63576" lon="6.11746">
        <ele>1524.689033706</ele>
        <time>2016-08-11T15:30:41Z</time>
      </trkpt>
      <trkpt lat="45.63575" lon="6.11743">
        <ele>1524.689033706</ele>
        <time>2016-08-11T15:30:45Z</time>
      </trkpt>
      <trkpt lat="45.63575" lon="6.11735">
        <ele>1524.689033706</ele>
        <time>2016-08-11T15:30:56Z</time>
      </trkpt>
      <trkpt lat="45.63576" lon="6.11729">
        <ele>1520.269055759</ele>
        <time>2016-08-11T15:31:01Z</time>
      </trkpt>
      <trkpt lat="45.63578" lon="6.11727">
        <ele>1520.269055759</ele>
        <time>2016-08-11T15:31:13Z</time>
      </trkpt>
      <trkpt lat="45.6358" lon="6.11722">
        <ele>1520.269055759</ele>
        <time>2016-08-11T15:31:15Z</time>
      </trkpt>
      <trkpt lat="45.63581" lon="6.11706">
        <ele>1515.552567335</ele>
        <time>2016-08-11T15:31:26Z</time>
      </trkpt>
      <trkpt lat="45.63584" lon="6.117">
        <ele>1515.552567335</ele>
        <time>2016-08-11T15:31:30Z</time>
      </trkpt>
      <trkpt lat="45.63587" lon="6.1169">
        <ele>1512.295982138</ele>
        <time>2016-08-11T15:31:41Z</time>
      </trkpt>
      <trkpt lat="45.63588" lon="6.11683">
        <ele>1512.295982138</ele>
        <time>2016-08-11T15:31:45Z</time>
      </trkpt>
      <trkpt lat="45.63585" lon="6.11665">
        <ele>1509.672562789</ele>
        <time>2016-08-11T15:31:56Z</time>
      </trkpt>
      <trkpt lat="45.63584" lon="6.11658">
        <ele>1509.672562789</ele>
        <time>2016-08-11T15:32:01Z</time>
      </trkpt>
      <trkpt lat="45.63582" lon="6.11654">
        <ele>1509.672562789</ele>
        <time>2016-08-11T15:32:11Z</time>
      </trkpt>
      <trkpt lat="45.63579" lon="6.11645">
        <ele>1507.05850281</ele>
        <time>2016-08-11T15:32:16Z</time>
      </trkpt>
      <trkpt lat="45.63571" lon="6.11635">
        <ele>1503.875666094</ele>
        <time>2016-08-11T15:32:26Z</time>
      </trkpt>
      <trkpt lat="45.63564" lon="6.11628">
        <ele>1503.875666094</ele>
        <time>2016-08-11T15:32:31Z</time>
      </trkpt>
      <trkpt lat="45.63553" lon="6.11608">
        <ele>1500.886864799</ele>
        <time>2016-08-11T15:32:46Z</time>
      </trkpt>
      <trkpt lat="45.6355" lon="6.11604">
        <ele>1500.886864799</ele>
        <time>2016-08-11T15:32:51Z</time>
      </trkpt>
      <trkpt lat="45.63539" lon="6.11593">
        <ele>1498.798225241</ele>
        <time>2016-08-11T15:33:00Z</time>
      </trkpt>
      <trkpt lat="45.63533" lon="6.11588">
        <ele>1498.798225241</ele>
        <time>2016-08-11T15:33:05Z</time>
      </trkpt>
      <trkpt lat="45.63528" lon="6.11585">
        <ele>1496.820271129</ele>
        <time>2016-08-11T15:33:10Z</time>
      </trkpt>
      <trkpt lat="45.63523" lon="6.11584">
        <ele>1496.820271129</ele>
        <time>2016-08-11T15:33:15Z</time>
      </trkpt>
      <trkpt lat="45.6352" lon="6.1158">
        <ele>1494.653461895</ele>
        <time>2016-08-11T15:33:21Z</time>
      </trkpt>
      <trkpt lat="45.63511" lon="6.11573">
        <ele>1492.453056251</ele>
        <time>2016-08-11T15:33:31Z</time>
      </trkpt>
      <trkpt lat="45.63507" lon="6.11572">
        <ele>1492.453056251</ele>
        <time>2016-08-11T15:33:35Z</time>
      </trkpt>
      <trkpt lat="45.63493" lon="6.11573">
        <ele>1490.507059284</ele>
        <time>2016-08-11T15:33:45Z</time>
      </trkpt>
      <trkpt lat="45.63484" lon="6.11572">
        <ele>1488.793343328</ele>
        <time>2016-08-11T15:33:51Z</time>
      </trkpt>
      <trkpt lat="45.63473" lon="6.11568">
        <ele>1487.434839701</ele>
        <time>2016-08-11T15:34:01Z</time>
      </trkpt>
      <trkpt lat="45.6347" lon="6.11565">
        <ele>1487.434839701</ele>
        <time>2016-08-11T15:34:05Z</time>
      </trkpt>
      <trkpt lat="45.63457" lon="6.11561">
        <ele>1485.823884873</ele>
        <time>2016-08-11T15:34:16Z</time>
      </trkpt>
      <trkpt lat="45.63451" lon="6.11559">
        <ele>1485.823884873</ele>
        <time>2016-08-11T15:34:20Z</time>
      </trkpt>
      <trkpt lat="45.63439" lon="6.11554">
        <ele>1484.695165522</ele>
        <time>2016-08-11T15:34:30Z</time>
      </trkpt>
      <trkpt lat="45.6343" lon="6.11552">
        <ele>1484.695165522</ele>
        <time>2016-08-11T15:34:36Z</time>
      </trkpt>
      <trkpt lat="45.63421" lon="6.11549">
        <ele>1483.431063023</ele>
        <time>2016-08-11T15:34:46Z</time>
      </trkpt>
      <trkpt lat="45.63419" lon="6.1155">
        <ele>1483.431063023</ele>
        <time>2016-08-11T15:34:51Z</time>
      </trkpt>
      <trkpt lat="45.63408" lon="6.11555">
        <ele>1482.036184896</ele>
        <time>2016-08-11T15:35:01Z</time>
      </trkpt>
      <trkpt lat="45.63404" lon="6.11554">
        <ele>1482.036184896</ele>
        <time>2016-08-11T15:35:06Z</time>
      </trkpt>
      <trkpt lat="45.63384" lon="6.11558">
        <ele>1480.947546008</ele>
        <time>2016-08-11T15:35:21Z</time>
      </trkpt>
      <trkpt lat="45.63381" lon="6.11558">
        <ele>1480.947546008</ele>
        <time>2016-08-11T15:35:26Z</time>
      </trkpt>
      <trkpt lat="45.6337" lon="6.11559">
        <ele>1479.416367631</ele>
        <time>2016-08-11T15:35:35Z</time>
      </trkpt>
      <trkpt lat="45.63364" lon="6.1156">
        <ele>1479.416367631</ele>
        <time>2016-08-11T15:35:41Z</time>
      </trkpt>
      <trkpt lat="45.63355" lon="6.11558">
        <ele>1477.758963684</ele>
        <time>2016-08-11T15:35:50Z</time>
      </trkpt>
      <trkpt lat="45.63356" lon="6.11557">
        <ele>1477.758963684</ele>
        <time>2016-08-11T15:35:55Z</time>
      </trkpt>
      <trkpt lat="45.63353" lon="6.11558">
        <ele>1477.758963684</ele>
        <time>2016-08-11T15:36:00Z</time>
      </trkpt>
      <trkpt lat="45.63346" lon="6.11554">
        <ele>1475.980620438</ele>
        <time>2016-08-11T15:36:10Z</time>
      </trkpt>
      <trkpt lat="45.63343" lon="6.11555">
        <ele>1475.980620438</ele>
        <time>2016-08-11T15:36:15Z</time>
      </trkpt>
      <trkpt lat="45.63331" lon="6.11551">
        <ele>1474.230769999</ele>
        <time>2016-08-11T15:36:30Z</time>
      </trkpt>
      <trkpt lat="45.63326" lon="6.11552">
        <ele>1474.230769999</ele>
        <time>2016-08-11T15:36:35Z</time>
      </trkpt>
      <trkpt lat="45.63315" lon="6.11556">
        <ele>1473.224322097</ele>
        <time>2016-08-11T15:36:45Z</time>
      </trkpt>
      <trkpt lat="45.63307" lon="6.11559">
        <ele>1473.224322097</ele>
        <time>2016-08-11T15:36:51Z</time>
      </trkpt>
      <trkpt lat="45.63293" lon="6.11566">
        <ele>1472.036457325</ele>
        <time>2016-08-11T15:37:01Z</time>
      </trkpt>
      <trkpt lat="45.63289" lon="6.1157">
        <ele>1472.036457325</ele>
        <time>2016-08-11T15:37:06Z</time>
      </trkpt>
      <trkpt lat="45.63279" lon="6.11572">
        <ele>1471.107905213</ele>
        <time>2016-08-11T15:37:16Z</time>
      </trkpt>
      <trkpt lat="45.63273" lon="6.11573">
        <ele>1471.107905213</ele>
        <time>2016-08-11T15:37:21Z</time>
      </trkpt>
      <trkpt lat="45.63263" lon="6.11573">
        <ele>1470.41406932</ele>
        <time>2016-08-11T15:37:30Z</time>
      </trkpt>
      <trkpt lat="45.63259" lon="6.11575">
        <ele>1470.41406932</ele>
        <time>2016-08-11T15:37:36Z</time>
      </trkpt>
      <trkpt lat="45.63248" lon="6.1158">
        <ele>1469.931621114</ele>
        <time>2016-08-11T15:37:46Z</time>
      </trkpt>
      <trkpt lat="45.63245" lon="6.11582">
        <ele>1469.931621114</ele>
        <time>2016-08-11T15:37:51Z</time>
      </trkpt>
      <trkpt lat="45.63235" lon="6.11586">
        <ele>1468.485590092</ele>
        <time>2016-08-11T15:38:01Z</time>
      </trkpt>
      <trkpt lat="45.63231" lon="6.11585">
        <ele>1468.485590092</ele>
        <time>2016-08-11T15:38:05Z</time>
      </trkpt>
      <trkpt lat="45.63217" lon="6.11581">
        <ele>1467.872379141</ele>
        <time>2016-08-11T15:38:16Z</time>
      </trkpt>
      <trkpt lat="45.63214" lon="6.1158">
        <ele>1467.872379141</ele>
        <time>2016-08-11T15:38:21Z</time>
      </trkpt>
      <trkpt lat="45.63207" lon="6.11582">
        <ele>1467.880788857</ele>
        <time>2016-08-11T15:38:36Z</time>
      </trkpt>
      <trkpt lat="45.632" lon="6.11586">
        <ele>1467.880788857</ele>
        <time>2016-08-11T15:38:40Z</time>
      </trkpt>
      <trkpt lat="45.63191" lon="6.11596">
        <ele>1468.169429288</ele>
        <time>2016-08-11T15:38:52Z</time>
      </trkpt>
      <trkpt lat="45.63179" lon="6.11602">
        <ele>1467.844915716</ele>
        <time>2016-08-11T15:38:55Z</time>
      </trkpt>
      <trkpt lat="45.6317" lon="6.1161">
        <ele>1468.243046405</ele>
        <time>2016-08-11T15:39:05Z</time>
      </trkpt>
      <trkpt lat="45.63166" lon="6.1161">
        <ele>1468.243046405</ele>
        <time>2016-08-11T15:39:10Z</time>
      </trkpt>
      <trkpt lat="45.6315" lon="6.11619">
        <ele>1468.437975471</ele>
        <time>2016-08-11T15:39:20Z</time>
      </trkpt>
      <trkpt lat="45.63146" lon="6.11617">
        <ele>1468.437975471</ele>
        <time>2016-08-11T15:39:26Z</time>
      </trkpt>
      <trkpt lat="45.63135" lon="6.11621">
        <ele>1467.572623593</ele>
        <time>2016-08-11T15:39:36Z</time>
      </trkpt>
      <trkpt lat="45.6313" lon="6.11624">
        <ele>1467.572623593</ele>
        <time>2016-08-11T15:39:41Z</time>
      </trkpt>
      <trkpt lat="45.63111" lon="6.11625">
        <ele>1466.873592025</ele>
        <time>2016-08-11T15:39:56Z</time>
      </trkpt>
      <trkpt lat="45.63107" lon="6.11623">
        <ele>1466.873592025</ele>
        <time>2016-08-11T15:40:00Z</time>
      </trkpt>
      <trkpt lat="45.63098" lon="6.11628">
        <ele>1465.315432888</ele>
        <time>2016-08-11T15:40:11Z</time>
      </trkpt>
      <trkpt lat="45.63091" lon="6.11631">
        <ele>1465.315432888</ele>
        <time>2016-08-11T15:40:15Z</time>
      </trkpt>
      <trkpt lat="45.63082" lon="6.11627">
        <ele>1463.391735781</ele>
        <time>2016-08-11T15:40:26Z</time>
      </trkpt>
      <trkpt lat="45.63077" lon="6.11627">
        <ele>1463.391735781</ele>
        <time>2016-08-11T15:40:31Z</time>
      </trkpt>
      <trkpt lat="45.63079" lon="6.11644">
        <ele>1461.12870265</ele>
        <time>2016-08-11T15:40:40Z</time>
      </trkpt>
      <trkpt lat="45.63086" lon="6.1165">
        <ele>1461.12870265</ele>
        <time>2016-08-11T15:40:46Z</time>
      </trkpt>
      <trkpt lat="45.63095" lon="6.11659">
        <ele>1457.687062406</ele>
        <time>2016-08-11T15:41:00Z</time>
      </trkpt>
      <trkpt lat="45.63097" lon="6.11661">
        <ele>1457.687062406</ele>
        <time>2016-08-11T15:41:06Z</time>
      </trkpt>
      <trkpt lat="45.63099" lon="6.11663">
        <ele>1457.687062406</ele>
        <time>2016-08-11T15:41:16Z</time>
      </trkpt>
      <trkpt lat="45.63101" lon="6.11664">
        <ele>1457.687062406</ele>
        <time>2016-08-11T15:41:20Z</time>
      </trkpt>
      <trkpt lat="45.63106" lon="6.11673">
        <ele>1454.021986945</ele>
        <time>2016-08-11T15:41:31Z</time>
      </trkpt>
      <trkpt lat="45.63112" lon="6.11676">
        <ele>1454.021986945</ele>
        <time>2016-08-11T15:41:36Z</time>
      </trkpt>
      <trkpt lat="45.63123" lon="6.11685">
        <ele>1450.298683334</ele>
        <time>2016-08-11T15:41:46Z</time>
      </trkpt>
      <trkpt lat="45.63125" lon="6.11687">
        <ele>1450.298683334</ele>
        <time>2016-08-11T15:41:51Z</time>
      </trkpt>
      <trkpt lat="45.6313" lon="6.1169">
        <ele>1450.298683334</ele>
        <time>2016-08-11T15:42:00Z</time>
      </trkpt>
      <trkpt lat="45.63131" lon="6.11689">
        <ele>1447.102829004</ele>
        <time>2016-08-11T15:42:05Z</time>
      </trkpt>
      <trkpt lat="45.63136" lon="6.1169">
        <ele>1447.102829004</ele>
        <time>2016-08-11T15:42:16Z</time>
      </trkpt>
      <trkpt lat="45.63137" lon="6.11691">
        <ele>1447.102829004</ele>
        <time>2016-08-11T15:42:21Z</time>
      </trkpt>
      <trkpt lat="45.63156" lon="6.11698">
        <ele>1444.543354124</ele>
        <time>2016-08-11T15:42:31Z</time>
      </trkpt>
      <trkpt lat="45.63162" lon="6.11701">
        <ele>1444.543354124</ele>
        <time>2016-08-11T15:42:36Z</time>
      </trkpt>
      <trkpt lat="45.63178" lon="6.11703">
        <ele>1442.287140792</ele>
        <time>2016-08-11T15:42:46Z</time>
      </trkpt>
      <trkpt lat="45.63182" lon="6.11705">
        <ele>1442.287140792</ele>
        <time>2016-08-11T15:42:50Z</time>
      </trkpt>
      <trkpt lat="45.63189" lon="6.11707">
        <ele>1440.168861966</ele>
        <time>2016-08-11T15:43:00Z</time>
      </trkpt>
      <trkpt lat="45.63198" lon="6.11708">
        <ele>1440.168861966</ele>
        <time>2016-08-11T15:43:06Z</time>
      </trkpt>
      <trkpt lat="45.6321" lon="6.11714">
        <ele>1437.746776179</ele>
        <time>2016-08-11T15:43:16Z</time>
      </trkpt>
      <trkpt lat="45.63218" lon="6.11718">
        <ele>1437.746776179</ele>
        <time>2016-08-11T15:43:20Z</time>
      </trkpt>
      <trkpt lat="45.63224" lon="6.11721">
        <ele>1434.756596694</ele>
        <time>2016-08-11T15:43:36Z</time>
      </trkpt>
      <trkpt lat="45.63225" lon="6.11725">
        <ele>1434.756596694</ele>
        <time>2016-08-11T15:43:40Z</time>
      </trkpt>
      <trkpt lat="45.63233" lon="6.11734">
        <ele>1430.955075647</ele>
        <time>2016-08-11T15:43:51Z</time>
      </trkpt>
      <trkpt lat="45.63234" lon="6.11737">
        <ele>1430.955075647</ele>
        <time>2016-08-11T15:43:55Z</time>
      </trkpt>
      <trkpt lat="45.63232" lon="6.11738">
        <ele>1430.955075647</ele>
        <time>2016-08-11T15:44:00Z</time>
      </trkpt>
      <trkpt lat="45.63229" lon="6.11737">
        <ele>1430.955075647</ele>
        <time>2016-08-11T15:44:06Z</time>
      </trkpt>
      <trkpt lat="45.63227" lon="6.11737">
        <ele>1427.127906698</ele>
        <time>2016-08-11T15:44:16Z</time>
      </trkpt>
      <trkpt lat="45.63221" lon="6.11735">
        <ele>1427.127906698</ele>
        <time>2016-08-11T15:44:20Z</time>
      </trkpt>
      <trkpt lat="45.63211" lon="6.11732">
        <ele>1423.85903238</ele>
        <time>2016-08-11T15:44:30Z</time>
      </trkpt>
      <trkpt lat="45.63195" lon="6.11742">
        <ele>1420.246810947</ele>
        <time>2016-08-11T15:44:36Z</time>
      </trkpt>
      <trkpt lat="45.63179" lon="6.11742">
        <ele>1417.330219616</ele>
        <time>2016-08-11T15:44:46Z</time>
      </trkpt>
      <trkpt lat="45.63175" lon="6.11747">
        <ele>1417.330219616</ele>
        <time>2016-08-11T15:44:50Z</time>
      </trkpt>
      <trkpt lat="45.63168" lon="6.11746">
        <ele>1415.06115026</ele>
        <time>2016-08-11T15:45:01Z</time>
      </trkpt>
      <trkpt lat="45.63155" lon="6.11755">
        <ele>1412.528505314</ele>
        <time>2016-08-11T15:45:05Z</time>
      </trkpt>
      <trkpt lat="45.63146" lon="6.11753">
        <ele>1410.329923303</ele>
        <time>2016-08-11T15:45:16Z</time>
      </trkpt>
      <trkpt lat="45.63138" lon="6.11755">
        <ele>1410.329923303</ele>
        <time>2016-08-11T15:45:21Z</time>
      </trkpt>
      <trkpt lat="45.63133" lon="6.11755">
        <ele>1408.729937279</ele>
        <time>2016-08-11T15:45:25Z</time>
      </trkpt>
      <trkpt lat="45.6313" lon="6.11756">
        <ele>1408.729937279</ele>
        <time>2016-08-11T15:45:30Z</time>
      </trkpt>
      <trkpt lat="45.63125" lon="6.11757">
        <ele>1408.729937279</ele>
        <time>2016-08-11T15:45:35Z</time>
      </trkpt>
      <trkpt lat="45.6312" lon="6.11756">
        <ele>1406.53081394</ele>
        <time>2016-08-11T15:45:41Z</time>
      </trkpt>
      <trkpt lat="45.63108" lon="6.11752">
        <ele>1404.209666745</ele>
        <time>2016-08-11T15:45:50Z</time>
      </trkpt>
      <trkpt lat="45.63098" lon="6.11756">
        <ele>1402.497086441</ele>
        <time>2016-08-11T15:45:56Z</time>
      </trkpt>
      <trkpt lat="45.63076" lon="6.11744">
        <ele>1402.356476803</ele>
        <time>2016-08-11T15:46:11Z</time>
      </trkpt>
      <trkpt lat="45.6307" lon="6.11746">
        <ele>1402.356476803</ele>
        <time>2016-08-11T15:46:15Z</time>
      </trkpt>
      <trkpt lat="45.63059" lon="6.11736">
        <ele>1402.514367917</ele>
        <time>2016-08-11T15:46:26Z</time>
      </trkpt>
      <trkpt lat="45.63055" lon="6.11733">
        <ele>1402.514367917</ele>
        <time>2016-08-11T15:46:30Z</time>
      </trkpt>
      <trkpt lat="45.63044" lon="6.11723">
        <ele>1402.222320475</ele>
        <time>2016-08-11T15:46:41Z</time>
      </trkpt>
      <trkpt lat="45.63041" lon="6.11722">
        <ele>1402.222320475</ele>
        <time>2016-08-11T15:46:46Z</time>
      </trkpt>
      <trkpt lat="45.63037" lon="6.11714">
        <ele>1402.373361597</ele>
        <time>2016-08-11T15:46:50Z</time>
      </trkpt>
      <trkpt lat="45.63029" lon="6.11705">
        <ele>1402.784914469</ele>
        <time>2016-08-11T15:47:01Z</time>
      </trkpt>
      <trkpt lat="45.63015" lon="6.1169">
        <ele>1403.431229931</ele>
        <time>2016-08-11T15:47:16Z</time>
      </trkpt>
      <trkpt lat="45.63015" lon="6.11686">
        <ele>1403.431229931</ele>
        <time>2016-08-11T15:47:21Z</time>
      </trkpt>
      <trkpt lat="45.63015" lon="6.11682">
        <ele>1403.431229931</ele>
        <time>2016-08-11T15:47:31Z</time>
      </trkpt>
      <trkpt lat="45.63012" lon="6.11672">
        <ele>1403.567286913</ele>
        <time>2016-08-11T15:47:36Z</time>
      </trkpt>
      <trkpt lat="45.63009" lon="6.11665">
        <ele>1403.567286913</ele>
        <time>2016-08-11T15:47:46Z</time>
      </trkpt>
      <trkpt lat="45.63007" lon="6.1166">
        <ele>1403.224845819</ele>
        <time>2016-08-11T15:47:50Z</time>
      </trkpt>
      <trkpt lat="45.63004" lon="6.11648">
        <ele>1402.002418904</ele>
        <time>2016-08-11T15:48:01Z</time>
      </trkpt>
      <trkpt lat="45.63001" lon="6.11638">
        <ele>1402.002418904</ele>
        <time>2016-08-11T15:48:05Z</time>
      </trkpt>
      <trkpt lat="45.62988" lon="6.11629">
        <ele>1401.259897858</ele>
        <time>2016-08-11T15:48:16Z</time>
      </trkpt>
      <trkpt lat="45.62985" lon="6.11632">
        <ele>1401.259897858</ele>
        <time>2016-08-11T15:48:20Z</time>
      </trkpt>
      <trkpt lat="45.62983" lon="6.11633">
        <ele>1401.259897858</ele>
        <time>2016-08-11T15:48:31Z</time>
      </trkpt>
      <trkpt lat="45.62975" lon="6.11638">
        <ele>1401.247242108</ele>
        <time>2016-08-11T15:48:36Z</time>
      </trkpt>
      <trkpt lat="45.6296" lon="6.11636">
        <ele>1401.185316651</ele>
        <time>2016-08-11T15:48:46Z</time>
      </trkpt>
      <trkpt lat="45.62957" lon="6.1164">
        <ele>1401.185316651</ele>
        <time>2016-08-11T15:48:50Z</time>
      </trkpt>
      <trkpt lat="45.62948" lon="6.11642">
        <ele>1400.928901592</ele>
        <time>2016-08-11T15:49:01Z</time>
      </trkpt>
      <trkpt lat="45.62945" lon="6.11639">
        <ele>1400.928901592</ele>
        <time>2016-08-11T15:49:05Z</time>
      </trkpt>
      <trkpt lat="45.62935" lon="6.11638">
        <ele>1400.488204132</ele>
        <time>2016-08-11T15:49:15Z</time>
      </trkpt>
      <trkpt lat="45.62925" lon="6.11644">
        <ele>1400.449751225</ele>
        <time>2016-08-11T15:49:21Z</time>
      </trkpt>
      <trkpt lat="45.62921" lon="6.11626">
        <ele>1401.067746577</ele>
        <time>2016-08-11T15:49:31Z</time>
      </trkpt>
      <trkpt lat="45.62918" lon="6.11623">
        <ele>1401.067746577</ele>
        <time>2016-08-11T15:49:35Z</time>
      </trkpt>
      <trkpt lat="45.62917" lon="6.11618">
        <ele>1401.067746577</ele>
        <time>2016-08-11T15:49:40Z</time>
      </trkpt>
      <trkpt lat="45.62917" lon="6.11613">
        <ele>1401.999553815</ele>
        <time>2016-08-11T15:49:45Z</time>
      </trkpt>
      <trkpt lat="45.62913" lon="6.11607">
        <ele>1401.999553815</ele>
        <time>2016-08-11T15:49:50Z</time>
      </trkpt>
      <trkpt lat="45.62909" lon="6.11596">
        <ele>1403.071065101</ele>
        <time>2016-08-11T15:50:01Z</time>
      </trkpt>
      <trkpt lat="45.629" lon="6.11593">
        <ele>1404.264819517</ele>
        <time>2016-08-11T15:50:06Z</time>
      </trkpt>
      <trkpt lat="45.62888" lon="6.11582">
        <ele>1405.564444634</ele>
        <time>2016-08-11T15:50:15Z</time>
      </trkpt>
      <trkpt lat="45.62885" lon="6.1158">
        <ele>1405.564444634</ele>
        <time>2016-08-11T15:50:20Z</time>
      </trkpt>
      <trkpt lat="45.62886" lon="6.1158">
        <ele>1405.564444634</ele>
        <time>2016-08-11T15:50:30Z</time>
      </trkpt>
      <trkpt lat="45.62886" lon="6.1158">
        <ele>1405.564444634</ele>
        <time>2016-08-11T15:50:36Z</time>
      </trkpt>
      <trkpt lat="45.62886" lon="6.1158">
        <ele>1405.564444634</ele>
        <time>2016-08-11T15:50:46Z</time>
      </trkpt>
      <trkpt lat="45.62885" lon="6.11579">
        <ele>1405.564444634</ele>
        <time>2016-08-11T15:50:51Z</time>
      </trkpt>
      <trkpt lat="45.6288" lon="6.11568">
        <ele>1406.954633388</ele>
        <time>2016-08-11T15:51:01Z</time>
      </trkpt>
      <trkpt lat="45.62878" lon="6.11565">
        <ele>1406.954633388</ele>
        <time>2016-08-11T15:51:06Z</time>
      </trkpt>
      <trkpt lat="45.62879" lon="6.11563">
        <ele>1406.954633388</ele>
        <time>2016-08-11T15:51:20Z</time>
      </trkpt>
      <trkpt lat="45.62876" lon="6.11556">
        <ele>1408.421119272</ele>
        <time>2016-08-11T15:51:26Z</time>
      </trkpt>
      <trkpt lat="45.62857" lon="6.11552">
        <ele>1409.662427038</ele>
        <time>2016-08-11T15:51:35Z</time>
      </trkpt>
      <trkpt lat="45.62854" lon="6.11549">
        <ele>1409.662427038</ele>
        <time>2016-08-11T15:51:40Z</time>
      </trkpt>
      <trkpt lat="45.62839" lon="6.11538">
        <ele>1411.26471495</ele>
        <time>2016-08-11T15:51:50Z</time>
      </trkpt>
      <trkpt lat="45.62836" lon="6.11538">
        <ele>1411.26471495</ele>
        <time>2016-08-11T15:51:55Z</time>
      </trkpt>
      <trkpt lat="45.62838" lon="6.1154">
        <ele>1411.26471495</ele>
        <time>2016-08-11T15:52:06Z</time>
      </trkpt>
      <trkpt lat="45.62836" lon="6.1154">
        <ele>1411.26471495</ele>
        <time>2016-08-11T15:52:10Z</time>
      </trkpt>
      <trkpt lat="45.62833" lon="6.11543">
        <ele>1411.608596759</ele>
        <time>2016-08-11T15:52:20Z</time>
      </trkpt>
      <trkpt lat="45.62834" lon="6.11545">
        <ele>1411.608596759</ele>
        <time>2016-08-11T15:52:25Z</time>
      </trkpt>
      <trkpt lat="45.62828" lon="6.11548">
        <ele>1411.608596759</ele>
        <time>2016-08-11T15:52:35Z</time>
      </trkpt>
      <trkpt lat="45.6282" lon="6.11554">
        <ele>1412.079597135</ele>
        <time>2016-08-11T15:52:40Z</time>
      </trkpt>
      <trkpt lat="45.62801" lon="6.11546">
        <ele>1412.231968853</ele>
        <time>2016-08-11T15:52:55Z</time>
      </trkpt>
      <trkpt lat="45.62787" lon="6.11534">
        <ele>1411.797909042</ele>
        <time>2016-08-11T15:53:10Z</time>
      </trkpt>
      <trkpt lat="45.62781" lon="6.1153">
        <ele>1411.797909042</ele>
        <time>2016-08-11T15:53:15Z</time>
      </trkpt>
      <trkpt lat="45.62773" lon="6.11523">
        <ele>1412.116344992</ele>
        <time>2016-08-11T15:53:25Z</time>
      </trkpt>
      <trkpt lat="45.62769" lon="6.11516">
        <ele>1412.116344992</ele>
        <time>2016-08-11T15:53:30Z</time>
      </trkpt>
      <trkpt lat="45.62762" lon="6.115">
        <ele>1412.552474576</ele>
        <time>2016-08-11T15:53:40Z</time>
      </trkpt>
      <trkpt lat="45.62761" lon="6.1149">
        <ele>1412.552474576</ele>
        <time>2016-08-11T15:53:45Z</time>
      </trkpt>
      <trkpt lat="45.62755" lon="6.1147">
        <ele>1411.941528694</ele>
        <time>2016-08-11T15:53:55Z</time>
      </trkpt>
      <trkpt lat="45.62752" lon="6.11464">
        <ele>1411.941528694</ele>
        <time>2016-08-11T15:54:00Z</time>
      </trkpt>
      <trkpt lat="45.62749" lon="6.11467">
        <ele>1411.657296671</ele>
        <time>2016-08-11T15:54:10Z</time>
      </trkpt>
      <trkpt lat="45.62744" lon="6.11464">
        <ele>1411.657296671</ele>
        <time>2016-08-11T15:54:15Z</time>
      </trkpt>
      <trkpt lat="45.62741" lon="6.11458">
        <ele>1411.674893499</ele>
        <time>2016-08-11T15:54:25Z</time>
      </trkpt>
      <trkpt lat="45.62741" lon="6.11458">
        <ele>1411.674893499</ele>
        <time>2016-08-11T15:54:30Z</time>
      </trkpt>
      <trkpt lat="45.6271" lon="6.11458">
        <ele>1410.961788199</ele>
        <time>2016-08-11T15:54:45Z</time>
      </trkpt>
      <trkpt lat="45.62704" lon="6.11451">
        <ele>1410.961788199</ele>
        <time>2016-08-11T15:54:50Z</time>
      </trkpt>
      <trkpt lat="45.62703" lon="6.11442">
        <ele>1410.436934686</ele>
        <time>2016-08-11T15:55:00Z</time>
      </trkpt>
      <trkpt lat="45.62705" lon="6.11434">
        <ele>1410.436934686</ele>
        <time>2016-08-11T15:55:06Z</time>
      </trkpt>
      <trkpt lat="45.627" lon="6.11424">
        <ele>1409.07793716</ele>
        <time>2016-08-11T15:55:15Z</time>
      </trkpt>
      <trkpt lat="45.62692" lon="6.11418">
        <ele>1409.07793716</ele>
        <time>2016-08-11T15:55:20Z</time>
      </trkpt>
      <trkpt lat="45.62681" lon="6.11409">
        <ele>1407.813406417</ele>
        <time>2016-08-11T15:55:30Z</time>
      </trkpt>
      <trkpt lat="45.62681" lon="6.11407">
        <ele>1407.813406417</ele>
        <time>2016-08-11T15:55:36Z</time>
      </trkpt>
      <trkpt lat="45.62675" lon="6.11407">
        <ele>1407.813406417</ele>
        <time>2016-08-11T15:55:46Z</time>
      </trkpt>
      <trkpt lat="45.62671" lon="6.11408">
        <ele>1406.350686031</ele>
        <time>2016-08-11T15:55:50Z</time>
      </trkpt>
      <trkpt lat="45.62661" lon="6.11417">
        <ele>1404.851594509</ele>
        <time>2016-08-11T15:56:01Z</time>
      </trkpt>
      <trkpt lat="45.62655" lon="6.11414">
        <ele>1404.851594509</ele>
        <time>2016-08-11T15:56:05Z</time>
      </trkpt>
      <trkpt lat="45.62646" lon="6.11414">
        <ele>1403.033902577</ele>
        <time>2016-08-11T15:56:10Z</time>
      </trkpt>
      <trkpt lat="45.62644" lon="6.11415">
        <ele>1403.033902577</ele>
        <time>2016-08-11T15:56:15Z</time>
      </trkpt>
      <trkpt lat="45.62645" lon="6.11412">
        <ele>1403.033902577</ele>
        <time>2016-08-11T15:56:20Z</time>
      </trkpt>
      <trkpt lat="45.62644" lon="6.11413">
        <ele>1403.033902577</ele>
        <time>2016-08-11T15:56:25Z</time>
      </trkpt>
      <trkpt lat="45.62643" lon="6.11413">
        <ele>1403.033902577</ele>
        <time>2016-08-11T15:56:30Z</time>
      </trkpt>
      <trkpt lat="45.62643" lon="6.11413">
        <ele>1403.033902577</ele>
        <time>2016-08-11T15:56:40Z</time>
      </trkpt>
      <trkpt lat="45.62638" lon="6.11413">
        <ele>1401.501729367</ele>
        <time>2016-08-11T15:56:45Z</time>
      </trkpt>
      <trkpt lat="45.62609" lon="6.11393">
        <ele>1399.661165044</ele>
        <time>2016-08-11T15:57:00Z</time>
      </trkpt>
      <trkpt lat="45.62607" lon="6.11389">
        <ele>1399.661165044</ele>
        <time>2016-08-11T15:57:05Z</time>
      </trkpt>
      <trkpt lat="45.626" lon="6.11383">
        <ele>1397.539261801</ele>
        <time>2016-08-11T15:57:15Z</time>
      </trkpt>
      <trkpt lat="45.62595" lon="6.11365">
        <ele>1396.026550501</ele>
        <time>2016-08-11T15:57:20Z</time>
      </trkpt>
      <trkpt lat="45.62587" lon="6.11357">
        <ele>1394.937654184</ele>
        <time>2016-08-11T15:57:30Z</time>
      </trkpt>
      <trkpt lat="45.62585" lon="6.11357">
        <ele>1394.937654184</ele>
        <time>2016-08-11T15:57:35Z</time>
      </trkpt>
      <trkpt lat="45.62587" lon="6.11352">
        <ele>1394.937654184</ele>
        <time>2016-08-11T15:57:46Z</time>
      </trkpt>
      <trkpt lat="45.62587" lon="6.11352">
        <ele>1394.937654184</ele>
        <time>2016-08-11T15:57:50Z</time>
      </trkpt>
      <trkpt lat="45.62587" lon="6.11352">
        <ele>1394.937654184</ele>
        <time>2016-08-11T15:58:00Z</time>
      </trkpt>
      <trkpt lat="45.62587" lon="6.11352">
        <ele>1394.937654184</ele>
        <time>2016-08-11T15:58:05Z</time>
      </trkpt>
      <trkpt lat="45.62587" lon="6.11352">
        <ele>1394.937654184</ele>
        <time>2016-08-11T15:58:15Z</time>
      </trkpt>
      <trkpt lat="45.62587" lon="6.11352">
        <ele>1394.937654184</ele>
        <time>2016-08-11T15:58:20Z</time>
      </trkpt>
      <trkpt lat="45.62587" lon="6.11352">
        <ele>1394.937654184</ele>
        <time>2016-08-11T15:58:35Z</time>
      </trkpt>
      <trkpt lat="45.62587" lon="6.11352">
        <ele>1394.937654184</ele>
        <time>2016-08-11T15:58:51Z</time>
      </trkpt>
      <trkpt lat="45.62587" lon="6.11352">
        <ele>1394.937654184</ele>
        <time>2016-08-11T15:58:55Z</time>
      </trkpt>
      <trkpt lat="45.62587" lon="6.11352">
        <ele>1394.937654184</ele>
        <time>2016-08-11T15:59:05Z</time>
      </trkpt>
      <trkpt lat="45.62587" lon="6.11352">
        <ele>1394.937654184</ele>
        <time>2016-08-11T15:59:10Z</time>
      </trkpt>
      <trkpt lat="45.62587" lon="6.11352">
        <ele>1394.937654184</ele>
        <time>2016-08-11T15:59:20Z</time>
      </trkpt>
      <trkpt lat="45.62587" lon="6.11352">
        <ele>1394.937654184</ele>
        <time>2016-08-11T15:59:25Z</time>
      </trkpt>
      <trkpt lat="45.62587" lon="6.11353">
        <ele>1394.937654184</ele>
        <time>2016-08-11T15:59:35Z</time>
      </trkpt>
      <trkpt lat="45.62587" lon="6.11353">
        <ele>1394.937654184</ele>
        <time>2016-08-11T15:59:40Z</time>
      </trkpt>
      <trkpt lat="45.62587" lon="6.11352">
        <ele>1394.937654184</ele>
        <time>2016-08-11T15:59:51Z</time>
      </trkpt>
      <trkpt lat="45.62587" lon="6.11352">
        <ele>1394.937654184</ele>
        <time>2016-08-11T15:59:55Z</time>
      </trkpt>
      <trkpt lat="45.62587" lon="6.11352">
        <ele>1394.937654184</ele>
        <time>2016-08-11T16:00:06Z</time>
      </trkpt>
      <trkpt lat="45.62587" lon="6.11352">
        <ele>1394.937654184</ele>
        <time>2016-08-11T16:00:10Z</time>
      </trkpt>
      <trkpt lat="45.62569" lon="6.11331">
        <ele>1392.226163156</ele>
        <time>2016-08-11T16:00:20Z</time>
      </trkpt>
      <trkpt lat="45.62562" lon="6.11319">
        <ele>1390.035631973</ele>
        <time>2016-08-11T16:00:25Z</time>
      </trkpt>
      <trkpt lat="45.62561" lon="6.11318">
        <ele>1390.035631973</ele>
        <time>2016-08-11T16:00:35Z</time>
      </trkpt>
      <trkpt lat="45.6256" lon="6.11317">
        <ele>1390.035631973</ele>
        <time>2016-08-11T16:00:40Z</time>
      </trkpt>
      <trkpt lat="45.6256" lon="6.11317">
        <ele>1390.035631973</ele>
        <time>2016-08-11T16:00:51Z</time>
      </trkpt>
      <trkpt lat="45.6256" lon="6.11317">
        <ele>1390.035631973</ele>
        <time>2016-08-11T16:00:55Z</time>
      </trkpt>
      <trkpt lat="45.62556" lon="6.11302">
        <ele>1388.765427975</ele>
        <time>2016-08-11T16:01:05Z</time>
      </trkpt>
      <trkpt lat="45.62552" lon="6.11288">
        <ele>1387.485950419</ele>
        <time>2016-08-11T16:01:10Z</time>
      </trkpt>
      <trkpt lat="45.62555" lon="6.11265">
        <ele>1386.056411358</ele>
        <time>2016-08-11T16:01:20Z</time>
      </trkpt>
      <trkpt lat="45.62556" lon="6.11258">
        <ele>1386.056411358</ele>
        <time>2016-08-11T16:01:25Z</time>
      </trkpt>
      <trkpt lat="45.62558" lon="6.11216">
        <ele>1384.634946049</ele>
        <time>2016-08-11T16:01:41Z</time>
      </trkpt>
      <trkpt lat="45.62559" lon="6.11212">
        <ele>1384.634946049</ele>
        <time>2016-08-11T16:01:45Z</time>
      </trkpt>
      <trkpt lat="45.62556" lon="6.11197">
        <ele>1384.664987517</ele>
        <time>2016-08-11T16:01:55Z</time>
      </trkpt>
      <trkpt lat="45.62551" lon="6.11199">
        <ele>1384.664987517</ele>
        <time>2016-08-11T16:02:00Z</time>
      </trkpt>
      <trkpt lat="45.62546" lon="6.11192">
        <ele>1384.597576754</ele>
        <time>2016-08-11T16:02:10Z</time>
      </trkpt>
      <trkpt lat="45.62542" lon="6.11183">
        <ele>1384.597576754</ele>
        <time>2016-08-11T16:02:15Z</time>
      </trkpt>
      <trkpt lat="45.6253" lon="6.11174">
        <ele>1385.159422615</ele>
        <time>2016-08-11T16:02:25Z</time>
      </trkpt>
      <trkpt lat="45.62527" lon="6.11171">
        <ele>1385.159422615</ele>
        <time>2016-08-11T16:02:30Z</time>
      </trkpt>
      <trkpt lat="45.62534" lon="6.11151">
        <ele>1385.72503378</ele>
        <time>2016-08-11T16:02:40Z</time>
      </trkpt>
      <trkpt lat="45.62533" lon="6.11144">
        <ele>1385.72503378</ele>
        <time>2016-08-11T16:02:45Z</time>
      </trkpt>
      <trkpt lat="45.62524" lon="6.11144">
        <ele>1387.011817973</ele>
        <time>2016-08-11T16:02:55Z</time>
      </trkpt>
      <trkpt lat="45.62524" lon="6.11134">
        <ele>1387.011817973</ele>
        <time>2016-08-11T16:03:00Z</time>
      </trkpt>
      <trkpt lat="45.6252" lon="6.11117">
        <ele>1388.241321608</ele>
        <time>2016-08-11T16:03:10Z</time>
      </trkpt>
      <trkpt lat="45.62513" lon="6.11124">
        <ele>1388.241321608</ele>
        <time>2016-08-11T16:03:15Z</time>
      </trkpt>
      <trkpt lat="45.62511" lon="6.11121">
        <ele>1390.133537448</ele>
        <time>2016-08-11T16:03:25Z</time>
      </trkpt>
      <trkpt lat="45.6251" lon="6.11122">
        <ele>1390.133537448</ele>
        <time>2016-08-11T16:03:30Z</time>
      </trkpt>
      <trkpt lat="45.6251" lon="6.11122">
        <ele>1390.133537448</ele>
        <time>2016-08-11T16:03:45Z</time>
      </trkpt>
      <trkpt lat="45.62504" lon="6.11111">
        <ele>1392.056714224</ele>
        <time>2016-08-11T16:03:50Z</time>
      </trkpt>
      <trkpt lat="45.62491" lon="6.11105">
        <ele>1393.281332881</ele>
        <time>2016-08-11T16:04:00Z</time>
      </trkpt>
      <trkpt lat="45.6249" lon="6.11102">
        <ele>1393.281332881</ele>
        <time>2016-08-11T16:04:05Z</time>
      </trkpt>
      <trkpt lat="45.62489" lon="6.11102">
        <ele>1393.281332881</ele>
        <time>2016-08-11T16:04:15Z</time>
      </trkpt>
      <trkpt lat="45.62489" lon="6.11102">
        <ele>1393.281332881</ele>
        <time>2016-08-11T16:04:20Z</time>
      </trkpt>
      <trkpt lat="45.62473" lon="6.11087">
        <ele>1394.430461984</ele>
        <time>2016-08-11T16:04:30Z</time>
      </trkpt>
      <trkpt lat="45.62457" lon="6.11089">
        <ele>1396.22577474</ele>
        <time>2016-08-11T16:04:35Z</time>
      </trkpt>
      <trkpt lat="45.62443" lon="6.11083">
        <ele>1397.748959216</ele>
        <time>2016-08-11T16:04:45Z</time>
      </trkpt>
      <trkpt lat="45.6244" lon="6.11086">
        <ele>1397.748959216</ele>
        <time>2016-08-11T16:04:50Z</time>
      </trkpt>
      <trkpt lat="45.62437" lon="6.11075">
        <ele>1399.447001348</ele>
        <time>2016-08-11T16:05:00Z</time>
      </trkpt>
      <trkpt lat="45.62434" lon="6.11076">
        <ele>1399.447001348</ele>
        <time>2016-08-11T16:05:05Z</time>
      </trkpt>
      <trkpt lat="45.62433" lon="6.11064">
        <ele>1400.58075721</ele>
        <time>2016-08-11T16:05:15Z</time>
      </trkpt>
      <trkpt lat="45.62431" lon="6.11055">
        <ele>1400.58075721</ele>
        <time>2016-08-11T16:05:20Z</time>
      </trkpt>
      <trkpt lat="45.62428" lon="6.1105">
        <ele>1402.052280604</ele>
        <time>2016-08-11T16:05:25Z</time>
      </trkpt>
      <trkpt lat="45.62425" lon="6.11048">
        <ele>1402.052280604</ele>
        <time>2016-08-11T16:05:30Z</time>
      </trkpt>
      <trkpt lat="45.62425" lon="6.11047">
        <ele>1402.052280604</ele>
        <time>2016-08-11T16:05:36Z</time>
      </trkpt>
      <trkpt lat="45.62425" lon="6.11046">
        <ele>1402.052280604</ele>
        <time>2016-08-11T16:05:45Z</time>
      </trkpt>
      <trkpt lat="45.62425" lon="6.11039">
        <ele>1404.264183833</ele>
        <time>2016-08-11T16:05:50Z</time>
      </trkpt>
      <trkpt lat="45.62425" lon="6.11023">
        <ele>1405.714092792</ele>
        <time>2016-08-11T16:06:00Z</time>
      </trkpt>
      <trkpt lat="45.62424" lon="6.11018">
        <ele>1405.714092792</ele>
        <time>2016-08-11T16:06:05Z</time>
      </trkpt>
      <trkpt lat="45.62421" lon="6.10997">
        <ele>1407.46214329</ele>
        <time>2016-08-11T16:06:16Z</time>
      </trkpt>
      <trkpt lat="45.62414" lon="6.10973">
        <ele>1409.192883594</ele>
        <time>2016-08-11T16:06:20Z</time>
      </trkpt>
      <trkpt lat="45.6241" lon="6.10972">
        <ele>1409.192883594</ele>
        <time>2016-08-11T16:06:30Z</time>
      </trkpt>
      <trkpt lat="45.62408" lon="6.10968">
        <ele>1409.192883594</ele>
        <time>2016-08-11T16:06:35Z</time>
      </trkpt>
      <trkpt lat="45.62401" lon="6.10953">
        <ele>1410.325992821</ele>
        <time>2016-08-11T16:06:50Z</time>
      </trkpt>
      <trkpt lat="45.62401" lon="6.10951">
        <ele>1410.325992821</ele>
        <time>2016-08-11T16:06:55Z</time>
      </trkpt>
      <trkpt lat="45.624" lon="6.10949">
        <ele>1410.325992821</ele>
        <time>2016-08-11T16:07:05Z</time>
      </trkpt>
      <trkpt lat="45.624" lon="6.10949">
        <ele>1410.325992821</ele>
        <time>2016-08-11T16:07:10Z</time>
      </trkpt>
      <trkpt lat="45.62386" lon="6.10896">
        <ele>1411.19025825</ele>
        <time>2016-08-11T16:07:20Z</time>
      </trkpt>
      <trkpt lat="45.6238" lon="6.10906">
        <ele>1411.19025825</ele>
        <time>2016-08-11T16:07:25Z</time>
      </trkpt>
      <trkpt lat="45.6238" lon="6.10896">
        <ele>1412.667650194</ele>
        <time>2016-08-11T16:07:35Z</time>
      </trkpt>
      <trkpt lat="45.6238" lon="6.10895">
        <ele>1412.667650194</ele>
        <time>2016-08-11T16:07:40Z</time>
      </trkpt>
      <trkpt lat="45.6238" lon="6.10884">
        <ele>1412.667650194</ele>
        <time>2016-08-11T16:07:50Z</time>
      </trkpt>
      <trkpt lat="45.62374" lon="6.10871">
        <ele>1414.132655535</ele>
        <time>2016-08-11T16:07:55Z</time>
      </trkpt>
      <trkpt lat="45.62366" lon="6.10836">
        <ele>1416.158773292</ele>
        <time>2016-08-11T16:08:05Z</time>
      </trkpt>
      <trkpt lat="45.62359" lon="6.10832">
        <ele>1416.158773292</ele>
        <time>2016-08-11T16:08:10Z</time>
      </trkpt>
      <trkpt lat="45.62357" lon="6.10825">
        <ele>1418.411273186</ele>
        <time>2016-08-11T16:08:20Z</time>
      </trkpt>
      <trkpt lat="45.62356" lon="6.10814">
        <ele>1418.411273186</ele>
        <time>2016-08-11T16:08:25Z</time>
      </trkpt>
      <trkpt lat="45.62337" lon="6.10793">
        <ele>1420.57952361</ele>
        <time>2016-08-11T16:08:40Z</time>
      </trkpt>
      <trkpt lat="45.62339" lon="6.10792">
        <ele>1420.57952361</ele>
        <time>2016-08-11T16:08:45Z</time>
      </trkpt>
      <trkpt lat="45.62337" lon="6.10793">
        <ele>1420.57952361</ele>
        <time>2016-08-11T16:08:55Z</time>
      </trkpt>
      <trkpt lat="45.62337" lon="6.10793">
        <ele>1420.57952361</ele>
        <time>2016-08-11T16:09:00Z</time>
      </trkpt>
      <trkpt lat="45.62335" lon="6.10788">
        <ele>1420.57952361</ele>
        <time>2016-08-11T16:09:10Z</time>
      </trkpt>
      <trkpt lat="45.62331" lon="6.10781">
        <ele>1422.95254247</ele>
        <time>2016-08-11T16:09:15Z</time>
      </trkpt>
      <trkpt lat="45.6232" lon="6.10761">
        <ele>1425.36536392</ele>
        <time>2016-08-11T16:09:25Z</time>
      </trkpt>
      <trkpt lat="45.62317" lon="6.10758">
        <ele>1425.36536392</ele>
        <time>2016-08-11T16:09:30Z</time>
      </trkpt>
      <trkpt lat="45.62313" lon="6.10758">
        <ele>1425.36536392</ele>
        <time>2016-08-11T16:09:40Z</time>
      </trkpt>
      <trkpt lat="45.62312" lon="6.10757">
        <ele>1428.962191875</ele>
        <time>2016-08-11T16:09:45Z</time>
      </trkpt>
      <trkpt lat="45.62308" lon="6.10758">
        <ele>1428.962191875</ele>
        <time>2016-08-11T16:09:55Z</time>
      </trkpt>
      <trkpt lat="45.62303" lon="6.1076">
        <ele>1432.206025505</ele>
        <time>2016-08-11T16:10:00Z</time>
      </trkpt>
      <trkpt lat="45.62301" lon="6.10758">
        <ele>1432.206025505</ele>
        <time>2016-08-11T16:10:10Z</time>
      </trkpt>
      <trkpt lat="45.623" lon="6.10756">
        <ele>1432.206025505</ele>
        <time>2016-08-11T16:10:16Z</time>
      </trkpt>
      <trkpt lat="45.62292" lon="6.10753">
        <ele>1434.682717401</ele>
        <time>2016-08-11T16:10:25Z</time>
      </trkpt>
      <trkpt lat="45.62284" lon="6.10753">
        <ele>1434.682717401</ele>
        <time>2016-08-11T16:10:30Z</time>
      </trkpt>
      <trkpt lat="45.6228" lon="6.10747">
        <ele>1436.587323826</ele>
        <time>2016-08-11T16:10:40Z</time>
      </trkpt>
      <trkpt lat="45.62276" lon="6.10739">
        <ele>1436.587323826</ele>
        <time>2016-08-11T16:10:45Z</time>
      </trkpt>
      <trkpt lat="45.6227" lon="6.10725">
        <ele>1438.534698321</ele>
        <time>2016-08-11T16:10:55Z</time>
      </trkpt>
      <trkpt lat="45.62265" lon="6.10722">
        <ele>1438.534698321</ele>
        <time>2016-08-11T16:11:00Z</time>
      </trkpt>
      <trkpt lat="45.62256" lon="6.10721">
        <ele>1439.941704751</ele>
        <time>2016-08-11T16:11:10Z</time>
      </trkpt>
      <trkpt lat="45.62252" lon="6.10715">
        <ele>1439.941704751</ele>
        <time>2016-08-11T16:11:15Z</time>
      </trkpt>
      <trkpt lat="45.6225" lon="6.10707">
        <ele>1440.846185417</ele>
        <time>2016-08-11T16:11:25Z</time>
      </trkpt>
      <trkpt lat="45.62248" lon="6.10705">
        <ele>1440.846185417</ele>
        <time>2016-08-11T16:11:30Z</time>
      </trkpt>
      <trkpt lat="45.62244" lon="6.10703">
        <ele>1440.846185417</ele>
        <time>2016-08-11T16:11:45Z</time>
      </trkpt>
      <trkpt lat="45.62244" lon="6.10702">
        <ele>1440.846185417</ele>
        <time>2016-08-11T16:11:50Z</time>
      </trkpt>
      <trkpt lat="45.62239" lon="6.10666">
        <ele>1440.852450459</ele>
        <time>2016-08-11T16:12:00Z</time>
      </trkpt>
      <trkpt lat="45.62239" lon="6.10663">
        <ele>1440.852450459</ele>
        <time>2016-08-11T16:12:05Z</time>
      </trkpt>
      <trkpt lat="45.62238" lon="6.10628">
        <ele>1440.605333533</ele>
        <time>2016-08-11T16:12:15Z</time>
      </trkpt>
      <trkpt lat="45.62239" lon="6.10614">
        <ele>1440.703152589</ele>
        <time>2016-08-11T16:12:20Z</time>
      </trkpt>
      <trkpt lat="45.62234" lon="6.10619">
        <ele>1440.703152589</ele>
        <time>2016-08-11T16:12:30Z</time>
      </trkpt>
      <trkpt lat="45.62233" lon="6.1062">
        <ele>1440.703152589</ele>
        <time>2016-08-11T16:12:35Z</time>
      </trkpt>
      <trkpt lat="45.62233" lon="6.1062">
        <ele>1440.703152589</ele>
        <time>2016-08-11T16:12:45Z</time>
      </trkpt>
      <trkpt lat="45.62233" lon="6.1062">
        <ele>1440.703152589</ele>
        <time>2016-08-11T16:12:50Z</time>
      </trkpt>
      <trkpt lat="45.62233" lon="6.10619">
        <ele>1440.703152589</ele>
        <time>2016-08-11T16:13:00Z</time>
      </trkpt>
      <trkpt lat="45.62227" lon="6.10604">
        <ele>1441.267098139</ele>
        <time>2016-08-11T16:13:05Z</time>
      </trkpt>
      <trkpt lat="45.62221" lon="6.10563">
        <ele>1441.975926747</ele>
        <time>2016-08-11T16:13:20Z</time>
      </trkpt>
      <trkpt lat="45.6222" lon="6.10548">
        <ele>1442.387571321</ele>
        <time>2016-08-11T16:13:25Z</time>
      </trkpt>
      <trkpt lat="45.62221" lon="6.10526">
        <ele>1442.237466153</ele>
        <time>2016-08-11T16:13:35Z</time>
      </trkpt>
      <trkpt lat="45.62225" lon="6.10521">
        <ele>1442.237466153</ele>
        <time>2016-08-11T16:13:40Z</time>
      </trkpt>
      <trkpt lat="45.62228" lon="6.1051">
        <ele>1441.858570313</ele>
        <time>2016-08-11T16:13:50Z</time>
      </trkpt>
      <trkpt lat="45.62227" lon="6.10508">
        <ele>1441.858570313</ele>
        <time>2016-08-11T16:13:55Z</time>
      </trkpt>
      <trkpt lat="45.62226" lon="6.10505">
        <ele>1441.858570313</ele>
        <time>2016-08-11T16:14:05Z</time>
      </trkpt>
      <trkpt lat="45.62225" lon="6.10505">
        <ele>1441.858570313</ele>
        <time>2016-08-11T16:14:10Z</time>
      </trkpt>
      <trkpt lat="45.62224" lon="6.10503">
        <ele>1441.858570313</ele>
        <time>2016-08-11T16:14:20Z</time>
      </trkpt>
      <trkpt lat="45.62219" lon="6.10491">
        <ele>1442.136526706</ele>
        <time>2016-08-11T16:14:25Z</time>
      </trkpt>
      <trkpt lat="45.62212" lon="6.10467">
        <ele>1442.304896708</ele>
        <time>2016-08-11T16:14:35Z</time>
      </trkpt>
      <trkpt lat="45.62204" lon="6.10462">
        <ele>1442.304896708</ele>
        <time>2016-08-11T16:14:40Z</time>
      </trkpt>
      <trkpt lat="45.62195" lon="6.10453">
        <ele>1442.374437026</ele>
        <time>2016-08-11T16:14:50Z</time>
      </trkpt>
      <trkpt lat="45.62189" lon="6.10443">
        <ele>1442.499521332</ele>
        <time>2016-08-11T16:14:55Z</time>
      </trkpt>
      <trkpt lat="45.62183" lon="6.10435">
        <ele>1442.499521332</ele>
        <time>2016-08-11T16:15:05Z</time>
      </trkpt>
      <trkpt lat="45.62182" lon="6.10433">
        <ele>1442.823036501</ele>
        <time>2016-08-11T16:15:10Z</time>
      </trkpt>
      <trkpt lat="45.62173" lon="6.10407">
        <ele>1442.612148868</ele>
        <time>2016-08-11T16:15:25Z</time>
      </trkpt>
      <trkpt lat="45.6217" lon="6.10406">
        <ele>1442.612148868</ele>
        <time>2016-08-11T16:15:30Z</time>
      </trkpt>
      <trkpt lat="45.62166" lon="6.10406">
        <ele>1442.612148868</ele>
        <time>2016-08-11T16:15:40Z</time>
      </trkpt>
      <trkpt lat="45.62166" lon="6.10406">
        <ele>1442.612148868</ele>
        <time>2016-08-11T16:15:45Z</time>
      </trkpt>
      <trkpt lat="45.62155" lon="6.10395">
        <ele>1442.198125463</ele>
        <time>2016-08-11T16:15:55Z</time>
      </trkpt>
      <trkpt lat="45.62145" lon="6.10389">
        <ele>1442.320782979</ele>
        <time>2016-08-11T16:16:00Z</time>
      </trkpt>
      <trkpt lat="45.6213" lon="6.10366">
        <ele>1442.511169207</ele>
        <time>2016-08-11T16:16:10Z</time>
      </trkpt>
      <trkpt lat="45.62122" lon="6.1037">
        <ele>1442.511169207</ele>
        <time>2016-08-11T16:16:15Z</time>
      </trkpt>
      <trkpt lat="45.62108" lon="6.1037">
        <ele>1441.037552283</ele>
        <time>2016-08-11T16:16:25Z</time>
      </trkpt>
      <trkpt lat="45.62106" lon="6.10371">
        <ele>1441.037552283</ele>
        <time>2016-08-11T16:16:30Z</time>
      </trkpt>
      <trkpt lat="45.62096" lon="6.10365">
        <ele>1439.470476773</ele>
        <time>2016-08-11T16:16:40Z</time>
      </trkpt>
      <trkpt lat="45.62097" lon="6.10358">
        <ele>1439.470476773</ele>
        <time>2016-08-11T16:16:45Z</time>
      </trkpt>
      <trkpt lat="45.6209" lon="6.10351">
        <ele>1437.247758594</ele>
        <time>2016-08-11T16:16:55Z</time>
      </trkpt>
      <trkpt lat="45.62093" lon="6.1034">
        <ele>1437.247758594</ele>
        <time>2016-08-11T16:17:00Z</time>
      </trkpt>
      <trkpt lat="45.62087" lon="6.1033">
        <ele>1433.850268382</ele>
        <time>2016-08-11T16:17:11Z</time>
      </trkpt>
      <trkpt lat="45.62085" lon="6.10328">
        <ele>1433.850268382</ele>
        <time>2016-08-11T16:17:15Z</time>
      </trkpt>
      <trkpt lat="45.62077" lon="6.10313">
        <ele>1430.385425026</ele>
        <time>2016-08-11T16:17:25Z</time>
      </trkpt>
      <trkpt lat="45.62074" lon="6.1031">
        <ele>1430.385425026</ele>
        <time>2016-08-11T16:17:30Z</time>
      </trkpt>
      <trkpt lat="45.62069" lon="6.10299">
        <ele>1426.726466532</ele>
        <time>2016-08-11T16:17:40Z</time>
      </trkpt>
      <trkpt lat="45.62065" lon="6.10298">
        <ele>1426.726466532</ele>
        <time>2016-08-11T16:17:45Z</time>
      </trkpt>
      <trkpt lat="45.62058" lon="6.10287">
        <ele>1423.765110167</ele>
        <time>2016-08-11T16:18:00Z</time>
      </trkpt>
      <trkpt lat="45.62052" lon="6.10264">
        <ele>1420.740208954</ele>
        <time>2016-08-11T16:18:15Z</time>
      </trkpt>
      <trkpt lat="45.62048" lon="6.1026">
        <ele>1420.740208954</ele>
        <time>2016-08-11T16:18:20Z</time>
      </trkpt>
      <trkpt lat="45.62043" lon="6.10248">
        <ele>1418.531731603</ele>
        <time>2016-08-11T16:18:30Z</time>
      </trkpt>
      <trkpt lat="45.62037" lon="6.10237">
        <ele>1416.367277723</ele>
        <time>2016-08-11T16:18:35Z</time>
      </trkpt>
      <trkpt lat="45.6203" lon="6.10232">
        <ele>1416.367277723</ele>
        <time>2016-08-11T16:18:46Z</time>
      </trkpt>
      <trkpt lat="45.6203" lon="6.10225">
        <ele>1413.242614718</ele>
        <time>2016-08-11T16:18:50Z</time>
      </trkpt>
      <trkpt lat="45.62028" lon="6.10208">
        <ele>1410.103182206</ele>
        <time>2016-08-11T16:19:01Z</time>
      </trkpt>
      <trkpt lat="45.62027" lon="6.10203">
        <ele>1410.103182206</ele>
        <time>2016-08-11T16:19:05Z</time>
      </trkpt>
      <trkpt lat="45.62026" lon="6.10195">
        <ele>1407.392430286</ele>
        <time>2016-08-11T16:19:15Z</time>
      </trkpt>
      <trkpt lat="45.62026" lon="6.10195">
        <ele>1407.392430286</ele>
        <time>2016-08-11T16:19:20Z</time>
      </trkpt>
      <trkpt lat="45.62023" lon="6.10181">
        <ele>1404.5109975</ele>
        <time>2016-08-11T16:19:30Z</time>
      </trkpt>
      <trkpt lat="45.62017" lon="6.10168">
        <ele>1402.344879193</ele>
        <time>2016-08-11T16:19:35Z</time>
      </trkpt>
      <trkpt lat="45.6201" lon="6.10149">
        <ele>1399.983378195</ele>
        <time>2016-08-11T16:19:45Z</time>
      </trkpt>
      <trkpt lat="45.62008" lon="6.10144">
        <ele>1399.983378195</ele>
        <time>2016-08-11T16:19:50Z</time>
      </trkpt>
      <trkpt lat="45.62001" lon="6.10118">
        <ele>1395.86241656</ele>
        <time>2016-08-11T16:20:05Z</time>
      </trkpt>
      <trkpt lat="45.61999" lon="6.10115">
        <ele>1395.86241656</ele>
        <time>2016-08-11T16:20:10Z</time>
      </trkpt>
      <trkpt lat="45.61991" lon="6.10096">
        <ele>1392.284361818</ele>
        <time>2016-08-11T16:20:20Z</time>
      </trkpt>
      <trkpt lat="45.61988" lon="6.1009">
        <ele>1392.284361818</ele>
        <time>2016-08-11T16:20:25Z</time>
      </trkpt>
      <trkpt lat="45.61987" lon="6.10086">
        <ele>1392.284361818</ele>
        <time>2016-08-11T16:20:35Z</time>
      </trkpt>
      <trkpt lat="45.61985" lon="6.1008">
        <ele>1388.930755867</ele>
        <time>2016-08-11T16:20:40Z</time>
      </trkpt>
      <trkpt lat="45.61986" lon="6.10071">
        <ele>1388.930755867</ele>
        <time>2016-08-11T16:20:51Z</time>
      </trkpt>
      <trkpt lat="45.61984" lon="6.10068">
        <ele>1388.930755867</ele>
        <time>2016-08-11T16:20:55Z</time>
      </trkpt>
      <trkpt lat="45.61981" lon="6.10054">
        <ele>1385.505615953</ele>
        <time>2016-08-11T16:21:06Z</time>
      </trkpt>
      <trkpt lat="45.61981" lon="6.10051">
        <ele>1385.505615953</ele>
        <time>2016-08-11T16:21:11Z</time>
      </trkpt>
      <trkpt lat="45.61977" lon="6.10038">
        <ele>1382.022830092</ele>
        <time>2016-08-11T16:21:21Z</time>
      </trkpt>
      <trkpt lat="45.61977" lon="6.10035">
        <ele>1382.022830092</ele>
        <time>2016-08-11T16:21:25Z</time>
      </trkpt>
      <trkpt lat="45.61975" lon="6.10023">
        <ele>1379.071574566</ele>
        <time>2016-08-11T16:21:36Z</time>
      </trkpt>
      <trkpt lat="45.61975" lon="6.10021">
        <ele>1379.071574566</ele>
        <time>2016-08-11T16:21:40Z</time>
      </trkpt>
      <trkpt lat="45.6197" lon="6.10004">
        <ele>1375.61073132</ele>
        <time>2016-08-11T16:21:51Z</time>
      </trkpt>
      <trkpt lat="45.61971" lon="6.09997">
        <ele>1375.61073132</ele>
        <time>2016-08-11T16:21:55Z</time>
      </trkpt>
      <trkpt lat="45.61969" lon="6.09986">
        <ele>1372.117902807</ele>
        <time>2016-08-11T16:22:00Z</time>
      </trkpt>
      <trkpt lat="45.61963" lon="6.09991">
        <ele>1372.117902807</ele>
        <time>2016-08-11T16:22:11Z</time>
      </trkpt>
      <trkpt lat="45.61962" lon="6.09991">
        <ele>1372.117902807</ele>
        <time>2016-08-11T16:22:16Z</time>
      </trkpt>
      <trkpt lat="45.61962" lon="6.09988">
        <ele>1372.117902807</ele>
        <time>2016-08-11T16:22:25Z</time>
      </trkpt>
      <trkpt lat="45.61962" lon="6.09988">
        <ele>1372.117902807</ele>
        <time>2016-08-11T16:22:30Z</time>
      </trkpt>
      <trkpt lat="45.61961" lon="6.09987">
        <ele>1368.458951339</ele>
        <time>2016-08-11T16:22:41Z</time>
      </trkpt>
      <trkpt lat="45.61957" lon="6.09981">
        <ele>1368.458951339</ele>
        <time>2016-08-11T16:22:46Z</time>
      </trkpt>
      <trkpt lat="45.61948" lon="6.09967">
        <ele>1364.653869189</ele>
        <time>2016-08-11T16:22:56Z</time>
      </trkpt>
      <trkpt lat="45.61947" lon="6.09961">
        <ele>1364.653869189</ele>
        <time>2016-08-11T16:23:01Z</time>
      </trkpt>
      <trkpt lat="45.6194" lon="6.09955">
        <ele>1360.577176922</ele>
        <time>2016-08-11T16:23:10Z</time>
      </trkpt>
      <trkpt lat="45.61941" lon="6.09945">
        <ele>1360.577176922</ele>
        <time>2016-08-11T16:23:16Z</time>
      </trkpt>
      <trkpt lat="45.61935" lon="6.09933">
        <ele>1356.113071169</ele>
        <time>2016-08-11T16:23:26Z</time>
      </trkpt>
      <trkpt lat="45.61934" lon="6.09936">
        <ele>1356.113071169</ele>
        <time>2016-08-11T16:23:31Z</time>
      </trkpt>
      <trkpt lat="45.61926" lon="6.09921">
        <ele>1352.307926938</ele>
        <time>2016-08-11T16:23:46Z</time>
      </trkpt>
      <trkpt lat="45.61926" lon="6.09919">
        <ele>1352.307926938</ele>
        <time>2016-08-11T16:23:50Z</time>
      </trkpt>
      <trkpt lat="45.61926" lon="6.09916">
        <ele>1352.307926938</ele>
        <time>2016-08-11T16:24:01Z</time>
      </trkpt>
      <trkpt lat="45.61926" lon="6.09917">
        <ele>1352.307926938</ele>
        <time>2016-08-11T16:24:06Z</time>
      </trkpt>
      <trkpt lat="45.61926" lon="6.09916">
        <ele>1352.307926938</ele>
        <time>2016-08-11T16:24:16Z</time>
      </trkpt>
      <trkpt lat="45.61926" lon="6.09916">
        <ele>1352.307926938</ele>
        <time>2016-08-11T16:24:20Z</time>
      </trkpt>
      <trkpt lat="45.61926" lon="6.09916">
        <ele>1352.307926938</ele>
        <time>2016-08-11T16:24:31Z</time>
      </trkpt>
      <trkpt lat="45.61925" lon="6.09916">
        <ele>1352.307926938</ele>
        <time>2016-08-11T16:24:35Z</time>
      </trkpt>
      <trkpt lat="45.61925" lon="6.09916">
        <ele>1352.307926938</ele>
        <time>2016-08-11T16:24:50Z</time>
      </trkpt>
      <trkpt lat="45.61925" lon="6.09916">
        <ele>1352.307926938</ele>
        <time>2016-08-11T16:24:55Z</time>
      </trkpt>
      <trkpt lat="45.61925" lon="6.09916">
        <ele>1352.307926938</ele>
        <time>2016-08-11T16:25:05Z</time>
      </trkpt>
      <trkpt lat="45.61925" lon="6.09916">
        <ele>1352.307926938</ele>
        <time>2016-08-11T16:25:10Z</time>
      </trkpt>
      <trkpt lat="45.61924" lon="6.09911">
        <ele>1352.307926938</ele>
        <time>2016-08-11T16:25:21Z</time>
      </trkpt>
      <trkpt lat="45.61924" lon="6.09909">
        <ele>1347.967430798</ele>
        <time>2016-08-11T16:25:26Z</time>
      </trkpt>
      <trkpt lat="45.61917" lon="6.09905">
        <ele>1347.967430798</ele>
        <time>2016-08-11T16:25:36Z</time>
      </trkpt>
      <trkpt lat="45.61917" lon="6.099">
        <ele>1344.003754311</ele>
        <time>2016-08-11T16:25:40Z</time>
      </trkpt>
      <trkpt lat="45.61915" lon="6.0989">
        <ele>1344.003754311</ele>
        <time>2016-08-11T16:25:51Z</time>
      </trkpt>
      <trkpt lat="45.61916" lon="6.09888">
        <ele>1344.003754311</ele>
        <time>2016-08-11T16:25:56Z</time>
      </trkpt>
      <trkpt lat="45.61912" lon="6.09873">
        <ele>1338.666694956</ele>
        <time>2016-08-11T16:26:06Z</time>
      </trkpt>
      <trkpt lat="45.61914" lon="6.09873">
        <ele>1338.666694956</ele>
        <time>2016-08-11T16:26:11Z</time>
      </trkpt>
      <trkpt lat="45.61915" lon="6.09874">
        <ele>1338.666694956</ele>
        <time>2016-08-11T16:26:21Z</time>
      </trkpt>
      <trkpt lat="45.61915" lon="6.09874">
        <ele>1338.666694956</ele>
        <time>2016-08-11T16:26:25Z</time>
      </trkpt>
      <trkpt lat="45.61912" lon="6.09875">
        <ele>1338.666694956</ele>
        <time>2016-08-11T16:26:36Z</time>
      </trkpt>
      <trkpt lat="45.61913" lon="6.09865">
        <ele>1332.932161838</ele>
        <time>2016-08-11T16:26:41Z</time>
      </trkpt>
      <trkpt lat="45.61909" lon="6.09853">
        <ele>1327.128728879</ele>
        <time>2016-08-11T16:26:56Z</time>
      </trkpt>
      <trkpt lat="45.61905" lon="6.09842">
        <ele>1327.128728879</ele>
        <time>2016-08-11T16:27:06Z</time>
      </trkpt>
      <trkpt lat="45.61903" lon="6.0984">
        <ele>1322.137149995</ele>
        <time>2016-08-11T16:27:10Z</time>
      </trkpt>
      <trkpt lat="45.61903" lon="6.09831">
        <ele>1322.137149995</ele>
        <time>2016-08-11T16:27:15Z</time>
      </trkpt>
      <trkpt lat="45.61901" lon="6.09806">
        <ele>1317.329763886</ele>
        <time>2016-08-11T16:27:26Z</time>
      </trkpt>
      <trkpt lat="45.61901" lon="6.09802">
        <ele>1317.329763886</ele>
        <time>2016-08-11T16:27:30Z</time>
      </trkpt>
      <trkpt lat="45.61904" lon="6.09794">
        <ele>1312.700616085</ele>
        <time>2016-08-11T16:27:41Z</time>
      </trkpt>
      <trkpt lat="45.61904" lon="6.09788">
        <ele>1312.700616085</ele>
        <time>2016-08-11T16:27:46Z</time>
      </trkpt>
      <trkpt lat="45.61901" lon="6.09776">
        <ele>1308.675696305</ele>
        <time>2016-08-11T16:27:55Z</time>
      </trkpt>
      <trkpt lat="45.619" lon="6.09773">
        <ele>1308.675696305</ele>
        <time>2016-08-11T16:28:00Z</time>
      </trkpt>
      <trkpt lat="45.61897" lon="6.0976">
        <ele>1305.647686778</ele>
        <time>2016-08-11T16:28:11Z</time>
      </trkpt>
      <trkpt lat="45.61897" lon="6.09751">
        <ele>1305.647686778</ele>
        <time>2016-08-11T16:28:16Z</time>
      </trkpt>
      <trkpt lat="45.61891" lon="6.09737">
        <ele>1302.824429274</ele>
        <time>2016-08-11T16:28:26Z</time>
      </trkpt>
      <trkpt lat="45.61891" lon="6.0973">
        <ele>1302.824429274</ele>
        <time>2016-08-11T16:28:30Z</time>
      </trkpt>
      <trkpt lat="45.61885" lon="6.09712">
        <ele>1300.191645564</ele>
        <time>2016-08-11T16:28:40Z</time>
      </trkpt>
      <trkpt lat="45.61884" lon="6.09697">
        <ele>1298.167632167</ele>
        <time>2016-08-11T16:28:45Z</time>
      </trkpt>
      <trkpt lat="45.61878" lon="6.0968">
        <ele>1296.273331876</ele>
        <time>2016-08-11T16:28:56Z</time>
      </trkpt>
      <trkpt lat="45.61873" lon="6.09677">
        <ele>1296.273331876</ele>
        <time>2016-08-11T16:29:00Z</time>
      </trkpt>
      <trkpt lat="45.61869" lon="6.0967">
        <ele>1293.920175086</ele>
        <time>2016-08-11T16:29:10Z</time>
      </trkpt>
      <trkpt lat="45.61868" lon="6.09664">
        <ele>1293.920175086</ele>
        <time>2016-08-11T16:29:15Z</time>
      </trkpt>
      <trkpt lat="45.61861" lon="6.0965">
        <ele>1292.005021822</ele>
        <time>2016-08-11T16:29:26Z</time>
      </trkpt>
      <trkpt lat="45.61855" lon="6.09644">
        <ele>1292.005021822</ele>
        <time>2016-08-11T16:29:31Z</time>
      </trkpt>
      <trkpt lat="45.61852" lon="6.09631">
        <ele>1290.204549147</ele>
        <time>2016-08-11T16:29:41Z</time>
      </trkpt>
      <trkpt lat="45.61849" lon="6.09622">
        <ele>1290.204549147</ele>
        <time>2016-08-11T16:29:46Z</time>
      </trkpt>
      <trkpt lat="45.61843" lon="6.09593">
        <ele>1287.354034848</ele>
        <time>2016-08-11T16:30:00Z</time>
      </trkpt>
      <trkpt lat="45.61842" lon="6.09586">
        <ele>1287.354034848</ele>
        <time>2016-08-11T16:30:05Z</time>
      </trkpt>
      <trkpt lat="45.61838" lon="6.09571">
        <ele>1284.971120768</ele>
        <time>2016-08-11T16:30:15Z</time>
      </trkpt>
      <trkpt lat="45.61842" lon="6.09571">
        <ele>1284.971120768</ele>
        <time>2016-08-11T16:30:20Z</time>
      </trkpt>
      <trkpt lat="45.61842" lon="6.09566">
        <ele>1284.971120768</ele>
        <time>2016-08-11T16:30:30Z</time>
      </trkpt>
      <trkpt lat="45.6184" lon="6.09566">
        <ele>1284.971120768</ele>
        <time>2016-08-11T16:30:36Z</time>
      </trkpt>
      <trkpt lat="45.6184" lon="6.09566">
        <ele>1284.971120768</ele>
        <time>2016-08-11T16:30:45Z</time>
      </trkpt>
      <trkpt lat="45.6184" lon="6.09566">
        <ele>1284.971120768</ele>
        <time>2016-08-11T16:30:50Z</time>
      </trkpt>
      <trkpt lat="45.6184" lon="6.09566">
        <ele>1284.971120768</ele>
        <time>2016-08-11T16:30:55Z</time>
      </trkpt>
      <trkpt lat="45.6184" lon="6.09566">
        <ele>1284.971120768</ele>
        <time>2016-08-11T16:31:01Z</time>
      </trkpt>
      <trkpt lat="45.61845" lon="6.09561">
        <ele>1283.163527479</ele>
        <time>2016-08-11T16:31:11Z</time>
      </trkpt>
      <trkpt lat="45.61854" lon="6.09552">
        <ele>1281.164674512</ele>
        <time>2016-08-11T16:31:15Z</time>
      </trkpt>
      <trkpt lat="45.61843" lon="6.09547">
        <ele>1279.129406807</ele>
        <time>2016-08-11T16:31:25Z</time>
      </trkpt>
      <trkpt lat="45.61842" lon="6.0954">
        <ele>1279.129406807</ele>
        <time>2016-08-11T16:31:31Z</time>
      </trkpt>
      <trkpt lat="45.61835" lon="6.09535">
        <ele>1277.201222842</ele>
        <time>2016-08-11T16:31:41Z</time>
      </trkpt>
      <trkpt lat="45.61834" lon="6.09534">
        <ele>1277.201222842</ele>
        <time>2016-08-11T16:31:45Z</time>
      </trkpt>
      <trkpt lat="45.61834" lon="6.09532">
        <ele>1277.201222842</ele>
        <time>2016-08-11T16:31:56Z</time>
      </trkpt>
      <trkpt lat="45.61827" lon="6.09532">
        <ele>1275.368610869</ele>
        <time>2016-08-11T16:32:00Z</time>
      </trkpt>
      <trkpt lat="45.6182" lon="6.09527">
        <ele>1275.368610869</ele>
        <time>2016-08-11T16:32:10Z</time>
      </trkpt>
      <trkpt lat="45.61811" lon="6.09525">
        <ele>1274.197040542</ele>
        <time>2016-08-11T16:32:16Z</time>
      </trkpt>
      <trkpt lat="45.61803" lon="6.09524">
        <ele>1274.197040542</ele>
        <time>2016-08-11T16:32:26Z</time>
      </trkpt>
      <trkpt lat="45.61801" lon="6.09524">
        <ele>1272.623340342</ele>
        <time>2016-08-11T16:32:31Z</time>
      </trkpt>
      <trkpt lat="45.61793" lon="6.09522">
        <ele>1272.623340342</ele>
        <time>2016-08-11T16:32:40Z</time>
      </trkpt>
      <trkpt lat="45.61791" lon="6.09522">
        <ele>1271.537003918</ele>
        <time>2016-08-11T16:32:48Z</time>
      </trkpt>
      <trkpt lat="45.61788" lon="6.09523">
        <ele>1271.537003918</ele>
        <time>2016-08-11T16:32:56Z</time>
      </trkpt>
      <trkpt lat="45.61788" lon="6.09523">
        <ele>1271.537003918</ele>
        <time>2016-08-11T16:33:01Z</time>
      </trkpt>
      <trkpt lat="45.61786" lon="6.09522">
        <ele>1271.537003918</ele>
        <time>2016-08-11T16:33:11Z</time>
      </trkpt>
      <trkpt lat="45.61785" lon="6.0952">
        <ele>1271.537003918</ele>
        <time>2016-08-11T16:33:18Z</time>
      </trkpt>
      <trkpt lat="45.61773" lon="6.09521">
        <ele>1270.319712935</ele>
        <time>2016-08-11T16:33:30Z</time>
      </trkpt>
      <trkpt lat="45.61771" lon="6.09523">
        <ele>1270.319712935</ele>
        <time>2016-08-11T16:33:35Z</time>
      </trkpt>
      <trkpt lat="45.61769" lon="6.09531">
        <ele>1270.319712935</ele>
        <time>2016-08-11T16:33:45Z</time>
      </trkpt>
      <trkpt lat="45.61767" lon="6.09531">
        <ele>1268.543072707</ele>
        <time>2016-08-11T16:33:50Z</time>
      </trkpt>
      <trkpt lat="45.6176" lon="6.09525">
        <ele>1268.543072707</ele>
        <time>2016-08-11T16:34:06Z</time>
      </trkpt>
      <trkpt lat="45.61756" lon="6.09524">
        <ele>1265.379428648</ele>
        <time>2016-08-11T16:34:20Z</time>
      </trkpt>
      <trkpt lat="45.61755" lon="6.09525">
        <ele>1265.379428648</ele>
        <time>2016-08-11T16:34:25Z</time>
      </trkpt>
      <trkpt lat="45.61754" lon="6.09524">
        <ele>1265.379428648</ele>
        <time>2016-08-11T16:34:35Z</time>
      </trkpt>
      <trkpt lat="45.61754" lon="6.09523">
        <ele>1265.379428648</ele>
        <time>2016-08-11T16:34:41Z</time>
      </trkpt>
      <trkpt lat="45.61754" lon="6.09523">
        <ele>1265.379428648</ele>
        <time>2016-08-11T16:34:51Z</time>
      </trkpt>
      <trkpt lat="45.61748" lon="6.09527">
        <ele>1262.227525959</ele>
        <time>2016-08-11T16:34:56Z</time>
      </trkpt>
      <trkpt lat="45.6174" lon="6.09534">
        <ele>1258.798147563</ele>
        <time>2016-08-11T16:35:05Z</time>
      </trkpt>
      <trkpt lat="45.61738" lon="6.09538">
        <ele>1258.798147563</ele>
        <time>2016-08-11T16:35:10Z</time>
      </trkpt>
      <trkpt lat="45.61736" lon="6.09545">
        <ele>1258.798147563</ele>
        <time>2016-08-11T16:35:25Z</time>
      </trkpt>
      <trkpt lat="45.61737" lon="6.09545">
        <ele>1255.25647629</ele>
        <time>2016-08-11T16:35:30Z</time>
      </trkpt>
      <trkpt lat="45.61737" lon="6.09545">
        <ele>1255.25647629</ele>
        <time>2016-08-11T16:35:41Z</time>
      </trkpt>
      <trkpt lat="45.61737" lon="6.09545">
        <ele>1255.25647629</ele>
        <time>2016-08-11T16:35:45Z</time>
      </trkpt>
      <trkpt lat="45.61735" lon="6.09543">
        <ele>1255.25647629</ele>
        <time>2016-08-11T16:36:01Z</time>
      </trkpt>
      <trkpt lat="45.61731" lon="6.09532">
        <ele>1252.188247624</ele>
        <time>2016-08-11T16:36:05Z</time>
      </trkpt>
      <trkpt lat="45.61723" lon="6.09518">
        <ele>1249.126097473</ele>
        <time>2016-08-11T16:36:16Z</time>
      </trkpt>
      <trkpt lat="45.61715" lon="6.09514">
        <ele>1249.126097473</ele>
        <time>2016-08-11T16:36:20Z</time>
      </trkpt>
      <trkpt lat="45.61701" lon="6.09514">
        <ele>1245.63700747</ele>
        <time>2016-08-11T16:36:31Z</time>
      </trkpt>
      <trkpt lat="45.61696" lon="6.09516">
        <ele>1245.63700747</ele>
        <time>2016-08-11T16:36:36Z</time>
      </trkpt>
      <trkpt lat="45.61687" lon="6.09512">
        <ele>1241.897437357</ele>
        <time>2016-08-11T16:36:46Z</time>
      </trkpt>
      <trkpt lat="45.61684" lon="6.09509">
        <ele>1241.897437357</ele>
        <time>2016-08-11T16:36:50Z</time>
      </trkpt>
      <trkpt lat="45.61672" lon="6.09503">
        <ele>1238.503943136</ele>
        <time>2016-08-11T16:37:00Z</time>
      </trkpt>
      <trkpt lat="45.61668" lon="6.095">
        <ele>1238.503943136</ele>
        <time>2016-08-11T16:37:06Z</time>
      </trkpt>
      <trkpt lat="45.61661" lon="6.09499">
        <ele>1234.999527253</ele>
        <time>2016-08-11T16:37:15Z</time>
      </trkpt>
      <trkpt lat="45.61656" lon="6.09497">
        <ele>1234.999527253</ele>
        <time>2016-08-11T16:37:21Z</time>
      </trkpt>
      <trkpt lat="45.61647" lon="6.0949">
        <ele>1231.681643515</ele>
        <time>2016-08-11T16:37:36Z</time>
      </trkpt>
      <trkpt lat="45.61644" lon="6.09486">
        <ele>1231.681643515</ele>
        <time>2016-08-11T16:37:40Z</time>
      </trkpt>
      <trkpt lat="45.6164" lon="6.09478">
        <ele>1227.816602306</ele>
        <time>2016-08-11T16:37:51Z</time>
      </trkpt>
      <trkpt lat="45.6163" lon="6.09471">
        <ele>1223.590815979</ele>
        <time>2016-08-11T16:38:06Z</time>
      </trkpt>
      <trkpt lat="45.61625" lon="6.09469">
        <ele>1223.590815979</ele>
        <time>2016-08-11T16:38:10Z</time>
      </trkpt>
      <trkpt lat="45.6162" lon="6.0946">
        <ele>1219.898569339</ele>
        <time>2016-08-11T16:38:20Z</time>
      </trkpt>
      <trkpt lat="45.6162" lon="6.09454">
        <ele>1219.898569339</ele>
        <time>2016-08-11T16:38:25Z</time>
      </trkpt>
      <trkpt lat="45.61617" lon="6.09451">
        <ele>1219.898569339</ele>
        <time>2016-08-11T16:38:35Z</time>
      </trkpt>
      <trkpt lat="45.61616" lon="6.09445">
        <ele>1215.693503415</ele>
        <time>2016-08-11T16:38:40Z</time>
      </trkpt>
      <trkpt lat="45.61617" lon="6.0944">
        <ele>1215.693503415</ele>
        <time>2016-08-11T16:38:50Z</time>
      </trkpt>
      <trkpt lat="45.61618" lon="6.09438">
        <ele>1215.693503415</ele>
        <time>2016-08-11T16:38:55Z</time>
      </trkpt>
      <trkpt lat="45.61623" lon="6.09424">
        <ele>1210.872213315</ele>
        <time>2016-08-11T16:39:06Z</time>
      </trkpt>
      <trkpt lat="45.61625" lon="6.0942">
        <ele>1210.872213315</ele>
        <time>2016-08-11T16:39:10Z</time>
      </trkpt>
      <trkpt lat="45.61628" lon="6.09407">
        <ele>1207.0699294</ele>
        <time>2016-08-11T16:39:20Z</time>
      </trkpt>
      <trkpt lat="45.61631" lon="6.09401">
        <ele>1207.0699294</ele>
        <time>2016-08-11T16:39:26Z</time>
      </trkpt>
      <trkpt lat="45.61634" lon="6.09394">
        <ele>1202.051977753</ele>
        <time>2016-08-11T16:39:35Z</time>
      </trkpt>
      <trkpt lat="45.6163" lon="6.0939">
        <ele>1202.051977753</ele>
        <time>2016-08-11T16:39:40Z</time>
      </trkpt>
      <trkpt lat="45.61622" lon="6.09389">
        <ele>1197.642213427</ele>
        <time>2016-08-11T16:39:51Z</time>
      </trkpt>
      <trkpt lat="45.61619" lon="6.0939">
        <ele>1197.642213427</ele>
        <time>2016-08-11T16:39:55Z</time>
      </trkpt>
      <trkpt lat="45.61615" lon="6.09394">
        <ele>1197.642213427</ele>
        <time>2016-08-11T16:40:11Z</time>
      </trkpt>
      <trkpt lat="45.61611" lon="6.094">
        <ele>1193.078867111</ele>
        <time>2016-08-11T16:40:15Z</time>
      </trkpt>
      <trkpt lat="45.61602" lon="6.09406">
        <ele>1189.241726894</ele>
        <time>2016-08-11T16:40:26Z</time>
      </trkpt>
      <trkpt lat="45.61598" lon="6.09409">
        <ele>1189.241726894</ele>
        <time>2016-08-11T16:40:31Z</time>
      </trkpt>
      <trkpt lat="45.6159" lon="6.09418">
        <ele>1184.782185476</ele>
        <time>2016-08-11T16:40:41Z</time>
      </trkpt>
      <trkpt lat="45.61587" lon="6.0942">
        <ele>1184.782185476</ele>
        <time>2016-08-11T16:40:45Z</time>
      </trkpt>
      <trkpt lat="45.61579" lon="6.09422">
        <ele>1179.893493759</ele>
        <time>2016-08-11T16:40:55Z</time>
      </trkpt>
      <trkpt lat="45.61573" lon="6.09424">
        <ele>1179.893493759</ele>
        <time>2016-08-11T16:41:00Z</time>
      </trkpt>
      <trkpt lat="45.61567" lon="6.09427">
        <ele>1174.467614362</ele>
        <time>2016-08-11T16:41:11Z</time>
      </trkpt>
      <trkpt lat="45.61564" lon="6.09425">
        <ele>1174.467614362</ele>
        <time>2016-08-11T16:41:15Z</time>
      </trkpt>
      <trkpt lat="45.61554" lon="6.09426">
        <ele>1168.694093707</ele>
        <time>2016-08-11T16:41:26Z</time>
      </trkpt>
      <trkpt lat="45.6155" lon="6.09428">
        <ele>1168.694093707</ele>
        <time>2016-08-11T16:41:30Z</time>
      </trkpt>
      <trkpt lat="45.61544" lon="6.09421">
        <ele>1162.89354822</ele>
        <time>2016-08-11T16:41:40Z</time>
      </trkpt>
      <trkpt lat="45.61544" lon="6.09416">
        <ele>1162.89354822</ele>
        <time>2016-08-11T16:41:46Z</time>
      </trkpt>
      <trkpt lat="45.6155" lon="6.09394">
        <ele>1157.074791156</ele>
        <time>2016-08-11T16:42:01Z</time>
      </trkpt>
      <trkpt lat="45.61545" lon="6.09395">
        <ele>1157.074791156</ele>
        <time>2016-08-11T16:42:05Z</time>
      </trkpt>
      <trkpt lat="45.61539" lon="6.09397">
        <ele>1151.534145711</ele>
        <time>2016-08-11T16:42:16Z</time>
      </trkpt>
      <trkpt lat="45.6154" lon="6.09389">
        <ele>1151.534145711</ele>
        <time>2016-08-11T16:42:20Z</time>
      </trkpt>
      <trkpt lat="45.61542" lon="6.09374">
        <ele>1146.689372812</ele>
        <time>2016-08-11T16:42:31Z</time>
      </trkpt>
      <trkpt lat="45.6154" lon="6.09373">
        <ele>1146.689372812</ele>
        <time>2016-08-11T16:42:35Z</time>
      </trkpt>
      <trkpt lat="45.61544" lon="6.09374">
        <ele>1146.689372812</ele>
        <time>2016-08-11T16:42:46Z</time>
      </trkpt>
      <trkpt lat="45.61549" lon="6.09371">
        <ele>1142.204905145</ele>
        <time>2016-08-11T16:42:50Z</time>
      </trkpt>
      <trkpt lat="45.61566" lon="6.09357">
        <ele>1137.912791932</ele>
        <time>2016-08-11T16:43:01Z</time>
      </trkpt>
      <trkpt lat="45.61569" lon="6.09352">
        <ele>1137.912791932</ele>
        <time>2016-08-11T16:43:05Z</time>
      </trkpt>
      <trkpt lat="45.61575" lon="6.09343">
        <ele>1133.36852387</ele>
        <time>2016-08-11T16:43:16Z</time>
      </trkpt>
      <trkpt lat="45.61575" lon="6.09339">
        <ele>1133.36852387</ele>
        <time>2016-08-11T16:43:20Z</time>
      </trkpt>
      <trkpt lat="45.61575" lon="6.09342">
        <ele>1133.36852387</ele>
        <time>2016-08-11T16:43:30Z</time>
      </trkpt>
      <trkpt lat="45.61575" lon="6.09342">
        <ele>1133.36852387</ele>
        <time>2016-08-11T16:43:36Z</time>
      </trkpt>
      <trkpt lat="45.61578" lon="6.09341">
        <ele>1133.36852387</ele>
        <time>2016-08-11T16:43:46Z</time>
      </trkpt>
      <trkpt lat="45.61578" lon="6.09337">
        <ele>1128.737265191</ele>
        <time>2016-08-11T16:43:50Z</time>
      </trkpt>
      <trkpt lat="45.61585" lon="6.09331">
        <ele>1128.737265191</ele>
        <time>2016-08-11T16:44:01Z</time>
      </trkpt>
      <trkpt lat="45.61586" lon="6.09329">
        <ele>1125.180942153</ele>
        <time>2016-08-11T16:44:05Z</time>
      </trkpt>
      <trkpt lat="45.61588" lon="6.09327">
        <ele>1125.180942153</ele>
        <time>2016-08-11T16:44:16Z</time>
      </trkpt>
      <trkpt lat="45.61593" lon="6.09325">
        <ele>1125.180942153</ele>
        <time>2016-08-11T16:44:20Z</time>
      </trkpt>
      <trkpt lat="45.61614" lon="6.09319">
        <ele>1120.170207729</ele>
        <time>2016-08-11T16:44:36Z</time>
      </trkpt>
      <trkpt lat="45.61626" lon="6.09318">
        <ele>1115.112368341</ele>
        <time>2016-08-11T16:44:41Z</time>
      </trkpt>
      <trkpt lat="45.61637" lon="6.09301">
        <ele>1111.167254175</ele>
        <time>2016-08-11T16:44:51Z</time>
      </trkpt>
      <trkpt lat="45.6164" lon="6.09296">
        <ele>1111.167254175</ele>
        <time>2016-08-11T16:44:56Z</time>
      </trkpt>
      <trkpt lat="45.61643" lon="6.09285">
        <ele>1107.532815489</ele>
        <time>2016-08-11T16:45:06Z</time>
      </trkpt>
      <trkpt lat="45.61642" lon="6.09278">
        <ele>1107.532815489</ele>
        <time>2016-08-11T16:45:11Z</time>
      </trkpt>
      <trkpt lat="45.61644" lon="6.09267">
        <ele>1103.753163535</ele>
        <time>2016-08-11T16:45:21Z</time>
      </trkpt>
      <trkpt lat="45.61647" lon="6.09261">
        <ele>1103.753163535</ele>
        <time>2016-08-11T16:45:25Z</time>
      </trkpt>
      <trkpt lat="45.61652" lon="6.09252">
        <ele>1100.27087331</ele>
        <time>2016-08-11T16:45:36Z</time>
      </trkpt>
      <trkpt lat="45.61655" lon="6.09248">
        <ele>1100.27087331</ele>
        <time>2016-08-11T16:45:41Z</time>
      </trkpt>
      <trkpt lat="45.61662" lon="6.09238">
        <ele>1097.206862672</ele>
        <time>2016-08-11T16:45:50Z</time>
      </trkpt>
      <trkpt lat="45.6167" lon="6.0923">
        <ele>1094.527805086</ele>
        <time>2016-08-11T16:45:55Z</time>
      </trkpt>
      <trkpt lat="45.61675" lon="6.09218">
        <ele>1091.769344494</ele>
        <time>2016-08-11T16:46:05Z</time>
      </trkpt>
      <trkpt lat="45.6168" lon="6.09217">
        <ele>1091.769344494</ele>
        <time>2016-08-11T16:46:11Z</time>
      </trkpt>
      <trkpt lat="45.6169" lon="6.09225">
        <ele>1089.221964969</ele>
        <time>2016-08-11T16:46:21Z</time>
      </trkpt>
      <trkpt lat="45.61696" lon="6.09222">
        <ele>1089.221964969</ele>
        <time>2016-08-11T16:46:25Z</time>
      </trkpt>
      <trkpt lat="45.61706" lon="6.09221">
        <ele>1087.154185706</ele>
        <time>2016-08-11T16:46:36Z</time>
      </trkpt>
      <trkpt lat="45.61716" lon="6.09211">
        <ele>1085.525215872</ele>
        <time>2016-08-11T16:46:40Z</time>
      </trkpt>
      <trkpt lat="45.61723" lon="6.09207">
        <ele>1085.525215872</ele>
        <time>2016-08-11T16:46:50Z</time>
      </trkpt>
      <trkpt lat="45.61731" lon="6.09202">
        <ele>1083.287251459</ele>
        <time>2016-08-11T16:46:56Z</time>
      </trkpt>
      <trkpt lat="45.61736" lon="6.09195">
        <ele>1083.287251459</ele>
        <time>2016-08-11T16:47:10Z</time>
      </trkpt>
      <trkpt lat="45.61738" lon="6.09194">
        <ele>1081.200518293</ele>
        <time>2016-08-11T16:47:16Z</time>
      </trkpt>
      <trkpt lat="45.61742" lon="6.09189">
        <ele>1081.200518293</ele>
        <time>2016-08-11T16:47:26Z</time>
      </trkpt>
      <trkpt lat="45.6175" lon="6.09186">
        <ele>1078.672003299</ele>
        <time>2016-08-11T16:47:30Z</time>
      </trkpt>
      <trkpt lat="45.61759" lon="6.09179">
        <ele>1075.585872312</ele>
        <time>2016-08-11T16:47:41Z</time>
      </trkpt>
      <trkpt lat="45.61763" lon="6.09172">
        <ele>1075.585872312</ele>
        <time>2016-08-11T16:47:46Z</time>
      </trkpt>
      <trkpt lat="45.61773" lon="6.09164">
        <ele>1072.701084458</ele>
        <time>2016-08-11T16:47:56Z</time>
      </trkpt>
      <trkpt lat="45.61777" lon="6.0916">
        <ele>1072.701084458</ele>
        <time>2016-08-11T16:48:00Z</time>
      </trkpt>
      <trkpt lat="45.61784" lon="6.09144">
        <ele>1069.567451282</ele>
        <time>2016-08-11T16:48:11Z</time>
      </trkpt>
      <trkpt lat="45.61785" lon="6.09135">
        <ele>1069.567451282</ele>
        <time>2016-08-11T16:48:18Z</time>
      </trkpt>
      <trkpt lat="45.61796" lon="6.09119">
        <ele>1067.353840762</ele>
        <time>2016-08-11T16:48:26Z</time>
      </trkpt>
      <trkpt lat="45.61803" lon="6.0911">
        <ele>1067.353840762</ele>
        <time>2016-08-11T16:48:31Z</time>
      </trkpt>
      <trkpt lat="45.61808" lon="6.09096">
        <ele>1064.979078157</ele>
        <time>2016-08-11T16:48:40Z</time>
      </trkpt>
      <trkpt lat="45.6181" lon="6.09092">
        <ele>1064.979078157</ele>
        <time>2016-08-11T16:48:45Z</time>
      </trkpt>
      <trkpt lat="45.61816" lon="6.09078">
        <ele>1061.586048707</ele>
        <time>2016-08-11T16:48:56Z</time>
      </trkpt>
      <trkpt lat="45.6182" lon="6.09073">
        <ele>1061.586048707</ele>
        <time>2016-08-11T16:49:01Z</time>
      </trkpt>
      <trkpt lat="45.61819" lon="6.09064">
        <ele>1057.824646093</ele>
        <time>2016-08-11T16:49:10Z</time>
      </trkpt>
      <trkpt lat="45.61818" lon="6.09055">
        <ele>1057.824646093</ele>
        <time>2016-08-11T16:49:16Z</time>
      </trkpt>
      <trkpt lat="45.61811" lon="6.09029">
        <ele>1053.577577713</ele>
        <time>2016-08-11T16:49:31Z</time>
      </trkpt>
      <trkpt lat="45.61812" lon="6.09023">
        <ele>1053.577577713</ele>
        <time>2016-08-11T16:49:36Z</time>
      </trkpt>
      <trkpt lat="45.61814" lon="6.09005">
        <ele>1049.458158645</ele>
        <time>2016-08-11T16:49:46Z</time>
      </trkpt>
      <trkpt lat="45.61811" lon="6.08998">
        <ele>1049.458158645</ele>
        <time>2016-08-11T16:49:51Z</time>
      </trkpt>
      <trkpt lat="45.61811" lon="6.08985">
        <ele>1045.602025564</ele>
        <time>2016-08-11T16:50:00Z</time>
      </trkpt>
      <trkpt lat="45.61806" lon="6.08984">
        <ele>1045.602025564</ele>
        <time>2016-08-11T16:50:05Z</time>
      </trkpt>
      <trkpt lat="45.61805" lon="6.0898">
        <ele>1045.602025564</ele>
        <time>2016-08-11T16:50:16Z</time>
      </trkpt>
      <trkpt lat="45.61805" lon="6.0898">
        <ele>1045.602025564</ele>
        <time>2016-08-11T16:50:21Z</time>
      </trkpt>
      <trkpt lat="45.61805" lon="6.08978">
        <ele>1041.990062177</ele>
        <time>2016-08-11T16:50:30Z</time>
      </trkpt>
      <trkpt lat="45.61804" lon="6.08977">
        <ele>1041.990062177</ele>
        <time>2016-08-11T16:50:36Z</time>
      </trkpt>
      <trkpt lat="45.61804" lon="6.08976">
        <ele>1041.990062177</ele>
        <time>2016-08-11T16:50:45Z</time>
      </trkpt>
      <trkpt lat="45.61804" lon="6.08976">
        <ele>1041.990062177</ele>
        <time>2016-08-11T16:50:50Z</time>
      </trkpt>
      <trkpt lat="45.61784" lon="6.08965">
        <ele>1037.595146952</ele>
        <time>2016-08-11T16:51:10Z</time>
      </trkpt>
      <trkpt lat="45.61788" lon="6.08957">
        <ele>1037.595146952</ele>
        <time>2016-08-11T16:51:15Z</time>
      </trkpt>
      <trkpt lat="45.61786" lon="6.08945">
        <ele>1033.341299095</ele>
        <time>2016-08-11T16:51:25Z</time>
      </trkpt>
      <trkpt lat="45.61781" lon="6.08943">
        <ele>1033.341299095</ele>
        <time>2016-08-11T16:51:30Z</time>
      </trkpt>
      <trkpt lat="45.61772" lon="6.08942">
        <ele>1029.075526957</ele>
        <time>2016-08-11T16:51:40Z</time>
      </trkpt>
      <trkpt lat="45.61776" lon="6.08934">
        <ele>1029.075526957</ele>
        <time>2016-08-11T16:51:45Z</time>
      </trkpt>
      <trkpt lat="45.61768" lon="6.08927">
        <ele>1024.656144645</ele>
        <time>2016-08-11T16:51:55Z</time>
      </trkpt>
      <trkpt lat="45.61768" lon="6.08925">
        <ele>1024.656144645</ele>
        <time>2016-08-11T16:52:00Z</time>
      </trkpt>
      <trkpt lat="45.61759" lon="6.08916">
        <ele>1021.105221948</ele>
        <time>2016-08-11T16:52:11Z</time>
      </trkpt>
      <trkpt lat="45.61757" lon="6.08915">
        <ele>1021.105221948</ele>
        <time>2016-08-11T16:52:15Z</time>
      </trkpt>
      <trkpt lat="45.6175" lon="6.08913">
        <ele>1017.349777349</ele>
        <time>2016-08-11T16:52:25Z</time>
      </trkpt>
      <trkpt lat="45.61746" lon="6.08913">
        <ele>1017.349777349</ele>
        <time>2016-08-11T16:52:30Z</time>
      </trkpt>
      <trkpt lat="45.61744" lon="6.08919">
        <ele>1017.349777349</ele>
        <time>2016-08-11T16:52:40Z</time>
      </trkpt>
      <trkpt lat="45.61744" lon="6.08919">
        <ele>1017.349777349</ele>
        <time>2016-08-11T16:52:45Z</time>
      </trkpt>
      <trkpt lat="45.61744" lon="6.08915">
        <ele>1012.828574021</ele>
        <time>2016-08-11T16:52:55Z</time>
      </trkpt>
      <trkpt lat="45.61744" lon="6.08912">
        <ele>1012.828574021</ele>
        <time>2016-08-11T16:53:00Z</time>
      </trkpt>
      <trkpt lat="45.61742" lon="6.08897">
        <ele>1008.320764121</ele>
        <time>2016-08-11T16:53:10Z</time>
      </trkpt>
      <trkpt lat="45.61743" lon="6.08891">
        <ele>1008.320764121</ele>
        <time>2016-08-11T16:53:15Z</time>
      </trkpt>
      <trkpt lat="45.61738" lon="6.08879">
        <ele>1003.395343163</ele>
        <time>2016-08-11T16:53:31Z</time>
      </trkpt>
      <trkpt lat="45.61734" lon="6.08881">
        <ele>1003.395343163</ele>
        <time>2016-08-11T16:53:35Z</time>
      </trkpt>
      <trkpt lat="45.6173" lon="6.08881">
        <ele>1003.395343163</ele>
        <time>2016-08-11T16:53:45Z</time>
      </trkpt>
      <trkpt lat="45.61731" lon="6.08879">
        <ele>999.239362234</ele>
        <time>2016-08-11T16:53:50Z</time>
      </trkpt>
      <trkpt lat="45.61731" lon="6.08882">
        <ele>999.239362234</ele>
        <time>2016-08-11T16:53:55Z</time>
      </trkpt>
      <trkpt lat="45.61731" lon="6.08882">
        <ele>999.239362234</ele>
        <time>2016-08-11T16:54:00Z</time>
      </trkpt>
      <trkpt lat="45.61731" lon="6.08879">
        <ele>999.239362234</ele>
        <time>2016-08-11T16:54:05Z</time>
      </trkpt>
      <trkpt lat="45.61725" lon="6.08873">
        <ele>995.22117318</ele>
        <time>2016-08-11T16:54:20Z</time>
      </trkpt>
      <trkpt lat="45.61725" lon="6.08872">
        <ele>995.22117318</ele>
        <time>2016-08-11T16:54:25Z</time>
      </trkpt>
      <trkpt lat="45.61725" lon="6.08872">
        <ele>995.22117318</ele>
        <time>2016-08-11T16:54:35Z</time>
      </trkpt>
      <trkpt lat="45.61725" lon="6.08872">
        <ele>995.22117318</ele>
        <time>2016-08-11T16:54:40Z</time>
      </trkpt>
      <trkpt lat="45.61725" lon="6.08872">
        <ele>995.22117318</ele>
        <time>2016-08-11T16:54:50Z</time>
      </trkpt>
      <trkpt lat="45.61725" lon="6.08872">
        <ele>995.22117318</ele>
        <time>2016-08-11T16:54:55Z</time>
      </trkpt>
      <trkpt lat="45.61725" lon="6.08872">
        <ele>995.22117318</ele>
        <time>2016-08-11T16:55:05Z</time>
      </trkpt>
      <trkpt lat="45.61725" lon="6.08872">
        <ele>995.22117318</ele>
        <time>2016-08-11T16:55:10Z</time>
      </trkpt>
      <trkpt lat="45.61725" lon="6.08872">
        <ele>995.22117318</ele>
        <time>2016-08-11T16:55:20Z</time>
      </trkpt>
      <trkpt lat="45.61725" lon="6.08872">
        <ele>995.22117318</ele>
        <time>2016-08-11T16:55:25Z</time>
      </trkpt>
      <trkpt lat="45.61725" lon="6.08872">
        <ele>995.22117318</ele>
        <time>2016-08-11T16:55:35Z</time>
      </trkpt>
      <trkpt lat="45.61725" lon="6.08872">
        <ele>995.22117318</ele>
        <time>2016-08-11T16:55:40Z</time>
      </trkpt>
    </trkseg>
  </trk>
</gpx>